<?xml version='1.0' encoding='UTF-8'?><gpx version="1.1" creator="JPX - https://github.com/jenetics/jpx" xmlns="http://www.topografix.com/GPX/1/1"><trk><trkseg><trkpt lat="44.979243192795366" lon="7.612891597070291"><ele>237.0</ele><time>2026-03-28T09:40:40Z</time></trkpt><trkpt lat="44.97930446014445" lon="7.612965304970864"><ele>237.0</ele><time>2026-03-28T09:40:42Z</time></trkpt><trkpt lat="44.97931713632952" lon="7.613141135784657"><ele>237.0</ele><time>2026-03-28T09:40:44Z</time></trkpt><trkpt lat="44.97932724028378" lon="7.613234713715492"><ele>237.0</ele><time>2026-03-28T09:40:45Z</time></trkpt><trkpt lat="44.979216938372595" lon="7.613338746903656"><ele>237.0</ele><time>2026-03-28T09:40:46Z</time></trkpt><trkpt lat="44.9791355578971" lon="7.6134179856512185"><ele>236.75</ele><time>2026-03-28T09:40:47Z</time></trkpt><trkpt lat="44.979038443480704" lon="7.6134722255232585"><ele>236.5</ele><time>2026-03-28T09:40:48Z</time></trkpt><trkpt lat="44.97892319890824" lon="7.613521270610011"><ele>236.25</ele><time>2026-03-28T09:40:49Z</time></trkpt><trkpt lat="44.978790493719956" lon="7.613575576140852"><ele>236.0</ele><time>2026-03-28T09:40:50Z</time></trkpt><trkpt lat="44.978678576716746" lon="7.613632681388621"><ele>236.5</ele><time>2026-03-28T09:40:51Z</time></trkpt><trkpt lat="44.97857492521499" lon="7.613697456906806"><ele>237.0</ele><time>2026-03-28T09:40:52Z</time></trkpt><trkpt lat="44.978465497415336" lon="7.613763613551258"><ele>237.5</ele><time>2026-03-28T09:40:53Z</time></trkpt><trkpt lat="44.97835731523597" lon="7.613826430839687"><ele>238.0</ele><time>2026-03-28T09:40:54Z</time></trkpt><trkpt lat="44.97825235373896" lon="7.61388483740507"><ele>237.2</ele><time>2026-03-28T09:40:55Z</time></trkpt><trkpt lat="44.97814986599574" lon="7.61394133836241"><ele>236.4</ele><time>2026-03-28T09:40:56Z</time></trkpt><trkpt lat="44.97805130770598" lon="7.613994764870893"><ele>235.59999999999997</ele><time>2026-03-28T09:40:57Z</time></trkpt><trkpt lat="44.97795357442256" lon="7.6140369187974795"><ele>234.79999999999998</ele><time>2026-03-28T09:40:58Z</time></trkpt><trkpt lat="44.9778653944708" lon="7.61408912538477"><ele>234.0</ele><time>2026-03-28T09:40:59Z</time></trkpt><trkpt lat="44.9777634999678" lon="7.61415856258972"><ele>234.0</ele><time>2026-03-28T09:41:00Z</time></trkpt><trkpt lat="44.97764670137638" lon="7.614231974671498"><ele>234.0</ele><time>2026-03-28T09:41:01Z</time></trkpt><trkpt lat="44.97752461022992" lon="7.6143026051863485"><ele>234.0</ele><time>2026-03-28T09:41:02Z</time></trkpt><trkpt lat="44.97739834601067" lon="7.614369046129887"><ele>234.0</ele><time>2026-03-28T09:41:03Z</time></trkpt><trkpt lat="44.97726372557788" lon="7.614444308988487"><ele>234.0</ele><time>2026-03-28T09:41:04Z</time></trkpt><trkpt lat="44.977133546376855" lon="7.614511628725542"><ele>234.0</ele><time>2026-03-28T09:41:05Z</time></trkpt><trkpt lat="44.97700297461628" lon="7.614588433685309"><ele>234.0</ele><time>2026-03-28T09:41:06Z</time></trkpt><trkpt lat="44.97686700981431" lon="7.614666080230431"><ele>234.0</ele><time>2026-03-28T09:41:07Z</time></trkpt><trkpt lat="44.97673250859646" lon="7.6147445322937966"><ele>234.0</ele><time>2026-03-28T09:41:08Z</time></trkpt><trkpt lat="44.97660191566209" lon="7.614831359505115"><ele>234.0</ele><time>2026-03-28T09:41:09Z</time></trkpt><trkpt lat="44.976465510033" lon="7.614891815003171"><ele>234.0</ele><time>2026-03-28T09:41:10Z</time></trkpt><trkpt lat="44.97633280120283" lon="7.614964599082355"><ele>234.0</ele><time>2026-03-28T09:41:11Z</time></trkpt><trkpt lat="44.97619619025069" lon="7.615039482231419"><ele>234.0</ele><time>2026-03-28T09:41:12Z</time></trkpt><trkpt lat="44.97606426258658" lon="7.615111798240329"><ele>234.0</ele><time>2026-03-28T09:41:13Z</time></trkpt><trkpt lat="44.97592479202362" lon="7.615188248882502"><ele>234.0</ele><time>2026-03-28T09:41:14Z</time></trkpt><trkpt lat="44.975785806749336" lon="7.615264433513048"><ele>234.0</ele><time>2026-03-28T09:41:15Z</time></trkpt><trkpt lat="44.975646687424984" lon="7.615340691623409"><ele>234.0</ele><time>2026-03-28T09:41:16Z</time></trkpt><trkpt lat="44.97550723655398" lon="7.615417154065188"><ele>234.0</ele><time>2026-03-28T09:41:17Z</time></trkpt><trkpt lat="44.97537654976251" lon="7.6154890005029765"><ele>234.0</ele><time>2026-03-28T09:41:18Z</time></trkpt><trkpt lat="44.97529125209517" lon="7.615725193900079"><ele>234.0</ele><time>2026-03-28T09:41:19Z</time></trkpt><trkpt lat="44.97517073713632" lon="7.615809973006561"><ele>234.0</ele><time>2026-03-28T09:41:20Z</time></trkpt><trkpt lat="44.9750672247586" lon="7.6159220177838405"><ele>234.0</ele><time>2026-03-28T09:41:21Z</time></trkpt><trkpt lat="44.97497077241314" lon="7.616029154253037"><ele>234.0</ele><time>2026-03-28T09:41:22Z</time></trkpt><trkpt lat="44.97488080640245" lon="7.616146174077641"><ele>234.66666666666669</ele><time>2026-03-28T09:41:23Z</time></trkpt><trkpt lat="44.97479208529275" lon="7.616264079911876"><ele>235.33333333333334</ele><time>2026-03-28T09:41:24Z</time></trkpt><trkpt lat="44.97456553656803" lon="7.615938201611972"><ele>236.0</ele><time>2026-03-28T09:41:25Z</time></trkpt><trkpt lat="44.97443492198623" lon="7.616010707677658"><ele>236.0</ele><time>2026-03-28T09:41:26Z</time></trkpt><trkpt lat="44.97429511842252" lon="7.616087931630402"><ele>236.0</ele><time>2026-03-28T09:41:27Z</time></trkpt><trkpt lat="44.97415327926871" lon="7.616165947682065"><ele>236.0</ele><time>2026-03-28T09:41:28Z</time></trkpt><trkpt lat="44.974014886567204" lon="7.616242068081168"><ele>236.75</ele><time>2026-03-28T09:41:29Z</time></trkpt><trkpt lat="44.97387905713531" lon="7.616316797493688"><ele>237.5</ele><time>2026-03-28T09:41:30Z</time></trkpt><trkpt lat="44.97374374635289" lon="7.616391346839854"><ele>238.25</ele><time>2026-03-28T09:41:31Z</time></trkpt><trkpt lat="44.973610980172474" lon="7.616464525948023"><ele>239.0</ele><time>2026-03-28T09:41:32Z</time></trkpt><trkpt lat="44.97348358292507" lon="7.616534847410473"><ele>239.00000000000003</ele><time>2026-03-28T09:41:33Z</time></trkpt><trkpt lat="44.973378041047674" lon="7.616593104961694"><ele>239.0</ele><time>2026-03-28T09:41:34Z</time></trkpt><trkpt lat="44.9733175944652" lon="7.616716294928112"><ele>239.0</ele><time>2026-03-28T09:41:35Z</time></trkpt><trkpt lat="44.97323805747939" lon="7.616713612454633"><ele>239.0</ele><time>2026-03-28T09:41:36Z</time></trkpt><trkpt lat="44.973171979019405" lon="7.616691331171912"><ele>239.00000000000003</ele><time>2026-03-28T09:41:37Z</time></trkpt><trkpt lat="44.973102483991006" lon="7.616652140020247"><ele>239.0</ele><time>2026-03-28T09:41:38Z</time></trkpt><trkpt lat="44.973027979617754" lon="7.616627481106792"><ele>238.66666666666669</ele><time>2026-03-28T09:41:39Z</time></trkpt><trkpt lat="44.97294550546761" lon="7.6166172195201405"><ele>238.33333333333334</ele><time>2026-03-28T09:41:40Z</time></trkpt><trkpt lat="44.97287995372159" lon="7.616749520059617"><ele>238.0</ele><time>2026-03-28T09:41:41Z</time></trkpt><trkpt lat="44.97282835269078" lon="7.616843510764738"><ele>237.66666666666669</ele><time>2026-03-28T09:41:42Z</time></trkpt><trkpt lat="44.972780913930336" lon="7.616927183583589"><ele>237.33333333333334</ele><time>2026-03-28T09:41:43Z</time></trkpt><trkpt lat="44.972717504630836" lon="7.617015229884496"><ele>237.0</ele><time>2026-03-28T09:41:44Z</time></trkpt><trkpt lat="44.972619497249354" lon="7.617044797058108"><ele>236.8</ele><time>2026-03-28T09:41:45Z</time></trkpt><trkpt lat="44.97252809546723" lon="7.617089132985725"><ele>236.6</ele><time>2026-03-28T09:41:46Z</time></trkpt><trkpt lat="44.97243140368393" lon="7.617135714450949"><ele>236.40000000000003</ele><time>2026-03-28T09:41:47Z</time></trkpt><trkpt lat="44.97234346555716" lon="7.617188971648699"><ele>236.20000000000002</ele><time>2026-03-28T09:41:48Z</time></trkpt><trkpt lat="44.972246778998645" lon="7.617235811368462"><ele>236.0</ele><time>2026-03-28T09:41:49Z</time></trkpt><trkpt lat="44.972158745448475" lon="7.617287909623414"><ele>236.50000000000003</ele><time>2026-03-28T09:41:50Z</time></trkpt><trkpt lat="44.972065755521264" lon="7.6173301491258885"><ele>237.0</ele><time>2026-03-28T09:41:51Z</time></trkpt><trkpt lat="44.97198554758053" lon="7.617379445173122"><ele>237.5</ele><time>2026-03-28T09:41:52Z</time></trkpt><trkpt lat="44.971916597880806" lon="7.617416182431911"><ele>238.0</ele><time>2026-03-28T09:41:53Z</time></trkpt><trkpt lat="44.971854733827094" lon="7.6174494441245795"><ele>238.50000000000003</ele><time>2026-03-28T09:41:54Z</time></trkpt><trkpt lat="44.97178910557504" lon="7.617481645740237"><ele>239.0</ele><time>2026-03-28T09:41:55Z</time></trkpt><trkpt lat="44.97172272460317" lon="7.617507862217514"><ele>238.39999999999998</ele><time>2026-03-28T09:41:56Z</time></trkpt><trkpt lat="44.97165889857907" lon="7.617517153172036"><ele>237.79999999999998</ele><time>2026-03-28T09:41:57Z</time></trkpt><trkpt lat="44.971550091064685" lon="7.6174952949200305"><ele>237.20000000000002</ele><time>2026-03-28T09:41:59Z</time></trkpt><trkpt lat="44.97142268156452" lon="7.617462053940699"><ele>236.60000000000002</ele><time>2026-03-28T09:42:01Z</time></trkpt><trkpt lat="44.97129807191566" lon="7.617485710508234"><ele>236.0</ele><time>2026-03-28T09:42:03Z</time></trkpt><trkpt lat="44.97123155582155" lon="7.6174871229133165"><ele>236.0</ele><time>2026-03-28T09:42:04Z</time></trkpt><trkpt lat="44.97120152977181" lon="7.617604729602515"><ele>236.00000000000003</ele><time>2026-03-28T09:42:05Z</time></trkpt><trkpt lat="44.97115626456466" lon="7.617750115375893"><ele>236.00000000000003</ele><time>2026-03-28T09:42:07Z</time></trkpt><trkpt lat="44.97108840250294" lon="7.617878700068798"><ele>236.0</ele><time>2026-03-28T09:42:09Z</time></trkpt><trkpt lat="44.97103205745347" lon="7.617927289225147"><ele>236.0</ele><time>2026-03-28T09:42:10Z</time></trkpt><trkpt lat="44.97096389765301" lon="7.61796846806783"><ele>236.0</ele><time>2026-03-28T09:42:11Z</time></trkpt><trkpt lat="44.97088101278254" lon="7.6180140048912515"><ele>236.0</ele><time>2026-03-28T09:42:12Z</time></trkpt><trkpt lat="44.970781885812364" lon="7.618071556454336"><ele>236.0</ele><time>2026-03-28T09:42:13Z</time></trkpt><trkpt lat="44.9706647422082" lon="7.618134137913813"><ele>236.0</ele><time>2026-03-28T09:42:14Z</time></trkpt><trkpt lat="44.97053913216843" lon="7.618193392800787"><ele>236.0</ele><time>2026-03-28T09:42:15Z</time></trkpt><trkpt lat="44.97042633671515" lon="7.618255243907362"><ele>236.0</ele><time>2026-03-28T09:42:16Z</time></trkpt><trkpt lat="44.970309242993146" lon="7.618323196493983"><ele>236.0</ele><time>2026-03-28T09:42:17Z</time></trkpt><trkpt lat="44.97018555879369" lon="7.618389765819326"><ele>236.0</ele><time>2026-03-28T09:42:18Z</time></trkpt><trkpt lat="44.970060279550864" lon="7.618458582317224"><ele>236.0</ele><time>2026-03-28T09:42:19Z</time></trkpt><trkpt lat="44.96992597427457" lon="7.618531263121826"><ele>236.0</ele><time>2026-03-28T09:42:20Z</time></trkpt><trkpt lat="44.969779232911" lon="7.618612306258102"><ele>236.0</ele><time>2026-03-28T09:42:21Z</time></trkpt><trkpt lat="44.96961541159426" lon="7.61869590222772"><ele>236.0</ele><time>2026-03-28T09:42:22Z</time></trkpt><trkpt lat="44.969445433063704" lon="7.618782764242485"><ele>236.0</ele><time>2026-03-28T09:42:23Z</time></trkpt><trkpt lat="44.96928897000101" lon="7.618865203948979"><ele>236.0</ele><time>2026-03-28T09:42:24Z</time></trkpt><trkpt lat="44.969130361593145" lon="7.618953086136119"><ele>236.0</ele><time>2026-03-28T09:42:25Z</time></trkpt><trkpt lat="44.96897474118196" lon="7.619043677600948"><ele>236.0</ele><time>2026-03-28T09:42:26Z</time></trkpt><trkpt lat="44.968814615200934" lon="7.619134610750317"><ele>236.0</ele><time>2026-03-28T09:42:27Z</time></trkpt><trkpt lat="44.96865403292775" lon="7.619217608159491"><ele>236.0</ele><time>2026-03-28T09:42:28Z</time></trkpt><trkpt lat="44.96849827452852" lon="7.619301252239652"><ele>236.0</ele><time>2026-03-28T09:42:29Z</time></trkpt><trkpt lat="44.968345678191284" lon="7.619384920059875"><ele>236.0</ele><time>2026-03-28T09:42:30Z</time></trkpt><trkpt lat="44.968191148449435" lon="7.619470721331773"><ele>235.66666666666669</ele><time>2026-03-28T09:42:31Z</time></trkpt><trkpt lat="44.96803424993222" lon="7.619557743003219"><ele>235.33333333333331</ele><time>2026-03-28T09:42:32Z</time></trkpt><trkpt lat="44.96787842361254" lon="7.619644207106165"><ele>235.0</ele><time>2026-03-28T09:42:33Z</time></trkpt><trkpt lat="44.96771781991296" lon="7.619728057431137"><ele>235.0</ele><time>2026-03-28T09:42:34Z</time></trkpt><trkpt lat="44.96756103737351" lon="7.619814484123653"><ele>235.0</ele><time>2026-03-28T09:42:35Z</time></trkpt><trkpt lat="44.9674021964124" lon="7.619898400696504"><ele>235.0</ele><time>2026-03-28T09:42:36Z</time></trkpt><trkpt lat="44.96724198549475" lon="7.619984738662977"><ele>234.66666666666666</ele><time>2026-03-28T09:42:37Z</time></trkpt><trkpt lat="44.96708039230576" lon="7.620076552729941"><ele>234.33333333333331</ele><time>2026-03-28T09:42:38Z</time></trkpt><trkpt lat="44.96691759929414" lon="7.620163180473145"><ele>234.0</ele><time>2026-03-28T09:42:39Z</time></trkpt><trkpt lat="44.96675221282951" lon="7.620254027517926"><ele>233.33333333333331</ele><time>2026-03-28T09:42:40Z</time></trkpt><trkpt lat="44.96658690899002" lon="7.620342010221345"><ele>232.66666666666666</ele><time>2026-03-28T09:42:41Z</time></trkpt><trkpt lat="44.966420219650125" lon="7.620431917543182"><ele>232.0</ele><time>2026-03-28T09:42:42Z</time></trkpt><trkpt lat="44.96625339365318" lon="7.6205219879235875"><ele>232.0</ele><time>2026-03-28T09:42:43Z</time></trkpt><trkpt lat="44.96608341215491" lon="7.620614358075387"><ele>232.0</ele><time>2026-03-28T09:42:44Z</time></trkpt><trkpt lat="44.965912002966185" lon="7.620709573074818"><ele>232.0</ele><time>2026-03-28T09:42:45Z</time></trkpt><trkpt lat="44.965743983777095" lon="7.620806691241703"><ele>232.33333333333331</ele><time>2026-03-28T09:42:46Z</time></trkpt><trkpt lat="44.965574153903944" lon="7.6208943971898275"><ele>232.66666666666669</ele><time>2026-03-28T09:42:47Z</time></trkpt><trkpt lat="44.96540937358783" lon="7.620983953855067"><ele>233.0</ele><time>2026-03-28T09:42:48Z</time></trkpt><trkpt lat="44.96524219833545" lon="7.621070782425553"><ele>232.66666666666669</ele><time>2026-03-28T09:42:49Z</time></trkpt><trkpt lat="44.96507717356168" lon="7.621161341453295"><ele>232.33333333333331</ele><time>2026-03-28T09:42:50Z</time></trkpt><trkpt lat="44.96491319437048" lon="7.621252485419253"><ele>232.0</ele><time>2026-03-28T09:42:51Z</time></trkpt><trkpt lat="44.96474923829954" lon="7.621340934699553"><ele>232.0</ele><time>2026-03-28T09:42:52Z</time></trkpt><trkpt lat="44.964582182226465" lon="7.621431360205024"><ele>232.0</ele><time>2026-03-28T09:42:53Z</time></trkpt><trkpt lat="44.96441771366652" lon="7.621521681744287"><ele>232.0</ele><time>2026-03-28T09:42:54Z</time></trkpt><trkpt lat="44.964250723259504" lon="7.621614182087907"><ele>233.66666666666666</ele><time>2026-03-28T09:42:55Z</time></trkpt><trkpt lat="44.964082709691475" lon="7.621705167457857"><ele>235.33333333333331</ele><time>2026-03-28T09:42:56Z</time></trkpt><trkpt lat="44.96391267477457" lon="7.6217964992355025"><ele>237.0</ele><time>2026-03-28T09:42:57Z</time></trkpt><trkpt lat="44.96373944843336" lon="7.621890038503449"><ele>236.66666666666669</ele><time>2026-03-28T09:42:58Z</time></trkpt><trkpt lat="44.96356972022523" lon="7.6219857819884895"><ele>236.33333333333334</ele><time>2026-03-28T09:42:59Z</time></trkpt><trkpt lat="44.96339642806423" lon="7.622080189642861"><ele>236.0</ele><time>2026-03-28T09:43:00Z</time></trkpt><trkpt lat="44.96322017666471" lon="7.622178423764389"><ele>235.33333333333334</ele><time>2026-03-28T09:43:01Z</time></trkpt><trkpt lat="44.96304148250652" lon="7.622273356875242"><ele>234.66666666666669</ele><time>2026-03-28T09:43:02Z</time></trkpt><trkpt lat="44.96286618677305" lon="7.6223706919453775"><ele>234.0</ele><time>2026-03-28T09:43:03Z</time></trkpt><trkpt lat="44.962699472404694" lon="7.622460535277438"><ele>234.0</ele><time>2026-03-28T09:43:04Z</time></trkpt><trkpt lat="44.962547458895656" lon="7.62254572718187"><ele>234.0</ele><time>2026-03-28T09:43:05Z</time></trkpt><trkpt lat="44.96240793918654" lon="7.62262773366141"><ele>234.0</ele><time>2026-03-28T09:43:06Z</time></trkpt><trkpt lat="44.962282953647104" lon="7.62270816721695"><ele>234.0</ele><time>2026-03-28T09:43:07Z</time></trkpt><trkpt lat="44.962168369257846" lon="7.6227923749449555"><ele>233.99999999999997</ele><time>2026-03-28T09:43:08Z</time></trkpt><trkpt lat="44.96207653516755" lon="7.6228885848694725"><ele>233.99999999999997</ele><time>2026-03-28T09:43:09Z</time></trkpt><trkpt lat="44.961995720573384" lon="7.622974113358387"><ele>234.0</ele><time>2026-03-28T09:43:10Z</time></trkpt><trkpt lat="44.96191137662989" lon="7.62302932920154"><ele>234.0</ele><time>2026-03-28T09:43:11Z</time></trkpt><trkpt lat="44.961829967162586" lon="7.623057031721627"><ele>234.0</ele><time>2026-03-28T09:43:12Z</time></trkpt><trkpt lat="44.96175148845784" lon="7.623051823864332"><ele>233.99999999999997</ele><time>2026-03-28T09:43:13Z</time></trkpt><trkpt lat="44.96166648702384" lon="7.623044803569102"><ele>233.99999999999997</ele><time>2026-03-28T09:43:14Z</time></trkpt><trkpt lat="44.961568085986094" lon="7.623082277672859"><ele>234.0</ele><time>2026-03-28T09:43:15Z</time></trkpt><trkpt lat="44.961490565180235" lon="7.623161352726034"><ele>234.0</ele><time>2026-03-28T09:43:16Z</time></trkpt><trkpt lat="44.96139593894068" lon="7.623211339628841"><ele>233.75</ele><time>2026-03-28T09:43:17Z</time></trkpt><trkpt lat="44.96128466946978" lon="7.623277462547726"><ele>233.5</ele><time>2026-03-28T09:43:18Z</time></trkpt><trkpt lat="44.96115390525114" lon="7.623330014878658"><ele>233.25</ele><time>2026-03-28T09:43:19Z</time></trkpt><trkpt lat="44.96101873136851" lon="7.623398517089528"><ele>233.0</ele><time>2026-03-28T09:43:20Z</time></trkpt><trkpt lat="44.96089773924203" lon="7.623464793686813"><ele>233.0</ele><time>2026-03-28T09:43:21Z</time></trkpt><trkpt lat="44.96076934894308" lon="7.623524506887035"><ele>233.0</ele><time>2026-03-28T09:43:22Z</time></trkpt><trkpt lat="44.96064098687309" lon="7.623598494742456"><ele>233.0</ele><time>2026-03-28T09:43:23Z</time></trkpt><trkpt lat="44.960510615459796" lon="7.623669257700829"><ele>233.0</ele><time>2026-03-28T09:43:24Z</time></trkpt><trkpt lat="44.960374419476146" lon="7.623743284233315"><ele>232.0</ele><time>2026-03-28T09:43:25Z</time></trkpt><trkpt lat="44.96022792916134" lon="7.623820969266935"><ele>231.0</ele><time>2026-03-28T09:43:26Z</time></trkpt><trkpt lat="44.96007408477887" lon="7.623906993870201"><ele>230.0</ele><time>2026-03-28T09:43:27Z</time></trkpt><trkpt lat="44.95991940233611" lon="7.623992319560606"><ele>230.0</ele><time>2026-03-28T09:43:28Z</time></trkpt><trkpt lat="44.959763494310955" lon="7.624074560264292"><ele>230.0</ele><time>2026-03-28T09:43:29Z</time></trkpt><trkpt lat="44.95960655869252" lon="7.624159494206529"><ele>230.0</ele><time>2026-03-28T09:43:30Z</time></trkpt><trkpt lat="44.95944929975668" lon="7.624247453768169"><ele>230.0</ele><time>2026-03-28T09:43:31Z</time></trkpt><trkpt lat="44.959297037557185" lon="7.624329721402907"><ele>230.0</ele><time>2026-03-28T09:43:32Z</time></trkpt><trkpt lat="44.95914645089486" lon="7.624412846796301"><ele>230.0</ele><time>2026-03-28T09:43:33Z</time></trkpt><trkpt lat="44.95899686053534" lon="7.624499210093411"><ele>230.33333333333334</ele><time>2026-03-28T09:43:34Z</time></trkpt><trkpt lat="44.95884808980701" lon="7.624579932037611"><ele>230.66666666666669</ele><time>2026-03-28T09:43:35Z</time></trkpt><trkpt lat="44.95869551188735" lon="7.624661685244657"><ele>231.0</ele><time>2026-03-28T09:43:36Z</time></trkpt><trkpt lat="44.95853369894902" lon="7.624748670266923"><ele>230.66666666666669</ele><time>2026-03-28T09:43:37Z</time></trkpt><trkpt lat="44.95836427903496" lon="7.624844105772897"><ele>230.33333333333334</ele><time>2026-03-28T09:43:38Z</time></trkpt><trkpt lat="44.95819590602527" lon="7.624937903045246"><ele>230.0</ele><time>2026-03-28T09:43:39Z</time></trkpt><trkpt lat="44.95803256419688" lon="7.625026282777896"><ele>230.0</ele><time>2026-03-28T09:43:40Z</time></trkpt><trkpt lat="44.957874378833026" lon="7.625109958186827"><ele>230.0</ele><time>2026-03-28T09:43:41Z</time></trkpt><trkpt lat="44.95773186243718" lon="7.62518651274112"><ele>230.0</ele><time>2026-03-28T09:43:42Z</time></trkpt><trkpt lat="44.95760296289873" lon="7.625262600489375"><ele>230.2</ele><time>2026-03-28T09:43:43Z</time></trkpt><trkpt lat="44.957488628274405" lon="7.6253273984932255"><ele>230.4</ele><time>2026-03-28T09:43:44Z</time></trkpt><trkpt lat="44.9573854946948" lon="7.625357409021804"><ele>230.60000000000002</ele><time>2026-03-28T09:43:45Z</time></trkpt><trkpt lat="44.9573014417901" lon="7.625363683751936"><ele>230.8</ele><time>2026-03-28T09:43:46Z</time></trkpt><trkpt lat="44.957218091595685" lon="7.625388564796597"><ele>231.0</ele><time>2026-03-28T09:43:47Z</time></trkpt><trkpt lat="44.95713764194559" lon="7.62543917573612"><ele>231.0</ele><time>2026-03-28T09:43:48Z</time></trkpt><trkpt lat="44.95706947767023" lon="7.625523524645274"><ele>231.00000000000003</ele><time>2026-03-28T09:43:49Z</time></trkpt><trkpt lat="44.95699299811886" lon="7.625601512957304"><ele>231.00000000000003</ele><time>2026-03-28T09:43:50Z</time></trkpt><trkpt lat="44.9568943055049" lon="7.62566128308492"><ele>231.0</ele><time>2026-03-28T09:43:51Z</time></trkpt><trkpt lat="44.95678559036296" lon="7.625695492161749"><ele>231.0</ele><time>2026-03-28T09:43:52Z</time></trkpt><trkpt lat="44.95668092305512" lon="7.6257679617443985"><ele>231.5</ele><time>2026-03-28T09:43:53Z</time></trkpt><trkpt lat="44.956578886395086" lon="7.62582351305785"><ele>232.0</ele><time>2026-03-28T09:43:54Z</time></trkpt><trkpt lat="44.956468439272996" lon="7.625886488686904"><ele>232.5</ele><time>2026-03-28T09:43:55Z</time></trkpt><trkpt lat="44.95633988146232" lon="7.625936837860502"><ele>233.0</ele><time>2026-03-28T09:43:56Z</time></trkpt><trkpt lat="44.956211819217536" lon="7.626029465367103"><ele>233.0</ele><time>2026-03-28T09:43:57Z</time></trkpt><trkpt lat="44.9560706613886" lon="7.6261021154996245"><ele>233.0</ele><time>2026-03-28T09:43:58Z</time></trkpt><trkpt lat="44.95592462145393" lon="7.626161155917183"><ele>233.0</ele><time>2026-03-28T09:43:59Z</time></trkpt><trkpt lat="44.95578156605688" lon="7.626259013721681"><ele>232.66666666666669</ele><time>2026-03-28T09:44:00Z</time></trkpt><trkpt lat="44.95563039098334" lon="7.626337683651945"><ele>232.33333333333331</ele><time>2026-03-28T09:44:01Z</time></trkpt><trkpt lat="44.955475839543894" lon="7.626422624700592"><ele>232.0</ele><time>2026-03-28T09:44:02Z</time></trkpt><trkpt lat="44.955327487063236" lon="7.626505982345832"><ele>232.0</ele><time>2026-03-28T09:44:03Z</time></trkpt><trkpt lat="44.95518629122077" lon="7.626577928014897"><ele>232.0</ele><time>2026-03-28T09:44:04Z</time></trkpt><trkpt lat="44.95504187865683" lon="7.626656257895337"><ele>232.0</ele><time>2026-03-28T09:44:05Z</time></trkpt><trkpt lat="44.954895195195974" lon="7.626737253433961"><ele>232.0</ele><time>2026-03-28T09:44:06Z</time></trkpt><trkpt lat="44.954751761943" lon="7.626817366617567"><ele>232.0</ele><time>2026-03-28T09:44:07Z</time></trkpt><trkpt lat="44.95460946834987" lon="7.626895433680476"><ele>232.0</ele><time>2026-03-28T09:44:08Z</time></trkpt><trkpt lat="44.954467312281345" lon="7.626967839334286"><ele>231.75</ele><time>2026-03-28T09:44:09Z</time></trkpt><trkpt lat="44.95432809492856" lon="7.6270468747930495"><ele>231.5</ele><time>2026-03-28T09:44:10Z</time></trkpt><trkpt lat="44.95418752418975" lon="7.627129665093596"><ele>231.25</ele><time>2026-03-28T09:44:11Z</time></trkpt><trkpt lat="44.954055294483716" lon="7.627205428135051"><ele>231.0</ele><time>2026-03-28T09:44:12Z</time></trkpt><trkpt lat="44.95393639175686" lon="7.62727080696721"><ele>231.0</ele><time>2026-03-28T09:44:13Z</time></trkpt><trkpt lat="44.95383801512856" lon="7.6273192234880165"><ele>231.0</ele><time>2026-03-28T09:44:14Z</time></trkpt><trkpt lat="44.9537620749744" lon="7.627364362068952"><ele>231.0</ele><time>2026-03-28T09:44:15Z</time></trkpt><trkpt lat="44.953685240904626" lon="7.627403497636191"><ele>231.0</ele><time>2026-03-28T09:44:16Z</time></trkpt><trkpt lat="44.95359975147364" lon="7.627423475809098"><ele>231.0</ele><time>2026-03-28T09:44:17Z</time></trkpt><trkpt lat="44.9535132356837" lon="7.627437027911338"><ele>231.0</ele><time>2026-03-28T09:44:18Z</time></trkpt><trkpt lat="44.95342174839458" lon="7.627486037711704"><ele>231.20000000000002</ele><time>2026-03-28T09:44:19Z</time></trkpt><trkpt lat="44.953329219833805" lon="7.627555315903147"><ele>231.40000000000003</ele><time>2026-03-28T09:44:20Z</time></trkpt><trkpt lat="44.95323199780772" lon="7.627620453306331"><ele>231.6</ele><time>2026-03-28T09:44:21Z</time></trkpt><trkpt lat="44.95313113517983" lon="7.627679242280492"><ele>231.8</ele><time>2026-03-28T09:44:22Z</time></trkpt><trkpt lat="44.95302431022466" lon="7.62774067110265"><ele>232.0</ele><time>2026-03-28T09:44:23Z</time></trkpt><trkpt lat="44.95290856003328" lon="7.627799321725199"><ele>231.5</ele><time>2026-03-28T09:44:24Z</time></trkpt><trkpt lat="44.952790704297264" lon="7.627859907962124"><ele>231.0</ele><time>2026-03-28T09:44:25Z</time></trkpt><trkpt lat="44.952670817983325" lon="7.6279201611726775"><ele>230.5</ele><time>2026-03-28T09:44:26Z</time></trkpt><trkpt lat="44.95255408452685" lon="7.627982723978658"><ele>230.0</ele><time>2026-03-28T09:44:27Z</time></trkpt><trkpt lat="44.95244187013789" lon="7.628043302867578"><ele>229.6</ele><time>2026-03-28T09:44:28Z</time></trkpt><trkpt lat="44.95233579902982" lon="7.628099389853012"><ele>229.2</ele><time>2026-03-28T09:44:29Z</time></trkpt><trkpt lat="44.952239142254264" lon="7.62815741515553"><ele>228.8</ele><time>2026-03-28T09:44:30Z</time></trkpt><trkpt lat="44.95215771602115" lon="7.628226109792857"><ele>228.4</ele><time>2026-03-28T09:44:31Z</time></trkpt><trkpt lat="44.95208682258357" lon="7.6283075645819185"><ele>228.0</ele><time>2026-03-28T09:44:32Z</time></trkpt><trkpt lat="44.95201798615732" lon="7.628376135213697"><ele>228.0</ele><time>2026-03-28T09:44:33Z</time></trkpt><trkpt lat="44.9519341365826" lon="7.628427675873656"><ele>228.0</ele><time>2026-03-28T09:44:34Z</time></trkpt><trkpt lat="44.95183553430223" lon="7.6284757496898115"><ele>228.0</ele><time>2026-03-28T09:44:35Z</time></trkpt><trkpt lat="44.95172424727715" lon="7.628507911138875"><ele>228.0</ele><time>2026-03-28T09:44:36Z</time></trkpt><trkpt lat="44.951603159620056" lon="7.628530283390284"><ele>228.0</ele><time>2026-03-28T09:44:37Z</time></trkpt><trkpt lat="44.9514753199677" lon="7.628552354735638"><ele>228.0</ele><time>2026-03-28T09:44:38Z</time></trkpt><trkpt lat="44.951348920851586" lon="7.628619200440992"><ele>228.0</ele><time>2026-03-28T09:44:39Z</time></trkpt><trkpt lat="44.95122442056799" lon="7.628683672804383"><ele>228.0</ele><time>2026-03-28T09:44:40Z</time></trkpt><trkpt lat="44.95111052858348" lon="7.628756714697106"><ele>228.0</ele><time>2026-03-28T09:44:41Z</time></trkpt><trkpt lat="44.95100431121206" lon="7.628841016451289"><ele>228.75</ele><time>2026-03-28T09:44:42Z</time></trkpt><trkpt lat="44.950874581646765" lon="7.628922262245535"><ele>229.5</ele><time>2026-03-28T09:44:43Z</time></trkpt><trkpt lat="44.95075074187139" lon="7.629003964043324"><ele>230.25</ele><time>2026-03-28T09:44:44Z</time></trkpt><trkpt lat="44.95063126643781" lon="7.629052166135537"><ele>231.0</ele><time>2026-03-28T09:44:45Z</time></trkpt><trkpt lat="44.950529035933926" lon="7.629108297544487"><ele>231.4</ele><time>2026-03-28T09:44:46Z</time></trkpt><trkpt lat="44.950442084057926" lon="7.629172728446088"><ele>231.8</ele><time>2026-03-28T09:44:48Z</time></trkpt><trkpt lat="44.95036250715766" lon="7.629219614077592"><ele>232.20000000000002</ele><time>2026-03-28T09:44:51Z</time></trkpt><trkpt lat="44.95024133395454" lon="7.629285957723389"><ele>232.60000000000002</ele><time>2026-03-28T09:44:53Z</time></trkpt><trkpt lat="44.95015896378137" lon="7.629311476618083"><ele>233.0</ele><time>2026-03-28T09:44:54Z</time></trkpt><trkpt lat="44.950084724038696" lon="7.629352233727051"><ele>233.2</ele><time>2026-03-28T09:44:55Z</time></trkpt><trkpt lat="44.950000829381715" lon="7.6293982818827555"><ele>233.4</ele><time>2026-03-28T09:44:56Z</time></trkpt><trkpt lat="44.94990951795358" lon="7.629448576742887"><ele>233.59999999999997</ele><time>2026-03-28T09:44:57Z</time></trkpt><trkpt lat="44.94980886026294" lon="7.629506272075895"><ele>233.79999999999998</ele><time>2026-03-28T09:44:58Z</time></trkpt><trkpt lat="44.94969786285806" lon="7.629571172593436"><ele>234.0</ele><time>2026-03-28T09:44:59Z</time></trkpt><trkpt lat="44.9495915430344" lon="7.629624640655311"><ele>234.0</ele><time>2026-03-28T09:45:00Z</time></trkpt><trkpt lat="44.94951910640757" lon="7.6296600915730215"><ele>234.0</ele><time>2026-03-28T09:45:01Z</time></trkpt><trkpt lat="44.949458233192814" lon="7.629692712012529"><ele>234.0</ele><time>2026-03-28T09:45:02Z</time></trkpt><trkpt lat="44.949333407208066" lon="7.6297547801182715"><ele>234.0</ele><time>2026-03-28T09:45:04Z</time></trkpt><trkpt lat="44.94925841333535" lon="7.629789304465077"><ele>234.0</ele><time>2026-03-28T09:45:05Z</time></trkpt><trkpt lat="44.94918057199504" lon="7.62983240287065"><ele>234.0</ele><time>2026-03-28T09:45:06Z</time></trkpt><trkpt lat="44.94910489950009" lon="7.629873849747076"><ele>234.39999999999998</ele><time>2026-03-28T09:45:07Z</time></trkpt><trkpt lat="44.94902343448228" lon="7.629912245886759"><ele>234.79999999999998</ele><time>2026-03-28T09:45:08Z</time></trkpt><trkpt lat="44.9489407950067" lon="7.629956055602621"><ele>235.20000000000002</ele><time>2026-03-28T09:45:09Z</time></trkpt><trkpt lat="44.948854040545136" lon="7.630000650017419"><ele>235.60000000000002</ele><time>2026-03-28T09:45:10Z</time></trkpt><trkpt lat="44.94876690748588" lon="7.630042068453348"><ele>236.0</ele><time>2026-03-28T09:45:11Z</time></trkpt><trkpt lat="44.948676829814424" lon="7.63008620541818"><ele>236.0</ele><time>2026-03-28T09:45:12Z</time></trkpt><trkpt lat="44.948588041741914" lon="7.630130940506191"><ele>236.00000000000003</ele><time>2026-03-28T09:45:13Z</time></trkpt><trkpt lat="44.9484950923771" lon="7.630159668872587"><ele>236.00000000000003</ele><time>2026-03-28T09:45:14Z</time></trkpt><trkpt lat="44.9483992255934" lon="7.630156267144224"><ele>236.0</ele><time>2026-03-28T09:45:15Z</time></trkpt><trkpt lat="44.948301065210316" lon="7.630139354920972"><ele>236.0</ele><time>2026-03-28T09:45:16Z</time></trkpt><trkpt lat="44.94820110557401" lon="7.630108460539937"><ele>235.0</ele><time>2026-03-28T09:45:17Z</time></trkpt><trkpt lat="44.94810633082294" lon="7.63006959447461"><ele>234.00000000000003</ele><time>2026-03-28T09:45:18Z</time></trkpt><trkpt lat="44.94801522915784" lon="7.63002506311629"><ele>233.00000000000003</ele><time>2026-03-28T09:45:19Z</time></trkpt><trkpt lat="44.94792814366601" lon="7.629978763277731"><ele>232.0</ele><time>2026-03-28T09:45:20Z</time></trkpt><trkpt lat="44.94784215546335" lon="7.629928762458149"><ele>231.0</ele><time>2026-03-28T09:45:21Z</time></trkpt><trkpt lat="44.94775025362709" lon="7.6298771271299906"><ele>231.0</ele><time>2026-03-28T09:45:22Z</time></trkpt><trkpt lat="44.947657129425416" lon="7.629829214765505"><ele>231.00000000000003</ele><time>2026-03-28T09:45:23Z</time></trkpt><trkpt lat="44.947568403934774" lon="7.629780170597508"><ele>231.00000000000003</ele><time>2026-03-28T09:45:24Z</time></trkpt><trkpt lat="44.94748241304675" lon="7.629735310271069"><ele>231.0</ele><time>2026-03-28T09:45:25Z</time></trkpt><trkpt lat="44.947398770206185" lon="7.6296935128165355"><ele>231.0</ele><time>2026-03-28T09:45:26Z</time></trkpt><trkpt lat="44.947319495894696" lon="7.629651816311869"><ele>231.0</ele><time>2026-03-28T09:45:27Z</time></trkpt><trkpt lat="44.947248190005446" lon="7.62960691093735"><ele>231.0</ele><time>2026-03-28T09:45:28Z</time></trkpt><trkpt lat="44.947179093711696" lon="7.629561172006694"><ele>231.0</ele><time>2026-03-28T09:45:29Z</time></trkpt><trkpt lat="44.947110176890085" lon="7.629506062266588"><ele>231.0</ele><time>2026-03-28T09:45:30Z</time></trkpt><trkpt lat="44.94704087017056" lon="7.629456598144321"><ele>231.0</ele><time>2026-03-28T09:45:31Z</time></trkpt><trkpt lat="44.94695685315494" lon="7.629428536307694"><ele>231.0</ele><time>2026-03-28T09:45:32Z</time></trkpt><trkpt lat="44.94686125371052" lon="7.629397731033281"><ele>231.0</ele><time>2026-03-28T09:45:33Z</time></trkpt><trkpt lat="44.946769059236104" lon="7.629361666142147"><ele>231.00000000000003</ele><time>2026-03-28T09:45:34Z</time></trkpt><trkpt lat="44.94667589548068" lon="7.629308767146349"><ele>231.00000000000003</ele><time>2026-03-28T09:45:35Z</time></trkpt><trkpt lat="44.946576666072374" lon="7.629256332425899"><ele>231.0</ele><time>2026-03-28T09:45:36Z</time></trkpt><trkpt lat="44.94646588994788" lon="7.629204046396266"><ele>231.0</ele><time>2026-03-28T09:45:37Z</time></trkpt><trkpt lat="44.94636166649571" lon="7.629148385911868"><ele>231.5</ele><time>2026-03-28T09:45:38Z</time></trkpt><trkpt lat="44.946257485835005" lon="7.629092294513447"><ele>232.0</ele><time>2026-03-28T09:45:39Z</time></trkpt><trkpt lat="44.94615419297578" lon="7.629036413557835"><ele>232.5</ele><time>2026-03-28T09:45:40Z</time></trkpt><trkpt lat="44.946045162919376" lon="7.628981097357299"><ele>233.0</ele><time>2026-03-28T09:45:41Z</time></trkpt><trkpt lat="44.94593500448102" lon="7.628924860583968"><ele>233.2</ele><time>2026-03-28T09:45:42Z</time></trkpt><trkpt lat="44.94582874785551" lon="7.628868396474593"><ele>233.4</ele><time>2026-03-28T09:45:43Z</time></trkpt><trkpt lat="44.945726719231885" lon="7.628811776038848"><ele>233.59999999999997</ele><time>2026-03-28T09:45:44Z</time></trkpt><trkpt lat="44.945631739672095" lon="7.628755597111148"><ele>233.79999999999998</ele><time>2026-03-28T09:45:45Z</time></trkpt><trkpt lat="44.945536671009464" lon="7.6286909879864195"><ele>234.0</ele><time>2026-03-28T09:45:46Z</time></trkpt><trkpt lat="44.945440081685135" lon="7.628619170091581"><ele>234.0</ele><time>2026-03-28T09:45:47Z</time></trkpt><trkpt lat="44.945339666556585" lon="7.6285400058276025"><ele>234.0</ele><time>2026-03-28T09:45:48Z</time></trkpt><trkpt lat="44.945245518681936" lon="7.628449355133337"><ele>234.0</ele><time>2026-03-28T09:45:49Z</time></trkpt><trkpt lat="44.94515483137839" lon="7.628363660009792"><ele>234.0</ele><time>2026-03-28T09:45:50Z</time></trkpt><trkpt lat="44.94506533627735" lon="7.628269001551722"><ele>234.25</ele><time>2026-03-28T09:45:51Z</time></trkpt><trkpt lat="44.94497252778351" lon="7.628174114335886"><ele>234.5</ele><time>2026-03-28T09:45:52Z</time></trkpt><trkpt lat="44.944880149949455" lon="7.6280772537134665"><ele>234.75</ele><time>2026-03-28T09:45:53Z</time></trkpt><trkpt lat="44.94478059755329" lon="7.6279787922339874"><ele>235.0</ele><time>2026-03-28T09:45:54Z</time></trkpt><trkpt lat="44.94468000022814" lon="7.627888139984561"><ele>235.0</ele><time>2026-03-28T09:45:55Z</time></trkpt><trkpt lat="44.94458035970053" lon="7.62780715289826"><ele>235.0</ele><time>2026-03-28T09:45:56Z</time></trkpt><trkpt lat="44.94448061193393" lon="7.627744969189203"><ele>235.0</ele><time>2026-03-28T09:45:57Z</time></trkpt><trkpt lat="44.944384141338354" lon="7.627704960464961"><ele>235.0</ele><time>2026-03-28T09:45:58Z</time></trkpt><trkpt lat="44.94428899136309" lon="7.627675701984297"><ele>235.0</ele><time>2026-03-28T09:45:59Z</time></trkpt><trkpt lat="44.94419431516264" lon="7.627655319000699"><ele>234.66666666666666</ele><time>2026-03-28T09:46:00Z</time></trkpt><trkpt lat="44.9440998313708" lon="7.627660092271772"><ele>234.33333333333331</ele><time>2026-03-28T09:46:01Z</time></trkpt><trkpt lat="44.94400792398078" lon="7.627672637431341"><ele>234.0</ele><time>2026-03-28T09:46:02Z</time></trkpt><trkpt lat="44.943925527360456" lon="7.6276857413519945"><ele>233.66666666666669</ele><time>2026-03-28T09:46:03Z</time></trkpt><trkpt lat="44.94385451641966" lon="7.627696345449125"><ele>233.33333333333334</ele><time>2026-03-28T09:46:04Z</time></trkpt><trkpt lat="44.94378671184606" lon="7.627696606841729"><ele>233.0</ele><time>2026-03-28T09:46:05Z</time></trkpt><trkpt lat="44.94372424334249" lon="7.627673279338592"><ele>233.0</ele><time>2026-03-28T09:46:06Z</time></trkpt><trkpt lat="44.9436642739993" lon="7.62763686754536"><ele>233.0</ele><time>2026-03-28T09:46:07Z</time></trkpt><trkpt lat="44.94358203813159" lon="7.627511165570587"><ele>233.0</ele><time>2026-03-28T09:46:09Z</time></trkpt><trkpt lat="44.94349626007769" lon="7.627470266987936"><ele>233.0</ele><time>2026-03-28T09:46:10Z</time></trkpt><trkpt lat="44.94340404720377" lon="7.627498744859724"><ele>233.0</ele><time>2026-03-28T09:46:11Z</time></trkpt><trkpt lat="44.94333667098211" lon="7.627565033348238"><ele>233.5</ele><time>2026-03-28T09:46:12Z</time></trkpt><trkpt lat="44.94333124716464" lon="7.627733741501991"><ele>234.0</ele><time>2026-03-28T09:46:13Z</time></trkpt><trkpt lat="44.94333676959943" lon="7.627885690115885"><ele>234.5</ele><time>2026-03-28T09:46:14Z</time></trkpt><trkpt lat="44.94328643139071" lon="7.628060351590394"><ele>235.0</ele><time>2026-03-28T09:46:15Z</time></trkpt><trkpt lat="44.94322175476863" lon="7.628235450260548"><ele>235.0</ele><time>2026-03-28T09:46:16Z</time></trkpt><trkpt lat="44.943107995722784" lon="7.628378761771599"><ele>235.0</ele><time>2026-03-28T09:46:17Z</time></trkpt><trkpt lat="44.943020157445666" lon="7.6285537822447775"><ele>235.0</ele><time>2026-03-28T09:46:18Z</time></trkpt><trkpt lat="44.942949119484" lon="7.628751846148524"><ele>235.0</ele><time>2026-03-28T09:46:19Z</time></trkpt><trkpt lat="44.94287558020713" lon="7.628949863153443"><ele>235.0</ele><time>2026-03-28T09:46:20Z</time></trkpt><trkpt lat="44.94283286383095" lon="7.629179976179295"><ele>235.0</ele><time>2026-03-28T09:46:21Z</time></trkpt><trkpt lat="44.94282055769724" lon="7.6294131073049085"><ele>235.0</ele><time>2026-03-28T09:46:22Z</time></trkpt><trkpt lat="44.94282632631052" lon="7.629630200990246"><ele>235.0</ele><time>2026-03-28T09:46:23Z</time></trkpt><trkpt lat="44.942840447856796" lon="7.629838303571494"><ele>235.0</ele><time>2026-03-28T09:46:24Z</time></trkpt><trkpt lat="44.94284275033791" lon="7.630017936104605"><ele>235.0</ele><time>2026-03-28T09:46:25Z</time></trkpt><trkpt lat="44.94283966481956" lon="7.630181951632445"><ele>235.2</ele><time>2026-03-28T09:46:26Z</time></trkpt><trkpt lat="44.942840470522235" lon="7.630334430100312"><ele>235.4</ele><time>2026-03-28T09:46:27Z</time></trkpt><trkpt lat="44.94283841101991" lon="7.630470665126538"><ele>235.60000000000002</ele><time>2026-03-28T09:46:28Z</time></trkpt><trkpt lat="44.94283152788586" lon="7.630603477200172"><ele>235.8</ele><time>2026-03-28T09:46:29Z</time></trkpt><trkpt lat="44.94281892970563" lon="7.6307312733280135"><ele>236.0</ele><time>2026-03-28T09:46:30Z</time></trkpt><trkpt lat="44.94279206293003" lon="7.630843280369548"><ele>236.00000000000003</ele><time>2026-03-28T09:46:31Z</time></trkpt><trkpt lat="44.94274151429637" lon="7.630922693295941"><ele>236.0</ele><time>2026-03-28T09:46:32Z</time></trkpt><trkpt lat="44.94269407585234" lon="7.630995097864871"><ele>236.0</ele><time>2026-03-28T09:46:33Z</time></trkpt><trkpt lat="44.94268228104077" lon="7.631086128643044"><ele>236.0</ele><time>2026-03-28T09:46:34Z</time></trkpt><trkpt lat="44.942700774432744" lon="7.631187144723951"><ele>236.00000000000003</ele><time>2026-03-28T09:46:35Z</time></trkpt><trkpt lat="44.9427683915545" lon="7.631258633112795"><ele>236.0</ele><time>2026-03-28T09:46:36Z</time></trkpt><trkpt lat="44.94278509812079" lon="7.631417963188173"><ele>236.0</ele><time>2026-03-28T09:46:37Z</time></trkpt><trkpt lat="44.94282311235602" lon="7.631570297869301"><ele>236.0</ele><time>2026-03-28T09:46:38Z</time></trkpt><trkpt lat="44.94282095354962" lon="7.6317446228709835"><ele>236.0</ele><time>2026-03-28T09:46:39Z</time></trkpt><trkpt lat="44.942827468361436" lon="7.631931210492919"><ele>236.0</ele><time>2026-03-28T09:46:40Z</time></trkpt><trkpt lat="44.94281450226907" lon="7.632101856773549"><ele>236.25</ele><time>2026-03-28T09:46:41Z</time></trkpt><trkpt lat="44.94281900422616" lon="7.63227211767562"><ele>236.5</ele><time>2026-03-28T09:46:42Z</time></trkpt><trkpt lat="44.94282091688484" lon="7.632454615008613"><ele>236.75</ele><time>2026-03-28T09:46:43Z</time></trkpt><trkpt lat="44.94282108279839" lon="7.632633229132042"><ele>237.0</ele><time>2026-03-28T09:46:44Z</time></trkpt><trkpt lat="44.942818438492" lon="7.632814899969153"><ele>237.0</ele><time>2026-03-28T09:46:45Z</time></trkpt><trkpt lat="44.94281528477583" lon="7.632998671374279"><ele>237.0</ele><time>2026-03-28T09:46:46Z</time></trkpt><trkpt lat="44.94281217782005" lon="7.633185217400727"><ele>237.0</ele><time>2026-03-28T09:46:47Z</time></trkpt><trkpt lat="44.94280984170756" lon="7.633377897177696"><ele>237.0</ele><time>2026-03-28T09:46:48Z</time></trkpt><trkpt lat="44.94280783582101" lon="7.633572431327833"><ele>236.75</ele><time>2026-03-28T09:46:49Z</time></trkpt><trkpt lat="44.94280397997691" lon="7.6337643275320755"><ele>236.5</ele><time>2026-03-28T09:46:50Z</time></trkpt><trkpt lat="44.94280229767038" lon="7.633953867668981"><ele>236.25</ele><time>2026-03-28T09:46:51Z</time></trkpt><trkpt lat="44.94279885818182" lon="7.634141879862462"><ele>236.0</ele><time>2026-03-28T09:46:52Z</time></trkpt><trkpt lat="44.94279329711245" lon="7.634344865213431"><ele>236.0</ele><time>2026-03-28T09:46:53Z</time></trkpt><trkpt lat="44.942787760521966" lon="7.634552757581836"><ele>236.0</ele><time>2026-03-28T09:46:54Z</time></trkpt><trkpt lat="44.94278561158391" lon="7.634760133179496"><ele>236.0</ele><time>2026-03-28T09:46:55Z</time></trkpt><trkpt lat="44.94278758185374" lon="7.634967647335946"><ele>236.0</ele><time>2026-03-28T09:46:56Z</time></trkpt><trkpt lat="44.94278579166952" lon="7.635172885007633"><ele>236.0</ele><time>2026-03-28T09:46:57Z</time></trkpt><trkpt lat="44.94278165775608" lon="7.635377201750175"><ele>236.0</ele><time>2026-03-28T09:46:58Z</time></trkpt><trkpt lat="44.942779364539504" lon="7.635585817928197"><ele>236.0</ele><time>2026-03-28T09:46:59Z</time></trkpt><trkpt lat="44.94277712325388" lon="7.635787440995354"><ele>236.0</ele><time>2026-03-28T09:47:00Z</time></trkpt><trkpt lat="44.94277599196859" lon="7.635986258956071"><ele>236.25</ele><time>2026-03-28T09:47:01Z</time></trkpt><trkpt lat="44.94277404051613" lon="7.6361826408181415"><ele>236.5</ele><time>2026-03-28T09:47:02Z</time></trkpt><trkpt lat="44.942770148664636" lon="7.63638589675904"><ele>236.75</ele><time>2026-03-28T09:47:03Z</time></trkpt><trkpt lat="44.94276299487793" lon="7.636586763143303"><ele>237.0</ele><time>2026-03-28T09:47:04Z</time></trkpt><trkpt lat="44.94276141491941" lon="7.636796044675198"><ele>236.75</ele><time>2026-03-28T09:47:05Z</time></trkpt><trkpt lat="44.94275610489569" lon="7.636993301690426"><ele>236.5</ele><time>2026-03-28T09:47:06Z</time></trkpt><trkpt lat="44.94275077017251" lon="7.637182995074302"><ele>236.25</ele><time>2026-03-28T09:47:07Z</time></trkpt><trkpt lat="44.942743075444795" lon="7.637365147060525"><ele>236.0</ele><time>2026-03-28T09:47:08Z</time></trkpt><trkpt lat="44.942732894813965" lon="7.637540144437986"><ele>236.0</ele><time>2026-03-28T09:47:09Z</time></trkpt><trkpt lat="44.94271914073947" lon="7.637707258965147"><ele>236.00000000000003</ele><time>2026-03-28T09:47:10Z</time></trkpt><trkpt lat="44.942706754255624" lon="7.637860067412648"><ele>236.00000000000003</ele><time>2026-03-28T09:47:11Z</time></trkpt><trkpt lat="44.9426858480291" lon="7.638005118875597"><ele>236.0</ele><time>2026-03-28T09:47:12Z</time></trkpt><trkpt lat="44.94266657620519" lon="7.638137345435526"><ele>236.0</ele><time>2026-03-28T09:47:13Z</time></trkpt><trkpt lat="44.94264532382043" lon="7.638260634437015"><ele>235.8</ele><time>2026-03-28T09:47:14Z</time></trkpt><trkpt lat="44.94261299376347" lon="7.63837842123587"><ele>235.60000000000002</ele><time>2026-03-28T09:47:15Z</time></trkpt><trkpt lat="44.94257005770269" lon="7.638478469508562"><ele>235.4</ele><time>2026-03-28T09:47:16Z</time></trkpt><trkpt lat="44.94251103516187" lon="7.638581859846387"><ele>235.2</ele><time>2026-03-28T09:47:17Z</time></trkpt><trkpt lat="44.94247452085397" lon="7.6387140714414805"><ele>235.0</ele><time>2026-03-28T09:47:18Z</time></trkpt><trkpt lat="44.9424784771764" lon="7.638882327801833"><ele>235.0</ele><time>2026-03-28T09:47:19Z</time></trkpt><trkpt lat="44.94248033103018" lon="7.6390596601307434"><ele>235.0</ele><time>2026-03-28T09:47:20Z</time></trkpt><trkpt lat="44.942427279203336" lon="7.639221687179276"><ele>235.0</ele><time>2026-03-28T09:47:21Z</time></trkpt><trkpt lat="44.94237498654704" lon="7.6393895440230395"><ele>235.0</ele><time>2026-03-28T09:47:22Z</time></trkpt><trkpt lat="44.94233058744269" lon="7.63956660582496"><ele>235.0</ele><time>2026-03-28T09:47:23Z</time></trkpt><trkpt lat="44.94226926710536" lon="7.639729949026299"><ele>235.0</ele><time>2026-03-28T09:47:24Z</time></trkpt><trkpt lat="44.94221280680212" lon="7.639882747768823"><ele>235.0</ele><time>2026-03-28T09:47:25Z</time></trkpt><trkpt lat="44.94215444846663" lon="7.640031978801197"><ele>235.0</ele><time>2026-03-28T09:47:26Z</time></trkpt><trkpt lat="44.94208937219204" lon="7.640188453801606"><ele>234.5</ele><time>2026-03-28T09:47:27Z</time></trkpt><trkpt lat="44.94200659670658" lon="7.640341804877297"><ele>234.0</ele><time>2026-03-28T09:47:28Z</time></trkpt><trkpt lat="44.94195203486906" lon="7.640511417553862"><ele>233.5</ele><time>2026-03-28T09:47:29Z</time></trkpt><trkpt lat="44.94188105578801" lon="7.640665587863931"><ele>233.0</ele><time>2026-03-28T09:47:30Z</time></trkpt><trkpt lat="44.941816243818124" lon="7.640815429781197"><ele>233.0</ele><time>2026-03-28T09:47:31Z</time></trkpt><trkpt lat="44.94175299016048" lon="7.640958748135554"><ele>233.0</ele><time>2026-03-28T09:47:32Z</time></trkpt><trkpt lat="44.941686869759124" lon="7.641100279194594"><ele>233.0</ele><time>2026-03-28T09:47:33Z</time></trkpt><trkpt lat="44.94161774616737" lon="7.6412574163752245"><ele>233.0</ele><time>2026-03-28T09:47:34Z</time></trkpt><trkpt lat="44.94154000471514" lon="7.641441161159331"><ele>233.33333333333334</ele><time>2026-03-28T09:47:35Z</time></trkpt><trkpt lat="44.94143542833307" lon="7.641639238283024"><ele>233.66666666666669</ele><time>2026-03-28T09:47:36Z</time></trkpt><trkpt lat="44.941334203718405" lon="7.641867948060582"><ele>234.0</ele><time>2026-03-28T09:47:37Z</time></trkpt><trkpt lat="44.94122760819552" lon="7.642108793818636"><ele>234.0</ele><time>2026-03-28T09:47:38Z</time></trkpt><trkpt lat="44.94113735660488" lon="7.642350270637989"><ele>234.0</ele><time>2026-03-28T09:47:39Z</time></trkpt><trkpt lat="44.941035459238726" lon="7.64258293774104"><ele>234.0</ele><time>2026-03-28T09:47:40Z</time></trkpt><trkpt lat="44.9409219292467" lon="7.642799453542868"><ele>233.33333333333331</ele><time>2026-03-28T09:47:41Z</time></trkpt><trkpt lat="44.940822037890804" lon="7.643025151044935"><ele>232.66666666666666</ele><time>2026-03-28T09:47:42Z</time></trkpt><trkpt lat="44.9407238367441" lon="7.643247029714794"><ele>232.0</ele><time>2026-03-28T09:47:43Z</time></trkpt><trkpt lat="44.94062702180418" lon="7.643465777352811"><ele>232.0</ele><time>2026-03-28T09:47:44Z</time></trkpt><trkpt lat="44.94052980127528" lon="7.643685440257635"><ele>232.0</ele><time>2026-03-28T09:47:45Z</time></trkpt><trkpt lat="44.94042901147397" lon="7.64391263512246"><ele>232.0</ele><time>2026-03-28T09:47:46Z</time></trkpt><trkpt lat="44.940319574434476" lon="7.644157630328714"><ele>232.0</ele><time>2026-03-28T09:47:47Z</time></trkpt><trkpt lat="44.940200467417675" lon="7.644425046045677"><ele>232.0</ele><time>2026-03-28T09:47:48Z</time></trkpt><trkpt lat="44.94009446086448" lon="7.644736233067571"><ele>231.5</ele><time>2026-03-28T09:47:49Z</time></trkpt><trkpt lat="44.939950435557094" lon="7.645082651699865"><ele>231.0</ele><time>2026-03-28T09:47:50Z</time></trkpt><trkpt lat="44.939788019831894" lon="7.645463408576302"><ele>231.0</ele><time>2026-03-28T09:47:51Z</time></trkpt><trkpt lat="44.93963787767592" lon="7.6458350443837615"><ele>231.0</ele><time>2026-03-28T09:47:52Z</time></trkpt><trkpt lat="44.93944161812279" lon="7.646128899927983"><ele>230.66666666666669</ele><time>2026-03-28T09:47:53Z</time></trkpt><trkpt lat="44.93933430365899" lon="7.646409227046054"><ele>230.33333333333334</ele><time>2026-03-28T09:47:54Z</time></trkpt><trkpt lat="44.93920932533125" lon="7.6466509845393285"><ele>230.0</ele><time>2026-03-28T09:47:55Z</time></trkpt><trkpt lat="44.93910395503589" lon="7.646888067503839"><ele>230.66666666666669</ele><time>2026-03-28T09:47:56Z</time></trkpt><trkpt lat="44.93899950832138" lon="7.647123072573913"><ele>231.33333333333331</ele><time>2026-03-28T09:47:57Z</time></trkpt><trkpt lat="44.93889742585493" lon="7.647352758234465"><ele>232.0</ele><time>2026-03-28T09:47:58Z</time></trkpt><trkpt lat="44.93879740138293" lon="7.6475778132127035"><ele>231.33333333333331</ele><time>2026-03-28T09:47:59Z</time></trkpt><trkpt lat="44.93870091661792" lon="7.64779490405719"><ele>230.66666666666669</ele><time>2026-03-28T09:48:00Z</time></trkpt><trkpt lat="44.93860697246961" lon="7.648007141406348"><ele>230.0</ele><time>2026-03-28T09:48:01Z</time></trkpt><trkpt lat="44.93851531954174" lon="7.648220943104946"><ele>230.0</ele><time>2026-03-28T09:48:02Z</time></trkpt><trkpt lat="44.93842331107689" lon="7.648436602102254"><ele>230.0</ele><time>2026-03-28T09:48:03Z</time></trkpt><trkpt lat="44.938343192534866" lon="7.648674086338712"><ele>230.0</ele><time>2026-03-28T09:48:04Z</time></trkpt><trkpt lat="44.93824971289502" lon="7.648904360100001"><ele>230.33333333333334</ele><time>2026-03-28T09:48:05Z</time></trkpt><trkpt lat="44.938158160866806" lon="7.649145022441189"><ele>230.66666666666669</ele><time>2026-03-28T09:48:06Z</time></trkpt><trkpt lat="44.938073270538396" lon="7.649387874755153"><ele>231.0</ele><time>2026-03-28T09:48:07Z</time></trkpt><trkpt lat="44.9379894971232" lon="7.649633781693145"><ele>231.0</ele><time>2026-03-28T09:48:08Z</time></trkpt><trkpt lat="44.937903574561844" lon="7.649881149621134"><ele>231.0</ele><time>2026-03-28T09:48:09Z</time></trkpt><trkpt lat="44.937821166047165" lon="7.6501307969401635"><ele>231.0</ele><time>2026-03-28T09:48:10Z</time></trkpt><trkpt lat="44.937743371098016" lon="7.65037633637871"><ele>231.0</ele><time>2026-03-28T09:48:11Z</time></trkpt><trkpt lat="44.9376672711878" lon="7.650627558179418"><ele>231.0</ele><time>2026-03-28T09:48:12Z</time></trkpt><trkpt lat="44.93759376961468" lon="7.650878920612668"><ele>231.0</ele><time>2026-03-28T09:48:13Z</time></trkpt><trkpt lat="44.937520437433456" lon="7.6511380459722025"><ele>231.33333333333331</ele><time>2026-03-28T09:48:14Z</time></trkpt><trkpt lat="44.937447298416295" lon="7.651403144762798"><ele>231.66666666666666</ele><time>2026-03-28T09:48:15Z</time></trkpt><trkpt lat="44.937371194779445" lon="7.651671562891071"><ele>232.0</ele><time>2026-03-28T09:48:16Z</time></trkpt><trkpt lat="44.93729490076286" lon="7.651940130971187"><ele>232.0</ele><time>2026-03-28T09:48:17Z</time></trkpt><trkpt lat="44.93722269308883" lon="7.652202264245484"><ele>232.0</ele><time>2026-03-28T09:48:18Z</time></trkpt><trkpt lat="44.93715054928086" lon="7.652458029104889"><ele>232.0</ele><time>2026-03-28T09:48:19Z</time></trkpt><trkpt lat="44.93707514800153" lon="7.652708636214541"><ele>231.66666666666666</ele><time>2026-03-28T09:48:20Z</time></trkpt><trkpt lat="44.936994589127" lon="7.652955675083292"><ele>231.33333333333331</ele><time>2026-03-28T09:48:21Z</time></trkpt><trkpt lat="44.93689240614684" lon="7.653181986138284"><ele>231.0</ele><time>2026-03-28T09:48:22Z</time></trkpt><trkpt lat="44.93679336331559" lon="7.6534077072880935"><ele>230.66666666666669</ele><time>2026-03-28T09:48:23Z</time></trkpt><trkpt lat="44.93669843165865" lon="7.653641463327036"><ele>230.33333333333334</ele><time>2026-03-28T09:48:24Z</time></trkpt><trkpt lat="44.93658347608021" lon="7.653855545218072"><ele>230.0</ele><time>2026-03-28T09:48:25Z</time></trkpt><trkpt lat="44.936456896485744" lon="7.654057087956441"><ele>230.0</ele><time>2026-03-28T09:48:26Z</time></trkpt><trkpt lat="44.936309395606116" lon="7.654234682892082"><ele>230.0</ele><time>2026-03-28T09:48:27Z</time></trkpt><trkpt lat="44.93617833251752" lon="7.654437035814496"><ele>230.0</ele><time>2026-03-28T09:48:28Z</time></trkpt><trkpt lat="44.93602508762126" lon="7.654609833907289"><ele>230.0</ele><time>2026-03-28T09:48:29Z</time></trkpt><trkpt lat="44.93586803418331" lon="7.654772891892314"><ele>230.0</ele><time>2026-03-28T09:48:30Z</time></trkpt><trkpt lat="44.93570986194827" lon="7.654927915720566"><ele>230.0</ele><time>2026-03-28T09:48:31Z</time></trkpt><trkpt lat="44.93554655282544" lon="7.655079458726553"><ele>230.0</ele><time>2026-03-28T09:48:32Z</time></trkpt><trkpt lat="44.935381169445854" lon="7.6552251317911875"><ele>230.0</ele><time>2026-03-28T09:48:33Z</time></trkpt><trkpt lat="44.93521549310473" lon="7.655365266709602"><ele>230.0</ele><time>2026-03-28T09:48:34Z</time></trkpt><trkpt lat="44.93503934256496" lon="7.655491840585054"><ele>230.66666666666669</ele><time>2026-03-28T09:48:35Z</time></trkpt><trkpt lat="44.934861038256784" lon="7.655609480231569"><ele>231.33333333333331</ele><time>2026-03-28T09:48:36Z</time></trkpt><trkpt lat="44.934684428881425" lon="7.65571738842086"><ele>232.0</ele><time>2026-03-28T09:48:37Z</time></trkpt><trkpt lat="44.93450598389912" lon="7.655815426792984"><ele>232.0</ele><time>2026-03-28T09:48:38Z</time></trkpt><trkpt lat="44.93432276547248" lon="7.655900581887506"><ele>232.0</ele><time>2026-03-28T09:48:39Z</time></trkpt><trkpt lat="44.93413419915849" lon="7.655978381610514"><ele>232.0</ele><time>2026-03-28T09:48:40Z</time></trkpt><trkpt lat="44.93393983858878" lon="7.656049932027609"><ele>231.66666666666666</ele><time>2026-03-28T09:48:41Z</time></trkpt><trkpt lat="44.93374292314404" lon="7.656113566962861"><ele>231.33333333333331</ele><time>2026-03-28T09:48:42Z</time></trkpt><trkpt lat="44.93354023317474" lon="7.656164456945909"><ele>231.0</ele><time>2026-03-28T09:48:43Z</time></trkpt><trkpt lat="44.93333473121005" lon="7.656209105880751"><ele>230.33333333333331</ele><time>2026-03-28T09:48:44Z</time></trkpt><trkpt lat="44.933124294855915" lon="7.656240000998489"><ele>229.66666666666666</ele><time>2026-03-28T09:48:45Z</time></trkpt><trkpt lat="44.93290901238449" lon="7.656255292302224"><ele>229.0</ele><time>2026-03-28T09:48:46Z</time></trkpt><trkpt lat="44.93268849071974" lon="7.656267136641258"><ele>229.0</ele><time>2026-03-28T09:48:47Z</time></trkpt><trkpt lat="44.93246497255922" lon="7.65627921395524"><ele>229.0</ele><time>2026-03-28T09:48:48Z</time></trkpt><trkpt lat="44.932240191683384" lon="7.656291852652565"><ele>229.0</ele><time>2026-03-28T09:48:49Z</time></trkpt><trkpt lat="44.9320148663705" lon="7.656304771863389"><ele>229.0</ele><time>2026-03-28T09:48:50Z</time></trkpt><trkpt lat="44.931790602428066" lon="7.65631864989613"><ele>229.0</ele><time>2026-03-28T09:48:51Z</time></trkpt><trkpt lat="44.93156303935183" lon="7.656340764780367"><ele>230.0</ele><time>2026-03-28T09:48:52Z</time></trkpt><trkpt lat="44.93133420880278" lon="7.656377211478344"><ele>231.0</ele><time>2026-03-28T09:48:53Z</time></trkpt><trkpt lat="44.931106961310434" lon="7.656442193278849"><ele>230.5</ele><time>2026-03-28T09:48:54Z</time></trkpt><trkpt lat="44.930878219935046" lon="7.656524418943245"><ele>230.0</ele><time>2026-03-28T09:48:55Z</time></trkpt><trkpt lat="44.93064995799683" lon="7.656611661817572"><ele>230.0</ele><time>2026-03-28T09:48:56Z</time></trkpt><trkpt lat="44.930423046129725" lon="7.656702692740813"><ele>230.0</ele><time>2026-03-28T09:48:57Z</time></trkpt><trkpt lat="44.93020551090895" lon="7.656809908165606"><ele>230.5</ele><time>2026-03-28T09:48:58Z</time></trkpt><trkpt lat="44.929995202089685" lon="7.656933816075032"><ele>231.0</ele><time>2026-03-28T09:48:59Z</time></trkpt><trkpt lat="44.92978644259216" lon="7.657065299650718"><ele>231.0</ele><time>2026-03-28T09:49:00Z</time></trkpt><trkpt lat="44.92958223252007" lon="7.657204463212096"><ele>231.0</ele><time>2026-03-28T09:49:01Z</time></trkpt><trkpt lat="44.92938167455546" lon="7.657355032652457"><ele>231.0</ele><time>2026-03-28T09:49:02Z</time></trkpt><trkpt lat="44.92918676443496" lon="7.65751732987699"><ele>231.0</ele><time>2026-03-28T09:49:03Z</time></trkpt><trkpt lat="44.92899511707509" lon="7.6576917632636325"><ele>230.5</ele><time>2026-03-28T09:49:04Z</time></trkpt><trkpt lat="44.9288092049263" lon="7.657878899022646"><ele>230.0</ele><time>2026-03-28T09:49:05Z</time></trkpt><trkpt lat="44.92862898384751" lon="7.658076463753263"><ele>230.0</ele><time>2026-03-28T09:49:06Z</time></trkpt><trkpt lat="44.92844895120244" lon="7.658276287365902"><ele>230.0</ele><time>2026-03-28T09:49:07Z</time></trkpt><trkpt lat="44.9282708743022" lon="7.658481690931977"><ele>230.5</ele><time>2026-03-28T09:49:08Z</time></trkpt><trkpt lat="44.928094523331836" lon="7.658688273579556"><ele>231.0</ele><time>2026-03-28T09:49:09Z</time></trkpt><trkpt lat="44.927917847846736" lon="7.65888958996052"><ele>231.0</ele><time>2026-03-28T09:49:10Z</time></trkpt><trkpt lat="44.92773905499356" lon="7.659084686172239"><ele>231.0</ele><time>2026-03-28T09:49:11Z</time></trkpt><trkpt lat="44.92756038636647" lon="7.659278798099719"><ele>232.5</ele><time>2026-03-28T09:49:12Z</time></trkpt><trkpt lat="44.927382789978815" lon="7.659476894737283"><ele>234.0</ele><time>2026-03-28T09:49:13Z</time></trkpt><trkpt lat="44.92720561295791" lon="7.659679841719089"><ele>234.0</ele><time>2026-03-28T09:49:14Z</time></trkpt><trkpt lat="44.92702672731015" lon="7.6598774006298695"><ele>234.0</ele><time>2026-03-28T09:49:15Z</time></trkpt><trkpt lat="44.92684731433018" lon="7.660074112694646"><ele>233.5</ele><time>2026-03-28T09:49:16Z</time></trkpt><trkpt lat="44.926669264590764" lon="7.660274106024249"><ele>233.0</ele><time>2026-03-28T09:49:17Z</time></trkpt><trkpt lat="44.92649048085633" lon="7.660475337221197"><ele>233.0</ele><time>2026-03-28T09:49:18Z</time></trkpt><trkpt lat="44.92631132193352" lon="7.660676313718633"><ele>233.0</ele><time>2026-03-28T09:49:19Z</time></trkpt><trkpt lat="44.92613389088827" lon="7.6608752356992715"><ele>233.0</ele><time>2026-03-28T09:49:20Z</time></trkpt><trkpt lat="44.92595551570614" lon="7.661073753311129"><ele>233.0</ele><time>2026-03-28T09:49:21Z</time></trkpt><trkpt lat="44.925778528451005" lon="7.661268556253223"><ele>232.33333333333334</ele><time>2026-03-28T09:49:22Z</time></trkpt><trkpt lat="44.925603587674956" lon="7.6614634838050515"><ele>231.66666666666669</ele><time>2026-03-28T09:49:23Z</time></trkpt><trkpt lat="44.925430094276905" lon="7.661659126728502"><ele>231.0</ele><time>2026-03-28T09:49:24Z</time></trkpt><trkpt lat="44.92525736550253" lon="7.661856383672324"><ele>231.0</ele><time>2026-03-28T09:49:25Z</time></trkpt><trkpt lat="44.92508564938244" lon="7.662049934452213"><ele>231.0</ele><time>2026-03-28T09:49:26Z</time></trkpt><trkpt lat="44.924914455891376" lon="7.662240990108571"><ele>231.0</ele><time>2026-03-28T09:49:27Z</time></trkpt><trkpt lat="44.924741967206884" lon="7.6624285024411325"><ele>230.66666666666669</ele><time>2026-03-28T09:49:28Z</time></trkpt><trkpt lat="44.92456942459179" lon="7.662613746528579"><ele>230.33333333333334</ele><time>2026-03-28T09:49:29Z</time></trkpt><trkpt lat="44.924397297696146" lon="7.66279236560343"><ele>230.0</ele><time>2026-03-28T09:49:30Z</time></trkpt><trkpt lat="44.924220781646206" lon="7.662959314516615"><ele>230.0</ele><time>2026-03-28T09:49:31Z</time></trkpt><trkpt lat="44.924042844016654" lon="7.663115431720933"><ele>230.0</ele><time>2026-03-28T09:49:32Z</time></trkpt><trkpt lat="44.92385515367389" lon="7.66323947128747"><ele>230.0</ele><time>2026-03-28T09:49:33Z</time></trkpt><trkpt lat="44.92367175205824" lon="7.66336228826465"><ele>230.0</ele><time>2026-03-28T09:49:34Z</time></trkpt><trkpt lat="44.9234877192872" lon="7.663470088395052"><ele>230.0</ele><time>2026-03-28T09:49:35Z</time></trkpt><trkpt lat="44.92330486640769" lon="7.663567619744054"><ele>230.0</ele><time>2026-03-28T09:49:36Z</time></trkpt><trkpt lat="44.92312012471138" lon="7.663651892946807"><ele>231.0</ele><time>2026-03-28T09:49:37Z</time></trkpt><trkpt lat="44.922880081140896" lon="7.663737042930696"><ele>232.0</ele><time>2026-03-28T09:49:38Z</time></trkpt><trkpt lat="44.922665969720754" lon="7.663801785728193"><ele>232.33333333333331</ele><time>2026-03-28T09:49:39Z</time></trkpt><trkpt lat="44.922458739250736" lon="7.663861602723543"><ele>232.66666666666669</ele><time>2026-03-28T09:49:40Z</time></trkpt><trkpt lat="44.922257187055706" lon="7.663942976488012"><ele>233.0</ele><time>2026-03-28T09:49:41Z</time></trkpt><trkpt lat="44.9220549283358" lon="7.663983413809302"><ele>233.0</ele><time>2026-03-28T09:49:42Z</time></trkpt><trkpt lat="44.92186001158992" lon="7.664019054534269"><ele>233.0</ele><time>2026-03-28T09:49:43Z</time></trkpt><trkpt lat="44.92167332331501" lon="7.664043204607304"><ele>233.0</ele><time>2026-03-28T09:49:44Z</time></trkpt><trkpt lat="44.921482251979576" lon="7.664081246412067"><ele>233.0</ele><time>2026-03-28T09:49:45Z</time></trkpt><trkpt lat="44.92130565516782" lon="7.664136359369562"><ele>233.0</ele><time>2026-03-28T09:49:46Z</time></trkpt><trkpt lat="44.921129707742665" lon="7.664217776287967"><ele>233.0</ele><time>2026-03-28T09:49:47Z</time></trkpt><trkpt lat="44.92096555169104" lon="7.664290906761708"><ele>232.66666666666669</ele><time>2026-03-28T09:49:48Z</time></trkpt><trkpt lat="44.920807374467614" lon="7.664340192164705"><ele>232.33333333333331</ele><time>2026-03-28T09:49:49Z</time></trkpt><trkpt lat="44.920645451009115" lon="7.664394171739046"><ele>232.0</ele><time>2026-03-28T09:49:50Z</time></trkpt><trkpt lat="44.92048985223589" lon="7.664443050109742"><ele>231.66666666666666</ele><time>2026-03-28T09:49:51Z</time></trkpt><trkpt lat="44.92032963016815" lon="7.664472523530257"><ele>231.33333333333331</ele><time>2026-03-28T09:49:52Z</time></trkpt><trkpt lat="44.92017094777205" lon="7.664518594709108"><ele>231.0</ele><time>2026-03-28T09:49:53Z</time></trkpt><trkpt lat="44.92000924875975" lon="7.664565541751454"><ele>231.75</ele><time>2026-03-28T09:49:54Z</time></trkpt><trkpt lat="44.91986328754982" lon="7.664607919523375"><ele>232.5</ele><time>2026-03-28T09:49:55Z</time></trkpt><trkpt lat="44.919750239261134" lon="7.664648213157295"><ele>233.25</ele><time>2026-03-28T09:49:56Z</time></trkpt><trkpt lat="44.919605434007416" lon="7.664691124360401"><ele>234.0</ele><time>2026-03-28T09:49:57Z</time></trkpt><trkpt lat="44.91945060872964" lon="7.664729009022035"><ele>234.0</ele><time>2026-03-28T09:49:58Z</time></trkpt><trkpt lat="44.919287979789075" lon="7.664756957906937"><ele>234.0</ele><time>2026-03-28T09:49:59Z</time></trkpt><trkpt lat="44.91911928598743" lon="7.664780932458387"><ele>234.0</ele><time>2026-03-28T09:50:00Z</time></trkpt><trkpt lat="44.918947478004206" lon="7.664877895457529"><ele>233.66666666666669</ele><time>2026-03-28T09:50:01Z</time></trkpt><trkpt lat="44.91877768053297" lon="7.664922087011395"><ele>233.33333333333334</ele><time>2026-03-28T09:50:02Z</time></trkpt><trkpt lat="44.91860343408392" lon="7.664972207459949"><ele>233.0</ele><time>2026-03-28T09:50:03Z</time></trkpt><trkpt lat="44.918421704687326" lon="7.665027572489231"><ele>233.33333333333334</ele><time>2026-03-28T09:50:04Z</time></trkpt><trkpt lat="44.91823134792653" lon="7.6650903008776625"><ele>233.66666666666669</ele><time>2026-03-28T09:50:05Z</time></trkpt><trkpt lat="44.91803149791752" lon="7.6651472093685005"><ele>234.0</ele><time>2026-03-28T09:50:06Z</time></trkpt><trkpt lat="44.917824466775194" lon="7.665203474746794"><ele>234.0</ele><time>2026-03-28T09:50:07Z</time></trkpt><trkpt lat="44.91761557791097" lon="7.665262343658669"><ele>234.0</ele><time>2026-03-28T09:50:08Z</time></trkpt><trkpt lat="44.91741227557468" lon="7.665321187626985"><ele>234.0</ele><time>2026-03-28T09:50:09Z</time></trkpt><trkpt lat="44.917214403868535" lon="7.665378764376794"><ele>234.0</ele><time>2026-03-28T09:50:10Z</time></trkpt><trkpt lat="44.91702070840221" lon="7.665436787729664"><ele>234.0</ele><time>2026-03-28T09:50:11Z</time></trkpt><trkpt lat="44.91682884585967" lon="7.66549361070829"><ele>234.0</ele><time>2026-03-28T09:50:12Z</time></trkpt><trkpt lat="44.916637794153324" lon="7.665549141896589"><ele>234.0</ele><time>2026-03-28T09:50:13Z</time></trkpt><trkpt lat="44.916448845391244" lon="7.665602718550833"><ele>234.0</ele><time>2026-03-28T09:50:14Z</time></trkpt><trkpt lat="44.91626175079365" lon="7.665659075911917"><ele>234.0</ele><time>2026-03-28T09:50:15Z</time></trkpt><trkpt lat="44.91607580444825" lon="7.665715275961618"><ele>233.33333333333331</ele><time>2026-03-28T09:50:16Z</time></trkpt><trkpt lat="44.91588988810521" lon="7.665767977144553"><ele>232.66666666666666</ele><time>2026-03-28T09:50:17Z</time></trkpt><trkpt lat="44.91570596844691" lon="7.665818428509318"><ele>232.0</ele><time>2026-03-28T09:50:18Z</time></trkpt><trkpt lat="44.91552012182989" lon="7.665872487570764"><ele>232.0</ele><time>2026-03-28T09:50:19Z</time></trkpt><trkpt lat="44.915332024729906" lon="7.665926845835902"><ele>232.0</ele><time>2026-03-28T09:50:20Z</time></trkpt><trkpt lat="44.91514459608367" lon="7.665979970142296"><ele>232.0</ele><time>2026-03-28T09:50:21Z</time></trkpt><trkpt lat="44.91496580683159" lon="7.666032250445772"><ele>232.0</ele><time>2026-03-28T09:50:22Z</time></trkpt><trkpt lat="44.9147901600881" lon="7.6660834980874535"><ele>232.0</ele><time>2026-03-28T09:50:23Z</time></trkpt><trkpt lat="44.91461767144494" lon="7.66613104372523"><ele>232.0</ele><time>2026-03-28T09:50:24Z</time></trkpt><trkpt lat="44.91445064482949" lon="7.666183400410608"><ele>232.0</ele><time>2026-03-28T09:50:25Z</time></trkpt><trkpt lat="44.91429347374309" lon="7.666247447431956"><ele>232.0</ele><time>2026-03-28T09:50:26Z</time></trkpt><trkpt lat="44.914144372246525" lon="7.666331427089559"><ele>232.0</ele><time>2026-03-28T09:50:27Z</time></trkpt><trkpt lat="44.91399697414176" lon="7.666430011198486"><ele>232.33333333333331</ele><time>2026-03-28T09:50:28Z</time></trkpt><trkpt lat="44.91385509231387" lon="7.666545876434909"><ele>232.66666666666669</ele><time>2026-03-28T09:50:29Z</time></trkpt><trkpt lat="44.91372011812664" lon="7.6666712576099645"><ele>233.0</ele><time>2026-03-28T09:50:30Z</time></trkpt><trkpt lat="44.91359180899003" lon="7.666809402672138"><ele>233.33333333333334</ele><time>2026-03-28T09:50:31Z</time></trkpt><trkpt lat="44.913471824714634" lon="7.666958738786699"><ele>233.66666666666669</ele><time>2026-03-28T09:50:32Z</time></trkpt><trkpt lat="44.91335989519442" lon="7.667123140424796"><ele>234.0</ele><time>2026-03-28T09:50:33Z</time></trkpt><trkpt lat="44.91325272739913" lon="7.667295547006369"><ele>234.33333333333331</ele><time>2026-03-28T09:50:34Z</time></trkpt><trkpt lat="44.913150288779704" lon="7.667474465990268"><ele>234.66666666666666</ele><time>2026-03-28T09:50:35Z</time></trkpt><trkpt lat="44.91306461559523" lon="7.6676861351689425"><ele>235.0</ele><time>2026-03-28T09:50:36Z</time></trkpt><trkpt lat="44.91298600882744" lon="7.66790550201508"><ele>235.0</ele><time>2026-03-28T09:50:37Z</time></trkpt><trkpt lat="44.91289848841451" lon="7.668122699010631"><ele>235.0</ele><time>2026-03-28T09:50:38Z</time></trkpt><trkpt lat="44.912809879711965" lon="7.668345987528408"><ele>235.0</ele><time>2026-03-28T09:50:39Z</time></trkpt><trkpt lat="44.91272680451124" lon="7.6685705565266575"><ele>235.0</ele><time>2026-03-28T09:50:40Z</time></trkpt><trkpt lat="44.91264605818998" lon="7.66878730779805"><ele>235.0</ele><time>2026-03-28T09:50:41Z</time></trkpt><trkpt lat="44.912566083412756" lon="7.668998282448541"><ele>235.0</ele><time>2026-03-28T09:50:42Z</time></trkpt><trkpt lat="44.91248294517566" lon="7.66920922988892"><ele>235.0</ele><time>2026-03-28T09:50:43Z</time></trkpt><trkpt lat="44.91239895399905" lon="7.669424867290418"><ele>235.0</ele><time>2026-03-28T09:50:44Z</time></trkpt><trkpt lat="44.91231107735884" lon="7.66963613736479"><ele>235.0</ele><time>2026-03-28T09:50:45Z</time></trkpt><trkpt lat="44.91221921703277" lon="7.669837107016035"><ele>235.0</ele><time>2026-03-28T09:50:46Z</time></trkpt><trkpt lat="44.91213078880576" lon="7.670029651240336"><ele>235.0</ele><time>2026-03-28T09:50:47Z</time></trkpt><trkpt lat="44.91204832976978" lon="7.670205389440244"><ele>235.0</ele><time>2026-03-28T09:50:48Z</time></trkpt><trkpt lat="44.9119739296651" lon="7.67036548694042"><ele>235.0</ele><time>2026-03-28T09:50:49Z</time></trkpt><trkpt lat="44.91190985782915" lon="7.670489223639723"><ele>235.0</ele><time>2026-03-28T09:50:50Z</time></trkpt><trkpt lat="44.91183181079068" lon="7.670580186730997"><ele>235.0</ele><time>2026-03-28T09:50:51Z</time></trkpt><trkpt lat="44.911736481005" lon="7.670582117167046"><ele>235.0</ele><time>2026-03-28T09:50:52Z</time></trkpt><trkpt lat="44.91167186951683" lon="7.670601376419375"><ele>235.0</ele><time>2026-03-28T09:50:53Z</time></trkpt><trkpt lat="44.91164013335877" lon="7.670783224533761"><ele>235.0</ele><time>2026-03-28T09:50:55Z</time></trkpt><trkpt lat="44.91166388842032" lon="7.670955106617992"><ele>235.0</ele><time>2026-03-28T09:50:56Z</time></trkpt><trkpt lat="44.911622256044545" lon="7.67111703714177"><ele>235.0</ele><time>2026-03-28T09:50:57Z</time></trkpt><trkpt lat="44.91154997674558" lon="7.671283754509874"><ele>235.0</ele><time>2026-03-28T09:50:58Z</time></trkpt><trkpt lat="44.911474968687806" lon="7.671466946388572"><ele>235.0</ele><time>2026-03-28T09:50:59Z</time></trkpt><trkpt lat="44.91140584519837" lon="7.6716750334874595"><ele>235.0</ele><time>2026-03-28T09:51:00Z</time></trkpt><trkpt lat="44.911357370093114" lon="7.671883526148728"><ele>235.0</ele><time>2026-03-28T09:51:01Z</time></trkpt><trkpt lat="44.911299909577465" lon="7.672074678992874"><ele>235.0</ele><time>2026-03-28T09:51:02Z</time></trkpt><trkpt lat="44.91124839489362" lon="7.672267449131546"><ele>235.0</ele><time>2026-03-28T09:51:03Z</time></trkpt><trkpt lat="44.91119983873102" lon="7.672454393236708"><ele>235.0</ele><time>2026-03-28T09:51:04Z</time></trkpt><trkpt lat="44.91115861066267" lon="7.672623941075731"><ele>235.0</ele><time>2026-03-28T09:51:05Z</time></trkpt><trkpt lat="44.91111417437454" lon="7.672772153670247"><ele>235.0</ele><time>2026-03-28T09:51:06Z</time></trkpt><trkpt lat="44.911046132050416" lon="7.6728782049267314"><ele>235.0</ele><time>2026-03-28T09:51:07Z</time></trkpt><trkpt lat="44.91096211800198" lon="7.672963319651033"><ele>235.0</ele><time>2026-03-28T09:51:08Z</time></trkpt><trkpt lat="44.91089070275443" lon="7.673005236247083"><ele>234.75</ele><time>2026-03-28T09:51:09Z</time></trkpt><trkpt lat="44.9108120152055" lon="7.673031439683539"><ele>234.5</ele><time>2026-03-28T09:51:10Z</time></trkpt><trkpt lat="44.910964992103835" lon="7.673236801702834"><ele>234.25</ele><time>2026-03-28T09:51:12Z</time></trkpt><trkpt lat="44.91096352966358" lon="7.673453247065689"><ele>234.0</ele><time>2026-03-28T09:51:13Z</time></trkpt><trkpt lat="44.910947225579584" lon="7.673606941322675"><ele>234.25</ele><time>2026-03-28T09:51:14Z</time></trkpt><trkpt lat="44.910939959907935" lon="7.673787364176617"><ele>234.5</ele><time>2026-03-28T09:51:15Z</time></trkpt><trkpt lat="44.910916854610534" lon="7.673969020631079"><ele>234.75</ele><time>2026-03-28T09:51:16Z</time></trkpt><trkpt lat="44.9109020780956" lon="7.674149435343721"><ele>235.0</ele><time>2026-03-28T09:51:17Z</time></trkpt><trkpt lat="44.910882876868364" lon="7.67430068047919"><ele>235.0</ele><time>2026-03-28T09:51:18Z</time></trkpt><trkpt lat="44.91087258836188" lon="7.674449984401646"><ele>235.0</ele><time>2026-03-28T09:51:19Z</time></trkpt><trkpt lat="44.91085843528123" lon="7.674586135187654"><ele>235.0</ele><time>2026-03-28T09:51:20Z</time></trkpt><trkpt lat="44.91084489273645" lon="7.674723810440666"><ele>235.0</ele><time>2026-03-28T09:51:21Z</time></trkpt><trkpt lat="44.910831993486156" lon="7.674893426272171"><ele>235.0</ele><time>2026-03-28T09:51:22Z</time></trkpt><trkpt lat="44.910817958289115" lon="7.675067389308475"><ele>235.0</ele><time>2026-03-28T09:51:23Z</time></trkpt><trkpt lat="44.9107899434716" lon="7.675248460105202"><ele>235.0</ele><time>2026-03-28T09:51:24Z</time></trkpt><trkpt lat="44.91077234135936" lon="7.675434743143808"><ele>235.0</ele><time>2026-03-28T09:51:25Z</time></trkpt><trkpt lat="44.91074932872479" lon="7.675604930688579"><ele>235.0</ele><time>2026-03-28T09:51:26Z</time></trkpt><trkpt lat="44.91072893139278" lon="7.67576586885968"><ele>235.16666666666666</ele><time>2026-03-28T09:51:27Z</time></trkpt><trkpt lat="44.91070190594935" lon="7.675906964628433"><ele>235.33333333333331</ele><time>2026-03-28T09:51:28Z</time></trkpt><trkpt lat="44.91067271412315" lon="7.676020537730106"><ele>235.5</ele><time>2026-03-28T09:51:29Z</time></trkpt><trkpt lat="44.910643339842885" lon="7.6761078807496"><ele>235.66666666666669</ele><time>2026-03-28T09:51:30Z</time></trkpt><trkpt lat="44.91061780075805" lon="7.676248599270234"><ele>235.83333333333334</ele><time>2026-03-28T09:51:32Z</time></trkpt><trkpt lat="44.910581494986985" lon="7.67633124949274"><ele>236.0</ele><time>2026-03-28T09:51:34Z</time></trkpt><trkpt lat="44.910455126589554" lon="7.676305987110983"><ele>236.00000000000003</ele><time>2026-03-28T09:51:35Z</time></trkpt><trkpt lat="44.91038441587135" lon="7.67628972716681"><ele>236.0</ele><time>2026-03-28T09:51:36Z</time></trkpt><trkpt lat="44.91030504156634" lon="7.676276819910815"><ele>236.0</ele><time>2026-03-28T09:51:37Z</time></trkpt><trkpt lat="44.910219285355126" lon="7.676265755145152"><ele>236.0</ele><time>2026-03-28T09:51:38Z</time></trkpt><trkpt lat="44.910129420961745" lon="7.676249967815337"><ele>236.00000000000003</ele><time>2026-03-28T09:51:39Z</time></trkpt><trkpt lat="44.91002922203856" lon="7.67623267958417"><ele>236.0</ele><time>2026-03-28T09:51:40Z</time></trkpt><trkpt lat="44.90992903866509" lon="7.676213817525088"><ele>236.0</ele><time>2026-03-28T09:51:41Z</time></trkpt><trkpt lat="44.909824092072014" lon="7.676191694654109"><ele>236.00000000000003</ele><time>2026-03-28T09:51:42Z</time></trkpt><trkpt lat="44.90971587500389" lon="7.676161378302374"><ele>236.00000000000003</ele><time>2026-03-28T09:51:43Z</time></trkpt><trkpt lat="44.90961219935997" lon="7.6761263615243545"><ele>236.0</ele><time>2026-03-28T09:51:44Z</time></trkpt><trkpt lat="44.90951617975187" lon="7.676085244143825"><ele>236.0</ele><time>2026-03-28T09:51:45Z</time></trkpt><trkpt lat="44.90943106067541" lon="7.676034726478623"><ele>236.4</ele><time>2026-03-28T09:51:46Z</time></trkpt><trkpt lat="44.90935603469631" lon="7.6759836631377985"><ele>236.8</ele><time>2026-03-28T09:51:47Z</time></trkpt><trkpt lat="44.90929266240056" lon="7.675932150590836"><ele>237.20000000000002</ele><time>2026-03-28T09:51:48Z</time></trkpt><trkpt lat="44.90920031179158" lon="7.675865319814818"><ele>237.60000000000002</ele><time>2026-03-28T09:51:50Z</time></trkpt><trkpt lat="44.90914348880779" lon="7.6759795650495075"><ele>238.0</ele><time>2026-03-28T09:51:53Z</time></trkpt><trkpt lat="44.90913501487352" lon="7.676116800944044"><ele>238.2</ele><time>2026-03-28T09:51:55Z</time></trkpt><trkpt lat="44.90910565241398" lon="7.6762502844988685"><ele>238.4</ele><time>2026-03-28T09:51:57Z</time></trkpt><trkpt lat="44.909075188987046" lon="7.676403016500943"><ele>238.59999999999997</ele><time>2026-03-28T09:51:59Z</time></trkpt><trkpt lat="44.90905700879101" lon="7.6764941649377265"><ele>238.79999999999998</ele><time>2026-03-28T09:52:00Z</time></trkpt><trkpt lat="44.909043580275174" lon="7.67665263445465"><ele>239.0</ele><time>2026-03-28T09:52:02Z</time></trkpt><trkpt lat="44.90901312287451" lon="7.676776710369464"><ele>239.0</ele><time>2026-03-28T09:52:04Z</time></trkpt><trkpt lat="44.90900404172589" lon="7.676883507943312"><ele>238.99999999999997</ele><time>2026-03-28T09:52:06Z</time></trkpt><trkpt lat="44.909017058556024" lon="7.676983199613234"><ele>238.99999999999997</ele><time>2026-03-28T09:52:08Z</time></trkpt><trkpt lat="44.908992228310716" lon="7.6771248990993985"><ele>239.0</ele><time>2026-03-28T09:52:10Z</time></trkpt><trkpt lat="44.90897142823521" lon="7.677274933743565"><ele>239.0</ele><time>2026-03-28T09:52:12Z</time></trkpt><trkpt lat="44.90884436537973" lon="7.677326008989965"><ele>238.5</ele><time>2026-03-28T09:52:15Z</time></trkpt><trkpt lat="44.9087318982832" lon="7.677306235391682"><ele>238.0</ele><time>2026-03-28T09:52:17Z</time></trkpt><trkpt lat="44.90861722507691" lon="7.677496497257361"><ele>237.5</ele><time>2026-03-28T09:52:20Z</time></trkpt><trkpt lat="44.90860006189995" lon="7.677601383215586"><ele>237.0</ele><time>2026-03-28T09:52:21Z</time></trkpt><trkpt lat="44.908585999077985" lon="7.677730451362237"><ele>236.2</ele><time>2026-03-28T09:52:22Z</time></trkpt><trkpt lat="44.90857847764854" lon="7.677874643606414"><ele>235.39999999999998</ele><time>2026-03-28T09:52:23Z</time></trkpt><trkpt lat="44.908569930952886" lon="7.678031401378619"><ele>234.60000000000002</ele><time>2026-03-28T09:52:24Z</time></trkpt><trkpt lat="44.90855526652341" lon="7.678200646122265"><ele>233.8</ele><time>2026-03-28T09:52:25Z</time></trkpt><trkpt lat="44.9085374053157" lon="7.678352967635041"><ele>233.0</ele><time>2026-03-28T09:52:26Z</time></trkpt><trkpt lat="44.90851603009917" lon="7.678491183885077"><ele>232.60000000000002</ele><time>2026-03-28T09:52:27Z</time></trkpt><trkpt lat="44.9084737198699" lon="7.678616595136502"><ele>232.20000000000002</ele><time>2026-03-28T09:52:28Z</time></trkpt><trkpt lat="44.90838341725999" lon="7.678694647864921"><ele>231.8</ele><time>2026-03-28T09:52:29Z</time></trkpt><trkpt lat="44.908289319938994" lon="7.678730474608515"><ele>231.4</ele><time>2026-03-28T09:52:30Z</time></trkpt><trkpt lat="44.90818132336079" lon="7.67872787378006"><ele>231.0</ele><time>2026-03-28T09:52:31Z</time></trkpt><trkpt lat="44.90805904384985" lon="7.678679428093342"><ele>231.0</ele><time>2026-03-28T09:52:32Z</time></trkpt><trkpt lat="44.907922779131056" lon="7.67862870079957"><ele>231.0</ele><time>2026-03-28T09:52:33Z</time></trkpt><trkpt lat="44.907780626037244" lon="7.6785467788401345"><ele>231.0</ele><time>2026-03-28T09:52:34Z</time></trkpt><trkpt lat="44.90763517385432" lon="7.6784770077706925"><ele>231.0</ele><time>2026-03-28T09:52:35Z</time></trkpt><trkpt lat="44.90748991254736" lon="7.6784134832795905"><ele>231.25</ele><time>2026-03-28T09:52:36Z</time></trkpt><trkpt lat="44.9073496776748" lon="7.6783410706970825"><ele>231.5</ele><time>2026-03-28T09:52:37Z</time></trkpt><trkpt lat="44.90721051403823" lon="7.678276667754145"><ele>231.75</ele><time>2026-03-28T09:52:38Z</time></trkpt><trkpt lat="44.907072512529325" lon="7.678226929164041"><ele>232.0</ele><time>2026-03-28T09:52:39Z</time></trkpt><trkpt lat="44.90693367860735" lon="7.678173272320814"><ele>232.0</ele><time>2026-03-28T09:52:40Z</time></trkpt><trkpt lat="44.906794022545064" lon="7.678117736517659"><ele>232.0</ele><time>2026-03-28T09:52:41Z</time></trkpt><trkpt lat="44.906654441262546" lon="7.678064630771052"><ele>232.0</ele><time>2026-03-28T09:52:42Z</time></trkpt><trkpt lat="44.9065252145824" lon="7.678008789700219"><ele>232.0</ele><time>2026-03-28T09:52:43Z</time></trkpt><trkpt lat="44.906411756352846" lon="7.677949265945663"><ele>231.39999999999998</ele><time>2026-03-28T09:52:44Z</time></trkpt><trkpt lat="44.90630887538625" lon="7.677895606035178"><ele>230.79999999999998</ele><time>2026-03-28T09:52:45Z</time></trkpt><trkpt lat="44.90621168636658" lon="7.677852126143971"><ele>230.2</ele><time>2026-03-28T09:52:46Z</time></trkpt><trkpt lat="44.906124206408364" lon="7.677806920869813"><ele>229.6</ele><time>2026-03-28T09:52:47Z</time></trkpt><trkpt lat="44.90604565207158" lon="7.677762535109978"><ele>229.0</ele><time>2026-03-28T09:52:48Z</time></trkpt><trkpt lat="44.90596860872365" lon="7.6777362881567"><ele>229.6</ele><time>2026-03-28T09:52:49Z</time></trkpt><trkpt lat="44.90588885381414" lon="7.677746648863003"><ele>230.2</ele><time>2026-03-28T09:52:50Z</time></trkpt><trkpt lat="44.90581556007637" lon="7.677813984213911"><ele>230.79999999999998</ele><time>2026-03-28T09:52:51Z</time></trkpt><trkpt lat="44.90577888622517" lon="7.677930599011235"><ele>231.39999999999998</ele><time>2026-03-28T09:52:52Z</time></trkpt><trkpt lat="44.905791933305196" lon="7.678070276666789"><ele>232.0</ele><time>2026-03-28T09:52:53Z</time></trkpt><trkpt lat="44.90586598158558" lon="7.678177106997284"><ele>232.0</ele><time>2026-03-28T09:52:54Z</time></trkpt><trkpt lat="44.90582563001228" lon="7.678337391407983"><ele>232.0</ele><time>2026-03-28T09:52:55Z</time></trkpt><trkpt lat="44.90580365358508" lon="7.678448003151534"><ele>232.0</ele><time>2026-03-28T09:52:56Z</time></trkpt><trkpt lat="44.905781182849104" lon="7.678543308224106"><ele>232.0</ele><time>2026-03-28T09:52:57Z</time></trkpt><trkpt lat="44.90575850300552" lon="7.678626746644504"><ele>232.0</ele><time>2026-03-28T09:52:58Z</time></trkpt><trkpt lat="44.905731223254904" lon="7.678791526531644"><ele>232.0</ele><time>2026-03-28T09:53:00Z</time></trkpt><trkpt lat="44.90571390728535" lon="7.678879522499285"><ele>232.0</ele><time>2026-03-28T09:53:01Z</time></trkpt><trkpt lat="44.90569860079302" lon="7.678968380856488"><ele>232.0</ele><time>2026-03-28T09:53:02Z</time></trkpt><trkpt lat="44.90566303313535" lon="7.67912772584634"><ele>232.0</ele><time>2026-03-28T09:53:04Z</time></trkpt><trkpt lat="44.90562269825909" lon="7.679273604186802"><ele>232.0</ele><time>2026-03-28T09:53:06Z</time></trkpt><trkpt lat="44.90553709918517" lon="7.679385613935136"><ele>232.0</ele><time>2026-03-28T09:53:08Z</time></trkpt><trkpt lat="44.9054311006479" lon="7.679420749149688"><ele>232.0</ele><time>2026-03-28T09:53:10Z</time></trkpt><trkpt lat="44.90532700086549" lon="7.679452483870391"><ele>232.0</ele><time>2026-03-28T09:53:12Z</time></trkpt><trkpt lat="44.90529393542131" lon="7.679574350834163"><ele>232.0</ele><time>2026-03-28T09:53:14Z</time></trkpt><trkpt lat="44.90535321344034" lon="7.679705860408237"><ele>232.0</ele><time>2026-03-28T09:53:16Z</time></trkpt><trkpt lat="44.90541179085306" lon="7.679816497546195"><ele>232.0</ele><time>2026-03-28T09:53:18Z</time></trkpt><trkpt lat="44.90545087128913" lon="7.679954010341067"><ele>232.0</ele><time>2026-03-28T09:53:20Z</time></trkpt><trkpt lat="44.905458197361654" lon="7.680146399752129"><ele>232.0</ele><time>2026-03-28T09:53:22Z</time></trkpt><trkpt lat="44.90543649336404" lon="7.680259295180212"><ele>232.0</ele><time>2026-03-28T09:53:23Z</time></trkpt><trkpt lat="44.905414463629256" lon="7.680368201029835"><ele>232.0</ele><time>2026-03-28T09:53:24Z</time></trkpt><trkpt lat="44.90539202926197" lon="7.680475352396578"><ele>231.99999999999997</ele><time>2026-03-28T09:53:25Z</time></trkpt><trkpt lat="44.90537106788379" lon="7.680580636056933"><ele>232.0</ele><time>2026-03-28T09:53:26Z</time></trkpt><trkpt lat="44.90535338798105" lon="7.680693825911737"><ele>232.0</ele><time>2026-03-28T09:53:27Z</time></trkpt><trkpt lat="44.90533650067463" lon="7.680805520728774"><ele>232.0</ele><time>2026-03-28T09:53:28Z</time></trkpt><trkpt lat="44.90531947443212" lon="7.680917935811928"><ele>231.99999999999997</ele><time>2026-03-28T09:53:29Z</time></trkpt><trkpt lat="44.9053070699817" lon="7.681038760448258"><ele>232.0</ele><time>2026-03-28T09:53:30Z</time></trkpt><trkpt lat="44.905304644946796" lon="7.681150869981677"><ele>232.0</ele><time>2026-03-28T09:53:31Z</time></trkpt><trkpt lat="44.90531205444651" lon="7.681269568961108"><ele>232.0</ele><time>2026-03-28T09:53:32Z</time></trkpt><trkpt lat="44.905322695688696" lon="7.681386919530281"><ele>232.0</ele><time>2026-03-28T09:53:33Z</time></trkpt><trkpt lat="44.905340390098594" lon="7.681501688777267"><ele>232.0</ele><time>2026-03-28T09:53:34Z</time></trkpt><trkpt lat="44.905364007148734" lon="7.681623409852275"><ele>232.0</ele><time>2026-03-28T09:53:35Z</time></trkpt><trkpt lat="44.90540640309218" lon="7.681767548875743"><ele>231.33333333333331</ele><time>2026-03-28T09:53:36Z</time></trkpt><trkpt lat="44.905425780956534" lon="7.681947915818361"><ele>230.66666666666669</ele><time>2026-03-28T09:53:37Z</time></trkpt><trkpt lat="44.90546908038801" lon="7.682172661994702"><ele>230.0</ele><time>2026-03-28T09:53:38Z</time></trkpt><trkpt lat="44.90551188809613" lon="7.682395415949505"><ele>230.0</ele><time>2026-03-28T09:53:39Z</time></trkpt><trkpt lat="44.90556726747559" lon="7.682635993069814"><ele>230.0</ele><time>2026-03-28T09:53:40Z</time></trkpt><trkpt lat="44.90561081283858" lon="7.682905321691821"><ele>230.0</ele><time>2026-03-28T09:53:41Z</time></trkpt><trkpt lat="44.905660838724614" lon="7.6831773980107565"><ele>230.0</ele><time>2026-03-28T09:53:42Z</time></trkpt><trkpt lat="44.90571015105233" lon="7.683437030383567"><ele>230.0</ele><time>2026-03-28T09:53:43Z</time></trkpt><trkpt lat="44.90576020973427" lon="7.683674432885086"><ele>230.0</ele><time>2026-03-28T09:53:44Z</time></trkpt><trkpt lat="44.90580496587357" lon="7.683925031487435"><ele>230.0</ele><time>2026-03-28T09:53:45Z</time></trkpt><trkpt lat="44.9058516949661" lon="7.684180185666851"><ele>230.0</ele><time>2026-03-28T09:53:46Z</time></trkpt><trkpt lat="44.90589836821814" lon="7.684435115693035"><ele>230.0</ele><time>2026-03-28T09:53:47Z</time></trkpt><trkpt lat="44.905946751258924" lon="7.684686868165439"><ele>230.0</ele><time>2026-03-28T09:53:48Z</time></trkpt><trkpt lat="44.90599737105137" lon="7.684939885924435"><ele>230.0</ele><time>2026-03-28T09:53:49Z</time></trkpt><trkpt lat="44.90604710765309" lon="7.685187749529841"><ele>230.0</ele><time>2026-03-28T09:53:50Z</time></trkpt><trkpt lat="44.906097724647886" lon="7.685437039097016"><ele>230.0</ele><time>2026-03-28T09:53:51Z</time></trkpt><trkpt lat="44.90615162656753" lon="7.685683876506115"><ele>230.0</ele><time>2026-03-28T09:53:52Z</time></trkpt><trkpt lat="44.906200973709566" lon="7.685934307150617"><ele>230.0</ele><time>2026-03-28T09:53:53Z</time></trkpt><trkpt lat="44.90625044582395" lon="7.6861865661422915"><ele>229.66666666666669</ele><time>2026-03-28T09:53:54Z</time></trkpt><trkpt lat="44.90628783669823" lon="7.686448514611758"><ele>229.33333333333331</ele><time>2026-03-28T09:53:55Z</time></trkpt><trkpt lat="44.90634799987895" lon="7.6866996063938"><ele>229.0</ele><time>2026-03-28T09:53:56Z</time></trkpt><trkpt lat="44.90639047331649" lon="7.686959582011344"><ele>229.0</ele><time>2026-03-28T09:53:57Z</time></trkpt><trkpt lat="44.90643557346798" lon="7.687193510044607"><ele>229.0</ele><time>2026-03-28T09:53:58Z</time></trkpt><trkpt lat="44.90648211740892" lon="7.687408318813539"><ele>229.0</ele><time>2026-03-28T09:53:59Z</time></trkpt><trkpt lat="44.9065396739166" lon="7.687599758508924"><ele>229.25</ele><time>2026-03-28T09:54:00Z</time></trkpt><trkpt lat="44.90660561102051" lon="7.68776634508582"><ele>229.5</ele><time>2026-03-28T09:54:01Z</time></trkpt><trkpt lat="44.90666279217519" lon="7.687932796838107"><ele>229.75</ele><time>2026-03-28T09:54:02Z</time></trkpt><trkpt lat="44.90668321944056" lon="7.688091708447904"><ele>230.0</ele><time>2026-03-28T09:54:03Z</time></trkpt><trkpt lat="44.906719229768925" lon="7.6882284229159366"><ele>230.0</ele><time>2026-03-28T09:54:04Z</time></trkpt><trkpt lat="44.90680378093293" lon="7.688323211179502"><ele>230.0</ele><time>2026-03-28T09:54:05Z</time></trkpt><trkpt lat="44.906909746338115" lon="7.688413077269031"><ele>230.0</ele><time>2026-03-28T09:54:06Z</time></trkpt><trkpt lat="44.90699140262919" lon="7.688513475876483"><ele>230.0</ele><time>2026-03-28T09:54:07Z</time></trkpt><trkpt lat="44.9071415723218" lon="7.68861454776802"><ele>230.0</ele><time>2026-03-28T09:54:08Z</time></trkpt><trkpt lat="44.90726027602039" lon="7.688792171850938"><ele>230.0</ele><time>2026-03-28T09:54:09Z</time></trkpt><trkpt lat="44.90738128910183" lon="7.688966607623205"><ele>230.0</ele><time>2026-03-28T09:54:10Z</time></trkpt><trkpt lat="44.90751187983507" lon="7.689138937138142"><ele>229.66666666666669</ele><time>2026-03-28T09:54:11Z</time></trkpt><trkpt lat="44.90764662215981" lon="7.68931510621661"><ele>229.33333333333331</ele><time>2026-03-28T09:54:12Z</time></trkpt><trkpt lat="44.907777830005784" lon="7.689492092647572"><ele>229.0</ele><time>2026-03-28T09:54:13Z</time></trkpt><trkpt lat="44.90790421162951" lon="7.689681296602219"><ele>229.0</ele><time>2026-03-28T09:54:14Z</time></trkpt><trkpt lat="44.90803311935497" lon="7.68986443324445"><ele>229.0</ele><time>2026-03-28T09:54:15Z</time></trkpt><trkpt lat="44.9081585681078" lon="7.6900339675781915"><ele>229.0</ele><time>2026-03-28T09:54:16Z</time></trkpt><trkpt lat="44.90828187504772" lon="7.6901999078991965"><ele>229.25</ele><time>2026-03-28T09:54:17Z</time></trkpt><trkpt lat="44.9083919037193" lon="7.690351484901178"><ele>229.5</ele><time>2026-03-28T09:54:18Z</time></trkpt><trkpt lat="44.908492976389844" lon="7.690490384434601"><ele>229.75</ele><time>2026-03-28T09:54:19Z</time></trkpt><trkpt lat="44.90858945053506" lon="7.690630696270881"><ele>230.0</ele><time>2026-03-28T09:54:20Z</time></trkpt><trkpt lat="44.90868828678222" lon="7.690770522196719"><ele>229.0</ele><time>2026-03-28T09:54:21Z</time></trkpt><trkpt lat="44.90879057145205" lon="7.690909790955801"><ele>228.0</ele><time>2026-03-28T09:54:22Z</time></trkpt><trkpt lat="44.90890217407593" lon="7.691062812284441"><ele>227.0</ele><time>2026-03-28T09:54:23Z</time></trkpt><trkpt lat="44.90901386280295" lon="7.691223570977566"><ele>227.0</ele><time>2026-03-28T09:54:24Z</time></trkpt><trkpt lat="44.90913013380288" lon="7.691389123080746"><ele>227.0</ele><time>2026-03-28T09:54:25Z</time></trkpt><trkpt lat="44.90925215384743" lon="7.691558064462332"><ele>227.0</ele><time>2026-03-28T09:54:26Z</time></trkpt><trkpt lat="44.909369781590364" lon="7.691728363148395"><ele>227.33333333333334</ele><time>2026-03-28T09:54:27Z</time></trkpt><trkpt lat="44.90949045375787" lon="7.691902497518035"><ele>227.66666666666669</ele><time>2026-03-28T09:54:28Z</time></trkpt><trkpt lat="44.909610394289736" lon="7.692076787948467"><ele>228.0</ele><time>2026-03-28T09:54:29Z</time></trkpt><trkpt lat="44.90972910852007" lon="7.692254256443484"><ele>228.33333333333331</ele><time>2026-03-28T09:54:30Z</time></trkpt><trkpt lat="44.909842890043954" lon="7.692434954895012"><ele>228.66666666666666</ele><time>2026-03-28T09:54:31Z</time></trkpt><trkpt lat="44.90995009272617" lon="7.692618088393525"><ele>229.0</ele><time>2026-03-28T09:54:32Z</time></trkpt><trkpt lat="44.910051264583714" lon="7.692807262759269"><ele>229.66666666666666</ele><time>2026-03-28T09:54:33Z</time></trkpt><trkpt lat="44.91014423636864" lon="7.69300323416181"><ele>230.33333333333331</ele><time>2026-03-28T09:54:34Z</time></trkpt><trkpt lat="44.91023458456582" lon="7.69320807060455"><ele>231.0</ele><time>2026-03-28T09:54:35Z</time></trkpt><trkpt lat="44.91032049008149" lon="7.693420277249592"><ele>231.33333333333331</ele><time>2026-03-28T09:54:36Z</time></trkpt><trkpt lat="44.910407793030785" lon="7.693636790310672"><ele>231.66666666666666</ele><time>2026-03-28T09:54:37Z</time></trkpt><trkpt lat="44.910489503779864" lon="7.693858858043101"><ele>232.0</ele><time>2026-03-28T09:54:38Z</time></trkpt><trkpt lat="44.910565398803314" lon="7.694089653444465"><ele>232.0</ele><time>2026-03-28T09:54:39Z</time></trkpt><trkpt lat="44.91063833383853" lon="7.694325977493904"><ele>232.0</ele><time>2026-03-28T09:54:40Z</time></trkpt><trkpt lat="44.910711136779575" lon="7.694554552069408"><ele>232.0</ele><time>2026-03-28T09:54:41Z</time></trkpt><trkpt lat="44.91078373552173" lon="7.694769205464441"><ele>231.75</ele><time>2026-03-28T09:54:42Z</time></trkpt><trkpt lat="44.91084675837609" lon="7.694960295714435"><ele>231.5</ele><time>2026-03-28T09:54:43Z</time></trkpt><trkpt lat="44.910891174502936" lon="7.6951534984079535"><ele>231.25</ele><time>2026-03-28T09:54:44Z</time></trkpt><trkpt lat="44.91093218298238" lon="7.695353621515164"><ele>231.0</ele><time>2026-03-28T09:54:45Z</time></trkpt><trkpt lat="44.910969905980885" lon="7.695554975177115"><ele>231.0</ele><time>2026-03-28T09:54:46Z</time></trkpt><trkpt lat="44.911060675486176" lon="7.695718729512413"><ele>231.0</ele><time>2026-03-28T09:54:47Z</time></trkpt><trkpt lat="44.911146392873626" lon="7.695916826922782"><ele>231.0</ele><time>2026-03-28T09:54:48Z</time></trkpt><trkpt lat="44.911220416925616" lon="7.696140476819255"><ele>230.66666666666669</ele><time>2026-03-28T09:54:49Z</time></trkpt><trkpt lat="44.91129720997015" lon="7.696375915419468"><ele>230.33333333333334</ele><time>2026-03-28T09:54:50Z</time></trkpt><trkpt lat="44.9113663125673" lon="7.696630900721912"><ele>230.0</ele><time>2026-03-28T09:54:51Z</time></trkpt><trkpt lat="44.91144348565893" lon="7.696877531202795"><ele>229.33333333333334</ele><time>2026-03-28T09:54:52Z</time></trkpt><trkpt lat="44.91152209157127" lon="7.697114785755157"><ele>228.66666666666669</ele><time>2026-03-28T09:54:53Z</time></trkpt><trkpt lat="44.91160035632126" lon="7.697352255224583"><ele>228.0</ele><time>2026-03-28T09:54:54Z</time></trkpt><trkpt lat="44.91167747331872" lon="7.697596716733159"><ele>228.33333333333331</ele><time>2026-03-28T09:54:55Z</time></trkpt><trkpt lat="44.91175304679322" lon="7.697846645479459"><ele>228.66666666666666</ele><time>2026-03-28T09:54:56Z</time></trkpt><trkpt lat="44.91183131531026" lon="7.6981082539984715"><ele>229.0</ele><time>2026-03-28T09:54:57Z</time></trkpt><trkpt lat="44.91191385077174" lon="7.698368323033257"><ele>228.66666666666666</ele><time>2026-03-28T09:54:58Z</time></trkpt><trkpt lat="44.91199719054559" lon="7.698617928627296"><ele>228.33333333333331</ele><time>2026-03-28T09:54:59Z</time></trkpt><trkpt lat="44.91207995741111" lon="7.698868848643572"><ele>228.0</ele><time>2026-03-28T09:55:00Z</time></trkpt><trkpt lat="44.91215917994318" lon="7.69912730078503"><ele>228.0</ele><time>2026-03-28T09:55:01Z</time></trkpt><trkpt lat="44.912238248881295" lon="7.699388793044505"><ele>228.0</ele><time>2026-03-28T09:55:02Z</time></trkpt><trkpt lat="44.9123197100558" lon="7.699650183482565"><ele>228.0</ele><time>2026-03-28T09:55:03Z</time></trkpt><trkpt lat="44.91240317639109" lon="7.699914549995241"><ele>228.0</ele><time>2026-03-28T09:55:04Z</time></trkpt><trkpt lat="44.912486307998705" lon="7.700183102310564"><ele>228.0</ele><time>2026-03-28T09:55:05Z</time></trkpt><trkpt lat="44.912570769444514" lon="7.700451367603295"><ele>228.0</ele><time>2026-03-28T09:55:06Z</time></trkpt><trkpt lat="44.91265522775022" lon="7.700719977206019"><ele>228.33333333333331</ele><time>2026-03-28T09:55:07Z</time></trkpt><trkpt lat="44.9127410195386" lon="7.700990732990852"><ele>228.66666666666666</ele><time>2026-03-28T09:55:08Z</time></trkpt><trkpt lat="44.91282791971321" lon="7.70126870820652"><ele>229.0</ele><time>2026-03-28T09:55:09Z</time></trkpt><trkpt lat="44.912916914991655" lon="7.70155134641035"><ele>229.0</ele><time>2026-03-28T09:55:10Z</time></trkpt><trkpt lat="44.91300770387026" lon="7.701835310996464"><ele>229.0</ele><time>2026-03-28T09:55:11Z</time></trkpt><trkpt lat="44.913100902269406" lon="7.702121559556622"><ele>229.0</ele><time>2026-03-28T09:55:12Z</time></trkpt><trkpt lat="44.91319352775305" lon="7.702410662871257"><ele>229.0</ele><time>2026-03-28T09:55:13Z</time></trkpt><trkpt lat="44.91328442539409" lon="7.7026939880433565"><ele>229.0</ele><time>2026-03-28T09:55:14Z</time></trkpt><trkpt lat="44.91337479570111" lon="7.702974317344949"><ele>229.0</ele><time>2026-03-28T09:55:15Z</time></trkpt><trkpt lat="44.913464074217806" lon="7.703256412396206"><ele>229.33333333333331</ele><time>2026-03-28T09:55:16Z</time></trkpt><trkpt lat="44.913551260918105" lon="7.7035387449159956"><ele>229.66666666666669</ele><time>2026-03-28T09:55:17Z</time></trkpt><trkpt lat="44.91363887592383" lon="7.703821434316054"><ele>230.0</ele><time>2026-03-28T09:55:18Z</time></trkpt><trkpt lat="44.91372826685711" lon="7.704103589095307"><ele>230.0</ele><time>2026-03-28T09:55:19Z</time></trkpt><trkpt lat="44.913817586216275" lon="7.704377751447216"><ele>230.0</ele><time>2026-03-28T09:55:20Z</time></trkpt><trkpt lat="44.9139062116737" lon="7.7046617243813245"><ele>230.0</ele><time>2026-03-28T09:55:21Z</time></trkpt><trkpt lat="44.91399315253818" lon="7.704943462762328"><ele>229.33333333333334</ele><time>2026-03-28T09:55:22Z</time></trkpt><trkpt lat="44.91408236254941" lon="7.7052284765510235"><ele>228.66666666666669</ele><time>2026-03-28T09:55:23Z</time></trkpt><trkpt lat="44.914172873866605" lon="7.705512253664845"><ele>228.0</ele><time>2026-03-28T09:55:24Z</time></trkpt><trkpt lat="44.91426467382185" lon="7.705797111406116"><ele>228.0</ele><time>2026-03-28T09:55:25Z</time></trkpt><trkpt lat="44.91435777429202" lon="7.706079407791359"><ele>228.0</ele><time>2026-03-28T09:55:26Z</time></trkpt><trkpt lat="44.914445533492014" lon="7.70636216591766"><ele>228.0</ele><time>2026-03-28T09:55:27Z</time></trkpt><trkpt lat="44.91453177393662" lon="7.706646901165643"><ele>228.66666666666669</ele><time>2026-03-28T09:55:28Z</time></trkpt><trkpt lat="44.91462057342373" lon="7.706925114934699"><ele>229.33333333333334</ele><time>2026-03-28T09:55:29Z</time></trkpt><trkpt lat="44.914709297452895" lon="7.707199355029982"><ele>230.0</ele><time>2026-03-28T09:55:30Z</time></trkpt><trkpt lat="44.9147974562092" lon="7.707474027223242"><ele>230.0</ele><time>2026-03-28T09:55:31Z</time></trkpt><trkpt lat="44.914885411310784" lon="7.707749314612555"><ele>230.0</ele><time>2026-03-28T09:55:32Z</time></trkpt><trkpt lat="44.91497436073687" lon="7.708027461876519"><ele>230.0</ele><time>2026-03-28T09:55:33Z</time></trkpt><trkpt lat="44.915063125930914" lon="7.708304171512271"><ele>229.33333333333334</ele><time>2026-03-28T09:55:34Z</time></trkpt><trkpt lat="44.915153603081095" lon="7.70858421787787"><ele>228.66666666666669</ele><time>2026-03-28T09:55:35Z</time></trkpt><trkpt lat="44.915241316468475" lon="7.708865860000561"><ele>228.0</ele><time>2026-03-28T09:55:36Z</time></trkpt><trkpt lat="44.91533050700402" lon="7.709151934039943"><ele>228.33333333333331</ele><time>2026-03-28T09:55:37Z</time></trkpt><trkpt lat="44.91541750401255" lon="7.709438978930661"><ele>228.66666666666666</ele><time>2026-03-28T09:55:38Z</time></trkpt><trkpt lat="44.91550766235648" lon="7.709726536324041"><ele>229.0</ele><time>2026-03-28T09:55:39Z</time></trkpt><trkpt lat="44.915599731287685" lon="7.710012598743412"><ele>228.66666666666666</ele><time>2026-03-28T09:55:40Z</time></trkpt><trkpt lat="44.91569080284765" lon="7.71029618836641"><ele>228.33333333333331</ele><time>2026-03-28T09:55:41Z</time></trkpt><trkpt lat="44.91577848644072" lon="7.710584077834187"><ele>228.0</ele><time>2026-03-28T09:55:42Z</time></trkpt><trkpt lat="44.91586968221606" lon="7.71087109356048"><ele>227.33333333333331</ele><time>2026-03-28T09:55:43Z</time></trkpt><trkpt lat="44.91595957076573" lon="7.7111577245348935"><ele>226.66666666666666</ele><time>2026-03-28T09:55:44Z</time></trkpt><trkpt lat="44.91604918188064" lon="7.711445525770045"><ele>226.0</ele><time>2026-03-28T09:55:45Z</time></trkpt><trkpt lat="44.91614144488282" lon="7.711735765939539"><ele>227.0</ele><time>2026-03-28T09:55:46Z</time></trkpt><trkpt lat="44.91623290774977" lon="7.712024735921966"><ele>228.0</ele><time>2026-03-28T09:55:47Z</time></trkpt><trkpt lat="44.91632354362736" lon="7.712317048024787"><ele>228.0</ele><time>2026-03-28T09:55:48Z</time></trkpt><trkpt lat="44.91641493965276" lon="7.71260677131921"><ele>228.0</ele><time>2026-03-28T09:55:49Z</time></trkpt><trkpt lat="44.916507861078" lon="7.712901881353246"><ele>228.0</ele><time>2026-03-28T09:55:50Z</time></trkpt><trkpt lat="44.91660014223053" lon="7.713197844095381"><ele>228.0</ele><time>2026-03-28T09:55:51Z</time></trkpt><trkpt lat="44.91669415720071" lon="7.713496797121897"><ele>227.0</ele><time>2026-03-28T09:55:52Z</time></trkpt><trkpt lat="44.916792474562065" lon="7.7137930116170175"><ele>226.0</ele><time>2026-03-28T09:55:53Z</time></trkpt><trkpt lat="44.91688802013987" lon="7.714089861556406"><ele>226.0</ele><time>2026-03-28T09:55:54Z</time></trkpt><trkpt lat="44.91698151541494" lon="7.714388397282741"><ele>226.0</ele><time>2026-03-28T09:55:55Z</time></trkpt><trkpt lat="44.91707395327716" lon="7.714688621034348"><ele>226.0</ele><time>2026-03-28T09:55:56Z</time></trkpt><trkpt lat="44.917166285020606" lon="7.71498459227012"><ele>226.0</ele><time>2026-03-28T09:55:57Z</time></trkpt><trkpt lat="44.917258456990794" lon="7.71528410616904"><ele>226.0</ele><time>2026-03-28T09:55:58Z</time></trkpt><trkpt lat="44.91735189183331" lon="7.715579276314505"><ele>226.0</ele><time>2026-03-28T09:55:59Z</time></trkpt><trkpt lat="44.91744681840736" lon="7.715875777295763"><ele>227.0</ele><time>2026-03-28T09:56:00Z</time></trkpt><trkpt lat="44.91753987795368" lon="7.71617084249237"><ele>228.0</ele><time>2026-03-28T09:56:01Z</time></trkpt><trkpt lat="44.917632846331465" lon="7.71646413571722"><ele>228.0</ele><time>2026-03-28T09:56:02Z</time></trkpt><trkpt lat="44.91772514727736" lon="7.716757660741062"><ele>228.0</ele><time>2026-03-28T09:56:03Z</time></trkpt><trkpt lat="44.917817615921564" lon="7.717050230577736"><ele>227.5</ele><time>2026-03-28T09:56:04Z</time></trkpt><trkpt lat="44.91791213508102" lon="7.717343016306238"><ele>227.0</ele><time>2026-03-28T09:56:05Z</time></trkpt><trkpt lat="44.918005520005586" lon="7.717631259214696"><ele>227.0</ele><time>2026-03-28T09:56:06Z</time></trkpt><trkpt lat="44.9180956759451" lon="7.717916813922292"><ele>227.0</ele><time>2026-03-28T09:56:07Z</time></trkpt><trkpt lat="44.918184223669535" lon="7.718193568074098"><ele>227.0</ele><time>2026-03-28T09:56:08Z</time></trkpt><trkpt lat="44.91826923426827" lon="7.718467308830948"><ele>226.66666666666669</ele><time>2026-03-28T09:56:09Z</time></trkpt><trkpt lat="44.91835086655634" lon="7.718744538307681"><ele>226.33333333333331</ele><time>2026-03-28T09:56:10Z</time></trkpt><trkpt lat="44.918437449678784" lon="7.719016029364001"><ele>226.0</ele><time>2026-03-28T09:56:11Z</time></trkpt><trkpt lat="44.91852214775638" lon="7.71929609296677"><ele>226.66666666666666</ele><time>2026-03-28T09:56:12Z</time></trkpt><trkpt lat="44.91861151920339" lon="7.719572233595898"><ele>227.33333333333331</ele><time>2026-03-28T09:56:13Z</time></trkpt><trkpt lat="44.91869991664889" lon="7.719853585595975"><ele>228.0</ele><time>2026-03-28T09:56:14Z</time></trkpt><trkpt lat="44.91878966105778" lon="7.720133436599044"><ele>228.0</ele><time>2026-03-28T09:56:15Z</time></trkpt><trkpt lat="44.918879593983704" lon="7.720413383289016"><ele>228.0</ele><time>2026-03-28T09:56:16Z</time></trkpt><trkpt lat="44.91897091729326" lon="7.720692578588923"><ele>228.0</ele><time>2026-03-28T09:56:17Z</time></trkpt><trkpt lat="44.91905899044463" lon="7.720968009915893"><ele>228.0</ele><time>2026-03-28T09:56:18Z</time></trkpt><trkpt lat="44.919146126530315" lon="7.721244996797928"><ele>228.0</ele><time>2026-03-28T09:56:19Z</time></trkpt><trkpt lat="44.91923456964091" lon="7.7215222827643535"><ele>228.0</ele><time>2026-03-28T09:56:20Z</time></trkpt><trkpt lat="44.91932239364519" lon="7.7217978854856355"><ele>227.66666666666669</ele><time>2026-03-28T09:56:21Z</time></trkpt><trkpt lat="44.919409278634106" lon="7.722077419123091"><ele>227.33333333333334</ele><time>2026-03-28T09:56:22Z</time></trkpt><trkpt lat="44.91949865168099" lon="7.722355831593494"><ele>227.0</ele><time>2026-03-28T09:56:23Z</time></trkpt><trkpt lat="44.91958599785887" lon="7.722636685174447"><ele>227.66666666666669</ele><time>2026-03-28T09:56:24Z</time></trkpt><trkpt lat="44.919673253717534" lon="7.722917759546593"><ele>228.33333333333331</ele><time>2026-03-28T09:56:25Z</time></trkpt><trkpt lat="44.91976305402687" lon="7.723199036996555"><ele>229.0</ele><time>2026-03-28T09:56:26Z</time></trkpt><trkpt lat="44.919853038643886" lon="7.723483052042101"><ele>229.0</ele><time>2026-03-28T09:56:27Z</time></trkpt><trkpt lat="44.91994274368211" lon="7.723762404118022"><ele>229.0</ele><time>2026-03-28T09:56:28Z</time></trkpt><trkpt lat="44.9200334412481" lon="7.724043787854104"><ele>229.0</ele><time>2026-03-28T09:56:29Z</time></trkpt><trkpt lat="44.92012231839209" lon="7.72432707558632"><ele>229.66666666666666</ele><time>2026-03-28T09:56:30Z</time></trkpt><trkpt lat="44.920213161477356" lon="7.724611819352174"><ele>230.33333333333331</ele><time>2026-03-28T09:56:31Z</time></trkpt><trkpt lat="44.92030336221991" lon="7.724893659173723"><ele>231.0</ele><time>2026-03-28T09:56:32Z</time></trkpt><trkpt lat="44.92039162148966" lon="7.725168873447159"><ele>230.33333333333331</ele><time>2026-03-28T09:56:33Z</time></trkpt><trkpt lat="44.92048063024319" lon="7.725460426336752"><ele>229.66666666666666</ele><time>2026-03-28T09:56:34Z</time></trkpt><trkpt lat="44.92057049793461" lon="7.725742574627926"><ele>229.0</ele><time>2026-03-28T09:56:35Z</time></trkpt><trkpt lat="44.92065986253901" lon="7.726029782344009"><ele>229.0</ele><time>2026-03-28T09:56:36Z</time></trkpt><trkpt lat="44.92075223326989" lon="7.726317982249866"><ele>229.0</ele><time>2026-03-28T09:56:37Z</time></trkpt><trkpt lat="44.9208434759763" lon="7.726603354909447"><ele>229.0</ele><time>2026-03-28T09:56:38Z</time></trkpt><trkpt lat="44.92093494642409" lon="7.72688834795762"><ele>228.0</ele><time>2026-03-28T09:56:39Z</time></trkpt><trkpt lat="44.92102675684003" lon="7.727167513823349"><ele>227.0</ele><time>2026-03-28T09:56:40Z</time></trkpt><trkpt lat="44.92110868876376" lon="7.727444801600709"><ele>226.0</ele><time>2026-03-28T09:56:41Z</time></trkpt><trkpt lat="44.92119596778132" lon="7.727721150194944"><ele>226.33333333333331</ele><time>2026-03-28T09:56:42Z</time></trkpt><trkpt lat="44.921281545744044" lon="7.727989893721147"><ele>226.66666666666669</ele><time>2026-03-28T09:56:43Z</time></trkpt><trkpt lat="44.921365818358474" lon="7.728259817722593"><ele>227.0</ele><time>2026-03-28T09:56:44Z</time></trkpt><trkpt lat="44.921455604834186" lon="7.728524099780813"><ele>228.0</ele><time>2026-03-28T09:56:45Z</time></trkpt><trkpt lat="44.92153496697557" lon="7.7287878404219175"><ele>229.0</ele><time>2026-03-28T09:56:46Z</time></trkpt><trkpt lat="44.92161382971966" lon="7.729046837034406"><ele>230.0</ele><time>2026-03-28T09:56:47Z</time></trkpt><trkpt lat="44.92170014929541" lon="7.729305541473582"><ele>230.0</ele><time>2026-03-28T09:56:48Z</time></trkpt><trkpt lat="44.92178462705946" lon="7.729566828850334"><ele>230.0</ele><time>2026-03-28T09:56:49Z</time></trkpt><trkpt lat="44.92186091330298" lon="7.729827897957571"><ele>230.0</ele><time>2026-03-28T09:56:50Z</time></trkpt><trkpt lat="44.921938070446764" lon="7.730080704050538"><ele>230.33333333333334</ele><time>2026-03-28T09:56:51Z</time></trkpt><trkpt lat="44.922013623784444" lon="7.730320866601765"><ele>230.66666666666669</ele><time>2026-03-28T09:56:52Z</time></trkpt><trkpt lat="44.922087797696754" lon="7.73055236739351"><ele>231.0</ele><time>2026-03-28T09:56:53Z</time></trkpt><trkpt lat="44.92215502760814" lon="7.730783943347206"><ele>231.0</ele><time>2026-03-28T09:56:54Z</time></trkpt><trkpt lat="44.92222397966373" lon="7.731018727091094"><ele>231.0</ele><time>2026-03-28T09:56:55Z</time></trkpt><trkpt lat="44.92229354923862" lon="7.731247605747368"><ele>231.0</ele><time>2026-03-28T09:56:56Z</time></trkpt><trkpt lat="44.92236181584208" lon="7.731475664909644"><ele>231.33333333333331</ele><time>2026-03-28T09:56:57Z</time></trkpt><trkpt lat="44.92243080007647" lon="7.731703881281326"><ele>231.66666666666666</ele><time>2026-03-28T09:56:58Z</time></trkpt><trkpt lat="44.9224998895799" lon="7.731928240720307"><ele>232.0</ele><time>2026-03-28T09:56:59Z</time></trkpt><trkpt lat="44.92256633150256" lon="7.732154388796828"><ele>231.33333333333331</ele><time>2026-03-28T09:57:00Z</time></trkpt><trkpt lat="44.92263673748946" lon="7.732377214531017"><ele>230.66666666666669</ele><time>2026-03-28T09:57:01Z</time></trkpt><trkpt lat="44.922702157639435" lon="7.732591148200797"><ele>230.0</ele><time>2026-03-28T09:57:02Z</time></trkpt><trkpt lat="44.922761875728035" lon="7.732791758205421"><ele>231.0</ele><time>2026-03-28T09:57:03Z</time></trkpt><trkpt lat="44.92281896304995" lon="7.732989540216362"><ele>232.0</ele><time>2026-03-28T09:57:04Z</time></trkpt><trkpt lat="44.92287344070999" lon="7.733180119584178"><ele>233.0</ele><time>2026-03-28T09:57:05Z</time></trkpt><trkpt lat="44.922927505958526" lon="7.733359054082339"><ele>234.0</ele><time>2026-03-28T09:57:06Z</time></trkpt><trkpt lat="44.92298220690998" lon="7.733531085886736"><ele>232.75</ele><time>2026-03-28T09:57:07Z</time></trkpt><trkpt lat="44.92302858782434" lon="7.733684744820283"><ele>231.5</ele><time>2026-03-28T09:57:08Z</time></trkpt><trkpt lat="44.92308043942235" lon="7.733848249758079"><ele>230.25</ele><time>2026-03-28T09:57:09Z</time></trkpt><trkpt lat="44.92312646549911" lon="7.734005247926411"><ele>229.0</ele><time>2026-03-28T09:57:10Z</time></trkpt><trkpt lat="44.923165685538656" lon="7.734158022692666"><ele>229.0</ele><time>2026-03-28T09:57:11Z</time></trkpt><trkpt lat="44.923194621350966" lon="7.73429196525446"><ele>228.99999999999997</ele><time>2026-03-28T09:57:12Z</time></trkpt><trkpt lat="44.92321126999947" lon="7.734426747633815"><ele>228.99999999999997</ele><time>2026-03-28T09:57:13Z</time></trkpt><trkpt lat="44.923193997407225" lon="7.734560558203913"><ele>229.0</ele><time>2026-03-28T09:57:14Z</time></trkpt><trkpt lat="44.92316200055338" lon="7.734675829818488"><ele>229.0</ele><time>2026-03-28T09:57:15Z</time></trkpt><trkpt lat="44.9231298669259" lon="7.734791102559132"><ele>229.0</ele><time>2026-03-28T09:57:16Z</time></trkpt><trkpt lat="44.923116961031965" lon="7.734916140132358"><ele>228.99999999999997</ele><time>2026-03-28T09:57:17Z</time></trkpt><trkpt lat="44.923140789786885" lon="7.735021422846044"><ele>228.99999999999997</ele><time>2026-03-28T09:57:18Z</time></trkpt><trkpt lat="44.92322345981486" lon="7.735107195552474"><ele>229.0</ele><time>2026-03-28T09:57:19Z</time></trkpt><trkpt lat="44.92331855011979" lon="7.7351926480490905"><ele>229.0</ele><time>2026-03-28T09:57:20Z</time></trkpt><trkpt lat="44.92339780813847" lon="7.735297792354557"><ele>229.0</ele><time>2026-03-28T09:57:21Z</time></trkpt><trkpt lat="44.923445630784336" lon="7.735446845472431"><ele>229.0</ele><time>2026-03-28T09:57:22Z</time></trkpt><trkpt lat="44.92346822833419" lon="7.735628843082374"><ele>229.0</ele><time>2026-03-28T09:57:23Z</time></trkpt><trkpt lat="44.92349116720683" lon="7.735818934200029"><ele>229.0</ele><time>2026-03-28T09:57:24Z</time></trkpt><trkpt lat="44.92351970399508" lon="7.736012491100403"><ele>229.5</ele><time>2026-03-28T09:57:25Z</time></trkpt><trkpt lat="44.923551257396156" lon="7.736213114882927"><ele>230.0</ele><time>2026-03-28T09:57:26Z</time></trkpt><trkpt lat="44.923584126858884" lon="7.736417491510897"><ele>230.5</ele><time>2026-03-28T09:57:27Z</time></trkpt><trkpt lat="44.9236135978386" lon="7.7366098307952695"><ele>231.0</ele><time>2026-03-28T09:57:28Z</time></trkpt><trkpt lat="44.923642434763636" lon="7.736800577300215"><ele>230.75</ele><time>2026-03-28T09:57:29Z</time></trkpt><trkpt lat="44.92367257836706" lon="7.736991403627539"><ele>230.5</ele><time>2026-03-28T09:57:30Z</time></trkpt><trkpt lat="44.92370633171123" lon="7.737188240863094"><ele>230.25</ele><time>2026-03-28T09:57:31Z</time></trkpt><trkpt lat="44.923740956030954" lon="7.737388439166329"><ele>230.0</ele><time>2026-03-28T09:57:32Z</time></trkpt><trkpt lat="44.92378032552" lon="7.737576510617446"><ele>229.5</ele><time>2026-03-28T09:57:33Z</time></trkpt><trkpt lat="44.923816247744085" lon="7.737746639624194"><ele>229.0</ele><time>2026-03-28T09:57:34Z</time></trkpt><trkpt lat="44.92385094456769" lon="7.737913344674051"><ele>228.5</ele><time>2026-03-28T09:57:35Z</time></trkpt><trkpt lat="44.9238902198816" lon="7.73807982660653"><ele>228.0</ele><time>2026-03-28T09:57:36Z</time></trkpt><trkpt lat="44.923925694739935" lon="7.7382344285193625"><ele>228.0</ele><time>2026-03-28T09:57:37Z</time></trkpt><trkpt lat="44.923955173471626" lon="7.738375865184734"><ele>228.0</ele><time>2026-03-28T09:57:38Z</time></trkpt><trkpt lat="44.92398112918624" lon="7.738500145929015"><ele>228.0</ele><time>2026-03-28T09:57:39Z</time></trkpt><trkpt lat="44.92400285639211" lon="7.7386150654227706"><ele>228.0</ele><time>2026-03-28T09:57:40Z</time></trkpt><trkpt lat="44.92401794414129" lon="7.738721408329769"><ele>228.0</ele><time>2026-03-28T09:57:41Z</time></trkpt><trkpt lat="44.92399976861523" lon="7.73883058941774"><ele>228.0</ele><time>2026-03-28T09:57:42Z</time></trkpt><trkpt lat="44.92395554150738" lon="7.738941827952641"><ele>228.2</ele><time>2026-03-28T09:57:43Z</time></trkpt><trkpt lat="44.923876884928724" lon="7.739017251487763"><ele>228.4</ele><time>2026-03-28T09:57:44Z</time></trkpt><trkpt lat="44.9238231973896" lon="7.7391325630377485"><ele>228.59999999999997</ele><time>2026-03-28T09:57:45Z</time></trkpt><trkpt lat="44.92374646334172" lon="7.739224086517103"><ele>228.79999999999998</ele><time>2026-03-28T09:57:46Z</time></trkpt><trkpt lat="44.92368310574834" lon="7.739322742308927"><ele>229.0</ele><time>2026-03-28T09:57:47Z</time></trkpt><trkpt lat="44.92363238070369" lon="7.7394408990912735"><ele>229.33333333333331</ele><time>2026-03-28T09:57:48Z</time></trkpt><trkpt lat="44.9235821754329" lon="7.739547158149682"><ele>229.66666666666666</ele><time>2026-03-28T09:57:49Z</time></trkpt><trkpt lat="44.92353310046534" lon="7.7396465273303"><ele>230.0</ele><time>2026-03-28T09:57:50Z</time></trkpt><trkpt lat="44.923486846549885" lon="7.739751999280771"><ele>230.33333333333331</ele><time>2026-03-28T09:57:51Z</time></trkpt><trkpt lat="44.92344217041388" lon="7.739853781227369"><ele>230.66666666666666</ele><time>2026-03-28T09:57:52Z</time></trkpt><trkpt lat="44.92339601355148" lon="7.739949123382363"><ele>231.0</ele><time>2026-03-28T09:57:53Z</time></trkpt><trkpt lat="44.92335268101383" lon="7.740038617874742"><ele>231.83333333333334</ele><time>2026-03-28T09:57:54Z</time></trkpt><trkpt lat="44.92330721368493" lon="7.740137532589005"><ele>232.66666666666669</ele><time>2026-03-28T09:57:55Z</time></trkpt><trkpt lat="44.92326053705568" lon="7.740224871371813"><ele>233.5</ele><time>2026-03-28T09:57:56Z</time></trkpt><trkpt lat="44.923218036530436" lon="7.740303822387062"><ele>234.33333333333334</ele><time>2026-03-28T09:57:57Z</time></trkpt><trkpt lat="44.923180948392016" lon="7.740395978289056"><ele>235.16666666666669</ele><time>2026-03-28T09:57:58Z</time></trkpt><trkpt lat="44.92314096458914" lon="7.740496446087441"><ele>236.0</ele><time>2026-03-28T09:57:59Z</time></trkpt><trkpt lat="44.923092171107484" lon="7.740604732539976"><ele>236.33333333333334</ele><time>2026-03-28T09:58:00Z</time></trkpt><trkpt lat="44.92304787401816" lon="7.740712408952296"><ele>236.66666666666669</ele><time>2026-03-28T09:58:01Z</time></trkpt><trkpt lat="44.92301020852522" lon="7.740817912779846"><ele>237.0</ele><time>2026-03-28T09:58:02Z</time></trkpt><trkpt lat="44.922979562751884" lon="7.740931069273658"><ele>237.33333333333331</ele><time>2026-03-28T09:58:03Z</time></trkpt><trkpt lat="44.922964164988144" lon="7.741033160551585"><ele>237.66666666666666</ele><time>2026-03-28T09:58:04Z</time></trkpt><trkpt lat="44.92297198671575" lon="7.741146061817663"><ele>238.0</ele><time>2026-03-28T09:58:05Z</time></trkpt><trkpt lat="44.92300032632802" lon="7.741267859306056"><ele>238.0</ele><time>2026-03-28T09:58:06Z</time></trkpt><trkpt lat="44.92303426930989" lon="7.741392189227513"><ele>238.0</ele><time>2026-03-28T09:58:07Z</time></trkpt><trkpt lat="44.92306484179889" lon="7.741523076708702"><ele>238.0</ele><time>2026-03-28T09:58:08Z</time></trkpt><trkpt lat="44.923100351755075" lon="7.741662205951179"><ele>238.0</ele><time>2026-03-28T09:58:09Z</time></trkpt><trkpt lat="44.92314007333796" lon="7.74180437003619"><ele>238.0</ele><time>2026-03-28T09:58:10Z</time></trkpt><trkpt lat="44.92316832489406" lon="7.741939694508015"><ele>238.60000000000002</ele><time>2026-03-28T09:58:11Z</time></trkpt><trkpt lat="44.92318672123701" lon="7.742082809750419"><ele>239.20000000000002</ele><time>2026-03-28T09:58:12Z</time></trkpt><trkpt lat="44.92320630936785" lon="7.742225215680827"><ele>239.8</ele><time>2026-03-28T09:58:13Z</time></trkpt><trkpt lat="44.923228383368986" lon="7.742360152397042"><ele>240.4</ele><time>2026-03-28T09:58:14Z</time></trkpt><trkpt lat="44.923250534775235" lon="7.742503347499348"><ele>241.0</ele><time>2026-03-28T09:58:15Z</time></trkpt><trkpt lat="44.92327150038633" lon="7.742653578182784"><ele>240.60000000000002</ele><time>2026-03-28T09:58:16Z</time></trkpt><trkpt lat="44.92329905169544" lon="7.742803512758682"><ele>240.20000000000002</ele><time>2026-03-28T09:58:17Z</time></trkpt><trkpt lat="44.92332135163875" lon="7.742953929407635"><ele>239.79999999999998</ele><time>2026-03-28T09:58:18Z</time></trkpt><trkpt lat="44.92334488183988" lon="7.743105434754568"><ele>239.39999999999998</ele><time>2026-03-28T09:58:19Z</time></trkpt><trkpt lat="44.923365428709" lon="7.743261217656246"><ele>239.0</ele><time>2026-03-28T09:58:20Z</time></trkpt><trkpt lat="44.923387041879806" lon="7.743422666542838"><ele>238.39999999999998</ele><time>2026-03-28T09:58:21Z</time></trkpt><trkpt lat="44.92341208864175" lon="7.743576184964516"><ele>237.79999999999998</ele><time>2026-03-28T09:58:22Z</time></trkpt><trkpt lat="44.92343906607267" lon="7.743730788247252"><ele>237.20000000000002</ele><time>2026-03-28T09:58:23Z</time></trkpt><trkpt lat="44.92347020090607" lon="7.743886344538133"><ele>236.60000000000002</ele><time>2026-03-28T09:58:24Z</time></trkpt><trkpt lat="44.923516326871976" lon="7.744026825571255"><ele>236.0</ele><time>2026-03-28T09:58:25Z</time></trkpt><trkpt lat="44.92356232592126" lon="7.744170216137501"><ele>236.0</ele><time>2026-03-28T09:58:26Z</time></trkpt><trkpt lat="44.92362851662145" lon="7.744309216208403"><ele>236.0</ele><time>2026-03-28T09:58:27Z</time></trkpt><trkpt lat="44.923709868534544" lon="7.744436449246906"><ele>236.0</ele><time>2026-03-28T09:58:28Z</time></trkpt><trkpt lat="44.92380312538165" lon="7.74455935120591"><ele>236.0</ele><time>2026-03-28T09:58:29Z</time></trkpt><trkpt lat="44.92390302606948" lon="7.744668449496167"><ele>236.0</ele><time>2026-03-28T09:58:30Z</time></trkpt><trkpt lat="44.92399724077431" lon="7.744783188633575"><ele>236.0</ele><time>2026-03-28T09:58:31Z</time></trkpt><trkpt lat="44.92408074687036" lon="7.744920959256695"><ele>236.0</ele><time>2026-03-28T09:58:32Z</time></trkpt><trkpt lat="44.92416374167304" lon="7.7450670953503"><ele>236.0</ele><time>2026-03-28T09:58:33Z</time></trkpt><trkpt lat="44.92425335477827" lon="7.7452167257574605"><ele>236.0</ele><time>2026-03-28T09:58:34Z</time></trkpt><trkpt lat="44.92434477089716" lon="7.745361492895021"><ele>236.0</ele><time>2026-03-28T09:58:35Z</time></trkpt><trkpt lat="44.924428005455106" lon="7.745499041593576"><ele>236.0</ele><time>2026-03-28T09:58:36Z</time></trkpt><trkpt lat="44.924512599453834" lon="7.74563450290646"><ele>236.0</ele><time>2026-03-28T09:58:37Z</time></trkpt><trkpt lat="44.92459745866988" lon="7.745766707211555"><ele>236.0</ele><time>2026-03-28T09:58:38Z</time></trkpt><trkpt lat="44.924683138960035" lon="7.7459031911796705"><ele>236.0</ele><time>2026-03-28T09:58:39Z</time></trkpt><trkpt lat="44.92476870342012" lon="7.746046341928346"><ele>236.0</ele><time>2026-03-28T09:58:40Z</time></trkpt><trkpt lat="44.92485400123065" lon="7.746191360689991"><ele>236.0</ele><time>2026-03-28T09:58:41Z</time></trkpt><trkpt lat="44.92493349240892" lon="7.746342044588065"><ele>236.25</ele><time>2026-03-28T09:58:42Z</time></trkpt><trkpt lat="44.92500177927367" lon="7.7465039873712795"><ele>236.5</ele><time>2026-03-28T09:58:43Z</time></trkpt><trkpt lat="44.925060175054256" lon="7.746679610459036"><ele>236.75</ele><time>2026-03-28T09:58:44Z</time></trkpt><trkpt lat="44.92512066467294" lon="7.74685584415394"><ele>237.0</ele><time>2026-03-28T09:58:45Z</time></trkpt><trkpt lat="44.92518123738385" lon="7.747034610055724"><ele>237.0</ele><time>2026-03-28T09:58:46Z</time></trkpt><trkpt lat="44.92524220913772" lon="7.747216142413086"><ele>237.0</ele><time>2026-03-28T09:58:47Z</time></trkpt><trkpt lat="44.925308830098885" lon="7.747403072412099"><ele>237.0</ele><time>2026-03-28T09:58:48Z</time></trkpt><trkpt lat="44.92538333828674" lon="7.747593558844457"><ele>237.0</ele><time>2026-03-28T09:58:49Z</time></trkpt><trkpt lat="44.92546249014981" lon="7.7477849017327705"><ele>235.66666666666669</ele><time>2026-03-28T09:58:50Z</time></trkpt><trkpt lat="44.925543170975224" lon="7.747975501426843"><ele>234.33333333333334</ele><time>2026-03-28T09:58:51Z</time></trkpt><trkpt lat="44.92562243733836" lon="7.748172169557157"><ele>233.0</ele><time>2026-03-28T09:58:52Z</time></trkpt><trkpt lat="44.92570600687568" lon="7.748370585254664"><ele>233.0</ele><time>2026-03-28T09:58:53Z</time></trkpt><trkpt lat="44.92579162500039" lon="7.748560866896603"><ele>233.0</ele><time>2026-03-28T09:58:54Z</time></trkpt><trkpt lat="44.92587920003857" lon="7.748748611304394"><ele>233.0</ele><time>2026-03-28T09:58:55Z</time></trkpt><trkpt lat="44.925968176717305" lon="7.748937550317056"><ele>233.0</ele><time>2026-03-28T09:58:56Z</time></trkpt><trkpt lat="44.92605559338233" lon="7.7491242532389695"><ele>233.0</ele><time>2026-03-28T09:58:57Z</time></trkpt><trkpt lat="44.92614491261651" lon="7.749311103168606"><ele>233.0</ele><time>2026-03-28T09:58:58Z</time></trkpt><trkpt lat="44.92624244443792" lon="7.749503151477407"><ele>233.0</ele><time>2026-03-28T09:58:59Z</time></trkpt><trkpt lat="44.92633760739971" lon="7.7496872890260775"><ele>233.0</ele><time>2026-03-28T09:59:00Z</time></trkpt><trkpt lat="44.92642761358856" lon="7.749863556329888"><ele>233.0</ele><time>2026-03-28T09:59:01Z</time></trkpt><trkpt lat="44.926519561536075" lon="7.750048430458372"><ele>233.0</ele><time>2026-03-28T09:59:02Z</time></trkpt><trkpt lat="44.92660885951755" lon="7.750235650855746"><ele>233.0</ele><time>2026-03-28T09:59:03Z</time></trkpt><trkpt lat="44.92669125469947" lon="7.750429015250631"><ele>233.0</ele><time>2026-03-28T09:59:04Z</time></trkpt><trkpt lat="44.92675907599695" lon="7.7506279628707535"><ele>233.0</ele><time>2026-03-28T09:59:05Z</time></trkpt><trkpt lat="44.926819305427024" lon="7.750821898993156"><ele>233.0</ele><time>2026-03-28T09:59:06Z</time></trkpt><trkpt lat="44.92686534838135" lon="7.751013352916772"><ele>233.0</ele><time>2026-03-28T09:59:07Z</time></trkpt><trkpt lat="44.92691201311824" lon="7.751207490636245"><ele>233.0</ele><time>2026-03-28T09:59:08Z</time></trkpt><trkpt lat="44.92695711845447" lon="7.751395921041643"><ele>232.75</ele><time>2026-03-28T09:59:09Z</time></trkpt><trkpt lat="44.92699355098795" lon="7.751576417746685"><ele>232.5</ele><time>2026-03-28T09:59:10Z</time></trkpt><trkpt lat="44.927046035912014" lon="7.751750055032662"><ele>232.25</ele><time>2026-03-28T09:59:11Z</time></trkpt><trkpt lat="44.9271125020622" lon="7.751892703663579"><ele>232.0</ele><time>2026-03-28T09:59:12Z</time></trkpt><trkpt lat="44.92720331651654" lon="7.752025103207422"><ele>231.75</ele><time>2026-03-28T09:59:13Z</time></trkpt><trkpt lat="44.927285706173016" lon="7.7521668248454745"><ele>231.5</ele><time>2026-03-28T09:59:14Z</time></trkpt><trkpt lat="44.927333878512094" lon="7.752332765442317"><ele>231.25</ele><time>2026-03-28T09:59:15Z</time></trkpt><trkpt lat="44.92735613716804" lon="7.752507735652566"><ele>231.0</ele><time>2026-03-28T09:59:16Z</time></trkpt><trkpt lat="44.92735444576905" lon="7.752691473123914"><ele>230.66666666666669</ele><time>2026-03-28T09:59:17Z</time></trkpt><trkpt lat="44.92728405203657" lon="7.752882481661067"><ele>230.33333333333334</ele><time>2026-03-28T09:59:18Z</time></trkpt><trkpt lat="44.927237683321835" lon="7.753098049147285"><ele>230.0</ele><time>2026-03-28T09:59:19Z</time></trkpt><trkpt lat="44.92719229881614" lon="7.75330798757068"><ele>230.33333333333334</ele><time>2026-03-28T09:59:20Z</time></trkpt><trkpt lat="44.927117991405396" lon="7.753557149682222"><ele>230.66666666666669</ele><time>2026-03-28T09:59:21Z</time></trkpt><trkpt lat="44.92704985484459" lon="7.753833973651663"><ele>231.0</ele><time>2026-03-28T09:59:22Z</time></trkpt><trkpt lat="44.92698731048274" lon="7.75408807772542"><ele>231.0</ele><time>2026-03-28T09:59:23Z</time></trkpt><trkpt lat="44.926926594332876" lon="7.754334754168542"><ele>231.0</ele><time>2026-03-28T09:59:24Z</time></trkpt><trkpt lat="44.926874767560136" lon="7.754582579498255"><ele>231.0</ele><time>2026-03-28T09:59:25Z</time></trkpt><trkpt lat="44.92681591175503" lon="7.754815016660375"><ele>231.0</ele><time>2026-03-28T09:59:26Z</time></trkpt><trkpt lat="44.92674935540636" lon="7.755042999278696"><ele>231.0</ele><time>2026-03-28T09:59:27Z</time></trkpt><trkpt lat="44.92666927354653" lon="7.755258096063487"><ele>231.0</ele><time>2026-03-28T09:59:28Z</time></trkpt><trkpt lat="44.92658024140068" lon="7.755469463688369"><ele>231.0</ele><time>2026-03-28T09:59:29Z</time></trkpt><trkpt lat="44.92649217809647" lon="7.755672460161879"><ele>231.0</ele><time>2026-03-28T09:59:30Z</time></trkpt><trkpt lat="44.926407796036365" lon="7.755873319141592"><ele>231.0</ele><time>2026-03-28T09:59:31Z</time></trkpt><trkpt lat="44.926320368046305" lon="7.756078787936222"><ele>231.33333333333331</ele><time>2026-03-28T09:59:32Z</time></trkpt><trkpt lat="44.926232265790624" lon="7.756289282718454"><ele>231.66666666666666</ele><time>2026-03-28T09:59:33Z</time></trkpt><trkpt lat="44.92614240685062" lon="7.7565041330248725"><ele>232.0</ele><time>2026-03-28T09:59:34Z</time></trkpt><trkpt lat="44.9260475414182" lon="7.756724607494768"><ele>231.66666666666666</ele><time>2026-03-28T09:59:35Z</time></trkpt><trkpt lat="44.92595132525208" lon="7.756944129680037"><ele>231.33333333333331</ele><time>2026-03-28T09:59:36Z</time></trkpt><trkpt lat="44.92585519940173" lon="7.7571682864148315"><ele>231.0</ele><time>2026-03-28T09:59:37Z</time></trkpt><trkpt lat="44.92576420935249" lon="7.757390317421523"><ele>231.0</ele><time>2026-03-28T09:59:38Z</time></trkpt><trkpt lat="44.925673218077414" lon="7.757609721195855"><ele>231.0</ele><time>2026-03-28T09:59:39Z</time></trkpt><trkpt lat="44.92557977069329" lon="7.757829322425739"><ele>231.0</ele><time>2026-03-28T09:59:40Z</time></trkpt><trkpt lat="44.92548567769652" lon="7.758050205923976"><ele>231.0</ele><time>2026-03-28T09:59:41Z</time></trkpt><trkpt lat="44.92538912722376" lon="7.758276789429592"><ele>231.0</ele><time>2026-03-28T09:59:42Z</time></trkpt><trkpt lat="44.92529496666456" lon="7.758501822678234"><ele>231.0</ele><time>2026-03-28T09:59:43Z</time></trkpt><trkpt lat="44.92520646814828" lon="7.75871684841291"><ele>231.66666666666669</ele><time>2026-03-28T09:59:44Z</time></trkpt><trkpt lat="44.92512365773989" lon="7.758921267853629"><ele>232.33333333333334</ele><time>2026-03-28T09:59:45Z</time></trkpt><trkpt lat="44.92504188618979" lon="7.759120704216407"><ele>233.0</ele><time>2026-03-28T09:59:46Z</time></trkpt><trkpt lat="44.9249609639059" lon="7.759319294591232"><ele>233.0</ele><time>2026-03-28T09:59:47Z</time></trkpt><trkpt lat="44.92487523498033" lon="7.75952484253306"><ele>233.0</ele><time>2026-03-28T09:59:48Z</time></trkpt><trkpt lat="44.92478558038499" lon="7.759738661795919"><ele>233.0</ele><time>2026-03-28T09:59:49Z</time></trkpt><trkpt lat="44.92469014250741" lon="7.7599522291586975"><ele>233.0</ele><time>2026-03-28T09:59:50Z</time></trkpt><trkpt lat="44.92458959758996" lon="7.760175991993986"><ele>233.0</ele><time>2026-03-28T09:59:51Z</time></trkpt><trkpt lat="44.92449142491328" lon="7.760407622402522"><ele>233.0</ele><time>2026-03-28T09:59:52Z</time></trkpt><trkpt lat="44.924394029605665" lon="7.7606415920853475"><ele>232.66666666666669</ele><time>2026-03-28T09:59:53Z</time></trkpt><trkpt lat="44.92429598122088" lon="7.760878701929439"><ele>232.33333333333331</ele><time>2026-03-28T09:59:54Z</time></trkpt><trkpt lat="44.92419175893933" lon="7.761119808279305"><ele>232.0</ele><time>2026-03-28T09:59:55Z</time></trkpt><trkpt lat="44.92408789518676" lon="7.761364536801682"><ele>232.66666666666666</ele><time>2026-03-28T09:59:56Z</time></trkpt><trkpt lat="44.9239865744198" lon="7.761614658473292"><ele>233.33333333333331</ele><time>2026-03-28T09:59:57Z</time></trkpt><trkpt lat="44.923882753204495" lon="7.76185893016228"><ele>234.0</ele><time>2026-03-28T09:59:58Z</time></trkpt><trkpt lat="44.92377860577884" lon="7.762098048556618"><ele>234.0</ele><time>2026-03-28T09:59:59Z</time></trkpt><trkpt lat="44.923676327040056" lon="7.762335809916315"><ele>234.0</ele><time>2026-03-28T10:00:00Z</time></trkpt><trkpt lat="44.92357807155743" lon="7.762569289851882"><ele>234.0</ele><time>2026-03-28T10:00:01Z</time></trkpt><trkpt lat="44.923486069756635" lon="7.762797908991459"><ele>234.66666666666669</ele><time>2026-03-28T10:00:02Z</time></trkpt><trkpt lat="44.923387984004414" lon="7.7630290900512735"><ele>235.33333333333334</ele><time>2026-03-28T10:00:03Z</time></trkpt><trkpt lat="44.92329505652852" lon="7.763249213363624"><ele>236.0</ele><time>2026-03-28T10:00:04Z</time></trkpt><trkpt lat="44.923200049736614" lon="7.763469324585062"><ele>237.33333333333334</ele><time>2026-03-28T10:00:05Z</time></trkpt><trkpt lat="44.92310103576768" lon="7.763699034791891"><ele>238.66666666666669</ele><time>2026-03-28T10:00:06Z</time></trkpt><trkpt lat="44.923005346270585" lon="7.763935792651035"><ele>240.0</ele><time>2026-03-28T10:00:07Z</time></trkpt><trkpt lat="44.92290425427539" lon="7.764175351762362"><ele>239.66666666666669</ele><time>2026-03-28T10:00:08Z</time></trkpt><trkpt lat="44.922800789881094" lon="7.764419041680989"><ele>239.33333333333334</ele><time>2026-03-28T10:00:09Z</time></trkpt><trkpt lat="44.922697643234386" lon="7.764665707467312"><ele>239.0</ele><time>2026-03-28T10:00:10Z</time></trkpt><trkpt lat="44.92259521335197" lon="7.764914311034811"><ele>238.66666666666669</ele><time>2026-03-28T10:00:11Z</time></trkpt><trkpt lat="44.9224936431775" lon="7.765161689983996"><ele>238.33333333333331</ele><time>2026-03-28T10:00:12Z</time></trkpt><trkpt lat="44.922395658293155" lon="7.765406021301183"><ele>238.0</ele><time>2026-03-28T10:00:13Z</time></trkpt><trkpt lat="44.92229644653811" lon="7.765650875478801"><ele>237.66666666666666</ele><time>2026-03-28T10:00:14Z</time></trkpt><trkpt lat="44.92220449341081" lon="7.765899432912736"><ele>237.33333333333331</ele><time>2026-03-28T10:00:15Z</time></trkpt><trkpt lat="44.92211693105774" lon="7.766144323918784"><ele>237.0</ele><time>2026-03-28T10:00:16Z</time></trkpt><trkpt lat="44.92205079722548" lon="7.766374897097886"><ele>236.33333333333331</ele><time>2026-03-28T10:00:17Z</time></trkpt><trkpt lat="44.92198983349786" lon="7.766599998852482"><ele>235.66666666666666</ele><time>2026-03-28T10:00:18Z</time></trkpt><trkpt lat="44.92193773003422" lon="7.766807436213084"><ele>235.0</ele><time>2026-03-28T10:00:19Z</time></trkpt><trkpt lat="44.92189733168151" lon="7.767004373072948"><ele>234.75</ele><time>2026-03-28T10:00:20Z</time></trkpt><trkpt lat="44.921864301934875" lon="7.767184450976593"><ele>234.5</ele><time>2026-03-28T10:00:21Z</time></trkpt><trkpt lat="44.921840613935075" lon="7.7673246362623365"><ele>234.25</ele><time>2026-03-28T10:00:22Z</time></trkpt><trkpt lat="44.92181879953205" lon="7.767462976073372"><ele>234.0</ele><time>2026-03-28T10:00:23Z</time></trkpt><trkpt lat="44.921793294055355" lon="7.767626472784876"><ele>234.0</ele><time>2026-03-28T10:00:24Z</time></trkpt><trkpt lat="44.92177063592091" lon="7.767843075227543"><ele>234.0</ele><time>2026-03-28T10:00:25Z</time></trkpt><trkpt lat="44.92174790245599" lon="7.768075877685613"><ele>234.0</ele><time>2026-03-28T10:00:26Z</time></trkpt><trkpt lat="44.92171878267786" lon="7.768306662053669"><ele>234.0</ele><time>2026-03-28T10:00:27Z</time></trkpt><trkpt lat="44.92169645582273" lon="7.76854848884218"><ele>234.0</ele><time>2026-03-28T10:00:28Z</time></trkpt><trkpt lat="44.9216726578666" lon="7.768803438757696"><ele>234.0</ele><time>2026-03-28T10:00:29Z</time></trkpt><trkpt lat="44.921642647735894" lon="7.76907030217052"><ele>234.0</ele><time>2026-03-28T10:00:30Z</time></trkpt><trkpt lat="44.92161196291776" lon="7.769346342312301"><ele>234.0</ele><time>2026-03-28T10:00:31Z</time></trkpt><trkpt lat="44.92158607302133" lon="7.769619812529145"><ele>234.0</ele><time>2026-03-28T10:00:32Z</time></trkpt><trkpt lat="44.92155874285451" lon="7.769885188328469"><ele>234.0</ele><time>2026-03-28T10:00:33Z</time></trkpt><trkpt lat="44.921529298172864" lon="7.770150690377729"><ele>234.0</ele><time>2026-03-28T10:00:34Z</time></trkpt><trkpt lat="44.92150129932012" lon="7.77041913706441"><ele>234.0</ele><time>2026-03-28T10:00:35Z</time></trkpt><trkpt lat="44.92147352735619" lon="7.770690364794361"><ele>234.0</ele><time>2026-03-28T10:00:36Z</time></trkpt><trkpt lat="44.921447128940734" lon="7.770961761392895"><ele>234.0</ele><time>2026-03-28T10:00:37Z</time></trkpt><trkpt lat="44.921417873893475" lon="7.771231612093744"><ele>234.0</ele><time>2026-03-28T10:00:38Z</time></trkpt><trkpt lat="44.92138801131262" lon="7.771495668148741"><ele>234.0</ele><time>2026-03-28T10:00:39Z</time></trkpt><trkpt lat="44.9213597714208" lon="7.771759265365947"><ele>234.0</ele><time>2026-03-28T10:00:40Z</time></trkpt><trkpt lat="44.921326056049566" lon="7.772023420221993"><ele>234.0</ele><time>2026-03-28T10:00:41Z</time></trkpt><trkpt lat="44.921285102226925" lon="7.7722852403217235"><ele>234.0</ele><time>2026-03-28T10:00:42Z</time></trkpt><trkpt lat="44.92122987125693" lon="7.772546208078686"><ele>234.0</ele><time>2026-03-28T10:00:43Z</time></trkpt><trkpt lat="44.92116838512288" lon="7.772806849153889"><ele>234.0</ele><time>2026-03-28T10:00:44Z</time></trkpt><trkpt lat="44.92110015192445" lon="7.773068036249442"><ele>234.66666666666669</ele><time>2026-03-28T10:00:45Z</time></trkpt><trkpt lat="44.92102416263054" lon="7.77332750627394"><ele>235.33333333333334</ele><time>2026-03-28T10:00:46Z</time></trkpt><trkpt lat="44.92093940122697" lon="7.7735820519223"><ele>236.0</ele><time>2026-03-28T10:00:47Z</time></trkpt><trkpt lat="44.920847312130824" lon="7.773833605968558"><ele>236.0</ele><time>2026-03-28T10:00:48Z</time></trkpt><trkpt lat="44.92075686910645" lon="7.774085654231569"><ele>236.0</ele><time>2026-03-28T10:00:49Z</time></trkpt><trkpt lat="44.920666683639446" lon="7.774336962462229"><ele>236.0</ele><time>2026-03-28T10:00:50Z</time></trkpt><trkpt lat="44.92057854619183" lon="7.77458675442081"><ele>236.0</ele><time>2026-03-28T10:00:51Z</time></trkpt><trkpt lat="44.920491756807756" lon="7.774835949216935"><ele>236.0</ele><time>2026-03-28T10:00:52Z</time></trkpt><trkpt lat="44.920405821750464" lon="7.775083043283533"><ele>236.0</ele><time>2026-03-28T10:00:53Z</time></trkpt><trkpt lat="44.920316812385266" lon="7.775325645625741"><ele>236.0</ele><time>2026-03-28T10:00:54Z</time></trkpt><trkpt lat="44.920225261179404" lon="7.7755658160115"><ele>236.0</ele><time>2026-03-28T10:00:55Z</time></trkpt><trkpt lat="44.920126373512446" lon="7.775798686865342"><ele>236.0</ele><time>2026-03-28T10:00:56Z</time></trkpt><trkpt lat="44.92001392988018" lon="7.776019101562209"><ele>235.66666666666669</ele><time>2026-03-28T10:00:57Z</time></trkpt><trkpt lat="44.919904939728355" lon="7.776245359045287"><ele>235.33333333333331</ele><time>2026-03-28T10:00:58Z</time></trkpt><trkpt lat="44.919788085635254" lon="7.776463296656425"><ele>235.0</ele><time>2026-03-28T10:00:59Z</time></trkpt><trkpt lat="44.919672268617056" lon="7.776681972817758"><ele>235.33333333333331</ele><time>2026-03-28T10:01:00Z</time></trkpt><trkpt lat="44.919558424173395" lon="7.776909801432016"><ele>235.66666666666669</ele><time>2026-03-28T10:01:01Z</time></trkpt><trkpt lat="44.91944361383614" lon="7.777135456607818"><ele>236.0</ele><time>2026-03-28T10:01:02Z</time></trkpt><trkpt lat="44.919330218424385" lon="7.777360444875802"><ele>236.33333333333334</ele><time>2026-03-28T10:01:03Z</time></trkpt><trkpt lat="44.91921727522669" lon="7.777581589989929"><ele>236.66666666666669</ele><time>2026-03-28T10:01:04Z</time></trkpt><trkpt lat="44.919107107956314" lon="7.777799111518151"><ele>237.0</ele><time>2026-03-28T10:01:05Z</time></trkpt><trkpt lat="44.91899499308555" lon="7.778012508025104"><ele>237.0</ele><time>2026-03-28T10:01:06Z</time></trkpt><trkpt lat="44.918881197226625" lon="7.778225505016925"><ele>237.0</ele><time>2026-03-28T10:01:07Z</time></trkpt><trkpt lat="44.91876655974564" lon="7.7784396302546615"><ele>237.0</ele><time>2026-03-28T10:01:08Z</time></trkpt><trkpt lat="44.91865333848654" lon="7.778658668912008"><ele>237.0</ele><time>2026-03-28T10:01:09Z</time></trkpt><trkpt lat="44.91853983080983" lon="7.778879817840886"><ele>237.0</ele><time>2026-03-28T10:01:10Z</time></trkpt><trkpt lat="44.91842234732734" lon="7.7791017351217855"><ele>237.0</ele><time>2026-03-28T10:01:11Z</time></trkpt><trkpt lat="44.91830016033839" lon="7.779319860292973"><ele>237.33333333333331</ele><time>2026-03-28T10:01:12Z</time></trkpt><trkpt lat="44.91817583065205" lon="7.779531570310181"><ele>237.66666666666666</ele><time>2026-03-28T10:01:13Z</time></trkpt><trkpt lat="44.91804911725512" lon="7.7797386730593034"><ele>238.0</ele><time>2026-03-28T10:01:14Z</time></trkpt><trkpt lat="44.91791641898299" lon="7.779938649896129"><ele>238.0</ele><time>2026-03-28T10:01:15Z</time></trkpt><trkpt lat="44.91778714203335" lon="7.780142380271211"><ele>238.0</ele><time>2026-03-28T10:01:16Z</time></trkpt><trkpt lat="44.91765967925836" lon="7.780351726411335"><ele>238.0</ele><time>2026-03-28T10:01:17Z</time></trkpt><trkpt lat="44.91753011052355" lon="7.780559056986412"><ele>238.0</ele><time>2026-03-28T10:01:18Z</time></trkpt><trkpt lat="44.91739716949647" lon="7.780768000260047"><ele>238.0</ele><time>2026-03-28T10:01:19Z</time></trkpt><trkpt lat="44.917265363870605" lon="7.780980308584169"><ele>238.0</ele><time>2026-03-28T10:01:20Z</time></trkpt><trkpt lat="44.91713438000791" lon="7.781193836625328"><ele>238.0</ele><time>2026-03-28T10:01:21Z</time></trkpt><trkpt lat="44.91700100445372" lon="7.781408502546614"><ele>238.0</ele><time>2026-03-28T10:01:22Z</time></trkpt><trkpt lat="44.91686529287339" lon="7.781622507352471"><ele>238.0</ele><time>2026-03-28T10:01:23Z</time></trkpt><trkpt lat="44.91672932130388" lon="7.781838638125715"><ele>238.66666666666666</ele><time>2026-03-28T10:01:24Z</time></trkpt><trkpt lat="44.916595433939186" lon="7.782056464180819"><ele>239.33333333333331</ele><time>2026-03-28T10:01:25Z</time></trkpt><trkpt lat="44.916461287866575" lon="7.782272961560971"><ele>240.0</ele><time>2026-03-28T10:01:26Z</time></trkpt><trkpt lat="44.91632762495541" lon="7.782486389847584"><ele>240.66666666666669</ele><time>2026-03-28T10:01:27Z</time></trkpt><trkpt lat="44.91619738793543" lon="7.782698813738998"><ele>241.33333333333334</ele><time>2026-03-28T10:01:28Z</time></trkpt><trkpt lat="44.916070190851286" lon="7.7829130740201835"><ele>242.0</ele><time>2026-03-28T10:01:29Z</time></trkpt><trkpt lat="44.915948575539716" lon="7.783122829023353"><ele>242.66666666666669</ele><time>2026-03-28T10:01:30Z</time></trkpt><trkpt lat="44.9158372741184" lon="7.783315151578691"><ele>243.33333333333331</ele><time>2026-03-28T10:01:31Z</time></trkpt><trkpt lat="44.91574683015027" lon="7.783494259585792"><ele>244.0</ele><time>2026-03-28T10:01:32Z</time></trkpt><trkpt lat="44.91566515756816" lon="7.783664608099753"><ele>244.39999999999998</ele><time>2026-03-28T10:01:33Z</time></trkpt><trkpt lat="44.91559344916963" lon="7.78382293739343"><ele>244.79999999999998</ele><time>2026-03-28T10:01:34Z</time></trkpt><trkpt lat="44.91553674186596" lon="7.783967570693825"><ele>245.20000000000002</ele><time>2026-03-28T10:01:35Z</time></trkpt><trkpt lat="44.91549328135494" lon="7.784084798825609"><ele>245.60000000000002</ele><time>2026-03-28T10:01:36Z</time></trkpt><trkpt lat="44.91545019336839" lon="7.78416547129068"><ele>246.0</ele><time>2026-03-28T10:01:37Z</time></trkpt><trkpt lat="44.91528170026879" lon="7.784020260264094"><ele>246.0</ele><time>2026-03-28T10:01:40Z</time></trkpt><trkpt lat="44.91518447766034" lon="7.783946331057072"><ele>246.0</ele><time>2026-03-28T10:01:41Z</time></trkpt><trkpt lat="44.915071039232295" lon="7.783852689818781"><ele>246.0</ele><time>2026-03-28T10:01:42Z</time></trkpt><trkpt lat="44.91494748285244" lon="7.783750696329993"><ele>246.0</ele><time>2026-03-28T10:01:43Z</time></trkpt><trkpt lat="44.914839261987424" lon="7.783664864581276"><ele>246.0</ele><time>2026-03-28T10:01:44Z</time></trkpt><trkpt lat="44.914720966527376" lon="7.783595280321117"><ele>246.0</ele><time>2026-03-28T10:01:45Z</time></trkpt><trkpt lat="44.91461549040169" lon="7.783499905078858"><ele>246.0</ele><time>2026-03-28T10:01:46Z</time></trkpt><trkpt lat="44.914518909758414" lon="7.783414697910135"><ele>246.0</ele><time>2026-03-28T10:01:47Z</time></trkpt><trkpt lat="44.91443364858059" lon="7.783338188604142"><ele>245.8</ele><time>2026-03-28T10:01:48Z</time></trkpt><trkpt lat="44.91435425291599" lon="7.783258633692798"><ele>245.60000000000002</ele><time>2026-03-28T10:01:49Z</time></trkpt><trkpt lat="44.91427933461036" lon="7.783172863535127"><ele>245.4</ele><time>2026-03-28T10:01:50Z</time></trkpt><trkpt lat="44.91420523742921" lon="7.783076545104305"><ele>245.2</ele><time>2026-03-28T10:01:51Z</time></trkpt><trkpt lat="44.914134648991826" lon="7.783002099549884"><ele>245.0</ele><time>2026-03-28T10:01:52Z</time></trkpt><trkpt lat="44.914067502031784" lon="7.782930198221043"><ele>245.00000000000003</ele><time>2026-03-28T10:01:53Z</time></trkpt><trkpt lat="44.91400068445736" lon="7.782857389203521"><ele>245.0</ele><time>2026-03-28T10:01:54Z</time></trkpt><trkpt lat="44.913936052875826" lon="7.782786582810346"><ele>245.0</ele><time>2026-03-28T10:01:55Z</time></trkpt><trkpt lat="44.913873627167284" lon="7.782715856730498"><ele>245.0</ele><time>2026-03-28T10:01:56Z</time></trkpt><trkpt lat="44.91380713928304" lon="7.782640528348506"><ele>245.00000000000003</ele><time>2026-03-28T10:01:57Z</time></trkpt><trkpt lat="44.91374099145778" lon="7.7825633131781435"><ele>245.0</ele><time>2026-03-28T10:01:58Z</time></trkpt><trkpt lat="44.91368099544627" lon="7.7824897412865575"><ele>244.8</ele><time>2026-03-28T10:01:59Z</time></trkpt><trkpt lat="44.91363345918872" lon="7.782421310478215"><ele>244.6</ele><time>2026-03-28T10:02:00Z</time></trkpt><trkpt lat="44.91358735463766" lon="7.782353753680977"><ele>244.39999999999998</ele><time>2026-03-28T10:02:02Z</time></trkpt><trkpt lat="44.91345251956278" lon="7.7824848305952035"><ele>244.2</ele><time>2026-03-28T10:02:32Z</time></trkpt><trkpt lat="44.91337169682709" lon="7.782630767868464"><ele>244.0</ele><time>2026-03-28T10:02:34Z</time></trkpt><trkpt lat="44.9133217868653" lon="7.782722924220106"><ele>243.99999999999997</ele><time>2026-03-28T10:02:35Z</time></trkpt><trkpt lat="44.9132734663233" lon="7.782812961382898"><ele>244.0</ele><time>2026-03-28T10:02:36Z</time></trkpt><trkpt lat="44.913218517363056" lon="7.782915028168694"><ele>244.0</ele><time>2026-03-28T10:02:37Z</time></trkpt><trkpt lat="44.913162281333484" lon="7.78301596206438"><ele>244.0</ele><time>2026-03-28T10:02:38Z</time></trkpt><trkpt lat="44.91310963360336" lon="7.7831106479795515"><ele>243.99999999999997</ele><time>2026-03-28T10:02:39Z</time></trkpt><trkpt lat="44.913065776449784" lon="7.783195606875575"><ele>244.0</ele><time>2026-03-28T10:02:40Z</time></trkpt><trkpt lat="44.91302850939569" lon="7.783268944377532"><ele>244.0</ele><time>2026-03-28T10:02:41Z</time></trkpt><trkpt lat="44.9129761471058" lon="7.783391913715939"><ele>244.0</ele><time>2026-03-28T10:02:43Z</time></trkpt><trkpt lat="44.91302365152618" lon="7.78352703646122"><ele>244.0</ele><time>2026-03-28T10:02:47Z</time></trkpt><trkpt lat="44.91333066851927" lon="7.783532899521747"><ele>244.0</ele><time>2026-03-28T10:02:49Z</time></trkpt><trkpt lat="44.91336831179116" lon="7.783460268017895"><ele>243.99999999999997</ele><time>2026-03-28T10:02:50Z</time></trkpt><trkpt lat="44.91342081499414" lon="7.783358964037205"><ele>243.99999999999997</ele><time>2026-03-28T10:02:51Z</time></trkpt><trkpt lat="44.913477863101505" lon="7.7832488938318845"><ele>244.0</ele><time>2026-03-28T10:02:52Z</time></trkpt><trkpt lat="44.913548519719164" lon="7.783112574821744"><ele>244.0</ele><time>2026-03-28T10:02:53Z</time></trkpt><trkpt lat="44.913615448796776" lon="7.7829834473372825"><ele>243.66666666666666</ele><time>2026-03-28T10:02:54Z</time></trkpt><trkpt lat="44.9134159360604" lon="7.782609953680337"><ele>243.33333333333331</ele><time>2026-03-28T10:02:55Z</time></trkpt><trkpt lat="44.91346130876417" lon="7.782523600621158"><ele>243.0</ele><time>2026-03-28T10:02:56Z</time></trkpt><trkpt lat="44.91352515489177" lon="7.782433192614161"><ele>243.0</ele><time>2026-03-28T10:02:58Z</time></trkpt><trkpt lat="44.91356820065086" lon="7.782358207619106"><ele>243.0</ele><time>2026-03-28T10:03:01Z</time></trkpt><trkpt lat="44.91344102396881" lon="7.782184968676059"><ele>243.0</ele><time>2026-03-28T10:03:02Z</time></trkpt><trkpt lat="44.913364774974475" lon="7.782092289399385"><ele>243.0</ele><time>2026-03-28T10:03:03Z</time></trkpt><trkpt lat="44.91326415695571" lon="7.781985171732247"><ele>242.5</ele><time>2026-03-28T10:03:04Z</time></trkpt><trkpt lat="44.91316911669618" lon="7.781882839725365"><ele>242.0</ele><time>2026-03-28T10:03:05Z</time></trkpt><trkpt lat="44.913076235927065" lon="7.78178265460025"><ele>241.5</ele><time>2026-03-28T10:03:06Z</time></trkpt><trkpt lat="44.9129798804813" lon="7.781678721741463"><ele>241.0</ele><time>2026-03-28T10:03:07Z</time></trkpt><trkpt lat="44.91288696591223" lon="7.781578500249789"><ele>240.5</ele><time>2026-03-28T10:03:08Z</time></trkpt><trkpt lat="44.91279963823371" lon="7.781486423921942"><ele>240.0</ele><time>2026-03-28T10:03:09Z</time></trkpt><trkpt lat="44.91271013201757" lon="7.781393190139734"><ele>239.5</ele><time>2026-03-28T10:03:10Z</time></trkpt><trkpt lat="44.91260999829626" lon="7.7812888894511625"><ele>239.0</ele><time>2026-03-28T10:03:11Z</time></trkpt><trkpt lat="44.91249845096967" lon="7.781177938949563"><ele>239.0</ele><time>2026-03-28T10:03:12Z</time></trkpt><trkpt lat="44.91239208367292" lon="7.781072801167587"><ele>239.0</ele><time>2026-03-28T10:03:13Z</time></trkpt><trkpt lat="44.91228973175318" lon="7.7809721297890135"><ele>239.0</ele><time>2026-03-28T10:03:14Z</time></trkpt><trkpt lat="44.912186792181025" lon="7.7808708804118085"><ele>239.0</ele><time>2026-03-28T10:03:15Z</time></trkpt><trkpt lat="44.91208483846499" lon="7.780770600710507"><ele>239.0</ele><time>2026-03-28T10:03:16Z</time></trkpt><trkpt lat="44.9119806717663" lon="7.780665462839768"><ele>239.0</ele><time>2026-03-28T10:03:17Z</time></trkpt><trkpt lat="44.91186240051347" lon="7.780542200441966"><ele>239.0</ele><time>2026-03-28T10:03:18Z</time></trkpt><trkpt lat="44.91173348791085" lon="7.780416087828638"><ele>239.0</ele><time>2026-03-28T10:03:19Z</time></trkpt><trkpt lat="44.911612651473234" lon="7.780285480042281"><ele>239.0</ele><time>2026-03-28T10:03:20Z</time></trkpt><trkpt lat="44.91148596195506" lon="7.780142419324499"><ele>239.0</ele><time>2026-03-28T10:03:21Z</time></trkpt><trkpt lat="44.91135024320346" lon="7.779987320178916"><ele>239.0</ele><time>2026-03-28T10:03:22Z</time></trkpt><trkpt lat="44.91120864346627" lon="7.779821598103917"><ele>239.0</ele><time>2026-03-28T10:03:23Z</time></trkpt><trkpt lat="44.911070125161004" lon="7.77965631952785"><ele>239.0</ele><time>2026-03-28T10:03:24Z</time></trkpt><trkpt lat="44.91093450933213" lon="7.779494920122602"><ele>239.0</ele><time>2026-03-28T10:03:25Z</time></trkpt><trkpt lat="44.91079968993248" lon="7.779335244263217"><ele>238.66666666666669</ele><time>2026-03-28T10:03:26Z</time></trkpt><trkpt lat="44.910666899257414" lon="7.779179620743623"><ele>238.33333333333331</ele><time>2026-03-28T10:03:27Z</time></trkpt><trkpt lat="44.91054513379254" lon="7.779005370940328"><ele>238.0</ele><time>2026-03-28T10:03:28Z</time></trkpt><trkpt lat="44.910403181306734" lon="7.778866392319313"><ele>238.0</ele><time>2026-03-28T10:03:29Z</time></trkpt><trkpt lat="44.9102823275561" lon="7.778691593873938"><ele>238.0</ele><time>2026-03-28T10:03:30Z</time></trkpt><trkpt lat="44.91015319686697" lon="7.778537709504113"><ele>238.0</ele><time>2026-03-28T10:03:31Z</time></trkpt><trkpt lat="44.910014372025636" lon="7.778401661716453"><ele>238.33333333333331</ele><time>2026-03-28T10:03:32Z</time></trkpt><trkpt lat="44.90988786400222" lon="7.7782522548945305"><ele>238.66666666666669</ele><time>2026-03-28T10:03:33Z</time></trkpt><trkpt lat="44.9097715375628" lon="7.778083227755822"><ele>239.0</ele><time>2026-03-28T10:03:34Z</time></trkpt><trkpt lat="44.90963626097425" lon="7.777952824701203"><ele>239.0</ele><time>2026-03-28T10:03:35Z</time></trkpt><trkpt lat="44.90952319026824" lon="7.777787731500462"><ele>239.0</ele><time>2026-03-28T10:03:36Z</time></trkpt><trkpt lat="44.90940119201498" lon="7.7776425717395234"><ele>239.0</ele><time>2026-03-28T10:03:37Z</time></trkpt><trkpt lat="44.90927854458491" lon="7.777496639600044"><ele>238.0</ele><time>2026-03-28T10:03:38Z</time></trkpt><trkpt lat="44.909143737905346" lon="7.777366559432575"><ele>237.0</ele><time>2026-03-28T10:03:39Z</time></trkpt><trkpt lat="44.90903218020576" lon="7.777202373888526"><ele>236.0</ele><time>2026-03-28T10:03:40Z</time></trkpt><trkpt lat="44.908918807343035" lon="7.777065840610319"><ele>236.0</ele><time>2026-03-28T10:03:41Z</time></trkpt><trkpt lat="44.9088064135954" lon="7.776959723694413"><ele>236.0</ele><time>2026-03-28T10:03:42Z</time></trkpt><trkpt lat="44.90870987449836" lon="7.776843452625238"><ele>236.0</ele><time>2026-03-28T10:03:43Z</time></trkpt><trkpt lat="44.90862173127232" lon="7.776734956554061"><ele>236.0</ele><time>2026-03-28T10:03:44Z</time></trkpt><trkpt lat="44.908548870105164" lon="7.776641778299677"><ele>236.20000000000002</ele><time>2026-03-28T10:03:45Z</time></trkpt><trkpt lat="44.90847746455124" lon="7.776569875828406"><ele>236.40000000000003</ele><time>2026-03-28T10:03:46Z</time></trkpt><trkpt lat="44.90840593563331" lon="7.77653699069541"><ele>236.6</ele><time>2026-03-28T10:03:47Z</time></trkpt><trkpt lat="44.90832838571086" lon="7.776560080536598"><ele>236.8</ele><time>2026-03-28T10:03:48Z</time></trkpt><trkpt lat="44.90825110325928" lon="7.776669176198998"><ele>237.0</ele><time>2026-03-28T10:03:49Z</time></trkpt><trkpt lat="44.90819526987964" lon="7.776809896841481"><ele>237.0</ele><time>2026-03-28T10:03:50Z</time></trkpt><trkpt lat="44.90813370730607" lon="7.776968778919517"><ele>237.0</ele><time>2026-03-28T10:03:51Z</time></trkpt><trkpt lat="44.90806319760577" lon="7.777133661404525"><ele>237.0</ele><time>2026-03-28T10:03:52Z</time></trkpt><trkpt lat="44.90797966064929" lon="7.777302538883375"><ele>237.0</ele><time>2026-03-28T10:03:53Z</time></trkpt><trkpt lat="44.907894707062646" lon="7.777481658889154"><ele>237.0</ele><time>2026-03-28T10:03:54Z</time></trkpt><trkpt lat="44.907810695939375" lon="7.7776451364420796"><ele>237.0</ele><time>2026-03-28T10:03:55Z</time></trkpt><trkpt lat="44.9077289986774" lon="7.777810448529467"><ele>237.0</ele><time>2026-03-28T10:03:56Z</time></trkpt><trkpt lat="44.90765212481504" lon="7.777974020655763"><ele>237.0</ele><time>2026-03-28T10:03:57Z</time></trkpt><trkpt lat="44.907576290128354" lon="7.778135351503551"><ele>237.25</ele><time>2026-03-28T10:03:58Z</time></trkpt><trkpt lat="44.90749864443439" lon="7.778291932090821"><ele>237.5</ele><time>2026-03-28T10:03:59Z</time></trkpt><trkpt lat="44.90742114585401" lon="7.778450645465868"><ele>237.75</ele><time>2026-03-28T10:04:00Z</time></trkpt><trkpt lat="44.90734579733208" lon="7.778612117646833"><ele>238.0</ele><time>2026-03-28T10:04:01Z</time></trkpt><trkpt lat="44.907254587941814" lon="7.778758709350524"><ele>238.0</ele><time>2026-03-28T10:04:02Z</time></trkpt><trkpt lat="44.90719281291371" lon="7.77892546351414"><ele>238.0</ele><time>2026-03-28T10:04:03Z</time></trkpt><trkpt lat="44.90711601665909" lon="7.779066141755448"><ele>238.0</ele><time>2026-03-28T10:04:04Z</time></trkpt><trkpt lat="44.90705474810999" lon="7.779207327485799"><ele>238.0</ele><time>2026-03-28T10:04:05Z</time></trkpt><trkpt lat="44.90699089391128" lon="7.779330082440438"><ele>237.83333333333331</ele><time>2026-03-28T10:04:06Z</time></trkpt><trkpt lat="44.90693810624565" lon="7.7794483849392435"><ele>237.66666666666666</ele><time>2026-03-28T10:04:07Z</time></trkpt><trkpt lat="44.90688566089183" lon="7.779552213563951"><ele>237.5</ele><time>2026-03-28T10:04:08Z</time></trkpt><trkpt lat="44.90683890086692" lon="7.779634615996283"><ele>237.33333333333331</ele><time>2026-03-28T10:04:09Z</time></trkpt><trkpt lat="44.90678633247551" lon="7.779717326838198"><ele>237.16666666666666</ele><time>2026-03-28T10:04:11Z</time></trkpt><trkpt lat="44.90675078525279" lon="7.779804961274747"><ele>237.0</ele><time>2026-03-28T10:04:40Z</time></trkpt><trkpt lat="44.906757139832486" lon="7.77970469994908"><ele>237.0</ele><time>2026-03-28T10:04:45Z</time></trkpt><trkpt lat="44.90682362900195" lon="7.779629123598483"><ele>237.0</ele><time>2026-03-28T10:04:47Z</time></trkpt><trkpt lat="44.906893673530476" lon="7.7795859117412824"><ele>237.0</ele><time>2026-03-28T10:04:48Z</time></trkpt><trkpt lat="44.9069398595436" lon="7.779499262786116"><ele>237.0</ele><time>2026-03-28T10:04:49Z</time></trkpt><trkpt lat="44.906982657478785" lon="7.779380298409274"><ele>237.0</ele><time>2026-03-28T10:04:50Z</time></trkpt><trkpt lat="44.90703685475506" lon="7.77926239392106"><ele>237.0</ele><time>2026-03-28T10:04:51Z</time></trkpt><trkpt lat="44.90710194747036" lon="7.779122857714838"><ele>237.25</ele><time>2026-03-28T10:04:52Z</time></trkpt><trkpt lat="44.907173489471106" lon="7.778961111638298"><ele>237.5</ele><time>2026-03-28T10:04:53Z</time></trkpt><trkpt lat="44.90725702264906" lon="7.77879260130048"><ele>237.75</ele><time>2026-03-28T10:04:54Z</time></trkpt><trkpt lat="44.9073520485657" lon="7.778606104784173"><ele>238.0</ele><time>2026-03-28T10:04:55Z</time></trkpt><trkpt lat="44.907451874489624" lon="7.778402207339212"><ele>238.0</ele><time>2026-03-28T10:04:56Z</time></trkpt><trkpt lat="44.90756491728526" lon="7.778209651985664"><ele>238.0</ele><time>2026-03-28T10:04:57Z</time></trkpt><trkpt lat="44.90767286340682" lon="7.777989642243313"><ele>238.0</ele><time>2026-03-28T10:04:58Z</time></trkpt><trkpt lat="44.90777623470929" lon="7.7777789566045135"><ele>237.66666666666666</ele><time>2026-03-28T10:04:59Z</time></trkpt><trkpt lat="44.90786863007758" lon="7.777589340563771"><ele>237.33333333333331</ele><time>2026-03-28T10:05:00Z</time></trkpt><trkpt lat="44.90795210526119" lon="7.777416254895276"><ele>237.0</ele><time>2026-03-28T10:05:01Z</time></trkpt><trkpt lat="44.90803095732218" lon="7.777252755232782"><ele>237.0</ele><time>2026-03-28T10:05:02Z</time></trkpt><trkpt lat="44.90810319234904" lon="7.7771029760207"><ele>237.0</ele><time>2026-03-28T10:05:03Z</time></trkpt><trkpt lat="44.90815670223183" lon="7.776950181385398"><ele>237.0</ele><time>2026-03-28T10:05:04Z</time></trkpt><trkpt lat="44.90822958000766" lon="7.776834922074717"><ele>237.0</ele><time>2026-03-28T10:05:05Z</time></trkpt><trkpt lat="44.908285488004" lon="7.776724468459543"><ele>237.0</ele><time>2026-03-28T10:05:06Z</time></trkpt><trkpt lat="44.90832720753614" lon="7.776631734398142"><ele>237.0</ele><time>2026-03-28T10:05:07Z</time></trkpt><trkpt lat="44.908401425152086" lon="7.776587885441083"><ele>237.0</ele><time>2026-03-28T10:05:08Z</time></trkpt><trkpt lat="44.90847065068078" lon="7.77660530595077"><ele>237.0</ele><time>2026-03-28T10:05:09Z</time></trkpt><trkpt lat="44.90854773806386" lon="7.77665937641412"><ele>237.0</ele><time>2026-03-28T10:05:10Z</time></trkpt><trkpt lat="44.908624939139145" lon="7.7767639817463685"><ele>237.0</ele><time>2026-03-28T10:05:11Z</time></trkpt><trkpt lat="44.908700222527635" lon="7.77687159999141"><ele>236.75</ele><time>2026-03-28T10:05:12Z</time></trkpt><trkpt lat="44.90879416331404" lon="7.776999614454562"><ele>236.5</ele><time>2026-03-28T10:05:13Z</time></trkpt><trkpt lat="44.90888913581466" lon="7.77710781614271"><ele>236.25</ele><time>2026-03-28T10:05:14Z</time></trkpt><trkpt lat="44.90900795781824" lon="7.777247809239853"><ele>236.0</ele><time>2026-03-28T10:05:15Z</time></trkpt><trkpt lat="44.909122624459165" lon="7.777383674427934"><ele>236.0</ele><time>2026-03-28T10:05:16Z</time></trkpt><trkpt lat="44.90922606987698" lon="7.77752190567497"><ele>236.0</ele><time>2026-03-28T10:05:17Z</time></trkpt><trkpt lat="44.90932922641893" lon="7.777627868591337"><ele>236.0</ele><time>2026-03-28T10:05:18Z</time></trkpt><trkpt lat="44.9094175385403" lon="7.777734897687343"><ele>236.0</ele><time>2026-03-28T10:05:19Z</time></trkpt><trkpt lat="44.90949931032812" lon="7.777832467317392"><ele>236.60000000000002</ele><time>2026-03-28T10:05:20Z</time></trkpt><trkpt lat="44.909576347545354" lon="7.777927352129026"><ele>237.20000000000002</ele><time>2026-03-28T10:05:21Z</time></trkpt><trkpt lat="44.90965202622437" lon="7.778014274608821"><ele>237.79999999999998</ele><time>2026-03-28T10:05:22Z</time></trkpt><trkpt lat="44.90972419358416" lon="7.778098613322842"><ele>238.39999999999998</ele><time>2026-03-28T10:05:23Z</time></trkpt><trkpt lat="44.909816129375876" lon="7.778210239720399"><ele>239.0</ele><time>2026-03-28T10:05:24Z</time></trkpt><trkpt lat="44.90992423148776" lon="7.778341749750473"><ele>239.0</ele><time>2026-03-28T10:05:25Z</time></trkpt><trkpt lat="44.91004979422217" lon="7.778489537444995"><ele>239.0</ele><time>2026-03-28T10:05:26Z</time></trkpt><trkpt lat="44.910184297234345" lon="7.7786521769850205"><ele>239.0</ele><time>2026-03-28T10:05:27Z</time></trkpt><trkpt lat="44.910315644989254" lon="7.778815597297968"><ele>239.0</ele><time>2026-03-28T10:05:28Z</time></trkpt><trkpt lat="44.91045812099551" lon="7.778992402987494"><ele>239.0</ele><time>2026-03-28T10:05:29Z</time></trkpt><trkpt lat="44.91060911940705" lon="7.7791809914180625"><ele>239.0</ele><time>2026-03-28T10:05:30Z</time></trkpt><trkpt lat="44.910759496982855" lon="7.779371020966841"><ele>239.0</ele><time>2026-03-28T10:05:31Z</time></trkpt><trkpt lat="44.910905872073116" lon="7.779550660948512"><ele>239.0</ele><time>2026-03-28T10:05:32Z</time></trkpt><trkpt lat="44.91105767228076" lon="7.779686789484034"><ele>239.0</ele><time>2026-03-28T10:05:33Z</time></trkpt><trkpt lat="44.91119550190216" lon="7.779856147224"><ele>239.0</ele><time>2026-03-28T10:05:34Z</time></trkpt><trkpt lat="44.9113363004586" lon="7.780022400190642"><ele>239.0</ele><time>2026-03-28T10:05:35Z</time></trkpt><trkpt lat="44.91147116241905" lon="7.780176039798126"><ele>239.0</ele><time>2026-03-28T10:05:36Z</time></trkpt><trkpt lat="44.911604905184944" lon="7.780329506287608"><ele>239.0</ele><time>2026-03-28T10:05:37Z</time></trkpt><trkpt lat="44.91173821441304" lon="7.780479644998407"><ele>239.0</ele><time>2026-03-28T10:05:38Z</time></trkpt><trkpt lat="44.91187092181963" lon="7.780620064909371"><ele>239.0</ele><time>2026-03-28T10:05:39Z</time></trkpt><trkpt lat="44.912002336935394" lon="7.780760882454491"><ele>239.0</ele><time>2026-03-28T10:05:40Z</time></trkpt><trkpt lat="44.91213681082945" lon="7.780897675577075"><ele>239.0</ele><time>2026-03-28T10:05:41Z</time></trkpt><trkpt lat="44.912275145410405" lon="7.781034724022374"><ele>239.0</ele><time>2026-03-28T10:05:42Z</time></trkpt><trkpt lat="44.91241574588903" lon="7.78117206118457"><ele>239.0</ele><time>2026-03-28T10:05:43Z</time></trkpt><trkpt lat="44.91255764470647" lon="7.781318266455355"><ele>239.0</ele><time>2026-03-28T10:05:44Z</time></trkpt><trkpt lat="44.91270165192053" lon="7.781465850828344"><ele>239.0</ele><time>2026-03-28T10:05:45Z</time></trkpt><trkpt lat="44.91284422772719" lon="7.781616123083934"><ele>239.0</ele><time>2026-03-28T10:05:46Z</time></trkpt><trkpt lat="44.91298367321558" lon="7.781763405008543"><ele>239.0</ele><time>2026-03-28T10:05:47Z</time></trkpt><trkpt lat="44.91311271760539" lon="7.781902301759148"><ele>239.0</ele><time>2026-03-28T10:05:48Z</time></trkpt><trkpt lat="44.913235218972844" lon="7.782026643123681"><ele>239.5</ele><time>2026-03-28T10:05:49Z</time></trkpt><trkpt lat="44.91335199277751" lon="7.782153899799416"><ele>240.0</ele><time>2026-03-28T10:05:50Z</time></trkpt><trkpt lat="44.91346391890551" lon="7.78228768562147"><ele>240.5</ele><time>2026-03-28T10:05:51Z</time></trkpt><trkpt lat="44.91357523636499" lon="7.782434099273859"><ele>241.0</ele><time>2026-03-28T10:05:52Z</time></trkpt><trkpt lat="44.91369007550017" lon="7.782585479458345"><ele>242.33333333333331</ele><time>2026-03-28T10:05:53Z</time></trkpt><trkpt lat="44.9138075495941" lon="7.782734470380333"><ele>243.66666666666669</ele><time>2026-03-28T10:05:54Z</time></trkpt><trkpt lat="44.91393809281055" lon="7.782870643178433"><ele>245.0</ele><time>2026-03-28T10:05:55Z</time></trkpt><trkpt lat="44.914056741909796" lon="7.782987278109148"><ele>245.0</ele><time>2026-03-28T10:05:56Z</time></trkpt><trkpt lat="44.91416130046721" lon="7.783090387428161"><ele>245.0</ele><time>2026-03-28T10:05:57Z</time></trkpt><trkpt lat="44.914265075714326" lon="7.783184836328939"><ele>245.0</ele><time>2026-03-28T10:05:58Z</time></trkpt><trkpt lat="44.91436056228478" lon="7.783287176937419"><ele>245.0</ele><time>2026-03-28T10:05:59Z</time></trkpt><trkpt lat="44.91446248608697" lon="7.783385131823149"><ele>245.0</ele><time>2026-03-28T10:06:00Z</time></trkpt><trkpt lat="44.91457687825838" lon="7.7834902309017435"><ele>245.0</ele><time>2026-03-28T10:06:01Z</time></trkpt><trkpt lat="44.91469723662973" lon="7.783590408210607"><ele>245.0</ele><time>2026-03-28T10:06:02Z</time></trkpt><trkpt lat="44.914822914116854" lon="7.783692234567117"><ele>245.0</ele><time>2026-03-28T10:06:03Z</time></trkpt><trkpt lat="44.914937713463104" lon="7.783793165190667"><ele>245.2</ele><time>2026-03-28T10:06:04Z</time></trkpt><trkpt lat="44.91504098468085" lon="7.783883940920727"><ele>245.4</ele><time>2026-03-28T10:06:05Z</time></trkpt><trkpt lat="44.915136107826186" lon="7.7839621351097446"><ele>245.60000000000002</ele><time>2026-03-28T10:06:06Z</time></trkpt><trkpt lat="44.9152253030614" lon="7.784033957417305"><ele>245.8</ele><time>2026-03-28T10:06:07Z</time></trkpt><trkpt lat="44.91530546724807" lon="7.784088926888243"><ele>246.0</ele><time>2026-03-28T10:06:08Z</time></trkpt><trkpt lat="44.91536352201683" lon="7.784127156852839"><ele>246.0</ele><time>2026-03-28T10:06:09Z</time></trkpt><trkpt lat="44.91541344155767" lon="7.784189617588646"><ele>246.0</ele><time>2026-03-28T10:06:14Z</time></trkpt><trkpt lat="44.91533431114489" lon="7.784492053563522"><ele>246.0</ele><time>2026-03-28T10:06:19Z</time></trkpt><trkpt lat="44.915291877264515" lon="7.784656145273242"><ele>246.0</ele><time>2026-03-28T10:06:20Z</time></trkpt><trkpt lat="44.91523123183242" lon="7.784843780255405"><ele>246.0</ele><time>2026-03-28T10:06:21Z</time></trkpt><trkpt lat="44.915174864447266" lon="7.785027089211494"><ele>246.0</ele><time>2026-03-28T10:06:22Z</time></trkpt><trkpt lat="44.915119964847385" lon="7.785206803263274"><ele>246.0</ele><time>2026-03-28T10:06:23Z</time></trkpt><trkpt lat="44.915065517977624" lon="7.785393604487929"><ele>246.0</ele><time>2026-03-28T10:06:24Z</time></trkpt><trkpt lat="44.91500475854346" lon="7.785589407966217"><ele>246.0</ele><time>2026-03-28T10:06:25Z</time></trkpt><trkpt lat="44.914934467321515" lon="7.785801037542498"><ele>246.0</ele><time>2026-03-28T10:06:26Z</time></trkpt><trkpt lat="44.914859124535596" lon="7.7860311395787125"><ele>246.0</ele><time>2026-03-28T10:06:27Z</time></trkpt><trkpt lat="44.91478468162281" lon="7.786260332195642"><ele>246.0</ele><time>2026-03-28T10:06:28Z</time></trkpt><trkpt lat="44.91471452085174" lon="7.786481013138858"><ele>246.0</ele><time>2026-03-28T10:06:29Z</time></trkpt><trkpt lat="44.91463902190179" lon="7.786714113248304"><ele>246.0</ele><time>2026-03-28T10:06:30Z</time></trkpt><trkpt lat="44.914557893455836" lon="7.786957173399572"><ele>247.0</ele><time>2026-03-28T10:06:31Z</time></trkpt><trkpt lat="44.91447645489982" lon="7.78721008083987"><ele>248.0</ele><time>2026-03-28T10:06:32Z</time></trkpt><trkpt lat="44.91439874457876" lon="7.787466811792734"><ele>249.0</ele><time>2026-03-28T10:06:33Z</time></trkpt><trkpt lat="44.91432007530623" lon="7.787720366226102"><ele>250.66666666666669</ele><time>2026-03-28T10:06:34Z</time></trkpt><trkpt lat="44.9142412502237" lon="7.787975888338981"><ele>252.33333333333334</ele><time>2026-03-28T10:06:35Z</time></trkpt><trkpt lat="44.91416841342659" lon="7.788225749766137"><ele>254.0</ele><time>2026-03-28T10:06:36Z</time></trkpt><trkpt lat="44.91409360748912" lon="7.78847031503113"><ele>254.33333333333334</ele><time>2026-03-28T10:06:37Z</time></trkpt><trkpt lat="44.9140164013289" lon="7.788714047694973"><ele>254.66666666666669</ele><time>2026-03-28T10:06:38Z</time></trkpt><trkpt lat="44.91393708033383" lon="7.788935481945875"><ele>255.0</ele><time>2026-03-28T10:06:39Z</time></trkpt><trkpt lat="44.913856824359854" lon="7.789184175153764"><ele>254.66666666666669</ele><time>2026-03-28T10:06:40Z</time></trkpt><trkpt lat="44.913779620781035" lon="7.789433517337949"><ele>254.33333333333334</ele><time>2026-03-28T10:06:41Z</time></trkpt><trkpt lat="44.913700958999556" lon="7.789684600706897"><ele>254.0</ele><time>2026-03-28T10:06:42Z</time></trkpt><trkpt lat="44.91362379711543" lon="7.789930605291982"><ele>254.0</ele><time>2026-03-28T10:06:43Z</time></trkpt><trkpt lat="44.91354504562396" lon="7.790173267043279"><ele>254.0</ele><time>2026-03-28T10:06:44Z</time></trkpt><trkpt lat="44.91346470346897" lon="7.790422317741367"><ele>254.0</ele><time>2026-03-28T10:06:45Z</time></trkpt><trkpt lat="44.91338902331235" lon="7.790672583281756"><ele>251.66666666666669</ele><time>2026-03-28T10:06:46Z</time></trkpt><trkpt lat="44.913309085957074" lon="7.79092613177956"><ele>249.33333333333331</ele><time>2026-03-28T10:06:47Z</time></trkpt><trkpt lat="44.91323005606588" lon="7.7911804790727714"><ele>247.0</ele><time>2026-03-28T10:06:48Z</time></trkpt><trkpt lat="44.91314768284899" lon="7.791426732852753"><ele>247.0</ele><time>2026-03-28T10:06:49Z</time></trkpt><trkpt lat="44.91306912523364" lon="7.791666929238631"><ele>247.0</ele><time>2026-03-28T10:06:50Z</time></trkpt><trkpt lat="44.912992741375746" lon="7.791906498215357"><ele>247.0</ele><time>2026-03-28T10:06:51Z</time></trkpt><trkpt lat="44.91291385203147" lon="7.792146287445843"><ele>247.33333333333331</ele><time>2026-03-28T10:06:52Z</time></trkpt><trkpt lat="44.91283736150352" lon="7.792387016842961"><ele>247.66666666666669</ele><time>2026-03-28T10:06:53Z</time></trkpt><trkpt lat="44.912762528517526" lon="7.792629634421085"><ele>248.0</ele><time>2026-03-28T10:06:54Z</time></trkpt><trkpt lat="44.91268622421837" lon="7.792873371080306"><ele>248.33333333333334</ele><time>2026-03-28T10:06:55Z</time></trkpt><trkpt lat="44.91260731122084" lon="7.793120310830707"><ele>248.66666666666669</ele><time>2026-03-28T10:06:56Z</time></trkpt><trkpt lat="44.912528182646355" lon="7.793371154442957"><ele>249.0</ele><time>2026-03-28T10:06:57Z</time></trkpt><trkpt lat="44.912449613545306" lon="7.793623695597756"><ele>249.0</ele><time>2026-03-28T10:06:58Z</time></trkpt><trkpt lat="44.912370774073004" lon="7.793873866414984"><ele>249.0</ele><time>2026-03-28T10:06:59Z</time></trkpt><trkpt lat="44.912292342133455" lon="7.794122634736351"><ele>249.0</ele><time>2026-03-28T10:07:00Z</time></trkpt><trkpt lat="44.912214530502446" lon="7.794365076805983"><ele>248.33333333333331</ele><time>2026-03-28T10:07:01Z</time></trkpt><trkpt lat="44.912140157791946" lon="7.794598978914786"><ele>247.66666666666666</ele><time>2026-03-28T10:07:02Z</time></trkpt><trkpt lat="44.91206737314703" lon="7.79482881137894"><ele>247.0</ele><time>2026-03-28T10:07:03Z</time></trkpt><trkpt lat="44.911995333432536" lon="7.795056597194528"><ele>247.33333333333331</ele><time>2026-03-28T10:07:04Z</time></trkpt><trkpt lat="44.911920265520216" lon="7.795293239950071"><ele>247.66666666666669</ele><time>2026-03-28T10:07:05Z</time></trkpt><trkpt lat="44.91184587138488" lon="7.795526052224423"><ele>248.0</ele><time>2026-03-28T10:07:06Z</time></trkpt><trkpt lat="44.91177768216569" lon="7.795737921933468"><ele>247.66666666666669</ele><time>2026-03-28T10:07:07Z</time></trkpt><trkpt lat="44.91171458019788" lon="7.795943065503361"><ele>247.33333333333331</ele><time>2026-03-28T10:07:08Z</time></trkpt><trkpt lat="44.91164949586473" lon="7.796156552360081"><ele>247.0</ele><time>2026-03-28T10:07:09Z</time></trkpt><trkpt lat="44.911583329951405" lon="7.796369931063709"><ele>247.0</ele><time>2026-03-28T10:07:10Z</time></trkpt><trkpt lat="44.9115150998934" lon="7.796584485476728"><ele>247.0</ele><time>2026-03-28T10:07:11Z</time></trkpt><trkpt lat="44.91144799644108" lon="7.796795277181012"><ele>247.0</ele><time>2026-03-28T10:07:12Z</time></trkpt><trkpt lat="44.91138129372376" lon="7.797004983742592"><ele>247.33333333333331</ele><time>2026-03-28T10:07:13Z</time></trkpt><trkpt lat="44.911314650318" lon="7.797215060653178"><ele>247.66666666666669</ele><time>2026-03-28T10:07:14Z</time></trkpt><trkpt lat="44.91124627869591" lon="7.797424987983708"><ele>248.0</ele><time>2026-03-28T10:07:15Z</time></trkpt><trkpt lat="44.91117621013722" lon="7.797640072959555"><ele>248.0</ele><time>2026-03-28T10:07:16Z</time></trkpt><trkpt lat="44.911108042250355" lon="7.797856858209944"><ele>248.0</ele><time>2026-03-28T10:07:17Z</time></trkpt><trkpt lat="44.911040775101014" lon="7.798072045831793"><ele>248.0</ele><time>2026-03-28T10:07:18Z</time></trkpt><trkpt lat="44.91097910364194" lon="7.798277990202401"><ele>248.0</ele><time>2026-03-28T10:07:19Z</time></trkpt><trkpt lat="44.91091906226748" lon="7.7984701863954005"><ele>248.0</ele><time>2026-03-28T10:07:20Z</time></trkpt><trkpt lat="44.91086093804473" lon="7.798648786009324"><ele>248.0</ele><time>2026-03-28T10:07:21Z</time></trkpt><trkpt lat="44.91080388587706" lon="7.798831712138099"><ele>248.0</ele><time>2026-03-28T10:07:22Z</time></trkpt><trkpt lat="44.91074378652571" lon="7.799019343213128"><ele>247.66666666666669</ele><time>2026-03-28T10:07:23Z</time></trkpt><trkpt lat="44.91068206144328" lon="7.799207714188989"><ele>247.33333333333331</ele><time>2026-03-28T10:07:24Z</time></trkpt><trkpt lat="44.91062019944263" lon="7.799399497084495"><ele>247.0</ele><time>2026-03-28T10:07:25Z</time></trkpt><trkpt lat="44.91055830003016" lon="7.7995975750783595"><ele>247.0</ele><time>2026-03-28T10:07:26Z</time></trkpt><trkpt lat="44.91049315968115" lon="7.79980824202991"><ele>247.0</ele><time>2026-03-28T10:07:27Z</time></trkpt><trkpt lat="44.910423609885235" lon="7.800023418888793"><ele>247.0</ele><time>2026-03-28T10:07:28Z</time></trkpt><trkpt lat="44.91035187606726" lon="7.800239135181168"><ele>247.33333333333331</ele><time>2026-03-28T10:07:29Z</time></trkpt><trkpt lat="44.910275623604065" lon="7.80045768106471"><ele>247.66666666666669</ele><time>2026-03-28T10:07:30Z</time></trkpt><trkpt lat="44.91019311304899" lon="7.800678790739068"><ele>248.0</ele><time>2026-03-28T10:07:31Z</time></trkpt><trkpt lat="44.91010597273327" lon="7.800903759584062"><ele>247.0</ele><time>2026-03-28T10:07:32Z</time></trkpt><trkpt lat="44.91001544267871" lon="7.801135677176507"><ele>246.0</ele><time>2026-03-28T10:07:33Z</time></trkpt><trkpt lat="44.90992105923774" lon="7.8013684235601355"><ele>245.0</ele><time>2026-03-28T10:07:34Z</time></trkpt><trkpt lat="44.90982628392857" lon="7.80159580979992"><ele>245.0</ele><time>2026-03-28T10:07:35Z</time></trkpt><trkpt lat="44.909733833556885" lon="7.80182477698979"><ele>245.0</ele><time>2026-03-28T10:07:36Z</time></trkpt><trkpt lat="44.90964257160376" lon="7.802054340437184"><ele>245.0</ele><time>2026-03-28T10:07:37Z</time></trkpt><trkpt lat="44.90954728643095" lon="7.802278152655823"><ele>244.66666666666669</ele><time>2026-03-28T10:07:38Z</time></trkpt><trkpt lat="44.90945524673318" lon="7.8024961497029155"><ele>244.33333333333331</ele><time>2026-03-28T10:07:39Z</time></trkpt><trkpt lat="44.90936510663216" lon="7.802706058359594"><ele>244.0</ele><time>2026-03-28T10:07:40Z</time></trkpt><trkpt lat="44.90928189819477" lon="7.802915559376541"><ele>243.66666666666666</ele><time>2026-03-28T10:07:41Z</time></trkpt><trkpt lat="44.90919760171124" lon="7.803117272661364"><ele>243.33333333333331</ele><time>2026-03-28T10:07:42Z</time></trkpt><trkpt lat="44.90911431135067" lon="7.80331684067962"><ele>243.0</ele><time>2026-03-28T10:07:43Z</time></trkpt><trkpt lat="44.90903421658037" lon="7.803513454166467"><ele>244.66666666666669</ele><time>2026-03-28T10:07:44Z</time></trkpt><trkpt lat="44.90895263048382" lon="7.8037088509391035"><ele>246.33333333333334</ele><time>2026-03-28T10:07:45Z</time></trkpt><trkpt lat="44.90887315955902" lon="7.803903161767625"><ele>248.0</ele><time>2026-03-28T10:07:46Z</time></trkpt><trkpt lat="44.90878800186964" lon="7.804103046569749"><ele>248.0</ele><time>2026-03-28T10:07:47Z</time></trkpt><trkpt lat="44.908700307199794" lon="7.804306686654998"><ele>248.0</ele><time>2026-03-28T10:07:48Z</time></trkpt><trkpt lat="44.908612452747256" lon="7.804516300123907"><ele>248.0</ele><time>2026-03-28T10:07:49Z</time></trkpt><trkpt lat="44.90852541192915" lon="7.8047338017368535"><ele>247.66666666666669</ele><time>2026-03-28T10:07:50Z</time></trkpt><trkpt lat="44.90843482823457" lon="7.8049531902076925"><ele>247.33333333333331</ele><time>2026-03-28T10:07:51Z</time></trkpt><trkpt lat="44.90834346396498" lon="7.805173489684364"><ele>247.0</ele><time>2026-03-28T10:07:52Z</time></trkpt><trkpt lat="44.90825520742109" lon="7.805384608998459"><ele>246.0</ele><time>2026-03-28T10:07:53Z</time></trkpt><trkpt lat="44.908164612940276" lon="7.805608155534393"><ele>245.0</ele><time>2026-03-28T10:07:54Z</time></trkpt><trkpt lat="44.90807682763232" lon="7.805822628253406"><ele>244.0</ele><time>2026-03-28T10:07:55Z</time></trkpt><trkpt lat="44.90798684009223" lon="7.806034288979826"><ele>244.0</ele><time>2026-03-28T10:07:56Z</time></trkpt><trkpt lat="44.90790066293323" lon="7.80624139313597"><ele>244.0</ele><time>2026-03-28T10:07:57Z</time></trkpt><trkpt lat="44.907813756184765" lon="7.806446579791089"><ele>244.0</ele><time>2026-03-28T10:07:58Z</time></trkpt><trkpt lat="44.90772749024977" lon="7.806649850939347"><ele>244.0</ele><time>2026-03-28T10:07:59Z</time></trkpt><trkpt lat="44.907647071045155" lon="7.80684467203635"><ele>244.0</ele><time>2026-03-28T10:08:00Z</time></trkpt><trkpt lat="44.90756630989601" lon="7.8070408502683755"><ele>244.0</ele><time>2026-03-28T10:08:01Z</time></trkpt><trkpt lat="44.90749306968753" lon="7.807227594789106"><ele>244.0</ele><time>2026-03-28T10:08:02Z</time></trkpt><trkpt lat="44.90741339824535" lon="7.807426126439024"><ele>244.0</ele><time>2026-03-28T10:08:03Z</time></trkpt><trkpt lat="44.90733941576062" lon="7.807615855620597"><ele>244.0</ele><time>2026-03-28T10:08:04Z</time></trkpt><trkpt lat="44.90724003820095" lon="7.807813753277737"><ele>244.0</ele><time>2026-03-28T10:08:05Z</time></trkpt><trkpt lat="44.90715150500971" lon="7.808045572127852"><ele>244.0</ele><time>2026-03-28T10:08:06Z</time></trkpt><trkpt lat="44.907068094962625" lon="7.8082703771733994"><ele>244.0</ele><time>2026-03-28T10:08:07Z</time></trkpt><trkpt lat="44.90699190844426" lon="7.808479701282692"><ele>244.0</ele><time>2026-03-28T10:08:08Z</time></trkpt><trkpt lat="44.906932575127854" lon="7.808684108331717"><ele>244.0</ele><time>2026-03-28T10:08:09Z</time></trkpt><trkpt lat="44.90686455360279" lon="7.808868254725806"><ele>244.0</ele><time>2026-03-28T10:08:10Z</time></trkpt><trkpt lat="44.906803827220976" lon="7.809040608770633"><ele>244.0</ele><time>2026-03-28T10:08:11Z</time></trkpt><trkpt lat="44.906750414922755" lon="7.809190821977004"><ele>244.2</ele><time>2026-03-28T10:08:12Z</time></trkpt><trkpt lat="44.906701967280924" lon="7.8093326708240935"><ele>244.39999999999998</ele><time>2026-03-28T10:08:13Z</time></trkpt><trkpt lat="44.90665593691547" lon="7.809464015785159"><ele>244.6</ele><time>2026-03-28T10:08:14Z</time></trkpt><trkpt lat="44.90661065087756" lon="7.80959017051154"><ele>244.8</ele><time>2026-03-28T10:08:15Z</time></trkpt><trkpt lat="44.906566847939956" lon="7.809702842215236"><ele>245.0</ele><time>2026-03-28T10:08:16Z</time></trkpt><trkpt lat="44.9065299726129" lon="7.809794772172986"><ele>245.00000000000003</ele><time>2026-03-28T10:08:17Z</time></trkpt><trkpt lat="44.906465755743476" lon="7.809933810369744"><ele>245.0</ele><time>2026-03-28T10:08:19Z</time></trkpt><trkpt lat="44.906374965039596" lon="7.810040762272868"><ele>245.0</ele><time>2026-03-28T10:08:21Z</time></trkpt><trkpt lat="44.9063150105799" lon="7.810079393194533"><ele>245.0</ele><time>2026-03-28T10:08:22Z</time></trkpt><trkpt lat="44.906258236638095" lon="7.810142329215779"><ele>245.00000000000003</ele><time>2026-03-28T10:08:23Z</time></trkpt><trkpt lat="44.90621128730565" lon="7.8102129695423725"><ele>245.0</ele><time>2026-03-28T10:08:24Z</time></trkpt><trkpt lat="44.906201850033725" lon="7.810320214581057"><ele>245.4</ele><time>2026-03-28T10:08:25Z</time></trkpt><trkpt lat="44.90624151388563" lon="7.8104156588544775"><ele>245.8</ele><time>2026-03-28T10:08:26Z</time></trkpt><trkpt lat="44.906339946105334" lon="7.810450074016543"><ele>246.2</ele><time>2026-03-28T10:08:27Z</time></trkpt><trkpt lat="44.90642856601061" lon="7.810464854121212"><ele>246.6</ele><time>2026-03-28T10:08:28Z</time></trkpt><trkpt lat="44.906533651343985" lon="7.8104835382790085"><ele>247.0</ele><time>2026-03-28T10:08:29Z</time></trkpt><trkpt lat="44.906643992140886" lon="7.810538315285366"><ele>247.33333333333331</ele><time>2026-03-28T10:08:30Z</time></trkpt><trkpt lat="44.906748724823295" lon="7.810691017139937"><ele>247.66666666666669</ele><time>2026-03-28T10:08:31Z</time></trkpt><trkpt lat="44.906877175245995" lon="7.810793631851284"><ele>248.0</ele><time>2026-03-28T10:08:32Z</time></trkpt><trkpt lat="44.90701900088152" lon="7.810907045397219"><ele>247.33333333333334</ele><time>2026-03-28T10:08:33Z</time></trkpt><trkpt lat="44.907174508584674" lon="7.811030915558789"><ele>246.66666666666669</ele><time>2026-03-28T10:08:34Z</time></trkpt><trkpt lat="44.907337222178924" lon="7.811158185839237"><ele>246.0</ele><time>2026-03-28T10:08:35Z</time></trkpt><trkpt lat="44.90748974641854" lon="7.811287085266108"><ele>246.0</ele><time>2026-03-28T10:08:36Z</time></trkpt><trkpt lat="44.90763785795043" lon="7.811413555063415"><ele>246.0</ele><time>2026-03-28T10:08:37Z</time></trkpt><trkpt lat="44.90778550719881" lon="7.811540547403852"><ele>246.0</ele><time>2026-03-28T10:08:38Z</time></trkpt><trkpt lat="44.90793598647222" lon="7.811667807283435"><ele>246.0</ele><time>2026-03-28T10:08:39Z</time></trkpt><trkpt lat="44.908086323270545" lon="7.811794739513937"><ele>246.0</ele><time>2026-03-28T10:08:40Z</time></trkpt><trkpt lat="44.9082307438236" lon="7.811915651094244"><ele>246.0</ele><time>2026-03-28T10:08:41Z</time></trkpt><trkpt lat="44.90837143382251" lon="7.812033791873925"><ele>245.75</ele><time>2026-03-28T10:08:42Z</time></trkpt><trkpt lat="44.908505923117566" lon="7.812149072315009"><ele>245.5</ele><time>2026-03-28T10:08:43Z</time></trkpt><trkpt lat="44.90862526430443" lon="7.812253524871173"><ele>245.25</ele><time>2026-03-28T10:08:44Z</time></trkpt><trkpt lat="44.90870446899717" lon="7.812322830274204"><ele>245.0</ele><time>2026-03-28T10:08:45Z</time></trkpt><trkpt lat="44.90875502793405" lon="7.8123927690052355"><ele>245.0</ele><time>2026-03-28T10:08:47Z</time></trkpt><trkpt lat="44.908660283342236" lon="7.812549367518105"><ele>245.0</ele><time>2026-03-28T10:08:49Z</time></trkpt><trkpt lat="44.90861227180911" lon="7.812659938912637"><ele>245.0</ele><time>2026-03-28T10:08:50Z</time></trkpt><trkpt lat="44.908565262498534" lon="7.812786492842144"><ele>245.0</ele><time>2026-03-28T10:08:51Z</time></trkpt><trkpt lat="44.90851049236191" lon="7.812938387009667"><ele>244.75</ele><time>2026-03-28T10:08:52Z</time></trkpt><trkpt lat="44.908449125598764" lon="7.81311361123061"><ele>244.5</ele><time>2026-03-28T10:08:53Z</time></trkpt><trkpt lat="44.90839092125883" lon="7.813288478284105"><ele>244.25</ele><time>2026-03-28T10:08:54Z</time></trkpt><trkpt lat="44.908330909635" lon="7.813471831526264"><ele>244.0</ele><time>2026-03-28T10:08:55Z</time></trkpt><trkpt lat="44.90827387351654" lon="7.813655949791466"><ele>244.0</ele><time>2026-03-28T10:08:56Z</time></trkpt><trkpt lat="44.90822693794235" lon="7.813836048241512"><ele>244.0</ele><time>2026-03-28T10:08:57Z</time></trkpt><trkpt lat="44.908180674293334" lon="7.814015972261058"><ele>244.0</ele><time>2026-03-28T10:08:58Z</time></trkpt><trkpt lat="44.90813006447585" lon="7.814198280127818"><ele>244.0</ele><time>2026-03-28T10:08:59Z</time></trkpt><trkpt lat="44.90807637134142" lon="7.8143695460221325"><ele>244.25</ele><time>2026-03-28T10:09:00Z</time></trkpt><trkpt lat="44.908026998885695" lon="7.8145337892671"><ele>244.5</ele><time>2026-03-28T10:09:01Z</time></trkpt><trkpt lat="44.9079676345481" lon="7.814689462734236"><ele>244.75</ele><time>2026-03-28T10:09:02Z</time></trkpt><trkpt lat="44.90789748134725" lon="7.814833053302981"><ele>245.0</ele><time>2026-03-28T10:09:03Z</time></trkpt><trkpt lat="44.90781242512988" lon="7.814962189559772"><ele>245.0</ele><time>2026-03-28T10:09:04Z</time></trkpt><trkpt lat="44.907726397759376" lon="7.815092028145161"><ele>245.0</ele><time>2026-03-28T10:09:05Z</time></trkpt><trkpt lat="44.907640090343044" lon="7.815222720883122"><ele>245.0</ele><time>2026-03-28T10:09:06Z</time></trkpt><trkpt lat="44.907548906448206" lon="7.815352313242143"><ele>245.0</ele><time>2026-03-28T10:09:07Z</time></trkpt><trkpt lat="44.907454615930824" lon="7.81547756112031"><ele>244.75</ele><time>2026-03-28T10:09:08Z</time></trkpt><trkpt lat="44.907359569081386" lon="7.8155944965409985"><ele>244.5</ele><time>2026-03-28T10:09:09Z</time></trkpt><trkpt lat="44.907267691014916" lon="7.815709869214053"><ele>244.25</ele><time>2026-03-28T10:09:10Z</time></trkpt><trkpt lat="44.90717413199295" lon="7.815829848924213"><ele>244.0</ele><time>2026-03-28T10:09:11Z</time></trkpt><trkpt lat="44.907078116644186" lon="7.815951471216644"><ele>243.5</ele><time>2026-03-28T10:09:12Z</time></trkpt><trkpt lat="44.90698197115832" lon="7.81607155671628"><ele>243.0</ele><time>2026-03-28T10:09:13Z</time></trkpt><trkpt lat="44.90688611990552" lon="7.816190409711453"><ele>242.5</ele><time>2026-03-28T10:09:14Z</time></trkpt><trkpt lat="44.906792615618755" lon="7.81630235785901"><ele>242.0</ele><time>2026-03-28T10:09:15Z</time></trkpt><trkpt lat="44.90670416899803" lon="7.816413140802182"><ele>242.00000000000003</ele><time>2026-03-28T10:09:16Z</time></trkpt><trkpt lat="44.90662295526372" lon="7.816513168336143"><ele>242.0</ele><time>2026-03-28T10:09:17Z</time></trkpt><trkpt lat="44.90655013279043" lon="7.816603352627475"><ele>242.0</ele><time>2026-03-28T10:09:18Z</time></trkpt><trkpt lat="44.906480126464395" lon="7.816687002150175"><ele>242.0</ele><time>2026-03-28T10:09:19Z</time></trkpt><trkpt lat="44.906423004313744" lon="7.816765083670917"><ele>242.00000000000003</ele><time>2026-03-28T10:09:20Z</time></trkpt><trkpt lat="44.90639090603642" lon="7.816846977961255"><ele>242.0</ele><time>2026-03-28T10:09:21Z</time></trkpt><trkpt lat="44.90639206596862" lon="7.81695580588055"><ele>242.0</ele><time>2026-03-28T10:09:22Z</time></trkpt><trkpt lat="44.906421387883334" lon="7.81708965875234"><ele>242.0</ele><time>2026-03-28T10:09:23Z</time></trkpt><trkpt lat="44.90645996651159" lon="7.81724610978631"><ele>242.0</ele><time>2026-03-28T10:09:24Z</time></trkpt><trkpt lat="44.90649453335968" lon="7.817421399774283"><ele>242.0</ele><time>2026-03-28T10:09:25Z</time></trkpt><trkpt lat="44.90653653188212" lon="7.8175920635326355"><ele>242.5</ele><time>2026-03-28T10:09:26Z</time></trkpt><trkpt lat="44.90656169677964" lon="7.817754167301286"><ele>243.0</ele><time>2026-03-28T10:09:27Z</time></trkpt><trkpt lat="44.9066149121417" lon="7.817947291787961"><ele>243.5</ele><time>2026-03-28T10:09:28Z</time></trkpt><trkpt lat="44.906669170362974" lon="7.818143195386496"><ele>244.0</ele><time>2026-03-28T10:09:29Z</time></trkpt><trkpt lat="44.906716605684466" lon="7.818323268738278"><ele>243.25</ele><time>2026-03-28T10:09:30Z</time></trkpt><trkpt lat="44.90677272120682" lon="7.818488307880042"><ele>242.5</ele><time>2026-03-28T10:09:31Z</time></trkpt><trkpt lat="44.906853009676986" lon="7.818647971710923"><ele>241.75</ele><time>2026-03-28T10:09:32Z</time></trkpt><trkpt lat="44.90695023901295" lon="7.818820256125947"><ele>241.0</ele><time>2026-03-28T10:09:33Z</time></trkpt><trkpt lat="44.9070552793481" lon="7.81899740637786"><ele>241.0</ele><time>2026-03-28T10:09:34Z</time></trkpt><trkpt lat="44.907154411781384" lon="7.819167425151446"><ele>241.0</ele><time>2026-03-28T10:09:35Z</time></trkpt><trkpt lat="44.90724621327912" lon="7.819319786714187"><ele>241.0</ele><time>2026-03-28T10:09:36Z</time></trkpt><trkpt lat="44.907325294908226" lon="7.819447681310909"><ele>241.0</ele><time>2026-03-28T10:09:37Z</time></trkpt><trkpt lat="44.907393171483555" lon="7.819581168553887"><ele>241.25</ele><time>2026-03-28T10:09:38Z</time></trkpt><trkpt lat="44.90742576837825" lon="7.819744313936779"><ele>241.5</ele><time>2026-03-28T10:09:39Z</time></trkpt><trkpt lat="44.907445539254745" lon="7.819911515686462"><ele>241.75</ele><time>2026-03-28T10:09:40Z</time></trkpt><trkpt lat="44.907445279723554" lon="7.820076821523004"><ele>242.0</ele><time>2026-03-28T10:09:41Z</time></trkpt><trkpt lat="44.90742677645368" lon="7.820233827433164"><ele>241.25</ele><time>2026-03-28T10:09:42Z</time></trkpt><trkpt lat="44.90740166115395" lon="7.8204020705713155"><ele>240.5</ele><time>2026-03-28T10:09:43Z</time></trkpt><trkpt lat="44.907394275063346" lon="7.82056944439172"><ele>239.75</ele><time>2026-03-28T10:09:44Z</time></trkpt><trkpt lat="44.907403660404256" lon="7.8207300242372835"><ele>239.0</ele><time>2026-03-28T10:09:45Z</time></trkpt><trkpt lat="44.90741263749696" lon="7.820889331704878"><ele>239.39999999999998</ele><time>2026-03-28T10:09:46Z</time></trkpt><trkpt lat="44.90742107581963" lon="7.8210589311551955"><ele>239.79999999999998</ele><time>2026-03-28T10:09:47Z</time></trkpt><trkpt lat="44.90743191671458" lon="7.8212315326333055"><ele>240.20000000000002</ele><time>2026-03-28T10:09:48Z</time></trkpt><trkpt lat="44.90743672043173" lon="7.821381041230242"><ele>240.60000000000002</ele><time>2026-03-28T10:09:49Z</time></trkpt><trkpt lat="44.90745865602878" lon="7.821513269232349"><ele>241.0</ele><time>2026-03-28T10:09:50Z</time></trkpt><trkpt lat="44.907475684269286" lon="7.821614162667562"><ele>240.99999999999997</ele><time>2026-03-28T10:09:51Z</time></trkpt><trkpt lat="44.90748415683838" lon="7.821708524289849"><ele>241.0</ele><time>2026-03-28T10:09:53Z</time></trkpt><trkpt lat="44.90738948920112" lon="7.821777747899535"><ele>241.0</ele><time>2026-03-28T10:09:56Z</time></trkpt><trkpt lat="44.90727678178741" lon="7.821817042178324"><ele>241.0</ele><time>2026-03-28T10:09:58Z</time></trkpt><trkpt lat="44.90720324900647" lon="7.821835101355566"><ele>240.99999999999997</ele><time>2026-03-28T10:09:59Z</time></trkpt><trkpt lat="44.90712484463408" lon="7.821859602462068"><ele>241.0</ele><time>2026-03-28T10:10:00Z</time></trkpt><trkpt lat="44.907049045571725" lon="7.8218919695272255"><ele>240.83333333333331</ele><time>2026-03-28T10:10:01Z</time></trkpt><trkpt lat="44.90696968995268" lon="7.821919964607732"><ele>240.66666666666666</ele><time>2026-03-28T10:10:02Z</time></trkpt><trkpt lat="44.90689336681913" lon="7.8219676776539435"><ele>240.5</ele><time>2026-03-28T10:10:03Z</time></trkpt><trkpt lat="44.90681992596374" lon="7.822009859907206"><ele>240.33333333333331</ele><time>2026-03-28T10:10:04Z</time></trkpt><trkpt lat="44.90674330417262" lon="7.822058760554084"><ele>240.16666666666666</ele><time>2026-03-28T10:10:05Z</time></trkpt><trkpt lat="44.90665851212295" lon="7.822112851308847"><ele>240.0</ele><time>2026-03-28T10:10:06Z</time></trkpt><trkpt lat="44.906569885009176" lon="7.82216976576395"><ele>239.8</ele><time>2026-03-28T10:10:07Z</time></trkpt><trkpt lat="44.90647912128511" lon="7.82222264885622"><ele>239.6</ele><time>2026-03-28T10:10:08Z</time></trkpt><trkpt lat="44.9063918671746" lon="7.822271899569799"><ele>239.39999999999998</ele><time>2026-03-28T10:10:09Z</time></trkpt><trkpt lat="44.90630459899006" lon="7.822320390205549"><ele>239.2</ele><time>2026-03-28T10:10:10Z</time></trkpt><trkpt lat="44.906217731517856" lon="7.822360358614922"><ele>239.0</ele><time>2026-03-28T10:10:11Z</time></trkpt><trkpt lat="44.906127471549304" lon="7.822394577039771"><ele>239.0</ele><time>2026-03-28T10:10:12Z</time></trkpt><trkpt lat="44.906030049118236" lon="7.8224441885884515"><ele>238.99999999999997</ele><time>2026-03-28T10:10:13Z</time></trkpt><trkpt lat="44.90594036272075" lon="7.8224921084698895"><ele>238.99999999999997</ele><time>2026-03-28T10:10:14Z</time></trkpt><trkpt lat="44.90584996229892" lon="7.822533431781417"><ele>239.0</ele><time>2026-03-28T10:10:15Z</time></trkpt><trkpt lat="44.905757889682484" lon="7.822575240610936"><ele>239.0</ele><time>2026-03-28T10:10:16Z</time></trkpt><trkpt lat="44.90566865995815" lon="7.8226194623209775"><ele>239.2</ele><time>2026-03-28T10:10:17Z</time></trkpt><trkpt lat="44.905579992267086" lon="7.822664448573543"><ele>239.39999999999998</ele><time>2026-03-28T10:10:18Z</time></trkpt><trkpt lat="44.905490658426544" lon="7.822705510569533"><ele>239.6</ele><time>2026-03-28T10:10:19Z</time></trkpt><trkpt lat="44.90540023086037" lon="7.82275236618839"><ele>239.8</ele><time>2026-03-28T10:10:20Z</time></trkpt><trkpt lat="44.905308164027005" lon="7.8228105349902615"><ele>240.0</ele><time>2026-03-28T10:10:21Z</time></trkpt><trkpt lat="44.90521856490058" lon="7.822883155129494"><ele>240.0</ele><time>2026-03-28T10:10:22Z</time></trkpt><trkpt lat="44.90513186416884" lon="7.822961194710223"><ele>240.0</ele><time>2026-03-28T10:10:23Z</time></trkpt><trkpt lat="44.90504488628422" lon="7.823041937175352"><ele>240.0</ele><time>2026-03-28T10:10:24Z</time></trkpt><trkpt lat="44.90496176919179" lon="7.823129605662162"><ele>240.0</ele><time>2026-03-28T10:10:25Z</time></trkpt><trkpt lat="44.90488371623213" lon="7.823219881085284"><ele>240.0</ele><time>2026-03-28T10:10:26Z</time></trkpt><trkpt lat="44.90480530563638" lon="7.823304105340862"><ele>240.0</ele><time>2026-03-28T10:10:27Z</time></trkpt><trkpt lat="44.90471553951771" lon="7.823381885241632"><ele>240.0</ele><time>2026-03-28T10:10:28Z</time></trkpt><trkpt lat="44.90462037371498" lon="7.823444686138889"><ele>240.0</ele><time>2026-03-28T10:10:29Z</time></trkpt><trkpt lat="44.90450945868877" lon="7.823491878798092"><ele>240.0</ele><time>2026-03-28T10:10:30Z</time></trkpt><trkpt lat="44.90439397854561" lon="7.82353465069876"><ele>240.0</ele><time>2026-03-28T10:10:31Z</time></trkpt><trkpt lat="44.9042820039612" lon="7.8235754031086335"><ele>240.0</ele><time>2026-03-28T10:10:32Z</time></trkpt><trkpt lat="44.90416964473498" lon="7.823615881591112"><ele>240.0</ele><time>2026-03-28T10:10:33Z</time></trkpt><trkpt lat="44.90405710434611" lon="7.823660736873641"><ele>240.0</ele><time>2026-03-28T10:10:34Z</time></trkpt><trkpt lat="44.9039458488684" lon="7.823705854269271"><ele>240.0</ele><time>2026-03-28T10:10:35Z</time></trkpt><trkpt lat="44.903835723588685" lon="7.823740716193142"><ele>240.0</ele><time>2026-03-28T10:10:36Z</time></trkpt><trkpt lat="44.903725935133906" lon="7.823778476035406"><ele>240.0</ele><time>2026-03-28T10:10:37Z</time></trkpt><trkpt lat="44.90361662925165" lon="7.823817940610703"><ele>240.0</ele><time>2026-03-28T10:10:38Z</time></trkpt><trkpt lat="44.90350631679089" lon="7.823855400398061"><ele>240.0</ele><time>2026-03-28T10:10:39Z</time></trkpt><trkpt lat="44.90339466412378" lon="7.823887744832953"><ele>240.5</ele><time>2026-03-28T10:10:40Z</time></trkpt><trkpt lat="44.90327963597889" lon="7.8239130429641355"><ele>241.0</ele><time>2026-03-28T10:10:41Z</time></trkpt><trkpt lat="44.90316155715843" lon="7.82394122188597"><ele>241.5</ele><time>2026-03-28T10:10:42Z</time></trkpt><trkpt lat="44.90304298743123" lon="7.823981764103116"><ele>242.0</ele><time>2026-03-28T10:10:43Z</time></trkpt><trkpt lat="44.902925513538825" lon="7.8240376361802175"><ele>242.0</ele><time>2026-03-28T10:10:44Z</time></trkpt><trkpt lat="44.902803837514355" lon="7.82407985956933"><ele>242.0</ele><time>2026-03-28T10:10:45Z</time></trkpt><trkpt lat="44.90268816490714" lon="7.824115854793858"><ele>242.0</ele><time>2026-03-28T10:10:46Z</time></trkpt><trkpt lat="44.90257124063381" lon="7.824166660803574"><ele>242.0</ele><time>2026-03-28T10:10:47Z</time></trkpt><trkpt lat="44.902452490928354" lon="7.824207094977888"><ele>241.75</ele><time>2026-03-28T10:10:48Z</time></trkpt><trkpt lat="44.90233488489042" lon="7.824236702441462"><ele>241.5</ele><time>2026-03-28T10:10:49Z</time></trkpt><trkpt lat="44.90222172406866" lon="7.824269489433864"><ele>241.25</ele><time>2026-03-28T10:10:50Z</time></trkpt><trkpt lat="44.90210761983861" lon="7.824303841683795"><ele>241.0</ele><time>2026-03-28T10:10:51Z</time></trkpt><trkpt lat="44.90199478022894" lon="7.824314957186365"><ele>241.0</ele><time>2026-03-28T10:10:52Z</time></trkpt><trkpt lat="44.901885444846826" lon="7.8243401774845465"><ele>241.00000000000003</ele><time>2026-03-28T10:10:53Z</time></trkpt><trkpt lat="44.901777448871925" lon="7.8243655291277605"><ele>241.00000000000003</ele><time>2026-03-28T10:10:54Z</time></trkpt><trkpt lat="44.901671010348174" lon="7.824391858630129"><ele>241.0</ele><time>2026-03-28T10:10:55Z</time></trkpt><trkpt lat="44.90156556257292" lon="7.824440107008532"><ele>241.0</ele><time>2026-03-28T10:10:56Z</time></trkpt><trkpt lat="44.90145862622566" lon="7.824460429237689"><ele>240.8</ele><time>2026-03-28T10:10:57Z</time></trkpt><trkpt lat="44.901354731636324" lon="7.824485994865669"><ele>240.60000000000002</ele><time>2026-03-28T10:10:58Z</time></trkpt><trkpt lat="44.901250121300336" lon="7.824511750970569"><ele>240.4</ele><time>2026-03-28T10:10:59Z</time></trkpt><trkpt lat="44.90114563565857" lon="7.82454301356119"><ele>240.2</ele><time>2026-03-28T10:11:00Z</time></trkpt><trkpt lat="44.90104005541232" lon="7.824590300213409"><ele>240.0</ele><time>2026-03-28T10:11:01Z</time></trkpt><trkpt lat="44.90093676519613" lon="7.824643763325589"><ele>240.6</ele><time>2026-03-28T10:11:02Z</time></trkpt><trkpt lat="44.90083327701283" lon="7.82471647039058"><ele>241.2</ele><time>2026-03-28T10:11:03Z</time></trkpt><trkpt lat="44.90072932684223" lon="7.824787468855399"><ele>241.8</ele><time>2026-03-28T10:11:04Z</time></trkpt><trkpt lat="44.9006312257743" lon="7.82486295545253"><ele>242.4</ele><time>2026-03-28T10:11:05Z</time></trkpt><trkpt lat="44.90053984372497" lon="7.8249402082952075"><ele>243.0</ele><time>2026-03-28T10:11:06Z</time></trkpt><trkpt lat="44.90044537831874" lon="7.8250185025702494"><ele>243.0</ele><time>2026-03-28T10:11:07Z</time></trkpt><trkpt lat="44.9003536345921" lon="7.8251000789838985"><ele>243.0</ele><time>2026-03-28T10:11:08Z</time></trkpt><trkpt lat="44.90027264109156" lon="7.825173642871859"><ele>243.0</ele><time>2026-03-28T10:11:09Z</time></trkpt><trkpt lat="44.900195426681144" lon="7.825249169147068"><ele>243.0</ele><time>2026-03-28T10:11:10Z</time></trkpt><trkpt lat="44.90012042439291" lon="7.825331278441669"><ele>243.0</ele><time>2026-03-28T10:11:11Z</time></trkpt><trkpt lat="44.900052266288604" lon="7.825414699210276"><ele>242.8</ele><time>2026-03-28T10:11:12Z</time></trkpt><trkpt lat="44.899985640671446" lon="7.825503819969988"><ele>242.60000000000002</ele><time>2026-03-28T10:11:13Z</time></trkpt><trkpt lat="44.899920947046596" lon="7.825599162799098"><ele>242.39999999999998</ele><time>2026-03-28T10:11:14Z</time></trkpt><trkpt lat="44.89985240405852" lon="7.825716871644619"><ele>242.2</ele><time>2026-03-28T10:11:15Z</time></trkpt><trkpt lat="44.89978593823561" lon="7.825820739413935"><ele>242.0</ele><time>2026-03-28T10:11:16Z</time></trkpt><trkpt lat="44.899707782178304" lon="7.825930731683608"><ele>242.0</ele><time>2026-03-28T10:11:17Z</time></trkpt><trkpt lat="44.899633509805014" lon="7.826023248484422"><ele>242.0</ele><time>2026-03-28T10:11:18Z</time></trkpt><trkpt lat="44.89956029478617" lon="7.826115642454039"><ele>242.0</ele><time>2026-03-28T10:11:19Z</time></trkpt><trkpt lat="44.899486305451184" lon="7.8262088341449"><ele>242.0</ele><time>2026-03-28T10:11:20Z</time></trkpt><trkpt lat="44.8994143422444" lon="7.826298754165481"><ele>242.0</ele><time>2026-03-28T10:11:21Z</time></trkpt><trkpt lat="44.89934282877323" lon="7.826389960962764"><ele>242.0</ele><time>2026-03-28T10:11:22Z</time></trkpt><trkpt lat="44.899276173483074" lon="7.826486117751609"><ele>242.0</ele><time>2026-03-28T10:11:23Z</time></trkpt><trkpt lat="44.899214331295504" lon="7.826591049516894"><ele>242.0</ele><time>2026-03-28T10:11:24Z</time></trkpt><trkpt lat="44.89915419555722" lon="7.826693466854604"><ele>242.0</ele><time>2026-03-28T10:11:25Z</time></trkpt><trkpt lat="44.899096065541706" lon="7.826792709397194"><ele>242.0</ele><time>2026-03-28T10:11:26Z</time></trkpt><trkpt lat="44.89904360605617" lon="7.826892934442336"><ele>242.50000000000003</ele><time>2026-03-28T10:11:27Z</time></trkpt><trkpt lat="44.898996866453956" lon="7.826993832866835"><ele>243.0</ele><time>2026-03-28T10:11:28Z</time></trkpt><trkpt lat="44.89894787785419" lon="7.8270981229481995"><ele>243.5</ele><time>2026-03-28T10:11:29Z</time></trkpt><trkpt lat="44.89890285617471" lon="7.82719912158393"><ele>244.0</ele><time>2026-03-28T10:11:30Z</time></trkpt><trkpt lat="44.898853987223475" lon="7.827296559713277"><ele>244.50000000000003</ele><time>2026-03-28T10:11:31Z</time></trkpt><trkpt lat="44.89878717952745" lon="7.827370456964095"><ele>245.0</ele><time>2026-03-28T10:11:32Z</time></trkpt><trkpt lat="44.898729511566685" lon="7.827456302195042"><ele>245.00000000000003</ele><time>2026-03-28T10:11:33Z</time></trkpt><trkpt lat="44.89866418342724" lon="7.827527732923141"><ele>245.0</ele><time>2026-03-28T10:11:34Z</time></trkpt><trkpt lat="44.89859134191892" lon="7.827584331859327"><ele>245.0</ele><time>2026-03-28T10:11:35Z</time></trkpt><trkpt lat="44.898523241334075" lon="7.827667859127645"><ele>245.0</ele><time>2026-03-28T10:11:36Z</time></trkpt><trkpt lat="44.898442666746114" lon="7.827718579036802"><ele>245.00000000000003</ele><time>2026-03-28T10:11:37Z</time></trkpt><trkpt lat="44.89835935437098" lon="7.827753906933234"><ele>245.0</ele><time>2026-03-28T10:11:38Z</time></trkpt><trkpt lat="44.89828025187213" lon="7.8277756588785845"><ele>245.0</ele><time>2026-03-28T10:11:39Z</time></trkpt><trkpt lat="44.898187840359824" lon="7.8277458860846165"><ele>245.0</ele><time>2026-03-28T10:11:40Z</time></trkpt><trkpt lat="44.898099596173324" lon="7.8277623636518525"><ele>245.0</ele><time>2026-03-28T10:11:41Z</time></trkpt><trkpt lat="44.898014123101106" lon="7.8277925964378925"><ele>245.0</ele><time>2026-03-28T10:11:42Z</time></trkpt><trkpt lat="44.89791802468631" lon="7.827778506110977"><ele>245.0</ele><time>2026-03-28T10:11:43Z</time></trkpt><trkpt lat="44.89782915610003" lon="7.827772761503579"><ele>245.00000000000003</ele><time>2026-03-28T10:11:44Z</time></trkpt><trkpt lat="44.89774064873042" lon="7.827762800700037"><ele>245.0</ele><time>2026-03-28T10:11:45Z</time></trkpt><trkpt lat="44.897652493543255" lon="7.827763347873829"><ele>245.0</ele><time>2026-03-28T10:11:46Z</time></trkpt><trkpt lat="44.897569616224686" lon="7.827753454399668"><ele>245.0</ele><time>2026-03-28T10:11:47Z</time></trkpt><trkpt lat="44.897483865185016" lon="7.827744397093409"><ele>245.00000000000003</ele><time>2026-03-28T10:11:48Z</time></trkpt><trkpt lat="44.897399680942215" lon="7.827757338391155"><ele>245.0</ele><time>2026-03-28T10:11:49Z</time></trkpt><trkpt lat="44.897329418876" lon="7.827785204016943"><ele>246.2</ele><time>2026-03-28T10:11:50Z</time></trkpt><trkpt lat="44.897218907821326" lon="7.827856815528715"><ele>247.4</ele><time>2026-03-28T10:11:52Z</time></trkpt><trkpt lat="44.897141714875275" lon="7.827900467281978"><ele>248.60000000000002</ele><time>2026-03-28T10:11:53Z</time></trkpt><trkpt lat="44.8970602254719" lon="7.827953355508187"><ele>249.8</ele><time>2026-03-28T10:11:54Z</time></trkpt><trkpt lat="44.89697129061499" lon="7.828006921791979"><ele>251.0</ele><time>2026-03-28T10:11:55Z</time></trkpt><trkpt lat="44.896878254365646" lon="7.828059260793878"><ele>251.0</ele><time>2026-03-28T10:11:56Z</time></trkpt><trkpt lat="44.89677097013082" lon="7.828081414633102"><ele>251.00000000000003</ele><time>2026-03-28T10:11:57Z</time></trkpt><trkpt lat="44.89666632736899" lon="7.828114582671183"><ele>251.00000000000003</ele><time>2026-03-28T10:11:58Z</time></trkpt><trkpt lat="44.89655845691857" lon="7.828140198359598"><ele>251.0</ele><time>2026-03-28T10:11:59Z</time></trkpt><trkpt lat="44.896460356702775" lon="7.828155231425031"><ele>251.0</ele><time>2026-03-28T10:12:00Z</time></trkpt><trkpt lat="44.89636934042881" lon="7.828184651563101"><ele>251.0</ele><time>2026-03-28T10:12:01Z</time></trkpt><trkpt lat="44.89628878806442" lon="7.828199550482241"><ele>251.00000000000003</ele><time>2026-03-28T10:12:02Z</time></trkpt><trkpt lat="44.89622701763156" lon="7.82822012585257"><ele>251.00000000000003</ele><time>2026-03-28T10:12:03Z</time></trkpt><trkpt lat="44.896144844256554" lon="7.828310075655798"><ele>251.0</ele><time>2026-03-28T10:12:05Z</time></trkpt><trkpt lat="44.8961539009653" lon="7.8285083501142205"><ele>251.0</ele><time>2026-03-28T10:12:07Z</time></trkpt><trkpt lat="44.896189460136384" lon="7.82861886877915"><ele>251.0</ele><time>2026-03-28T10:12:08Z</time></trkpt><trkpt lat="44.89621938204297" lon="7.828752474991071"><ele>251.00000000000003</ele><time>2026-03-28T10:12:09Z</time></trkpt><trkpt lat="44.896257156579736" lon="7.828919150443449"><ele>251.00000000000003</ele><time>2026-03-28T10:12:10Z</time></trkpt><trkpt lat="44.89629357805861" lon="7.829072033969729"><ele>251.0</ele><time>2026-03-28T10:12:11Z</time></trkpt><trkpt lat="44.89633333415613" lon="7.829219274259267"><ele>251.0</ele><time>2026-03-28T10:12:12Z</time></trkpt><trkpt lat="44.89638001598761" lon="7.829385040655699"><ele>250.4</ele><time>2026-03-28T10:12:13Z</time></trkpt><trkpt lat="44.89642876244195" lon="7.829550089904513"><ele>249.8</ele><time>2026-03-28T10:12:14Z</time></trkpt><trkpt lat="44.89645243970279" lon="7.829698360637996"><ele>249.20000000000002</ele><time>2026-03-28T10:12:15Z</time></trkpt><trkpt lat="44.89647075628678" lon="7.829828879953746"><ele>248.60000000000002</ele><time>2026-03-28T10:12:16Z</time></trkpt><trkpt lat="44.8964518407529" lon="7.829937009441676"><ele>248.0</ele><time>2026-03-28T10:12:17Z</time></trkpt><trkpt lat="44.8964232707548" lon="7.830036982701477"><ele>247.4</ele><time>2026-03-28T10:12:18Z</time></trkpt><trkpt lat="44.89638741333049" lon="7.8301419687882845"><ele>246.8</ele><time>2026-03-28T10:12:19Z</time></trkpt><trkpt lat="44.89634058045325" lon="7.83026647476593"><ele>246.2</ele><time>2026-03-28T10:12:20Z</time></trkpt><trkpt lat="44.89628380919097" lon="7.830400029884212"><ele>245.6</ele><time>2026-03-28T10:12:21Z</time></trkpt><trkpt lat="44.89621707110094" lon="7.8305336640856895"><ele>245.0</ele><time>2026-03-28T10:12:22Z</time></trkpt><trkpt lat="44.89614004898454" lon="7.830669326598371"><ele>245.0</ele><time>2026-03-28T10:12:23Z</time></trkpt><trkpt lat="44.896057206488635" lon="7.830804171790755"><ele>245.0</ele><time>2026-03-28T10:12:24Z</time></trkpt><trkpt lat="44.89599320514771" lon="7.83095557079838"><ele>245.0</ele><time>2026-03-28T10:12:25Z</time></trkpt><trkpt lat="44.89592257622066" lon="7.83109482046383"><ele>245.0</ele><time>2026-03-28T10:12:26Z</time></trkpt><trkpt lat="44.895869061131684" lon="7.831247355859753"><ele>245.2</ele><time>2026-03-28T10:12:27Z</time></trkpt><trkpt lat="44.89583373110372" lon="7.8314191393239065"><ele>245.4</ele><time>2026-03-28T10:12:28Z</time></trkpt><trkpt lat="44.89579710883198" lon="7.831578202480455"><ele>245.60000000000002</ele><time>2026-03-28T10:12:29Z</time></trkpt><trkpt lat="44.895762073220915" lon="7.831711637532378"><ele>245.8</ele><time>2026-03-28T10:12:30Z</time></trkpt><trkpt lat="44.895736525917926" lon="7.831819219308075"><ele>246.0</ele><time>2026-03-28T10:12:31Z</time></trkpt><trkpt lat="44.89568744590305" lon="7.831940366941726"><ele>246.0</ele><time>2026-03-28T10:12:33Z</time></trkpt><trkpt lat="44.89556899334636" lon="7.831809733441405"><ele>246.0</ele><time>2026-03-28T10:12:35Z</time></trkpt><trkpt lat="44.89547992276239" lon="7.831788850602646"><ele>246.0</ele><time>2026-03-28T10:12:36Z</time></trkpt><trkpt lat="44.89536702936552" lon="7.831772392660243"><ele>246.0</ele><time>2026-03-28T10:12:37Z</time></trkpt><trkpt lat="44.89523437073606" lon="7.831784002271711"><ele>246.0</ele><time>2026-03-28T10:12:38Z</time></trkpt><trkpt lat="44.89511291489826" lon="7.831748281788917"><ele>246.0</ele><time>2026-03-28T10:12:39Z</time></trkpt><trkpt lat="44.894987620358144" lon="7.831734898348501"><ele>246.0</ele><time>2026-03-28T10:12:40Z</time></trkpt><trkpt lat="44.894865891711994" lon="7.831707151453775"><ele>246.0</ele><time>2026-03-28T10:12:41Z</time></trkpt><trkpt lat="44.89476337316582" lon="7.83167112884277"><ele>246.8</ele><time>2026-03-28T10:12:42Z</time></trkpt><trkpt lat="44.89467524036539" lon="7.831634566380798"><ele>247.60000000000002</ele><time>2026-03-28T10:12:43Z</time></trkpt><trkpt lat="44.894593309635844" lon="7.831611920232873"><ele>248.4</ele><time>2026-03-28T10:12:44Z</time></trkpt><trkpt lat="44.89451638655141" lon="7.831565371308715"><ele>249.2</ele><time>2026-03-28T10:12:45Z</time></trkpt><trkpt lat="44.89444434449366" lon="7.831523127091585"><ele>250.0</ele><time>2026-03-28T10:12:47Z</time></trkpt><trkpt lat="44.89437752731262" lon="7.831782821335106"><ele>250.0</ele><time>2026-03-28T10:12:48Z</time></trkpt><trkpt lat="44.89432801767424" lon="7.831927951503266"><ele>250.0</ele><time>2026-03-28T10:12:49Z</time></trkpt><trkpt lat="44.89424930499541" lon="7.832053342687793"><ele>250.0</ele><time>2026-03-28T10:12:50Z</time></trkpt><trkpt lat="44.894184274720914" lon="7.832203080927818"><ele>250.0</ele><time>2026-03-28T10:12:51Z</time></trkpt><trkpt lat="44.89411511869863" lon="7.832331265333689"><ele>250.0</ele><time>2026-03-28T10:12:52Z</time></trkpt><trkpt lat="44.89405239717317" lon="7.832449547842968"><ele>250.0</ele><time>2026-03-28T10:12:53Z</time></trkpt><trkpt lat="44.89400013631047" lon="7.832560919085609"><ele>250.0</ele><time>2026-03-28T10:12:54Z</time></trkpt><trkpt lat="44.89397486479062" lon="7.832681223726893"><ele>250.0</ele><time>2026-03-28T10:12:55Z</time></trkpt><trkpt lat="44.893982692644286" lon="7.83282361478057"><ele>250.0</ele><time>2026-03-28T10:12:56Z</time></trkpt><trkpt lat="44.89400893137087" lon="7.832961165244306"><ele>250.4</ele><time>2026-03-28T10:12:57Z</time></trkpt><trkpt lat="44.89403471317172" lon="7.833078592459148"><ele>250.8</ele><time>2026-03-28T10:12:58Z</time></trkpt><trkpt lat="44.89404926226342" lon="7.833208534665384"><ele>251.2</ele><time>2026-03-28T10:12:59Z</time></trkpt><trkpt lat="44.89394645210376" lon="7.833284404600127"><ele>251.6</ele><time>2026-03-28T10:13:00Z</time></trkpt><trkpt lat="44.89390018281916" lon="7.833430071469199"><ele>252.0</ele><time>2026-03-28T10:13:01Z</time></trkpt><trkpt lat="44.893859529581846" lon="7.83359512415736"><ele>252.0</ele><time>2026-03-28T10:13:02Z</time></trkpt><trkpt lat="44.89385208421534" lon="7.8337644088235505"><ele>252.0</ele><time>2026-03-28T10:13:03Z</time></trkpt><trkpt lat="44.89385639740791" lon="7.833950739987419"><ele>252.0</ele><time>2026-03-28T10:13:04Z</time></trkpt><trkpt lat="44.89385955515726" lon="7.834130150707737"><ele>252.0</ele><time>2026-03-28T10:13:05Z</time></trkpt><trkpt lat="44.89386891548909" lon="7.834308236551752"><ele>251.0</ele><time>2026-03-28T10:13:06Z</time></trkpt><trkpt lat="44.89387702012675" lon="7.834483384252308"><ele>250.0</ele><time>2026-03-28T10:13:07Z</time></trkpt><trkpt lat="44.893872833860776" lon="7.834653593762139"><ele>249.0</ele><time>2026-03-28T10:13:08Z</time></trkpt><trkpt lat="44.893850201240134" lon="7.834824092812094"><ele>248.0</ele><time>2026-03-28T10:13:09Z</time></trkpt><trkpt lat="44.89381965309404" lon="7.835003352610972"><ele>247.25</ele><time>2026-03-28T10:13:10Z</time></trkpt><trkpt lat="44.89378590090396" lon="7.835177797242132"><ele>246.5</ele><time>2026-03-28T10:13:11Z</time></trkpt><trkpt lat="44.893753050367216" lon="7.835349261357455"><ele>245.75</ele><time>2026-03-28T10:13:12Z</time></trkpt><trkpt lat="44.89373801704679" lon="7.835524852533902"><ele>245.0</ele><time>2026-03-28T10:13:13Z</time></trkpt><trkpt lat="44.89369897891942" lon="7.835687289408255"><ele>245.0</ele><time>2026-03-28T10:13:14Z</time></trkpt><trkpt lat="44.8936707312553" lon="7.835855982956347"><ele>245.0</ele><time>2026-03-28T10:13:15Z</time></trkpt><trkpt lat="44.89361691842948" lon="7.836017356432263"><ele>245.0</ele><time>2026-03-28T10:13:16Z</time></trkpt><trkpt lat="44.89357202003417" lon="7.836184423991718"><ele>245.0</ele><time>2026-03-28T10:13:17Z</time></trkpt><trkpt lat="44.893524911451024" lon="7.836353428602257"><ele>245.0</ele><time>2026-03-28T10:13:18Z</time></trkpt><trkpt lat="44.893471144982605" lon="7.836519401092338"><ele>245.0</ele><time>2026-03-28T10:13:19Z</time></trkpt><trkpt lat="44.89341794864928" lon="7.836690889631498"><ele>245.0</ele><time>2026-03-28T10:13:20Z</time></trkpt><trkpt lat="44.89336267688462" lon="7.836869068634934"><ele>245.0</ele><time>2026-03-28T10:13:21Z</time></trkpt><trkpt lat="44.893303296053794" lon="7.837060493955727"><ele>245.25</ele><time>2026-03-28T10:13:22Z</time></trkpt><trkpt lat="44.89324375219919" lon="7.837252444643594"><ele>245.5</ele><time>2026-03-28T10:13:23Z</time></trkpt><trkpt lat="44.89318827236433" lon="7.837433531892517"><ele>245.75</ele><time>2026-03-28T10:13:24Z</time></trkpt><trkpt lat="44.89313940541414" lon="7.8376158543443175"><ele>246.0</ele><time>2026-03-28T10:13:25Z</time></trkpt><trkpt lat="44.89311276378579" lon="7.837804374828629"><ele>246.0</ele><time>2026-03-28T10:13:26Z</time></trkpt><trkpt lat="44.89308432936167" lon="7.837991940031978"><ele>246.0</ele><time>2026-03-28T10:13:27Z</time></trkpt><trkpt lat="44.89304538682442" lon="7.838180749315611"><ele>246.0</ele><time>2026-03-28T10:13:28Z</time></trkpt><trkpt lat="44.89303810624823" lon="7.838383969746304"><ele>246.0</ele><time>2026-03-28T10:13:29Z</time></trkpt><trkpt lat="44.89301110264647" lon="7.838579636085047"><ele>245.75</ele><time>2026-03-28T10:13:30Z</time></trkpt><trkpt lat="44.892969071268176" lon="7.838764534379853"><ele>245.5</ele><time>2026-03-28T10:13:31Z</time></trkpt><trkpt lat="44.89294056876445" lon="7.838944845300607"><ele>245.25</ele><time>2026-03-28T10:13:32Z</time></trkpt><trkpt lat="44.892909145088424" lon="7.839117129492646"><ele>245.0</ele><time>2026-03-28T10:13:33Z</time></trkpt><trkpt lat="44.89287347386692" lon="7.839280747096929"><ele>245.4</ele><time>2026-03-28T10:13:34Z</time></trkpt><trkpt lat="44.89282974916332" lon="7.83943080255187"><ele>245.8</ele><time>2026-03-28T10:13:35Z</time></trkpt><trkpt lat="44.89277866561289" lon="7.839572778162959"><ele>246.2</ele><time>2026-03-28T10:13:36Z</time></trkpt><trkpt lat="44.89272311621221" lon="7.839705530184331"><ele>246.6</ele><time>2026-03-28T10:13:37Z</time></trkpt><trkpt lat="44.89266205032988" lon="7.839820314247106"><ele>247.0</ele><time>2026-03-28T10:13:38Z</time></trkpt><trkpt lat="44.892593318842515" lon="7.839937441739632"><ele>247.0</ele><time>2026-03-28T10:13:39Z</time></trkpt><trkpt lat="44.89251259196518" lon="7.840057160044006"><ele>247.0</ele><time>2026-03-28T10:13:40Z</time></trkpt><trkpt lat="44.892422077285964" lon="7.840183132019739"><ele>247.0</ele><time>2026-03-28T10:13:41Z</time></trkpt><trkpt lat="44.89232740427067" lon="7.8403192503257335"><ele>247.0</ele><time>2026-03-28T10:13:42Z</time></trkpt><trkpt lat="44.892231033041114" lon="7.840454448409278"><ele>246.25</ele><time>2026-03-28T10:13:43Z</time></trkpt><trkpt lat="44.89213897911622" lon="7.840575629170427"><ele>245.5</ele><time>2026-03-28T10:13:44Z</time></trkpt><trkpt lat="44.89204326960902" lon="7.8406800935676"><ele>244.75</ele><time>2026-03-28T10:13:45Z</time></trkpt><trkpt lat="44.89196367613564" lon="7.8407941609370155"><ele>244.0</ele><time>2026-03-28T10:13:46Z</time></trkpt><trkpt lat="44.891880895004526" lon="7.840899415848521"><ele>244.0</ele><time>2026-03-28T10:13:47Z</time></trkpt><trkpt lat="44.89181659701068" lon="7.841001489136986"><ele>244.0</ele><time>2026-03-28T10:13:48Z</time></trkpt><trkpt lat="44.89174186210832" lon="7.841117164533606"><ele>244.0</ele><time>2026-03-28T10:13:49Z</time></trkpt><trkpt lat="44.89164947473134" lon="7.84125548054559"><ele>244.0</ele><time>2026-03-28T10:13:50Z</time></trkpt><trkpt lat="44.891541383951385" lon="7.84141634100035"><ele>244.0</ele><time>2026-03-28T10:13:51Z</time></trkpt><trkpt lat="44.8914305255184" lon="7.841581772791517"><ele>244.0</ele><time>2026-03-28T10:13:52Z</time></trkpt><trkpt lat="44.89133252741036" lon="7.841740352284888"><ele>244.0</ele><time>2026-03-28T10:13:53Z</time></trkpt><trkpt lat="44.89123887508109" lon="7.8419012030225375"><ele>244.5</ele><time>2026-03-28T10:13:54Z</time></trkpt><trkpt lat="44.89114640085987" lon="7.842067903614012"><ele>245.0</ele><time>2026-03-28T10:13:55Z</time></trkpt><trkpt lat="44.89106020517339" lon="7.842240796816923"><ele>245.5</ele><time>2026-03-28T10:13:56Z</time></trkpt><trkpt lat="44.8909777210012" lon="7.842416185447518"><ele>246.0</ele><time>2026-03-28T10:13:57Z</time></trkpt><trkpt lat="44.8909018428803" lon="7.8425852289417355"><ele>246.5</ele><time>2026-03-28T10:13:58Z</time></trkpt><trkpt lat="44.890831559903354" lon="7.842742314245262"><ele>247.0</ele><time>2026-03-28T10:13:59Z</time></trkpt><trkpt lat="44.89076726198133" lon="7.8428900561564125"><ele>247.5</ele><time>2026-03-28T10:14:00Z</time></trkpt><trkpt lat="44.890711178881304" lon="7.843035724898931"><ele>248.0</ele><time>2026-03-28T10:14:01Z</time></trkpt><trkpt lat="44.89065195893636" lon="7.843171596200415"><ele>248.0</ele><time>2026-03-28T10:14:02Z</time></trkpt><trkpt lat="44.890606084892624" lon="7.8433109259706155"><ele>248.0</ele><time>2026-03-28T10:14:03Z</time></trkpt><trkpt lat="44.89055743603446" lon="7.843445823157771"><ele>248.0</ele><time>2026-03-28T10:14:04Z</time></trkpt><trkpt lat="44.89050949533357" lon="7.843581480466296"><ele>248.0</ele><time>2026-03-28T10:14:05Z</time></trkpt><trkpt lat="44.8904627015843" lon="7.84370647679242"><ele>248.0</ele><time>2026-03-28T10:14:06Z</time></trkpt><trkpt lat="44.890416358040824" lon="7.843821733990954"><ele>248.00000000000003</ele><time>2026-03-28T10:14:07Z</time></trkpt><trkpt lat="44.89037526046862" lon="7.843929229720007"><ele>248.0</ele><time>2026-03-28T10:14:08Z</time></trkpt><trkpt lat="44.89031912066457" lon="7.844031205078787"><ele>248.0</ele><time>2026-03-28T10:14:09Z</time></trkpt><trkpt lat="44.89028984687147" lon="7.844148311746763"><ele>248.0</ele><time>2026-03-28T10:14:10Z</time></trkpt><trkpt lat="44.89025074201167" lon="7.844247194720818"><ele>248.00000000000003</ele><time>2026-03-28T10:14:11Z</time></trkpt><trkpt lat="44.89021676656961" lon="7.844347073183798"><ele>248.0</ele><time>2026-03-28T10:14:12Z</time></trkpt><trkpt lat="44.89018779339129" lon="7.844450622752304"><ele>248.16666666666669</ele><time>2026-03-28T10:14:13Z</time></trkpt><trkpt lat="44.890169630502804" lon="7.844554874376496"><ele>248.33333333333334</ele><time>2026-03-28T10:14:14Z</time></trkpt><trkpt lat="44.8901576462114" lon="7.844653205745287"><ele>248.5</ele><time>2026-03-28T10:14:15Z</time></trkpt><trkpt lat="44.89013666376985" lon="7.844796490504744"><ele>248.66666666666669</ele><time>2026-03-28T10:14:17Z</time></trkpt><trkpt lat="44.89012385207954" lon="7.844913586494801"><ele>248.83333333333334</ele><time>2026-03-28T10:14:19Z</time></trkpt><trkpt lat="44.89015786801038" lon="7.845042881307145"><ele>249.0</ele><time>2026-03-28T10:14:21Z</time></trkpt><trkpt lat="44.890244040057105" lon="7.845155459695943"><ele>248.7142857142857</ele><time>2026-03-28T10:14:23Z</time></trkpt><trkpt lat="44.89029939004455" lon="7.845202022564541"><ele>248.4285714285714</ele><time>2026-03-28T10:14:24Z</time></trkpt><trkpt lat="44.890359802608586" lon="7.845252886831786"><ele>248.14285714285714</ele><time>2026-03-28T10:14:25Z</time></trkpt><trkpt lat="44.89042125083653" lon="7.845305994527194"><ele>247.85714285714283</ele><time>2026-03-28T10:14:26Z</time></trkpt><trkpt lat="44.8904848209217" lon="7.845361863469808"><ele>247.57142857142856</ele><time>2026-03-28T10:14:27Z</time></trkpt><trkpt lat="44.89054620224091" lon="7.845420632274368"><ele>247.28571428571428</ele><time>2026-03-28T10:14:28Z</time></trkpt><trkpt lat="44.89061027900786" lon="7.845476480706879"><ele>247.0</ele><time>2026-03-28T10:14:29Z</time></trkpt><trkpt lat="44.89068206835918" lon="7.8455327020632755"><ele>246.99999999999997</ele><time>2026-03-28T10:14:30Z</time></trkpt><trkpt lat="44.89074980197553" lon="7.845594056083252"><ele>247.0</ele><time>2026-03-28T10:14:31Z</time></trkpt><trkpt lat="44.89081777009132" lon="7.8456491719291135"><ele>247.0</ele><time>2026-03-28T10:14:32Z</time></trkpt><trkpt lat="44.890878310027986" lon="7.845702407466956"><ele>247.0</ele><time>2026-03-28T10:14:33Z</time></trkpt><trkpt lat="44.890933849924316" lon="7.8457690468216965"><ele>246.99999999999997</ele><time>2026-03-28T10:14:34Z</time></trkpt><trkpt lat="44.89097918868621" lon="7.845846807063314"><ele>247.0</ele><time>2026-03-28T10:14:35Z</time></trkpt><trkpt lat="44.89097583646201" lon="7.845958604746037"><ele>247.49999999999997</ele><time>2026-03-28T10:14:36Z</time></trkpt><trkpt lat="44.89100150424553" lon="7.846063349021196"><ele>248.0</ele><time>2026-03-28T10:14:37Z</time></trkpt><trkpt lat="44.8910013941956" lon="7.846174480906257"><ele>248.5</ele><time>2026-03-28T10:14:38Z</time></trkpt><trkpt lat="44.89100900188174" lon="7.846285530743556"><ele>249.0</ele><time>2026-03-28T10:14:39Z</time></trkpt><trkpt lat="44.89102117697572" lon="7.846400765048414"><ele>249.49999999999997</ele><time>2026-03-28T10:14:40Z</time></trkpt><trkpt lat="44.891028197130886" lon="7.846527383714054"><ele>250.0</ele><time>2026-03-28T10:14:41Z</time></trkpt><trkpt lat="44.891035416409636" lon="7.84665795563518"><ele>249.99999999999997</ele><time>2026-03-28T10:14:42Z</time></trkpt><trkpt lat="44.8910404714675" lon="7.846793924592472"><ele>250.0</ele><time>2026-03-28T10:14:43Z</time></trkpt><trkpt lat="44.891042033371605" lon="7.84691663115113"><ele>250.0</ele><time>2026-03-28T10:14:44Z</time></trkpt><trkpt lat="44.891040129369884" lon="7.847025080179526"><ele>250.0</ele><time>2026-03-28T10:14:45Z</time></trkpt><trkpt lat="44.89103066872242" lon="7.84713733475992"><ele>249.99999999999997</ele><time>2026-03-28T10:14:46Z</time></trkpt><trkpt lat="44.8910266846476" lon="7.847243114855475"><ele>250.0</ele><time>2026-03-28T10:14:47Z</time></trkpt><trkpt lat="44.8910081546476" lon="7.847352595146841"><ele>249.99999999999997</ele><time>2026-03-28T10:14:48Z</time></trkpt><trkpt lat="44.890995060598215" lon="7.847457226619597"><ele>250.0</ele><time>2026-03-28T10:14:49Z</time></trkpt><trkpt lat="44.890968461797776" lon="7.847620371026279"><ele>250.0</ele><time>2026-03-28T10:14:51Z</time></trkpt><trkpt lat="44.89092894649391" lon="7.8477283045736455"><ele>250.0</ele><time>2026-03-28T10:14:53Z</time></trkpt><trkpt lat="44.890892211980365" lon="7.847804363863234"><ele>249.99999999999997</ele><time>2026-03-28T10:14:55Z</time></trkpt><trkpt lat="44.89084642453779" lon="7.8478918332327785"><ele>250.0</ele><time>2026-03-28T10:14:57Z</time></trkpt><trkpt lat="44.89074165000232" lon="7.848076739949898"><ele>250.0</ele><time>2026-03-28T10:14:59Z</time></trkpt><trkpt lat="44.89065994674435" lon="7.84818973417602"><ele>250.0</ele><time>2026-03-28T10:15:00Z</time></trkpt><trkpt lat="44.890572309935564" lon="7.848323506540291"><ele>250.0</ele><time>2026-03-28T10:15:01Z</time></trkpt><trkpt lat="44.890497561319734" lon="7.848472175922411"><ele>250.0</ele><time>2026-03-28T10:15:02Z</time></trkpt><trkpt lat="44.89041740107658" lon="7.848640764570829"><ele>250.0</ele><time>2026-03-28T10:15:03Z</time></trkpt><trkpt lat="44.890322944888304" lon="7.848825936249426"><ele>250.0</ele><time>2026-03-28T10:15:04Z</time></trkpt><trkpt lat="44.89022332269852" lon="7.849017481989107"><ele>250.0</ele><time>2026-03-28T10:15:05Z</time></trkpt><trkpt lat="44.890130776566004" lon="7.84918390632018"><ele>249.33333333333331</ele><time>2026-03-28T10:15:06Z</time></trkpt><trkpt lat="44.8900254021567" lon="7.849335673909958"><ele>248.66666666666669</ele><time>2026-03-28T10:15:07Z</time></trkpt><trkpt lat="44.88990276892767" lon="7.849469512346274"><ele>248.0</ele><time>2026-03-28T10:15:08Z</time></trkpt><trkpt lat="44.88977484133172" lon="7.84960697217461"><ele>248.0</ele><time>2026-03-28T10:15:09Z</time></trkpt><trkpt lat="44.88964395192909" lon="7.849756213758138"><ele>248.0</ele><time>2026-03-28T10:15:10Z</time></trkpt><trkpt lat="44.88950801989532" lon="7.849901376667193"><ele>248.0</ele><time>2026-03-28T10:15:11Z</time></trkpt><trkpt lat="44.889379932917656" lon="7.85004274496"><ele>248.66666666666669</ele><time>2026-03-28T10:15:12Z</time></trkpt><trkpt lat="44.889257064601125" lon="7.850184775477861"><ele>249.33333333333331</ele><time>2026-03-28T10:15:13Z</time></trkpt><trkpt lat="44.88913149609982" lon="7.850323802286366"><ele>250.0</ele><time>2026-03-28T10:15:14Z</time></trkpt><trkpt lat="44.88900967320587" lon="7.850456626457572"><ele>250.0</ele><time>2026-03-28T10:15:15Z</time></trkpt><trkpt lat="44.88889174065268" lon="7.850582679703144"><ele>250.0</ele><time>2026-03-28T10:15:16Z</time></trkpt><trkpt lat="44.88877620091082" lon="7.850693356482812"><ele>250.0</ele><time>2026-03-28T10:15:17Z</time></trkpt><trkpt lat="44.88865949841191" lon="7.850778301834942"><ele>250.0</ele><time>2026-03-28T10:15:18Z</time></trkpt><trkpt lat="44.888533339896554" lon="7.850813828295125"><ele>250.0</ele><time>2026-03-28T10:15:19Z</time></trkpt><trkpt lat="44.88841760420867" lon="7.850883808034718"><ele>250.0</ele><time>2026-03-28T10:15:20Z</time></trkpt><trkpt lat="44.88829027913419" lon="7.850927254467287"><ele>250.0</ele><time>2026-03-28T10:15:21Z</time></trkpt><trkpt lat="44.88816053641678" lon="7.850978889525253"><ele>250.0</ele><time>2026-03-28T10:15:22Z</time></trkpt><trkpt lat="44.88802204460572" lon="7.851032430955347"><ele>250.0</ele><time>2026-03-28T10:15:23Z</time></trkpt><trkpt lat="44.887870114803505" lon="7.851090620626057"><ele>250.0</ele><time>2026-03-28T10:15:24Z</time></trkpt><trkpt lat="44.88772655574002" lon="7.851145245993984"><ele>250.0</ele><time>2026-03-28T10:15:25Z</time></trkpt><trkpt lat="44.88758585024633" lon="7.851198445152134"><ele>249.5</ele><time>2026-03-28T10:15:26Z</time></trkpt><trkpt lat="44.88743793231671" lon="7.851224354027614"><ele>249.0</ele><time>2026-03-28T10:15:27Z</time></trkpt><trkpt lat="44.88729602489843" lon="7.85126097305494"><ele>248.5</ele><time>2026-03-28T10:15:28Z</time></trkpt><trkpt lat="44.88715585330743" lon="7.851287794373297"><ele>248.0</ele><time>2026-03-28T10:15:29Z</time></trkpt><trkpt lat="44.88701398348513" lon="7.851312447406764"><ele>248.0</ele><time>2026-03-28T10:15:30Z</time></trkpt><trkpt lat="44.88686667930475" lon="7.851360575493625"><ele>248.0</ele><time>2026-03-28T10:15:31Z</time></trkpt><trkpt lat="44.886710735837546" lon="7.851388259705445"><ele>248.0</ele><time>2026-03-28T10:15:32Z</time></trkpt><trkpt lat="44.886550785263466" lon="7.851414905003654"><ele>248.33333333333334</ele><time>2026-03-28T10:15:33Z</time></trkpt><trkpt lat="44.886384857877204" lon="7.851440909781856"><ele>248.66666666666669</ele><time>2026-03-28T10:15:34Z</time></trkpt><trkpt lat="44.886222307382724" lon="7.85146959349441"><ele>249.0</ele><time>2026-03-28T10:15:35Z</time></trkpt><trkpt lat="44.88606043529982" lon="7.8514954013406735"><ele>249.0</ele><time>2026-03-28T10:15:36Z</time></trkpt><trkpt lat="44.885890664114" lon="7.8514912055713895"><ele>249.0</ele><time>2026-03-28T10:15:37Z</time></trkpt><trkpt lat="44.885719043542856" lon="7.8515086638581115"><ele>249.0</ele><time>2026-03-28T10:15:38Z</time></trkpt><trkpt lat="44.885548874861506" lon="7.851542365540134"><ele>249.0</ele><time>2026-03-28T10:15:39Z</time></trkpt><trkpt lat="44.8853778638477" lon="7.851555347020699"><ele>249.0</ele><time>2026-03-28T10:15:40Z</time></trkpt><trkpt lat="44.885203165093806" lon="7.851566680246838"><ele>249.0</ele><time>2026-03-28T10:15:41Z</time></trkpt><trkpt lat="44.88502649106303" lon="7.85157894930108"><ele>249.66666666666669</ele><time>2026-03-28T10:15:42Z</time></trkpt><trkpt lat="44.884841846684495" lon="7.8515934981354985"><ele>250.33333333333334</ele><time>2026-03-28T10:15:43Z</time></trkpt><trkpt lat="44.88465071020321" lon="7.8516101294146265"><ele>251.0</ele><time>2026-03-28T10:15:44Z</time></trkpt><trkpt lat="44.88445727147076" lon="7.851601309828838"><ele>252.0</ele><time>2026-03-28T10:15:45Z</time></trkpt><trkpt lat="44.88425905774501" lon="7.85161511239097"><ele>253.0</ele><time>2026-03-28T10:15:46Z</time></trkpt><trkpt lat="44.88406836997907" lon="7.851628287476462"><ele>254.0</ele><time>2026-03-28T10:15:47Z</time></trkpt><trkpt lat="44.883879812815245" lon="7.851637700612305"><ele>254.0</ele><time>2026-03-28T10:15:48Z</time></trkpt><trkpt lat="44.88369202681097" lon="7.851648736656461"><ele>254.0</ele><time>2026-03-28T10:15:49Z</time></trkpt><trkpt lat="44.88349715701517" lon="7.851667950959918"><ele>254.0</ele><time>2026-03-28T10:15:50Z</time></trkpt><trkpt lat="44.88338467282849" lon="7.851703266932005"><ele>255.0</ele><time>2026-03-28T10:15:51Z</time></trkpt><trkpt lat="44.8832293599787" lon="7.851729042063999"><ele>256.0</ele><time>2026-03-28T10:15:52Z</time></trkpt><trkpt lat="44.883076558589735" lon="7.851781263572974"><ele>257.0</ele><time>2026-03-28T10:15:53Z</time></trkpt><trkpt lat="44.88292091185907" lon="7.851857173409217"><ele>257.6666666666667</ele><time>2026-03-28T10:15:54Z</time></trkpt><trkpt lat="44.88275762906557" lon="7.851939090910818"><ele>258.3333333333333</ele><time>2026-03-28T10:15:55Z</time></trkpt><trkpt lat="44.882590664879295" lon="7.852027643779938"><ele>259.0</ele><time>2026-03-28T10:15:56Z</time></trkpt><trkpt lat="44.88241811679559" lon="7.852121318980395"><ele>259.0</ele><time>2026-03-28T10:15:57Z</time></trkpt><trkpt lat="44.882243566303664" lon="7.852218332914256"><ele>259.0</ele><time>2026-03-28T10:15:58Z</time></trkpt><trkpt lat="44.88206911652486" lon="7.852318287612837"><ele>259.0</ele><time>2026-03-28T10:15:59Z</time></trkpt><trkpt lat="44.881889542605066" lon="7.852393512971361"><ele>258.3333333333333</ele><time>2026-03-28T10:16:00Z</time></trkpt><trkpt lat="44.88171969159076" lon="7.852487690636196"><ele>257.6666666666667</ele><time>2026-03-28T10:16:01Z</time></trkpt><trkpt lat="44.881552536760516" lon="7.852588524575278"><ele>257.0</ele><time>2026-03-28T10:16:02Z</time></trkpt><trkpt lat="44.88139120195883" lon="7.852690715798367"><ele>256.6666666666667</ele><time>2026-03-28T10:16:03Z</time></trkpt><trkpt lat="44.88125004503179" lon="7.852822671020233"><ele>256.3333333333333</ele><time>2026-03-28T10:16:04Z</time></trkpt><trkpt lat="44.88110416719749" lon="7.85294771576509"><ele>256.0</ele><time>2026-03-28T10:16:05Z</time></trkpt><trkpt lat="44.88095918264334" lon="7.853081000571348"><ele>256.3333333333333</ele><time>2026-03-28T10:16:06Z</time></trkpt><trkpt lat="44.88081664694796" lon="7.853213159196059"><ele>256.6666666666667</ele><time>2026-03-28T10:16:07Z</time></trkpt><trkpt lat="44.88067528156167" lon="7.853352325126721"><ele>257.0</ele><time>2026-03-28T10:16:08Z</time></trkpt><trkpt lat="44.88053292660096" lon="7.853489204753837"><ele>256.33333333333337</ele><time>2026-03-28T10:16:09Z</time></trkpt><trkpt lat="44.88039470604431" lon="7.85362284340355"><ele>255.66666666666669</ele><time>2026-03-28T10:16:10Z</time></trkpt><trkpt lat="44.880256701877585" lon="7.853754356670164"><ele>255.0</ele><time>2026-03-28T10:16:11Z</time></trkpt><trkpt lat="44.88012934845672" lon="7.853876885896145"><ele>255.75</ele><time>2026-03-28T10:16:12Z</time></trkpt><trkpt lat="44.8800238009208" lon="7.8539754949790055"><ele>256.5</ele><time>2026-03-28T10:16:13Z</time></trkpt><trkpt lat="44.87992504990424" lon="7.854086265780592"><ele>257.25</ele><time>2026-03-28T10:16:14Z</time></trkpt><trkpt lat="44.87983698414146" lon="7.8541971382705675"><ele>258.0</ele><time>2026-03-28T10:16:15Z</time></trkpt><trkpt lat="44.87975917551727" lon="7.854291893707104"><ele>258.0</ele><time>2026-03-28T10:16:16Z</time></trkpt><trkpt lat="44.87969790928605" lon="7.854370321034381"><ele>258.0</ele><time>2026-03-28T10:16:17Z</time></trkpt><trkpt lat="44.879648578998015" lon="7.854436920703235"><ele>258.0</ele><time>2026-03-28T10:16:18Z</time></trkpt><trkpt lat="44.87967400421791" lon="7.854721330099284"><ele>258.0</ele><time>2026-03-28T10:16:20Z</time></trkpt><trkpt lat="44.879694393706764" lon="7.854880693124964"><ele>258.0</ele><time>2026-03-28T10:16:21Z</time></trkpt><trkpt lat="44.87970993903932" lon="7.855059112679129"><ele>258.0</ele><time>2026-03-28T10:16:22Z</time></trkpt><trkpt lat="44.87971884304256" lon="7.855247148629007"><ele>258.0</ele><time>2026-03-28T10:16:23Z</time></trkpt><trkpt lat="44.87973006179173" lon="7.855437271201514"><ele>258.0</ele><time>2026-03-28T10:16:24Z</time></trkpt><trkpt lat="44.87974140722485" lon="7.855626598420845"><ele>258.2</ele><time>2026-03-28T10:16:25Z</time></trkpt><trkpt lat="44.879754412349854" lon="7.855807551704283"><ele>258.4</ele><time>2026-03-28T10:16:26Z</time></trkpt><trkpt lat="44.87976774587527" lon="7.8559670459699085"><ele>258.59999999999997</ele><time>2026-03-28T10:16:27Z</time></trkpt><trkpt lat="44.87977919971151" lon="7.856107046369148"><ele>258.8</ele><time>2026-03-28T10:16:28Z</time></trkpt><trkpt lat="44.8797706009829" lon="7.856233790051342"><ele>259.0</ele><time>2026-03-28T10:16:29Z</time></trkpt><trkpt lat="44.87973671457703" lon="7.856352276127866"><ele>259.0</ele><time>2026-03-28T10:16:30Z</time></trkpt><trkpt lat="44.87968791435891" lon="7.856474276205217"><ele>259.0</ele><time>2026-03-28T10:16:31Z</time></trkpt><trkpt lat="44.879641718676" lon="7.856602988572462"><ele>259.0</ele><time>2026-03-28T10:16:32Z</time></trkpt><trkpt lat="44.879601981208864" lon="7.856730909963712"><ele>259.0</ele><time>2026-03-28T10:16:33Z</time></trkpt><trkpt lat="44.87954211529933" lon="7.85684841604004"><ele>259.0</ele><time>2026-03-28T10:16:34Z</time></trkpt><trkpt lat="44.87951791536132" lon="7.856997494564878"><ele>259.0</ele><time>2026-03-28T10:16:35Z</time></trkpt><trkpt lat="44.879483789070534" lon="7.857129928517394"><ele>259.0</ele><time>2026-03-28T10:16:36Z</time></trkpt><trkpt lat="44.87946404048046" lon="7.857277168510212"><ele>259.0</ele><time>2026-03-28T10:16:37Z</time></trkpt><trkpt lat="44.8794424365171" lon="7.857443070809902"><ele>259.0</ele><time>2026-03-28T10:16:38Z</time></trkpt><trkpt lat="44.87941485704783" lon="7.857616216414314"><ele>257.75</ele><time>2026-03-28T10:16:39Z</time></trkpt><trkpt lat="44.879371856607236" lon="7.857781821957667"><ele>256.5</ele><time>2026-03-28T10:16:40Z</time></trkpt><trkpt lat="44.87934578391314" lon="7.857957536493257"><ele>255.25</ele><time>2026-03-28T10:16:41Z</time></trkpt><trkpt lat="44.87930056377243" lon="7.858138940990037"><ele>254.0</ele><time>2026-03-28T10:16:42Z</time></trkpt><trkpt lat="44.879275734774474" lon="7.858329378489267"><ele>254.25</ele><time>2026-03-28T10:16:43Z</time></trkpt><trkpt lat="44.87925099756357" lon="7.858514844915482"><ele>254.5</ele><time>2026-03-28T10:16:44Z</time></trkpt><trkpt lat="44.879234093495995" lon="7.858706512350678"><ele>254.75</ele><time>2026-03-28T10:16:45Z</time></trkpt><trkpt lat="44.87918868502429" lon="7.858880510967654"><ele>255.0</ele><time>2026-03-28T10:16:46Z</time></trkpt><trkpt lat="44.87916467562904" lon="7.85906117550253"><ele>255.0</ele><time>2026-03-28T10:16:47Z</time></trkpt><trkpt lat="44.87913155993632" lon="7.859232130769139"><ele>255.0</ele><time>2026-03-28T10:16:48Z</time></trkpt><trkpt lat="44.87909698694136" lon="7.859397641180178"><ele>255.0</ele><time>2026-03-28T10:16:49Z</time></trkpt><trkpt lat="44.87906385605899" lon="7.859553488769183"><ele>255.0</ele><time>2026-03-28T10:16:50Z</time></trkpt><trkpt lat="44.879023138469975" lon="7.859690541990274"><ele>254.8</ele><time>2026-03-28T10:16:51Z</time></trkpt><trkpt lat="44.8790164657902" lon="7.859812053567475"><ele>254.6</ele><time>2026-03-28T10:16:52Z</time></trkpt><trkpt lat="44.87901195342696" lon="7.859931382490125"><ele>254.39999999999998</ele><time>2026-03-28T10:16:53Z</time></trkpt><trkpt lat="44.87905433699088" lon="7.860054061793473"><ele>254.2</ele><time>2026-03-28T10:16:54Z</time></trkpt><trkpt lat="44.87909458373129" lon="7.860183934922842"><ele>254.0</ele><time>2026-03-28T10:16:55Z</time></trkpt><trkpt lat="44.87913769425444" lon="7.8603062271915745"><ele>254.00000000000003</ele><time>2026-03-28T10:16:56Z</time></trkpt><trkpt lat="44.879170712091" lon="7.860423218083644"><ele>254.0</ele><time>2026-03-28T10:16:57Z</time></trkpt><trkpt lat="44.87919664423951" lon="7.860542579039854"><ele>254.0</ele><time>2026-03-28T10:16:58Z</time></trkpt><trkpt lat="44.87921086815776" lon="7.860665165463056"><ele>254.0</ele><time>2026-03-28T10:16:59Z</time></trkpt><trkpt lat="44.879185136924285" lon="7.860785614044149"><ele>254.00000000000003</ele><time>2026-03-28T10:17:00Z</time></trkpt><trkpt lat="44.87917413333533" lon="7.860898934659385"><ele>254.0</ele><time>2026-03-28T10:17:01Z</time></trkpt><trkpt lat="44.879122583337754" lon="7.861002625048961"><ele>253.75</ele><time>2026-03-28T10:17:02Z</time></trkpt><trkpt lat="44.879071790302795" lon="7.861135675785251"><ele>253.5</ele><time>2026-03-28T10:17:03Z</time></trkpt><trkpt lat="44.87902649397926" lon="7.861297955290915"><ele>253.25</ele><time>2026-03-28T10:17:04Z</time></trkpt><trkpt lat="44.878951967692814" lon="7.86144598383663"><ele>253.0</ele><time>2026-03-28T10:17:05Z</time></trkpt><trkpt lat="44.878895484814926" lon="7.861607893527646"><ele>253.0</ele><time>2026-03-28T10:17:06Z</time></trkpt><trkpt lat="44.87885013034493" lon="7.861770541789996"><ele>253.0</ele><time>2026-03-28T10:17:07Z</time></trkpt><trkpt lat="44.87880561943647" lon="7.861918591674872"><ele>253.0</ele><time>2026-03-28T10:17:08Z</time></trkpt><trkpt lat="44.87876321961457" lon="7.862047429970385"><ele>253.0</ele><time>2026-03-28T10:17:09Z</time></trkpt><trkpt lat="44.878693816784036" lon="7.862154535232129"><ele>253.0</ele><time>2026-03-28T10:17:10Z</time></trkpt><trkpt lat="44.87863236960335" lon="7.862248965496876"><ele>252.99999999999997</ele><time>2026-03-28T10:17:11Z</time></trkpt><trkpt lat="44.87857621915318" lon="7.862303252968882"><ele>253.0</ele><time>2026-03-28T10:17:12Z</time></trkpt><trkpt lat="44.87850121839758" lon="7.862338214662956"><ele>253.0</ele><time>2026-03-28T10:17:31Z</time></trkpt><trkpt lat="44.87844645414834" lon="7.8624078409301505"><ele>253.0</ele><time>2026-03-28T10:17:33Z</time></trkpt><trkpt lat="44.87836574526197" lon="7.862474388645277"><ele>252.99999999999997</ele><time>2026-03-28T10:17:35Z</time></trkpt><trkpt lat="44.878287686031655" lon="7.86253875155951"><ele>253.0</ele><time>2026-03-28T10:17:37Z</time></trkpt><trkpt lat="44.87819790316006" lon="7.8624792877299186"><ele>252.75</ele><time>2026-03-28T10:17:39Z</time></trkpt><trkpt lat="44.878218259142024" lon="7.862801388117903"><ele>252.5</ele><time>2026-03-28T10:17:40Z</time></trkpt><trkpt lat="44.87816388312424" lon="7.862866630453996"><ele>252.25</ele><time>2026-03-28T10:17:41Z</time></trkpt><trkpt lat="44.878106174539795" lon="7.862942358082837"><ele>252.0</ele><time>2026-03-28T10:17:42Z</time></trkpt><trkpt lat="44.87804972922807" lon="7.863011114164455"><ele>252.0</ele><time>2026-03-28T10:17:43Z</time></trkpt><trkpt lat="44.877998326797155" lon="7.863075026123644"><ele>252.0</ele><time>2026-03-28T10:17:44Z</time></trkpt><trkpt lat="44.877915476834936" lon="7.863175370666681"><ele>252.0</ele><time>2026-03-28T10:17:46Z</time></trkpt><trkpt lat="44.87785880084087" lon="7.863247351370992"><ele>252.0</ele><time>2026-03-28T10:17:48Z</time></trkpt><trkpt lat="44.87777187238866" lon="7.863359766558735"><ele>252.0</ele><time>2026-03-28T10:17:50Z</time></trkpt><trkpt lat="44.877698504365" lon="7.863465896046095"><ele>252.0</ele><time>2026-03-28T10:17:52Z</time></trkpt><trkpt lat="44.87765913097316" lon="7.8635809755752755"><ele>252.0</ele><time>2026-03-28T10:17:54Z</time></trkpt><trkpt lat="44.87770140086322" lon="7.863721389519567"><ele>252.0</ele><time>2026-03-28T10:17:56Z</time></trkpt><trkpt lat="44.877749945002755" lon="7.8637894328292255"><ele>252.0</ele><time>2026-03-28T10:17:57Z</time></trkpt><trkpt lat="44.87780471613513" lon="7.863854551250288"><ele>252.0</ele><time>2026-03-28T10:17:58Z</time></trkpt><trkpt lat="44.877860901787905" lon="7.86391327208096"><ele>252.0</ele><time>2026-03-28T10:17:59Z</time></trkpt><trkpt lat="44.87791784589459" lon="7.863967714422024"><ele>252.0</ele><time>2026-03-28T10:18:00Z</time></trkpt><trkpt lat="44.877967297043845" lon="7.864024255827565"><ele>252.0</ele><time>2026-03-28T10:18:01Z</time></trkpt><trkpt lat="44.878026884216176" lon="7.864090890721771"><ele>252.0</ele><time>2026-03-28T10:18:02Z</time></trkpt><trkpt lat="44.87809458873111" lon="7.8641605115317486"><ele>252.0</ele><time>2026-03-28T10:18:03Z</time></trkpt><trkpt lat="44.87816064941304" lon="7.86424045144935"><ele>252.0</ele><time>2026-03-28T10:18:04Z</time></trkpt><trkpt lat="44.87822141225996" lon="7.864304437819461"><ele>252.0</ele><time>2026-03-28T10:18:05Z</time></trkpt><trkpt lat="44.878282465882286" lon="7.864371645150604"><ele>252.0</ele><time>2026-03-28T10:18:06Z</time></trkpt><trkpt lat="44.878346066925005" lon="7.86443759519472"><ele>252.0</ele><time>2026-03-28T10:18:07Z</time></trkpt><trkpt lat="44.87840370044176" lon="7.864496542391224"><ele>252.0</ele><time>2026-03-28T10:18:08Z</time></trkpt><trkpt lat="44.87846918591349" lon="7.8645538097101895"><ele>252.0</ele><time>2026-03-28T10:18:09Z</time></trkpt><trkpt lat="44.87853720102188" lon="7.864601676924309"><ele>252.0</ele><time>2026-03-28T10:18:10Z</time></trkpt><trkpt lat="44.87860711775167" lon="7.864640508288798"><ele>252.0</ele><time>2026-03-28T10:18:11Z</time></trkpt><trkpt lat="44.87868125751277" lon="7.864681505794774"><ele>251.83333333333334</ele><time>2026-03-28T10:18:12Z</time></trkpt><trkpt lat="44.87875260875163" lon="7.864721217093063"><ele>251.66666666666669</ele><time>2026-03-28T10:18:13Z</time></trkpt><trkpt lat="44.878810937521045" lon="7.864757027394418"><ele>251.5</ele><time>2026-03-28T10:18:14Z</time></trkpt><trkpt lat="44.87890160681819" lon="7.8648335010379125"><ele>251.33333333333334</ele><time>2026-03-28T10:18:16Z</time></trkpt><trkpt lat="44.878993163466475" lon="7.864950906202255"><ele>251.16666666666669</ele><time>2026-03-28T10:18:18Z</time></trkpt><trkpt lat="44.87904413904061" lon="7.8650072361704"><ele>251.0</ele><time>2026-03-28T10:18:19Z</time></trkpt><trkpt lat="44.879128137230886" lon="7.865087239533542"><ele>251.00000000000003</ele><time>2026-03-28T10:18:21Z</time></trkpt><trkpt lat="44.87921561917131" lon="7.865168727174086"><ele>251.0</ele><time>2026-03-28T10:18:23Z</time></trkpt><trkpt lat="44.87928849447558" lon="7.865258274364398"><ele>251.0</ele><time>2026-03-28T10:18:25Z</time></trkpt><trkpt lat="44.87936772509888" lon="7.865350576456484"><ele>251.0</ele><time>2026-03-28T10:18:27Z</time></trkpt><trkpt lat="44.87942172652675" lon="7.865409596627566"><ele>251.00000000000003</ele><time>2026-03-28T10:18:29Z</time></trkpt><trkpt lat="44.87947433044494" lon="7.865473366706355"><ele>251.0</ele><time>2026-03-28T10:18:32Z</time></trkpt><trkpt lat="44.879550873141284" lon="7.865517107633898"><ele>251.20000000000002</ele><time>2026-03-28T10:18:34Z</time></trkpt><trkpt lat="44.879630206661574" lon="7.865598425704195"><ele>251.40000000000003</ele><time>2026-03-28T10:18:36Z</time></trkpt><trkpt lat="44.879730245994175" lon="7.865678292340315"><ele>251.6</ele><time>2026-03-28T10:18:38Z</time></trkpt><trkpt lat="44.879794264884524" lon="7.865699694788087"><ele>251.8</ele><time>2026-03-28T10:18:39Z</time></trkpt><trkpt lat="44.87991651487568" lon="7.865647769810679"><ele>252.0</ele><time>2026-03-28T10:18:41Z</time></trkpt><trkpt lat="44.87999535832104" lon="7.865598441022003"><ele>252.0</ele><time>2026-03-28T10:18:42Z</time></trkpt><trkpt lat="44.880073261666396" lon="7.865563406754266"><ele>252.0</ele><time>2026-03-28T10:18:43Z</time></trkpt><trkpt lat="44.88015479311306" lon="7.865548240301698"><ele>252.0</ele><time>2026-03-28T10:18:44Z</time></trkpt><trkpt lat="44.8802375474193" lon="7.865544130775731"><ele>252.0</ele><time>2026-03-28T10:18:45Z</time></trkpt><trkpt lat="44.88031456712672" lon="7.865548326888581"><ele>252.0</ele><time>2026-03-28T10:18:46Z</time></trkpt><trkpt lat="44.88037951446573" lon="7.8655483194221585"><ele>252.0</ele><time>2026-03-28T10:18:47Z</time></trkpt><trkpt lat="44.88048247858585" lon="7.865541305980408"><ele>252.0</ele><time>2026-03-28T10:18:49Z</time></trkpt><trkpt lat="44.88057754879636" lon="7.865515354104315"><ele>252.0</ele><time>2026-03-28T10:18:51Z</time></trkpt><trkpt lat="44.880656033899214" lon="7.8655859513890265"><ele>252.0</ele><time>2026-03-28T10:18:54Z</time></trkpt><trkpt lat="44.880646493441425" lon="7.865682001131339"><ele>252.0</ele><time>2026-03-28T10:18:56Z</time></trkpt><trkpt lat="44.88059780345864" lon="7.865808047629278"><ele>252.0</ele><time>2026-03-28T10:18:58Z</time></trkpt><trkpt lat="44.88057071856084" lon="7.865894171148231"><ele>252.0</ele><time>2026-03-28T10:18:59Z</time></trkpt><trkpt lat="44.88054359071182" lon="7.865977554269082"><ele>252.2</ele><time>2026-03-28T10:19:00Z</time></trkpt><trkpt lat="44.88049038912188" lon="7.866120125121808"><ele>252.39999999999998</ele><time>2026-03-28T10:19:02Z</time></trkpt><trkpt lat="44.88046107234917" lon="7.866230024091575"><ele>252.60000000000002</ele><time>2026-03-28T10:19:04Z</time></trkpt><trkpt lat="44.880427943776155" lon="7.866324505045107"><ele>252.8</ele><time>2026-03-28T10:19:06Z</time></trkpt><trkpt lat="44.88036676562418" lon="7.866478965908658"><ele>253.0</ele><time>2026-03-28T10:19:08Z</time></trkpt><trkpt lat="44.88031890988216" lon="7.8666430247757555"><ele>253.0</ele><time>2026-03-28T10:19:10Z</time></trkpt><trkpt lat="44.88029364471974" lon="7.866732363919273"><ele>253.0</ele><time>2026-03-28T10:19:11Z</time></trkpt><trkpt lat="44.8802516671268" lon="7.866894275189572"><ele>253.0</ele><time>2026-03-28T10:19:13Z</time></trkpt><trkpt lat="44.88025636120897" lon="7.867051430181093"><ele>253.0</ele><time>2026-03-28T10:19:15Z</time></trkpt><trkpt lat="44.8803055313136" lon="7.8671813828044135"><ele>253.0</ele><time>2026-03-28T10:19:17Z</time></trkpt><trkpt lat="44.88038125540737" lon="7.8672882900969014"><ele>253.2</ele><time>2026-03-28T10:19:19Z</time></trkpt><trkpt lat="44.880465623118916" lon="7.867354380510243"><ele>253.4</ele><time>2026-03-28T10:19:21Z</time></trkpt><trkpt lat="44.8805197584718" lon="7.867403323577318"><ele>253.59999999999997</ele><time>2026-03-28T10:19:22Z</time></trkpt><trkpt lat="44.88059152904876" lon="7.867463733170341"><ele>253.79999999999998</ele><time>2026-03-28T10:19:24Z</time></trkpt><trkpt lat="44.88065201815099" lon="7.867517825695722"><ele>254.0</ele><time>2026-03-28T10:19:26Z</time></trkpt><trkpt lat="44.880765930150076" lon="7.867621892495798"><ele>254.0</ele><time>2026-03-28T10:19:28Z</time></trkpt><trkpt lat="44.88082645306836" lon="7.86767316654694"><ele>253.99999999999997</ele><time>2026-03-28T10:19:29Z</time></trkpt><trkpt lat="44.880925603919536" lon="7.8677630862904575"><ele>253.99999999999997</ele><time>2026-03-28T10:19:31Z</time></trkpt><trkpt lat="44.88098184320573" lon="7.867810723262557"><ele>254.0</ele><time>2026-03-28T10:19:32Z</time></trkpt><trkpt lat="44.88108536106691" lon="7.867901596435423"><ele>254.0</ele><time>2026-03-28T10:19:34Z</time></trkpt><trkpt lat="44.88118312939234" lon="7.867989067167985"><ele>254.00000000000003</ele><time>2026-03-28T10:19:36Z</time></trkpt><trkpt lat="44.88123910117695" lon="7.868032787131528"><ele>254.0</ele><time>2026-03-28T10:19:37Z</time></trkpt><trkpt lat="44.88129542001767" lon="7.868081434467821"><ele>254.0</ele><time>2026-03-28T10:19:38Z</time></trkpt><trkpt lat="44.88135245101612" lon="7.868127037172065"><ele>254.0</ele><time>2026-03-28T10:19:39Z</time></trkpt><trkpt lat="44.881462947543625" lon="7.868217729864979"><ele>254.00000000000003</ele><time>2026-03-28T10:19:41Z</time></trkpt><trkpt lat="44.881526146654245" lon="7.868269503402054"><ele>254.0</ele><time>2026-03-28T10:19:42Z</time></trkpt><trkpt lat="44.88159317409055" lon="7.868329289503329"><ele>254.00000000000003</ele><time>2026-03-28T10:19:43Z</time></trkpt><trkpt lat="44.88166762728352" lon="7.868389725022009"><ele>254.0</ele><time>2026-03-28T10:19:44Z</time></trkpt><trkpt lat="44.881747804360046" lon="7.868454533624566"><ele>254.0</ele><time>2026-03-28T10:19:45Z</time></trkpt><trkpt lat="44.88182700127695" lon="7.868521310057071"><ele>254.0</ele><time>2026-03-28T10:19:46Z</time></trkpt><trkpt lat="44.88190355562356" lon="7.868583046666092"><ele>254.00000000000003</ele><time>2026-03-28T10:19:47Z</time></trkpt><trkpt lat="44.88198022835969" lon="7.8686456468903945"><ele>254.0</ele><time>2026-03-28T10:19:48Z</time></trkpt><trkpt lat="44.88206170200408" lon="7.868709658943784"><ele>254.2</ele><time>2026-03-28T10:19:49Z</time></trkpt><trkpt lat="44.88214170958619" lon="7.868779358847563"><ele>254.39999999999998</ele><time>2026-03-28T10:19:50Z</time></trkpt><trkpt lat="44.88221904702901" lon="7.868848794457225"><ele>254.6</ele><time>2026-03-28T10:19:51Z</time></trkpt><trkpt lat="44.88229670546067" lon="7.868909356625208"><ele>254.8</ele><time>2026-03-28T10:19:52Z</time></trkpt><trkpt lat="44.88237862263388" lon="7.868969603030591"><ele>255.0</ele><time>2026-03-28T10:19:53Z</time></trkpt><trkpt lat="44.88245610407113" lon="7.869025248057423"><ele>255.0</ele><time>2026-03-28T10:19:54Z</time></trkpt><trkpt lat="44.88251747990627" lon="7.869081542787678"><ele>255.0</ele><time>2026-03-28T10:19:55Z</time></trkpt><trkpt lat="44.88257438545036" lon="7.869129744324426"><ele>255.0</ele><time>2026-03-28T10:19:56Z</time></trkpt><trkpt lat="44.88264902845098" lon="7.869227283654334"><ele>255.0</ele><time>2026-03-28T10:19:58Z</time></trkpt><trkpt lat="44.882652913235994" lon="7.869340479085737"><ele>255.0</ele><time>2026-03-28T10:20:00Z</time></trkpt><trkpt lat="44.882546805303896" lon="7.869480006697536"><ele>255.6</ele><time>2026-03-28T10:20:02Z</time></trkpt><trkpt lat="44.882459014548054" lon="7.869551189340689"><ele>256.2</ele><time>2026-03-28T10:20:03Z</time></trkpt><trkpt lat="44.88237500657267" lon="7.869654850579114"><ele>256.8</ele><time>2026-03-28T10:20:04Z</time></trkpt><trkpt lat="44.88229159487183" lon="7.869749540089598"><ele>257.4</ele><time>2026-03-28T10:20:05Z</time></trkpt><trkpt lat="44.882208715910856" lon="7.869844872435573"><ele>258.0</ele><time>2026-03-28T10:20:06Z</time></trkpt><trkpt lat="44.882128311281704" lon="7.869941320820842"><ele>258.0</ele><time>2026-03-28T10:20:07Z</time></trkpt><trkpt lat="44.88202860435534" lon="7.870003623226076"><ele>258.0</ele><time>2026-03-28T10:20:08Z</time></trkpt><trkpt lat="44.88194584944653" lon="7.870096078464468"><ele>258.0</ele><time>2026-03-28T10:20:09Z</time></trkpt><trkpt lat="44.88186946214969" lon="7.870181419669783"><ele>258.0</ele><time>2026-03-28T10:20:10Z</time></trkpt><trkpt lat="44.88179931522035" lon="7.8702597890534705"><ele>258.0</ele><time>2026-03-28T10:20:11Z</time></trkpt><trkpt lat="44.8817391845185" lon="7.870338709941589"><ele>257.8333333333333</ele><time>2026-03-28T10:20:12Z</time></trkpt><trkpt lat="44.88169897269537" lon="7.870446465861135"><ele>257.6666666666667</ele><time>2026-03-28T10:20:13Z</time></trkpt><trkpt lat="44.88167976958457" lon="7.870553672142708"><ele>257.5</ele><time>2026-03-28T10:20:14Z</time></trkpt><trkpt lat="44.88164678810729" lon="7.870662793162321"><ele>257.33333333333337</ele><time>2026-03-28T10:20:15Z</time></trkpt><trkpt lat="44.881609691541655" lon="7.870771076955088"><ele>257.1666666666667</ele><time>2026-03-28T10:20:16Z</time></trkpt><trkpt lat="44.881572653343476" lon="7.870870953332001"><ele>257.0</ele><time>2026-03-28T10:20:17Z</time></trkpt><trkpt lat="44.88131905104708" lon="7.87083539899195"><ele>257.0</ele><time>2026-03-28T10:20:18Z</time></trkpt><trkpt lat="44.88123684329053" lon="7.8708943733279755"><ele>257.0</ele><time>2026-03-28T10:20:19Z</time></trkpt><trkpt lat="44.881143408162245" lon="7.87093401464665"><ele>257.0</ele><time>2026-03-28T10:20:20Z</time></trkpt><trkpt lat="44.88104873618448" lon="7.870965133712886"><ele>257.0</ele><time>2026-03-28T10:20:21Z</time></trkpt><trkpt lat="44.88095056260427" lon="7.870983097869519"><ele>257.0</ele><time>2026-03-28T10:20:22Z</time></trkpt><trkpt lat="44.88084928606469" lon="7.871007056225173"><ele>257.8</ele><time>2026-03-28T10:20:23Z</time></trkpt><trkpt lat="44.880753796805365" lon="7.871040296568771"><ele>258.6</ele><time>2026-03-28T10:20:24Z</time></trkpt><trkpt lat="44.880656322301746" lon="7.8710798490837135"><ele>259.40000000000003</ele><time>2026-03-28T10:20:25Z</time></trkpt><trkpt lat="44.88055766776302" lon="7.871122877469063"><ele>260.2</ele><time>2026-03-28T10:20:26Z</time></trkpt><trkpt lat="44.880457331728515" lon="7.871174337482883"><ele>261.0</ele><time>2026-03-28T10:20:27Z</time></trkpt><trkpt lat="44.8803606010182" lon="7.871227555927161"><ele>261.0</ele><time>2026-03-28T10:20:28Z</time></trkpt><trkpt lat="44.88026637983155" lon="7.871280671064364"><ele>261.0</ele><time>2026-03-28T10:20:29Z</time></trkpt><trkpt lat="44.880171329935024" lon="7.8713417875743765"><ele>261.0</ele><time>2026-03-28T10:20:30Z</time></trkpt><trkpt lat="44.880074196548925" lon="7.871408399169803"><ele>261.0</ele><time>2026-03-28T10:20:31Z</time></trkpt><trkpt lat="44.87997418849797" lon="7.871483593139589"><ele>261.0</ele><time>2026-03-28T10:20:32Z</time></trkpt><trkpt lat="44.87987395692077" lon="7.871542345071437"><ele>261.0</ele><time>2026-03-28T10:20:33Z</time></trkpt><trkpt lat="44.87977559322663" lon="7.8716016421825605"><ele>261.0</ele><time>2026-03-28T10:20:34Z</time></trkpt><trkpt lat="44.87967792392675" lon="7.871660173340864"><ele>261.0</ele><time>2026-03-28T10:20:35Z</time></trkpt><trkpt lat="44.87957330264622" lon="7.871720590893747"><ele>261.0</ele><time>2026-03-28T10:20:36Z</time></trkpt><trkpt lat="44.879471681526155" lon="7.871778065826649"><ele>261.0</ele><time>2026-03-28T10:20:37Z</time></trkpt><trkpt lat="44.87937347397047" lon="7.871834193263541"><ele>261.2</ele><time>2026-03-28T10:20:38Z</time></trkpt><trkpt lat="44.87927840644022" lon="7.871890046364144"><ele>261.40000000000003</ele><time>2026-03-28T10:20:39Z</time></trkpt><trkpt lat="44.87918871694013" lon="7.871964263101724"><ele>261.6</ele><time>2026-03-28T10:20:40Z</time></trkpt><trkpt lat="44.879103376993754" lon="7.872057667657293"><ele>261.8</ele><time>2026-03-28T10:20:41Z</time></trkpt><trkpt lat="44.87901654597024" lon="7.8721597992878065"><ele>262.0</ele><time>2026-03-28T10:20:42Z</time></trkpt><trkpt lat="44.87892956370469" lon="7.8722538584909145"><ele>262.0</ele><time>2026-03-28T10:20:43Z</time></trkpt><trkpt lat="44.87884134439158" lon="7.872339966440036"><ele>262.0</ele><time>2026-03-28T10:20:44Z</time></trkpt><trkpt lat="44.87874944680542" lon="7.872426436519225"><ele>262.0</ele><time>2026-03-28T10:20:45Z</time></trkpt><trkpt lat="44.87864087976336" lon="7.872497192811719"><ele>262.0</ele><time>2026-03-28T10:20:46Z</time></trkpt><trkpt lat="44.878536526188924" lon="7.872553284978353"><ele>262.0</ele><time>2026-03-28T10:20:47Z</time></trkpt><trkpt lat="44.87843037446536" lon="7.872617521033099"><ele>262.0</ele><time>2026-03-28T10:20:48Z</time></trkpt><trkpt lat="44.87832680182251" lon="7.872685996029161"><ele>262.0</ele><time>2026-03-28T10:20:49Z</time></trkpt><trkpt lat="44.87822713372714" lon="7.8727540843113815"><ele>262.0</ele><time>2026-03-28T10:20:50Z</time></trkpt><trkpt lat="44.878132260752935" lon="7.872832759461607"><ele>262.0</ele><time>2026-03-28T10:20:51Z</time></trkpt><trkpt lat="44.8780405424551" lon="7.872918961658305"><ele>262.0</ele><time>2026-03-28T10:20:52Z</time></trkpt><trkpt lat="44.87794897412905" lon="7.873007744578189"><ele>262.0</ele><time>2026-03-28T10:20:53Z</time></trkpt><trkpt lat="44.87785640178104" lon="7.873090459450509"><ele>262.0</ele><time>2026-03-28T10:20:54Z</time></trkpt><trkpt lat="44.877762470247866" lon="7.873169206737793"><ele>262.0</ele><time>2026-03-28T10:20:55Z</time></trkpt><trkpt lat="44.877668249895784" lon="7.873252169721363"><ele>262.0</ele><time>2026-03-28T10:20:56Z</time></trkpt><trkpt lat="44.87757555408616" lon="7.873331523697676"><ele>262.0</ele><time>2026-03-28T10:20:57Z</time></trkpt><trkpt lat="44.87747687000215" lon="7.8734121877054895"><ele>263.75</ele><time>2026-03-28T10:20:58Z</time></trkpt><trkpt lat="44.87737886544628" lon="7.873492222898794"><ele>265.5</ele><time>2026-03-28T10:20:59Z</time></trkpt><trkpt lat="44.87729965660508" lon="7.8736121487339865"><ele>267.25</ele><time>2026-03-28T10:21:00Z</time></trkpt><trkpt lat="44.8772142602198" lon="7.873725279965064"><ele>269.0</ele><time>2026-03-28T10:21:01Z</time></trkpt><trkpt lat="44.877144409718866" lon="7.873857194753232"><ele>269.0</ele><time>2026-03-28T10:21:02Z</time></trkpt><trkpt lat="44.87708123488244" lon="7.873999715428708"><ele>269.0</ele><time>2026-03-28T10:21:03Z</time></trkpt><trkpt lat="44.87702033546969" lon="7.874148132079056"><ele>269.0</ele><time>2026-03-28T10:21:04Z</time></trkpt><trkpt lat="44.87696548345798" lon="7.874289901459012"><ele>269.0</ele><time>2026-03-28T10:21:05Z</time></trkpt><trkpt lat="44.87690184490414" lon="7.874426539782924"><ele>270.0</ele><time>2026-03-28T10:21:06Z</time></trkpt><trkpt lat="44.87683331900304" lon="7.874558165503137"><ele>271.0</ele><time>2026-03-28T10:21:07Z</time></trkpt><trkpt lat="44.87676800651922" lon="7.874686349794669"><ele>272.0</ele><time>2026-03-28T10:21:08Z</time></trkpt><trkpt lat="44.876699493127035" lon="7.874807974418466"><ele>273.0</ele><time>2026-03-28T10:21:09Z</time></trkpt><trkpt lat="44.87663360457777" lon="7.8749267250913295"><ele>274.0</ele><time>2026-03-28T10:21:10Z</time></trkpt><trkpt lat="44.87657173187506" lon="7.875058452512829"><ele>271.75</ele><time>2026-03-28T10:21:11Z</time></trkpt><trkpt lat="44.87651155486846" lon="7.8751978678648005"><ele>269.5</ele><time>2026-03-28T10:21:12Z</time></trkpt><trkpt lat="44.87644902392717" lon="7.8753417508620664"><ele>267.25</ele><time>2026-03-28T10:21:13Z</time></trkpt><trkpt lat="44.87639251632011" lon="7.875486213627905"><ele>265.0</ele><time>2026-03-28T10:21:14Z</time></trkpt><trkpt lat="44.876332904429255" lon="7.875631917588122"><ele>265.0</ele><time>2026-03-28T10:21:15Z</time></trkpt><trkpt lat="44.87627695958446" lon="7.875771344332266"><ele>265.0</ele><time>2026-03-28T10:21:16Z</time></trkpt><trkpt lat="44.876220346704436" lon="7.87590881999545"><ele>265.0</ele><time>2026-03-28T10:21:17Z</time></trkpt><trkpt lat="44.876168412822025" lon="7.876047877957807"><ele>265.0</ele><time>2026-03-28T10:21:18Z</time></trkpt><trkpt lat="44.87610815703568" lon="7.876177739155809"><ele>265.0</ele><time>2026-03-28T10:21:19Z</time></trkpt><trkpt lat="44.87604919089739" lon="7.876295653593294"><ele>264.4</ele><time>2026-03-28T10:21:20Z</time></trkpt><trkpt lat="44.875993408045154" lon="7.8764226897533804"><ele>263.8</ele><time>2026-03-28T10:21:21Z</time></trkpt><trkpt lat="44.87594901091822" lon="7.876550029588777"><ele>263.2</ele><time>2026-03-28T10:21:22Z</time></trkpt><trkpt lat="44.87590162810316" lon="7.876673190073136"><ele>262.6</ele><time>2026-03-28T10:21:23Z</time></trkpt><trkpt lat="44.87585697723149" lon="7.876801764298803"><ele>262.0</ele><time>2026-03-28T10:21:24Z</time></trkpt><trkpt lat="44.875814662089915" lon="7.8769328105666805"><ele>263.6</ele><time>2026-03-28T10:21:25Z</time></trkpt><trkpt lat="44.87577210165786" lon="7.877072125999467"><ele>265.2</ele><time>2026-03-28T10:21:26Z</time></trkpt><trkpt lat="44.87572341766581" lon="7.877210155904277"><ele>266.8</ele><time>2026-03-28T10:21:27Z</time></trkpt><trkpt lat="44.875676275678124" lon="7.877346687345046"><ele>268.4</ele><time>2026-03-28T10:21:28Z</time></trkpt><trkpt lat="44.875626636850555" lon="7.8774832348078"><ele>270.0</ele><time>2026-03-28T10:21:29Z</time></trkpt><trkpt lat="44.875575717544585" lon="7.87761902031874"><ele>271.0</ele><time>2026-03-28T10:21:30Z</time></trkpt><trkpt lat="44.87552070457114" lon="7.877755971349439"><ele>272.0</ele><time>2026-03-28T10:21:31Z</time></trkpt><trkpt lat="44.87546731396372" lon="7.877896223209713"><ele>273.0</ele><time>2026-03-28T10:21:32Z</time></trkpt><trkpt lat="44.875414472718425" lon="7.8780357959463485"><ele>274.0</ele><time>2026-03-28T10:21:33Z</time></trkpt><trkpt lat="44.87536210977036" lon="7.878179827642219"><ele>274.0</ele><time>2026-03-28T10:21:34Z</time></trkpt><trkpt lat="44.87530840489356" lon="7.878328353801513"><ele>274.0</ele><time>2026-03-28T10:21:35Z</time></trkpt><trkpt lat="44.8752551159222" lon="7.8784702775090425"><ele>274.0</ele><time>2026-03-28T10:21:36Z</time></trkpt><trkpt lat="44.87519901204114" lon="7.878620270072245"><ele>274.0</ele><time>2026-03-28T10:21:37Z</time></trkpt><trkpt lat="44.87514160483923" lon="7.878765936763345"><ele>272.0</ele><time>2026-03-28T10:21:38Z</time></trkpt><trkpt lat="44.87509131279827" lon="7.878911935750328"><ele>270.0</ele><time>2026-03-28T10:21:39Z</time></trkpt><trkpt lat="44.87504047741211" lon="7.879051857013291"><ele>268.0</ele><time>2026-03-28T10:21:40Z</time></trkpt><trkpt lat="44.874988723988615" lon="7.879188835518221"><ele>266.0</ele><time>2026-03-28T10:21:41Z</time></trkpt><trkpt lat="44.874936773507116" lon="7.879319684822761"><ele>264.0</ele><time>2026-03-28T10:21:42Z</time></trkpt><trkpt lat="44.87488224547966" lon="7.879451224604149"><ele>264.0</ele><time>2026-03-28T10:21:43Z</time></trkpt><trkpt lat="44.87482699259741" lon="7.8795783624400615"><ele>264.0</ele><time>2026-03-28T10:21:44Z</time></trkpt><trkpt lat="44.87477007668438" lon="7.879705496624461"><ele>264.0</ele><time>2026-03-28T10:21:45Z</time></trkpt><trkpt lat="44.87471852692959" lon="7.8798318790842705"><ele>264.0</ele><time>2026-03-28T10:21:46Z</time></trkpt><trkpt lat="44.87466985347195" lon="7.879958994615373"><ele>264.0</ele><time>2026-03-28T10:21:47Z</time></trkpt><trkpt lat="44.874623075299056" lon="7.880088927594625"><ele>265.59999999999997</ele><time>2026-03-28T10:21:48Z</time></trkpt><trkpt lat="44.87457118092447" lon="7.880213480023952"><ele>267.2</ele><time>2026-03-28T10:21:49Z</time></trkpt><trkpt lat="44.87451275229883" lon="7.88033826382655"><ele>268.79999999999995</ele><time>2026-03-28T10:21:50Z</time></trkpt><trkpt lat="44.87445563368555" lon="7.880455001075641"><ele>270.4</ele><time>2026-03-28T10:21:51Z</time></trkpt><trkpt lat="44.87440056709043" lon="7.880560187088504"><ele>272.0</ele><time>2026-03-28T10:21:52Z</time></trkpt><trkpt lat="44.87434348150979" lon="7.880664650422522"><ele>272.0</ele><time>2026-03-28T10:21:53Z</time></trkpt><trkpt lat="44.87427974004588" lon="7.880776830798956"><ele>272.0</ele><time>2026-03-28T10:21:54Z</time></trkpt><trkpt lat="44.87422597637382" lon="7.880885599670614"><ele>272.0</ele><time>2026-03-28T10:21:55Z</time></trkpt><trkpt lat="44.874165490331826" lon="7.881000747118893"><ele>272.0</ele><time>2026-03-28T10:21:56Z</time></trkpt><trkpt lat="44.874106790256214" lon="7.881112154927358"><ele>272.0</ele><time>2026-03-28T10:21:57Z</time></trkpt><trkpt lat="44.8740453369932" lon="7.881234613086863"><ele>271.4</ele><time>2026-03-28T10:21:58Z</time></trkpt><trkpt lat="44.873981355617566" lon="7.881358516045126"><ele>270.79999999999995</ele><time>2026-03-28T10:21:59Z</time></trkpt><trkpt lat="44.87392181450693" lon="7.881486756418913"><ele>270.2</ele><time>2026-03-28T10:22:00Z</time></trkpt><trkpt lat="44.87385839231058" lon="7.881614281426596"><ele>269.59999999999997</ele><time>2026-03-28T10:22:01Z</time></trkpt><trkpt lat="44.873801665351344" lon="7.881740418449298"><ele>269.0</ele><time>2026-03-28T10:22:02Z</time></trkpt><trkpt lat="44.873742237815826" lon="7.881864006496654"><ele>270.59999999999997</ele><time>2026-03-28T10:22:03Z</time></trkpt><trkpt lat="44.87368760428118" lon="7.881993487576214"><ele>272.2</ele><time>2026-03-28T10:22:04Z</time></trkpt><trkpt lat="44.87363004382406" lon="7.882119298341133"><ele>273.79999999999995</ele><time>2026-03-28T10:22:05Z</time></trkpt><trkpt lat="44.87357669357676" lon="7.882247285897245"><ele>275.4</ele><time>2026-03-28T10:22:06Z</time></trkpt><trkpt lat="44.87352718137812" lon="7.8823808989114"><ele>277.0</ele><time>2026-03-28T10:22:07Z</time></trkpt><trkpt lat="44.87347259086105" lon="7.882512956074776"><ele>275.0</ele><time>2026-03-28T10:22:08Z</time></trkpt><trkpt lat="44.87342087696365" lon="7.88265217740194"><ele>273.0</ele><time>2026-03-28T10:22:09Z</time></trkpt><trkpt lat="44.87337666124686" lon="7.8827931927205634"><ele>271.0</ele><time>2026-03-28T10:22:10Z</time></trkpt><trkpt lat="44.8733320130129" lon="7.8829320502349525"><ele>269.0</ele><time>2026-03-28T10:22:11Z</time></trkpt><trkpt lat="44.87329004656609" lon="7.883076708448232"><ele>267.0</ele><time>2026-03-28T10:22:12Z</time></trkpt><trkpt lat="44.873253403614655" lon="7.883217028864635"><ele>267.0</ele><time>2026-03-28T10:22:13Z</time></trkpt><trkpt lat="44.8732169578529" lon="7.883347794745608"><ele>267.0</ele><time>2026-03-28T10:22:14Z</time></trkpt><trkpt lat="44.87318542010868" lon="7.883478910768603"><ele>267.0</ele><time>2026-03-28T10:22:15Z</time></trkpt><trkpt lat="44.87315537343787" lon="7.8836167176267535"><ele>267.0</ele><time>2026-03-28T10:22:16Z</time></trkpt><trkpt lat="44.87312348819706" lon="7.88375899447378"><ele>267.0</ele><time>2026-03-28T10:22:17Z</time></trkpt><trkpt lat="44.873088024717184" lon="7.883892876160832"><ele>267.8</ele><time>2026-03-28T10:22:18Z</time></trkpt><trkpt lat="44.87305703497638" lon="7.884009441219489"><ele>268.6</ele><time>2026-03-28T10:22:19Z</time></trkpt><trkpt lat="44.87303228989413" lon="7.8841029858654865"><ele>269.40000000000003</ele><time>2026-03-28T10:22:20Z</time></trkpt><trkpt lat="44.872996099622505" lon="7.884256519136225"><ele>270.2</ele><time>2026-03-28T10:22:22Z</time></trkpt><trkpt lat="44.872961888599356" lon="7.8843888209412585"><ele>271.0</ele><time>2026-03-28T10:22:24Z</time></trkpt><trkpt lat="44.87293262907048" lon="7.884515519494461"><ele>271.6</ele><time>2026-03-28T10:22:26Z</time></trkpt><trkpt lat="44.87290229017962" lon="7.884674986205932"><ele>272.20000000000005</ele><time>2026-03-28T10:22:28Z</time></trkpt><trkpt lat="44.872886017620324" lon="7.884845234886861"><ele>272.79999999999995</ele><time>2026-03-28T10:22:30Z</time></trkpt><trkpt lat="44.872879705552045" lon="7.884936794300266"><ele>273.4</ele><time>2026-03-28T10:22:31Z</time></trkpt><trkpt lat="44.872875450454664" lon="7.885026343369721"><ele>274.0</ele><time>2026-03-28T10:22:32Z</time></trkpt><trkpt lat="44.87286481964369" lon="7.885209136887653"><ele>274.00000000000006</ele><time>2026-03-28T10:22:34Z</time></trkpt><trkpt lat="44.87285321805532" lon="7.885314329740181"><ele>274.0</ele><time>2026-03-28T10:22:35Z</time></trkpt><trkpt lat="44.87284570168964" lon="7.885414487847874"><ele>274.0</ele><time>2026-03-28T10:22:36Z</time></trkpt><trkpt lat="44.87283491527908" lon="7.8855134163511265"><ele>274.0</ele><time>2026-03-28T10:22:37Z</time></trkpt><trkpt lat="44.8728166699045" lon="7.885605513536126"><ele>274.0</ele><time>2026-03-28T10:22:38Z</time></trkpt><trkpt lat="44.872788380698495" lon="7.885707262193563"><ele>274.00000000000006</ele><time>2026-03-28T10:22:39Z</time></trkpt><trkpt lat="44.87275793437364" lon="7.885791492857563"><ele>274.0</ele><time>2026-03-28T10:22:40Z</time></trkpt><trkpt lat="44.872719158769385" lon="7.885869205934771"><ele>274.0</ele><time>2026-03-28T10:22:41Z</time></trkpt><trkpt lat="44.87267894541994" lon="7.885948309877755"><ele>274.0</ele><time>2026-03-28T10:22:42Z</time></trkpt><trkpt lat="44.872608210376534" lon="7.886083883137451"><ele>274.0</ele><time>2026-03-28T10:22:44Z</time></trkpt><trkpt lat="44.87253237965934" lon="7.886234693967155"><ele>274.0</ele><time>2026-03-28T10:22:46Z</time></trkpt><trkpt lat="44.87248379238567" lon="7.886310330471221"><ele>274.0</ele><time>2026-03-28T10:22:47Z</time></trkpt><trkpt lat="44.87240858083744" lon="7.886419022307884"><ele>273.3333333333333</ele><time>2026-03-28T10:22:49Z</time></trkpt><trkpt lat="44.87231014050843" lon="7.886531311825939"><ele>272.66666666666663</ele><time>2026-03-28T10:22:51Z</time></trkpt><trkpt lat="44.87225432366916" lon="7.88660477884212"><ele>272.0</ele><time>2026-03-28T10:22:52Z</time></trkpt><trkpt lat="44.87220855146907" lon="7.8866781310563105"><ele>271.3333333333333</ele><time>2026-03-28T10:22:53Z</time></trkpt><trkpt lat="44.8721610837766" lon="7.886753671313141"><ele>270.6666666666667</ele><time>2026-03-28T10:22:54Z</time></trkpt><trkpt lat="44.87211821801335" lon="7.886827895027998"><ele>270.0</ele><time>2026-03-28T10:22:55Z</time></trkpt><trkpt lat="44.87207122162157" lon="7.886896050873886"><ele>270.0</ele><time>2026-03-28T10:22:56Z</time></trkpt><trkpt lat="44.87202577667361" lon="7.88696205921287"><ele>270.0</ele><time>2026-03-28T10:22:57Z</time></trkpt><trkpt lat="44.87196350172172" lon="7.8869778308878"><ele>270.0</ele><time>2026-03-28T10:22:58Z</time></trkpt><trkpt lat="44.87190376994235" lon="7.8870588148562195"><ele>270.0</ele><time>2026-03-28T10:23:00Z</time></trkpt><trkpt lat="44.87185524748852" lon="7.887121359878928"><ele>270.0</ele><time>2026-03-28T10:23:02Z</time></trkpt><trkpt lat="44.87176100465743" lon="7.887235825499183"><ele>270.0</ele><time>2026-03-28T10:23:22Z</time></trkpt><trkpt lat="44.8716892575541" lon="7.887326065339463"><ele>270.3333333333333</ele><time>2026-03-28T10:23:23Z</time></trkpt><trkpt lat="44.8716373777137" lon="7.887390977358429"><ele>270.6666666666667</ele><time>2026-03-28T10:23:24Z</time></trkpt><trkpt lat="44.87157920262372" lon="7.887462366237441"><ele>271.0</ele><time>2026-03-28T10:23:25Z</time></trkpt><trkpt lat="44.871527504967325" lon="7.887550764796257"><ele>271.33333333333337</ele><time>2026-03-28T10:23:26Z</time></trkpt><trkpt lat="44.87143299231309" lon="7.887609224272955"><ele>271.6666666666667</ele><time>2026-03-28T10:23:27Z</time></trkpt><trkpt lat="44.8713327038457" lon="7.887681566315521"><ele>272.0</ele><time>2026-03-28T10:23:28Z</time></trkpt><trkpt lat="44.87122899589764" lon="7.8877603801542495"><ele>272.0</ele><time>2026-03-28T10:23:29Z</time></trkpt><trkpt lat="44.87112653213617" lon="7.8878459659213815"><ele>272.0</ele><time>2026-03-28T10:23:30Z</time></trkpt><trkpt lat="44.871025080316116" lon="7.887956336961497"><ele>272.0</ele><time>2026-03-28T10:23:31Z</time></trkpt><trkpt lat="44.87093301761012" lon="7.888058719558382"><ele>272.0</ele><time>2026-03-28T10:23:32Z</time></trkpt><trkpt lat="44.87084133714596" lon="7.888159872117877"><ele>270.75</ele><time>2026-03-28T10:23:33Z</time></trkpt><trkpt lat="44.8707417873795" lon="7.888262760971531"><ele>269.5</ele><time>2026-03-28T10:23:34Z</time></trkpt><trkpt lat="44.87064597760987" lon="7.888375746602399"><ele>268.25</ele><time>2026-03-28T10:23:35Z</time></trkpt><trkpt lat="44.87055078577485" lon="7.888506336250125"><ele>267.0</ele><time>2026-03-28T10:23:36Z</time></trkpt><trkpt lat="44.870459087028955" lon="7.888645047260046"><ele>267.0</ele><time>2026-03-28T10:23:37Z</time></trkpt><trkpt lat="44.8703719310115" lon="7.8887800452854195"><ele>267.0</ele><time>2026-03-28T10:23:38Z</time></trkpt><trkpt lat="44.87027296298792" lon="7.888899045075526"><ele>267.0</ele><time>2026-03-28T10:23:39Z</time></trkpt><trkpt lat="44.870158623799384" lon="7.889007631969489"><ele>267.0</ele><time>2026-03-28T10:23:40Z</time></trkpt><trkpt lat="44.870032366644764" lon="7.889110593216754"><ele>266.75</ele><time>2026-03-28T10:23:41Z</time></trkpt><trkpt lat="44.86990476255379" lon="7.889210211353195"><ele>266.5</ele><time>2026-03-28T10:23:42Z</time></trkpt><trkpt lat="44.86977593476377" lon="7.88931078484747"><ele>266.25</ele><time>2026-03-28T10:23:43Z</time></trkpt><trkpt lat="44.869640999572205" lon="7.889401438063185"><ele>266.0</ele><time>2026-03-28T10:23:44Z</time></trkpt><trkpt lat="44.8695006425869" lon="7.889497493289115"><ele>266.0</ele><time>2026-03-28T10:23:45Z</time></trkpt><trkpt lat="44.869362973060085" lon="7.88959417372852"><ele>266.0</ele><time>2026-03-28T10:23:46Z</time></trkpt><trkpt lat="44.8692364410243" lon="7.889684741196385"><ele>266.0</ele><time>2026-03-28T10:23:47Z</time></trkpt><trkpt lat="44.869119217943755" lon="7.88977576972524"><ele>266.0</ele><time>2026-03-28T10:23:48Z</time></trkpt><trkpt lat="44.86900673821699" lon="7.889868704562695"><ele>265.75</ele><time>2026-03-28T10:23:49Z</time></trkpt><trkpt lat="44.86890491849415" lon="7.88998109868436"><ele>265.5</ele><time>2026-03-28T10:23:50Z</time></trkpt><trkpt lat="44.8687742942503" lon="7.890066480867575"><ele>265.25</ele><time>2026-03-28T10:23:51Z</time></trkpt><trkpt lat="44.86866083258016" lon="7.890169195108187"><ele>265.0</ele><time>2026-03-28T10:23:52Z</time></trkpt><trkpt lat="44.868555353111894" lon="7.890293564200594"><ele>265.0</ele><time>2026-03-28T10:23:53Z</time></trkpt><trkpt lat="44.86844154197851" lon="7.890414062140843"><ele>265.0</ele><time>2026-03-28T10:23:54Z</time></trkpt><trkpt lat="44.868333577659115" lon="7.890561294346159"><ele>265.0</ele><time>2026-03-28T10:23:55Z</time></trkpt><trkpt lat="44.86822341450894" lon="7.890715496537401"><ele>265.0</ele><time>2026-03-28T10:23:56Z</time></trkpt><trkpt lat="44.868115076653915" lon="7.89086340539976"><ele>266.25</ele><time>2026-03-28T10:23:57Z</time></trkpt><trkpt lat="44.86801194360006" lon="7.891008741304364"><ele>267.5</ele><time>2026-03-28T10:23:58Z</time></trkpt><trkpt lat="44.86790388938901" lon="7.891139382556934"><ele>268.75</ele><time>2026-03-28T10:23:59Z</time></trkpt><trkpt lat="44.867806845268795" lon="7.891279659321124"><ele>270.0</ele><time>2026-03-28T10:24:00Z</time></trkpt><trkpt lat="44.867712001287636" lon="7.89141131528814"><ele>270.0</ele><time>2026-03-28T10:24:01Z</time></trkpt><trkpt lat="44.86762544742035" lon="7.891520406512905"><ele>270.0</ele><time>2026-03-28T10:24:02Z</time></trkpt><trkpt lat="44.867550073153865" lon="7.891631830656093"><ele>270.0</ele><time>2026-03-28T10:24:03Z</time></trkpt><trkpt lat="44.86745740763142" lon="7.891696545717488"><ele>270.0</ele><time>2026-03-28T10:24:04Z</time></trkpt><trkpt lat="44.86737079639908" lon="7.891783490558629"><ele>270.0</ele><time>2026-03-28T10:24:05Z</time></trkpt><trkpt lat="44.8672777694716" lon="7.891877743732266"><ele>270.75</ele><time>2026-03-28T10:24:06Z</time></trkpt><trkpt lat="44.86717569248399" lon="7.891970784665211"><ele>271.5</ele><time>2026-03-28T10:24:07Z</time></trkpt><trkpt lat="44.8670665648463" lon="7.892068306703269"><ele>272.25</ele><time>2026-03-28T10:24:08Z</time></trkpt><trkpt lat="44.866954032631185" lon="7.892167103013505"><ele>273.0</ele><time>2026-03-28T10:24:09Z</time></trkpt><trkpt lat="44.866845666138566" lon="7.892250704336785"><ele>271.4</ele><time>2026-03-28T10:24:10Z</time></trkpt><trkpt lat="44.866745019799666" lon="7.892304307857896"><ele>269.8</ele><time>2026-03-28T10:24:11Z</time></trkpt><trkpt lat="44.86665668512159" lon="7.892318212942536"><ele>268.2</ele><time>2026-03-28T10:24:12Z</time></trkpt><trkpt lat="44.86656741449177" lon="7.892286841701496"><ele>266.6</ele><time>2026-03-28T10:24:13Z</time></trkpt><trkpt lat="44.86646363203795" lon="7.892247877970092"><ele>265.0</ele><time>2026-03-28T10:24:14Z</time></trkpt><trkpt lat="44.86636620432557" lon="7.892214310142003"><ele>265.0</ele><time>2026-03-28T10:24:15Z</time></trkpt><trkpt lat="44.86627621003853" lon="7.892188222108319"><ele>265.0</ele><time>2026-03-28T10:24:16Z</time></trkpt><trkpt lat="44.86618334142095" lon="7.892195529568472"><ele>265.0</ele><time>2026-03-28T10:24:17Z</time></trkpt><trkpt lat="44.86610558071219" lon="7.892211269617158"><ele>265.0</ele><time>2026-03-28T10:24:18Z</time></trkpt><trkpt lat="44.86604547940246" lon="7.892273742998497"><ele>265.0</ele><time>2026-03-28T10:24:19Z</time></trkpt><trkpt lat="44.866000469918475" lon="7.892382019987423"><ele>265.0</ele><time>2026-03-28T10:24:20Z</time></trkpt><trkpt lat="44.865990201814625" lon="7.892519103769708"><ele>265.4</ele><time>2026-03-28T10:24:21Z</time></trkpt><trkpt lat="44.86594946815401" lon="7.892639563324416"><ele>265.8</ele><time>2026-03-28T10:24:22Z</time></trkpt><trkpt lat="44.86591389215189" lon="7.892768574031077"><ele>266.2</ele><time>2026-03-28T10:24:23Z</time></trkpt><trkpt lat="44.865894012179915" lon="7.892918303885997"><ele>266.6</ele><time>2026-03-28T10:24:24Z</time></trkpt><trkpt lat="44.865874230680944" lon="7.8930831200194165"><ele>267.0</ele><time>2026-03-28T10:24:25Z</time></trkpt><trkpt lat="44.86584683462744" lon="7.893258329462741"><ele>267.25</ele><time>2026-03-28T10:24:26Z</time></trkpt><trkpt lat="44.86583093000017" lon="7.893425132416792"><ele>267.5</ele><time>2026-03-28T10:24:27Z</time></trkpt><trkpt lat="44.86581741092382" lon="7.893586135398985"><ele>267.75</ele><time>2026-03-28T10:24:28Z</time></trkpt><trkpt lat="44.86580202971574" lon="7.893743516014085"><ele>268.0</ele><time>2026-03-28T10:24:29Z</time></trkpt><trkpt lat="44.86578016950696" lon="7.893901040962847"><ele>268.0</ele><time>2026-03-28T10:24:30Z</time></trkpt><trkpt lat="44.86575147980108" lon="7.894057453356433"><ele>268.0</ele><time>2026-03-28T10:24:31Z</time></trkpt><trkpt lat="44.865713336713185" lon="7.894211078792547"><ele>268.0</ele><time>2026-03-28T10:24:32Z</time></trkpt><trkpt lat="44.865669824819115" lon="7.894358435027376"><ele>268.0</ele><time>2026-03-28T10:24:33Z</time></trkpt><trkpt lat="44.865622921947214" lon="7.894498730476235"><ele>268.2</ele><time>2026-03-28T10:24:34Z</time></trkpt><trkpt lat="44.86557970629718" lon="7.894629877495067"><ele>268.4</ele><time>2026-03-28T10:24:35Z</time></trkpt><trkpt lat="44.86553944964118" lon="7.894749584371645"><ele>268.59999999999997</ele><time>2026-03-28T10:24:36Z</time></trkpt><trkpt lat="44.86550329795225" lon="7.894857386358357"><ele>268.8</ele><time>2026-03-28T10:24:37Z</time></trkpt><trkpt lat="44.86545833685058" lon="7.894975084711011"><ele>269.0</ele><time>2026-03-28T10:24:39Z</time></trkpt><trkpt lat="44.86541219277745" lon="7.895088713483696"><ele>269.0</ele><time>2026-03-28T10:24:42Z</time></trkpt><trkpt lat="44.86532411776581" lon="7.895018608159641"><ele>269.0</ele><time>2026-03-28T10:25:04Z</time></trkpt><trkpt lat="44.86524154034978" lon="7.8949884818313585"><ele>269.0</ele><time>2026-03-28T10:25:07Z</time></trkpt><trkpt lat="44.86515312309604" lon="7.895069071699788"><ele>269.0</ele><time>2026-03-28T10:25:10Z</time></trkpt><trkpt lat="44.8650786523831" lon="7.895138970769964"><ele>269.0</ele><time>2026-03-28T10:25:12Z</time></trkpt><trkpt lat="44.8650043372456" lon="7.895231905418573"><ele>269.0</ele><time>2026-03-28T10:25:14Z</time></trkpt><trkpt lat="44.864913189013016" lon="7.8953227438838915"><ele>269.0</ele><time>2026-03-28T10:25:16Z</time></trkpt><trkpt lat="44.86483580433905" lon="7.895416205004515"><ele>269.0</ele><time>2026-03-28T10:25:18Z</time></trkpt><trkpt lat="44.86475771781841" lon="7.895512190464272"><ele>269.0</ele><time>2026-03-28T10:25:20Z</time></trkpt><trkpt lat="44.864677566783215" lon="7.895614259757391"><ele>269.0</ele><time>2026-03-28T10:25:22Z</time></trkpt><trkpt lat="44.86459190858853" lon="7.89572310511597"><ele>269.0</ele><time>2026-03-28T10:25:24Z</time></trkpt><trkpt lat="44.86454624249521" lon="7.895790531164321"><ele>269.0</ele><time>2026-03-28T10:25:25Z</time></trkpt><trkpt lat="44.864454672540894" lon="7.895900488433786"><ele>269.0</ele><time>2026-03-28T10:25:27Z</time></trkpt><trkpt lat="44.86440385112029" lon="7.895964948160025"><ele>269.0</ele><time>2026-03-28T10:25:28Z</time></trkpt><trkpt lat="44.864343266029046" lon="7.896040586704267"><ele>269.0</ele><time>2026-03-28T10:25:29Z</time></trkpt><trkpt lat="44.864273118918284" lon="7.896117798194801"><ele>269.0</ele><time>2026-03-28T10:25:30Z</time></trkpt><trkpt lat="44.86420699302954" lon="7.896169186617912"><ele>269.0</ele><time>2026-03-28T10:25:31Z</time></trkpt><trkpt lat="44.864141606097924" lon="7.896209527553052"><ele>269.0</ele><time>2026-03-28T10:25:32Z</time></trkpt><trkpt lat="44.8640741970808" lon="7.896242511309916"><ele>269.0</ele><time>2026-03-28T10:25:33Z</time></trkpt><trkpt lat="44.86399118502821" lon="7.896269514761751"><ele>269.0</ele><time>2026-03-28T10:25:34Z</time></trkpt><trkpt lat="44.86390447007176" lon="7.896277072478211"><ele>269.0</ele><time>2026-03-28T10:25:35Z</time></trkpt><trkpt lat="44.86382040246281" lon="7.89628520539912"><ele>269.0</ele><time>2026-03-28T10:25:36Z</time></trkpt><trkpt lat="44.86372611348836" lon="7.896294704765692"><ele>269.0</ele><time>2026-03-28T10:25:37Z</time></trkpt><trkpt lat="44.86363729873528" lon="7.8962706119728185"><ele>269.0</ele><time>2026-03-28T10:25:38Z</time></trkpt><trkpt lat="44.86354734783511" lon="7.896257409365069"><ele>269.0</ele><time>2026-03-28T10:25:39Z</time></trkpt><trkpt lat="44.863456250870776" lon="7.896236737411274"><ele>269.0</ele><time>2026-03-28T10:25:40Z</time></trkpt><trkpt lat="44.863377869609025" lon="7.89622672258071"><ele>269.0</ele><time>2026-03-28T10:25:41Z</time></trkpt><trkpt lat="44.863304130828396" lon="7.896196377429675"><ele>269.0</ele><time>2026-03-28T10:25:42Z</time></trkpt><trkpt lat="44.86321747330255" lon="7.896168961522807"><ele>268.83333333333337</ele><time>2026-03-28T10:25:43Z</time></trkpt><trkpt lat="44.863112293044516" lon="7.896140841233134"><ele>268.6666666666667</ele><time>2026-03-28T10:25:44Z</time></trkpt><trkpt lat="44.86302664289379" lon="7.896109392744508"><ele>268.5</ele><time>2026-03-28T10:25:45Z</time></trkpt><trkpt lat="44.862945756080606" lon="7.8960836759421085"><ele>268.3333333333333</ele><time>2026-03-28T10:25:46Z</time></trkpt><trkpt lat="44.862878182633295" lon="7.896059277984127"><ele>268.16666666666663</ele><time>2026-03-28T10:25:47Z</time></trkpt><trkpt lat="44.86280452911031" lon="7.896032736078892"><ele>268.0</ele><time>2026-03-28T10:25:48Z</time></trkpt><trkpt lat="44.8627264849005" lon="7.896010076008429"><ele>268.0</ele><time>2026-03-28T10:25:49Z</time></trkpt><trkpt lat="44.86265589749667" lon="7.895992228776367"><ele>268.0</ele><time>2026-03-28T10:25:50Z</time></trkpt><trkpt lat="44.86254825751699" lon="7.896011727645172"><ele>268.0</ele><time>2026-03-28T10:25:52Z</time></trkpt><trkpt lat="44.86247806977004" lon="7.896102911753378"><ele>268.0</ele><time>2026-03-28T10:25:54Z</time></trkpt><trkpt lat="44.86236685698217" lon="7.896100132291488"><ele>268.0</ele><time>2026-03-28T10:26:10Z</time></trkpt><trkpt lat="44.86229563313771" lon="7.896072578719757"><ele>268.3333333333333</ele><time>2026-03-28T10:26:11Z</time></trkpt><trkpt lat="44.86224313461772" lon="7.895964813016411"><ele>268.66666666666663</ele><time>2026-03-28T10:26:12Z</time></trkpt><trkpt lat="44.86219788931494" lon="7.89586655431846"><ele>269.0</ele><time>2026-03-28T10:26:13Z</time></trkpt><trkpt lat="44.86215477298326" lon="7.895776336754255"><ele>269.3333333333333</ele><time>2026-03-28T10:26:14Z</time></trkpt><trkpt lat="44.86209515338139" lon="7.895724836470804"><ele>269.6666666666667</ele><time>2026-03-28T10:26:15Z</time></trkpt><trkpt lat="44.86202724390135" lon="7.895708938187033"><ele>270.0</ele><time>2026-03-28T10:26:16Z</time></trkpt><trkpt lat="44.86195763936446" lon="7.8957313053796945"><ele>270.0</ele><time>2026-03-28T10:26:17Z</time></trkpt><trkpt lat="44.86188958686319" lon="7.895788749007186"><ele>270.0</ele><time>2026-03-28T10:26:18Z</time></trkpt><trkpt lat="44.86184394186237" lon="7.895872760252414"><ele>270.0</ele><time>2026-03-28T10:26:19Z</time></trkpt><trkpt lat="44.86180233239453" lon="7.895962030438177"><ele>270.0</ele><time>2026-03-28T10:26:20Z</time></trkpt><trkpt lat="44.86174460640531" lon="7.89605208142306"><ele>270.0</ele><time>2026-03-28T10:26:21Z</time></trkpt><trkpt lat="44.86166941261646" lon="7.896134374576253"><ele>270.0</ele><time>2026-03-28T10:26:22Z</time></trkpt><trkpt lat="44.861567760548326" lon="7.896145792279325"><ele>269.8</ele><time>2026-03-28T10:26:23Z</time></trkpt><trkpt lat="44.86146775122823" lon="7.8962079034241945"><ele>269.6</ele><time>2026-03-28T10:26:24Z</time></trkpt><trkpt lat="44.86137312719101" lon="7.896273648371415"><ele>269.4</ele><time>2026-03-28T10:26:25Z</time></trkpt><trkpt lat="44.86128831053282" lon="7.896340236030242"><ele>269.2</ele><time>2026-03-28T10:26:26Z</time></trkpt><trkpt lat="44.86119577713171" lon="7.896430913870786"><ele>269.0</ele><time>2026-03-28T10:26:27Z</time></trkpt><trkpt lat="44.86110958495288" lon="7.896534332760516"><ele>269.0</ele><time>2026-03-28T10:26:28Z</time></trkpt><trkpt lat="44.861036273195424" lon="7.896659780855195"><ele>269.0</ele><time>2026-03-28T10:26:29Z</time></trkpt><trkpt lat="44.86096497852963" lon="7.896788143982091"><ele>269.0</ele><time>2026-03-28T10:26:30Z</time></trkpt><trkpt lat="44.8608922922076" lon="7.896915918294678"><ele>269.0</ele><time>2026-03-28T10:26:31Z</time></trkpt><trkpt lat="44.86080111709525" lon="7.897071266965166"><ele>269.0</ele><time>2026-03-28T10:26:32Z</time></trkpt><trkpt lat="44.860723776184706" lon="7.897237422701845"><ele>269.0</ele><time>2026-03-28T10:26:33Z</time></trkpt><trkpt lat="44.860647442454315" lon="7.897396742042922"><ele>269.0</ele><time>2026-03-28T10:26:34Z</time></trkpt><trkpt lat="44.86056757906434" lon="7.897561877429669"><ele>269.0</ele><time>2026-03-28T10:26:35Z</time></trkpt><trkpt lat="44.860487189681926" lon="7.897726212374348"><ele>269.5</ele><time>2026-03-28T10:26:36Z</time></trkpt><trkpt lat="44.86040760221011" lon="7.897893468342973"><ele>270.0</ele><time>2026-03-28T10:26:37Z</time></trkpt><trkpt lat="44.860330648167064" lon="7.898055664901285"><ele>270.5</ele><time>2026-03-28T10:26:38Z</time></trkpt><trkpt lat="44.86026222620185" lon="7.898200933699288"><ele>271.0</ele><time>2026-03-28T10:26:39Z</time></trkpt><trkpt lat="44.86019849436102" lon="7.89833212275699"><ele>270.6</ele><time>2026-03-28T10:26:40Z</time></trkpt><trkpt lat="44.86013838209596" lon="7.898458444539086"><ele>270.20000000000005</ele><time>2026-03-28T10:26:41Z</time></trkpt><trkpt lat="44.860083122061816" lon="7.898574295145664"><ele>269.79999999999995</ele><time>2026-03-28T10:26:42Z</time></trkpt><trkpt lat="44.860032710518475" lon="7.898682938312435"><ele>269.4</ele><time>2026-03-28T10:26:43Z</time></trkpt><trkpt lat="44.85998343376194" lon="7.898785122184828"><ele>269.0</ele><time>2026-03-28T10:26:44Z</time></trkpt><trkpt lat="44.859931935216544" lon="7.898887442034421"><ele>269.0</ele><time>2026-03-28T10:26:45Z</time></trkpt><trkpt lat="44.859881696694295" lon="7.8989820959570105"><ele>269.0</ele><time>2026-03-28T10:26:46Z</time></trkpt><trkpt lat="44.859838594788634" lon="7.8990700890982914"><ele>269.0</ele><time>2026-03-28T10:26:47Z</time></trkpt><trkpt lat="44.85979555541746" lon="7.899149738056461"><ele>269.0</ele><time>2026-03-28T10:26:48Z</time></trkpt><trkpt lat="44.85975761324345" lon="7.899221309049103"><ele>269.0</ele><time>2026-03-28T10:26:49Z</time></trkpt><trkpt lat="44.85968525258064" lon="7.8993539346133375"><ele>269.0</ele><time>2026-03-28T10:26:51Z</time></trkpt><trkpt lat="44.85962555475833" lon="7.899462680319995"><ele>270.2</ele><time>2026-03-28T10:26:53Z</time></trkpt><trkpt lat="44.85956128136655" lon="7.899578134445592"><ele>271.4</ele><time>2026-03-28T10:26:56Z</time></trkpt><trkpt lat="44.859488988010796" lon="7.899702939290292"><ele>272.6</ele><time>2026-03-28T10:26:58Z</time></trkpt><trkpt lat="44.85941588766818" lon="7.899822913436254"><ele>273.8</ele><time>2026-03-28T10:27:00Z</time></trkpt><trkpt lat="44.85936223816478" lon="7.899914872105441"><ele>275.0</ele><time>2026-03-28T10:27:02Z</time></trkpt><trkpt lat="44.859307685765266" lon="7.900009806478139"><ele>274.6666666666667</ele><time>2026-03-28T10:27:04Z</time></trkpt><trkpt lat="44.85924353056258" lon="7.9001173279360595"><ele>274.33333333333337</ele><time>2026-03-28T10:27:06Z</time></trkpt><trkpt lat="44.85917098659981" lon="7.900247729602794"><ele>274.0</ele><time>2026-03-28T10:27:08Z</time></trkpt><trkpt lat="44.859130771014584" lon="7.900322299449305"><ele>273.6666666666667</ele><time>2026-03-28T10:27:09Z</time></trkpt><trkpt lat="44.8590795875598" lon="7.900420817494321"><ele>273.3333333333333</ele><time>2026-03-28T10:27:11Z</time></trkpt><trkpt lat="44.859036022067606" lon="7.90051150439333"><ele>273.0</ele><time>2026-03-28T10:28:02Z</time></trkpt><trkpt lat="44.85898337981648" lon="7.900614611338156"><ele>273.0</ele><time>2026-03-28T10:28:04Z</time></trkpt><trkpt lat="44.85893372202748" lon="7.90075631786309"><ele>273.0</ele><time>2026-03-28T10:28:05Z</time></trkpt><trkpt lat="44.858866625343154" lon="7.900874212502001"><ele>273.0</ele><time>2026-03-28T10:28:06Z</time></trkpt><trkpt lat="44.8588197362969" lon="7.901025959334493"><ele>273.0</ele><time>2026-03-28T10:28:07Z</time></trkpt><trkpt lat="44.85875622118399" lon="7.901179696080569"><ele>274.5</ele><time>2026-03-28T10:28:08Z</time></trkpt><trkpt lat="44.85869293049846" lon="7.901338947095435"><ele>276.0</ele><time>2026-03-28T10:28:09Z</time></trkpt><trkpt lat="44.858626759112205" lon="7.901514516180926"><ele>277.5</ele><time>2026-03-28T10:28:10Z</time></trkpt><trkpt lat="44.85855086172426" lon="7.901706094101794"><ele>279.0</ele><time>2026-03-28T10:28:11Z</time></trkpt><trkpt lat="44.858473129813085" lon="7.901908497318089"><ele>277.0</ele><time>2026-03-28T10:28:12Z</time></trkpt><trkpt lat="44.85839962007827" lon="7.902106612348541"><ele>275.0</ele><time>2026-03-28T10:28:13Z</time></trkpt><trkpt lat="44.85832437490767" lon="7.902307726624458"><ele>273.0</ele><time>2026-03-28T10:28:14Z</time></trkpt><trkpt lat="44.858243916125964" lon="7.9025179480208285"><ele>275.0</ele><time>2026-03-28T10:28:15Z</time></trkpt><trkpt lat="44.85815916838663" lon="7.902742239756656"><ele>277.0</ele><time>2026-03-28T10:28:16Z</time></trkpt><trkpt lat="44.85807050421446" lon="7.902977421965896"><ele>279.0</ele><time>2026-03-28T10:28:17Z</time></trkpt><trkpt lat="44.85798408134328" lon="7.903210848666579"><ele>280.3333333333333</ele><time>2026-03-28T10:28:18Z</time></trkpt><trkpt lat="44.85790164545843" lon="7.903428968044735"><ele>281.66666666666663</ele><time>2026-03-28T10:28:19Z</time></trkpt><trkpt lat="44.85782153811274" lon="7.903644562912552"><ele>283.0</ele><time>2026-03-28T10:28:20Z</time></trkpt><trkpt lat="44.857740281412404" lon="7.9038621797609485"><ele>283.0</ele><time>2026-03-28T10:28:21Z</time></trkpt><trkpt lat="44.8576585565346" lon="7.904080341687047"><ele>283.0</ele><time>2026-03-28T10:28:22Z</time></trkpt><trkpt lat="44.85757749068043" lon="7.904298395131271"><ele>283.0</ele><time>2026-03-28T10:28:23Z</time></trkpt><trkpt lat="44.85749629429735" lon="7.904502927402816"><ele>281.0</ele><time>2026-03-28T10:28:24Z</time></trkpt><trkpt lat="44.85741001173094" lon="7.90469921316329"><ele>279.0</ele><time>2026-03-28T10:28:25Z</time></trkpt><trkpt lat="44.857313026808306" lon="7.904888180539468"><ele>277.0</ele><time>2026-03-28T10:28:26Z</time></trkpt><trkpt lat="44.857188039270774" lon="7.905048071760214"><ele>277.3333333333333</ele><time>2026-03-28T10:28:27Z</time></trkpt><trkpt lat="44.85707107019902" lon="7.905229874228536"><ele>277.6666666666667</ele><time>2026-03-28T10:28:28Z</time></trkpt><trkpt lat="44.856913371096624" lon="7.905356459157914"><ele>278.0</ele><time>2026-03-28T10:28:29Z</time></trkpt><trkpt lat="44.85675894469965" lon="7.905498945064679"><ele>278.0</ele><time>2026-03-28T10:28:30Z</time></trkpt><trkpt lat="44.85659424918685" lon="7.905637888337943"><ele>278.0</ele><time>2026-03-28T10:28:31Z</time></trkpt><trkpt lat="44.85643191129999" lon="7.905803561210159"><ele>278.0</ele><time>2026-03-28T10:28:32Z</time></trkpt><trkpt lat="44.85626042116807" lon="7.905935972648569"><ele>278.6666666666667</ele><time>2026-03-28T10:28:33Z</time></trkpt><trkpt lat="44.85609411091533" lon="7.906080592115583"><ele>279.3333333333333</ele><time>2026-03-28T10:28:34Z</time></trkpt><trkpt lat="44.855930923759146" lon="7.906225178339586"><ele>280.0</ele><time>2026-03-28T10:28:35Z</time></trkpt><trkpt lat="44.85576762570481" lon="7.906367947208676"><ele>280.0</ele><time>2026-03-28T10:28:36Z</time></trkpt><trkpt lat="44.85560642631426" lon="7.9065076659775135"><ele>280.0</ele><time>2026-03-28T10:28:37Z</time></trkpt><trkpt lat="44.85544447044877" lon="7.906646637221143"><ele>280.0</ele><time>2026-03-28T10:28:38Z</time></trkpt><trkpt lat="44.85528369666407" lon="7.906780499402162"><ele>279.0</ele><time>2026-03-28T10:28:39Z</time></trkpt><trkpt lat="44.85512128755873" lon="7.9069104237143835"><ele>278.0</ele><time>2026-03-28T10:28:40Z</time></trkpt><trkpt lat="44.85496380978527" lon="7.90703329669906"><ele>277.0</ele><time>2026-03-28T10:28:41Z</time></trkpt><trkpt lat="44.85481088104579" lon="7.907142691625565"><ele>277.0</ele><time>2026-03-28T10:28:42Z</time></trkpt><trkpt lat="44.85465739478608" lon="7.907246849949979"><ele>277.0</ele><time>2026-03-28T10:28:43Z</time></trkpt><trkpt lat="44.854506012121284" lon="7.90734092871992"><ele>277.0</ele><time>2026-03-28T10:28:44Z</time></trkpt><trkpt lat="44.85434660429264" lon="7.907440171362537"><ele>275.3333333333333</ele><time>2026-03-28T10:28:45Z</time></trkpt><trkpt lat="44.85418725885051" lon="7.907541372131166"><ele>273.6666666666667</ele><time>2026-03-28T10:28:46Z</time></trkpt><trkpt lat="44.85402337377185" lon="7.907642214562295"><ele>272.0</ele><time>2026-03-28T10:28:47Z</time></trkpt><trkpt lat="44.85385100967338" lon="7.907755305805342"><ele>274.33333333333337</ele><time>2026-03-28T10:28:48Z</time></trkpt><trkpt lat="44.85367597709147" lon="7.907865287059608"><ele>276.6666666666667</ele><time>2026-03-28T10:28:49Z</time></trkpt><trkpt lat="44.85349971648455" lon="7.907974403384307"><ele>279.0</ele><time>2026-03-28T10:28:50Z</time></trkpt><trkpt lat="44.853322716019505" lon="7.908085356397653"><ele>279.0</ele><time>2026-03-28T10:28:51Z</time></trkpt><trkpt lat="44.853141008705535" lon="7.908192800365901"><ele>279.0</ele><time>2026-03-28T10:28:52Z</time></trkpt><trkpt lat="44.85297190622711" lon="7.908288394143143"><ele>279.0</ele><time>2026-03-28T10:28:53Z</time></trkpt><trkpt lat="44.85280214245432" lon="7.908361734377733"><ele>278.0</ele><time>2026-03-28T10:28:54Z</time></trkpt><trkpt lat="44.85262766410881" lon="7.9084167483931616"><ele>277.0</ele><time>2026-03-28T10:28:55Z</time></trkpt><trkpt lat="44.85244821782549" lon="7.908431940594942"><ele>276.0</ele><time>2026-03-28T10:28:56Z</time></trkpt><trkpt lat="44.852270924133514" lon="7.9084655455356"><ele>276.0</ele><time>2026-03-28T10:28:57Z</time></trkpt><trkpt lat="44.8520983678799" lon="7.908498252498796"><ele>276.0</ele><time>2026-03-28T10:28:58Z</time></trkpt><trkpt lat="44.851935795677534" lon="7.908528692766525"><ele>276.0</ele><time>2026-03-28T10:28:59Z</time></trkpt><trkpt lat="44.85178065747352" lon="7.9085572009139815"><ele>275.25</ele><time>2026-03-28T10:29:00Z</time></trkpt><trkpt lat="44.85163871378312" lon="7.908583284444308"><ele>274.5</ele><time>2026-03-28T10:29:01Z</time></trkpt><trkpt lat="44.851515030364766" lon="7.908626018302496"><ele>273.75</ele><time>2026-03-28T10:29:02Z</time></trkpt><trkpt lat="44.85141012556953" lon="7.908639622357441"><ele>273.0</ele><time>2026-03-28T10:29:03Z</time></trkpt><trkpt lat="44.851336035670776" lon="7.908631864668205"><ele>273.0</ele><time>2026-03-28T10:29:04Z</time></trkpt><trkpt lat="44.8512505024592" lon="7.908843452789136"><ele>273.0</ele><time>2026-03-28T10:29:06Z</time></trkpt><trkpt lat="44.85120173376392" lon="7.909003421237152"><ele>273.0</ele><time>2026-03-28T10:29:07Z</time></trkpt><trkpt lat="44.85112599182592" lon="7.909128621125627"><ele>273.0</ele><time>2026-03-28T10:29:08Z</time></trkpt><trkpt lat="44.85106270420088" lon="7.909267597050377"><ele>274.0</ele><time>2026-03-28T10:29:09Z</time></trkpt><trkpt lat="44.85099313060615" lon="7.909417854674274"><ele>275.0</ele><time>2026-03-28T10:29:10Z</time></trkpt><trkpt lat="44.85092080692489" lon="7.909575049243357"><ele>276.0</ele><time>2026-03-28T10:29:11Z</time></trkpt><trkpt lat="44.85084778120972" lon="7.909733381756213"><ele>277.0</ele><time>2026-03-28T10:29:12Z</time></trkpt><trkpt lat="44.85077387334053" lon="7.909891859077214"><ele>278.4</ele><time>2026-03-28T10:29:13Z</time></trkpt><trkpt lat="44.850700726146634" lon="7.910048705247752"><ele>279.79999999999995</ele><time>2026-03-28T10:29:14Z</time></trkpt><trkpt lat="44.85064286653672" lon="7.910173744388963"><ele>281.2</ele><time>2026-03-28T10:29:15Z</time></trkpt><trkpt lat="44.85060138590967" lon="7.910291538920191"><ele>282.59999999999997</ele><time>2026-03-28T10:29:16Z</time></trkpt><trkpt lat="44.85060189693008" lon="7.910409889326573"><ele>284.0</ele><time>2026-03-28T10:29:17Z</time></trkpt><trkpt lat="44.850623093291794" lon="7.910511849352001"><ele>284.0</ele><time>2026-03-28T10:29:18Z</time></trkpt><trkpt lat="44.85068080348793" lon="7.910612528514583"><ele>284.0</ele><time>2026-03-28T10:29:19Z</time></trkpt><trkpt lat="44.8507539010498" lon="7.910710720770589"><ele>284.0</ele><time>2026-03-28T10:29:20Z</time></trkpt><trkpt lat="44.850823368966566" lon="7.910829855564152"><ele>284.0</ele><time>2026-03-28T10:29:21Z</time></trkpt><trkpt lat="44.85089936251182" lon="7.91095708788756"><ele>284.0</ele><time>2026-03-28T10:29:22Z</time></trkpt><trkpt lat="44.85096529138242" lon="7.91105151801505"><ele>284.0</ele><time>2026-03-28T10:29:23Z</time></trkpt><trkpt lat="44.85101206898549" lon="7.911142358331505"><ele>284.0</ele><time>2026-03-28T10:29:24Z</time></trkpt><trkpt lat="44.85103659650131" lon="7.91124148047065"><ele>284.0</ele><time>2026-03-28T10:29:25Z</time></trkpt><trkpt lat="44.85101990707188" lon="7.911405396148952"><ele>284.0</ele><time>2026-03-28T10:29:27Z</time></trkpt><trkpt lat="44.85094658761866" lon="7.911506144240934"><ele>284.0</ele><time>2026-03-28T10:29:29Z</time></trkpt><trkpt lat="44.85081365943572" lon="7.9115183553522215"><ele>286.0</ele><time>2026-03-28T10:29:31Z</time></trkpt><trkpt lat="44.850731035408536" lon="7.911518790302611"><ele>288.0</ele><time>2026-03-28T10:29:32Z</time></trkpt><trkpt lat="44.850624199950694" lon="7.9115169840703725"><ele>290.0</ele><time>2026-03-28T10:29:33Z</time></trkpt><trkpt lat="44.850504294235186" lon="7.911513517015042"><ele>292.0</ele><time>2026-03-28T10:29:34Z</time></trkpt><trkpt lat="44.85039648110163" lon="7.911516444784392"><ele>294.0</ele><time>2026-03-28T10:29:35Z</time></trkpt><trkpt lat="44.85029675750712" lon="7.911556244164056"><ele>294.0</ele><time>2026-03-28T10:29:36Z</time></trkpt><trkpt lat="44.85017931085801" lon="7.9115831440361175"><ele>294.0</ele><time>2026-03-28T10:29:37Z</time></trkpt><trkpt lat="44.85011487048301" lon="7.911696540788709"><ele>294.0</ele><time>2026-03-28T10:29:38Z</time></trkpt><trkpt lat="44.850049746224755" lon="7.911819229341359"><ele>294.0</ele><time>2026-03-28T10:29:39Z</time></trkpt><trkpt lat="44.849981307572975" lon="7.911953472952602"><ele>294.0</ele><time>2026-03-28T10:29:40Z</time></trkpt><trkpt lat="44.84989377376793" lon="7.9120890646733875"><ele>295.75</ele><time>2026-03-28T10:29:41Z</time></trkpt><trkpt lat="44.84982668094986" lon="7.9122444248462855"><ele>297.5</ele><time>2026-03-28T10:29:42Z</time></trkpt><trkpt lat="44.84976285051457" lon="7.912418144082862"><ele>299.25</ele><time>2026-03-28T10:29:43Z</time></trkpt><trkpt lat="44.84971204907677" lon="7.9126118216521135"><ele>301.0</ele><time>2026-03-28T10:29:44Z</time></trkpt><trkpt lat="44.84965790875012" lon="7.912811724361847"><ele>301.75</ele><time>2026-03-28T10:29:45Z</time></trkpt><trkpt lat="44.849602124060866" lon="7.9129918900539655"><ele>302.5</ele><time>2026-03-28T10:29:46Z</time></trkpt><trkpt lat="44.849543634235474" lon="7.913172932559829"><ele>303.25</ele><time>2026-03-28T10:29:47Z</time></trkpt><trkpt lat="44.84948503810395" lon="7.9133557443993645"><ele>304.0</ele><time>2026-03-28T10:29:48Z</time></trkpt><trkpt lat="44.849430572899465" lon="7.913531762456747"><ele>304.0</ele><time>2026-03-28T10:29:49Z</time></trkpt><trkpt lat="44.84937632906991" lon="7.913690688057093"><ele>304.0</ele><time>2026-03-28T10:29:50Z</time></trkpt><trkpt lat="44.84932406858194" lon="7.913837612885163"><ele>304.0</ele><time>2026-03-28T10:29:51Z</time></trkpt><trkpt lat="44.84927202655833" lon="7.913975828378213"><ele>304.0</ele><time>2026-03-28T10:29:52Z</time></trkpt><trkpt lat="44.84918904378412" lon="7.914073432381257"><ele>304.25</ele><time>2026-03-28T10:29:53Z</time></trkpt><trkpt lat="44.84909719017286" lon="7.914134161999617"><ele>304.5</ele><time>2026-03-28T10:29:54Z</time></trkpt><trkpt lat="44.848995718080474" lon="7.914173706335149"><ele>304.75</ele><time>2026-03-28T10:29:55Z</time></trkpt><trkpt lat="44.84887295755169" lon="7.914227678908783"><ele>305.0</ele><time>2026-03-28T10:29:56Z</time></trkpt><trkpt lat="44.848734447593394" lon="7.914285690807574"><ele>305.0</ele><time>2026-03-28T10:29:57Z</time></trkpt><trkpt lat="44.84858834709181" lon="7.914351373108256"><ele>305.0</ele><time>2026-03-28T10:29:58Z</time></trkpt><trkpt lat="44.84842872056594" lon="7.9144416402147355"><ele>305.0</ele><time>2026-03-28T10:29:59Z</time></trkpt><trkpt lat="44.848282273837555" lon="7.9145025969964085"><ele>306.5</ele><time>2026-03-28T10:30:00Z</time></trkpt><trkpt lat="44.84814711021766" lon="7.9145669246998205"><ele>308.0</ele><time>2026-03-28T10:30:01Z</time></trkpt><trkpt lat="44.848015569593834" lon="7.914619087099221"><ele>309.5</ele><time>2026-03-28T10:30:02Z</time></trkpt><trkpt lat="44.84789063365952" lon="7.914675388398956"><ele>311.0</ele><time>2026-03-28T10:30:03Z</time></trkpt><trkpt lat="44.84777786738128" lon="7.914734377727262"><ele>311.0</ele><time>2026-03-28T10:30:04Z</time></trkpt><trkpt lat="44.84767602170384" lon="7.914802900230008"><ele>311.0</ele><time>2026-03-28T10:30:05Z</time></trkpt><trkpt lat="44.84760391256567" lon="7.914900978822166"><ele>311.0</ele><time>2026-03-28T10:30:06Z</time></trkpt><trkpt lat="44.84754410631814" lon="7.915040279422775"><ele>311.0</ele><time>2026-03-28T10:30:07Z</time></trkpt><trkpt lat="44.84749170412376" lon="7.915209172003118"><ele>311.6</ele><time>2026-03-28T10:30:08Z</time></trkpt><trkpt lat="44.84744059974607" lon="7.9153871966737475"><ele>312.20000000000005</ele><time>2026-03-28T10:30:09Z</time></trkpt><trkpt lat="44.84739550034393" lon="7.915544491012501"><ele>312.79999999999995</ele><time>2026-03-28T10:30:10Z</time></trkpt><trkpt lat="44.84736051041288" lon="7.915676177947048"><ele>313.4</ele><time>2026-03-28T10:30:11Z</time></trkpt><trkpt lat="44.847330648515666" lon="7.915794697569212"><ele>314.0</ele><time>2026-03-28T10:30:12Z</time></trkpt><trkpt lat="44.84730973918049" lon="7.915898731794723"><ele>314.0</ele><time>2026-03-28T10:30:13Z</time></trkpt><trkpt lat="44.84726161007618" lon="7.916002620129116"><ele>314.0</ele><time>2026-03-28T10:30:15Z</time></trkpt><trkpt lat="44.84725440085743" lon="7.916095092392354"><ele>314.0</ele><time>2026-03-28T10:30:18Z</time></trkpt><trkpt lat="44.84618417738385" lon="7.9180249626819394"><ele>314.0</ele><time>2026-03-28T10:31:26Z</time></trkpt><trkpt lat="44.84612141555233" lon="7.918159270315218"><ele>314.0</ele><time>2026-03-28T10:31:27Z</time></trkpt><trkpt lat="44.8460619580506" lon="7.918285136142776"><ele>314.0</ele><time>2026-03-28T10:31:28Z</time></trkpt><trkpt lat="44.846018350147375" lon="7.918385617323085"><ele>314.0</ele><time>2026-03-28T10:31:29Z</time></trkpt><trkpt lat="44.8459767969704" lon="7.91849414200056"><ele>314.0</ele><time>2026-03-28T10:31:30Z</time></trkpt><trkpt lat="44.84591673106945" lon="7.918627916421199"><ele>316.25</ele><time>2026-03-28T10:31:31Z</time></trkpt><trkpt lat="44.84585361038391" lon="7.918778163523852"><ele>318.5</ele><time>2026-03-28T10:31:32Z</time></trkpt><trkpt lat="44.845784253891146" lon="7.918933534104589"><ele>320.75</ele><time>2026-03-28T10:31:33Z</time></trkpt><trkpt lat="44.845712945295176" lon="7.919085620974187"><ele>323.0</ele><time>2026-03-28T10:31:34Z</time></trkpt><trkpt lat="44.84562661976878" lon="7.9192278017336575"><ele>321.33333333333337</ele><time>2026-03-28T10:31:35Z</time></trkpt><trkpt lat="44.84549819905597" lon="7.919342580512549"><ele>319.6666666666667</ele><time>2026-03-28T10:31:36Z</time></trkpt><trkpt lat="44.84539002503394" lon="7.919495971221675"><ele>318.0</ele><time>2026-03-28T10:31:37Z</time></trkpt><trkpt lat="44.84527410656297" lon="7.919631822598206"><ele>318.0</ele><time>2026-03-28T10:31:38Z</time></trkpt><trkpt lat="44.84515684039141" lon="7.919767801272912"><ele>318.0</ele><time>2026-03-28T10:31:39Z</time></trkpt><trkpt lat="44.845034991019496" lon="7.919905318249956"><ele>318.0</ele><time>2026-03-28T10:31:40Z</time></trkpt><trkpt lat="44.844905434507055" lon="7.920052947627933"><ele>318.6666666666667</ele><time>2026-03-28T10:31:41Z</time></trkpt><trkpt lat="44.844762923168474" lon="7.920190874292161"><ele>319.33333333333337</ele><time>2026-03-28T10:31:42Z</time></trkpt><trkpt lat="44.8446269918138" lon="7.920343601786666"><ele>320.0</ele><time>2026-03-28T10:31:43Z</time></trkpt><trkpt lat="44.84449723184296" lon="7.920491238303971"><ele>320.0</ele><time>2026-03-28T10:31:44Z</time></trkpt><trkpt lat="44.844375318832306" lon="7.920629946908589"><ele>320.0</ele><time>2026-03-28T10:31:45Z</time></trkpt><trkpt lat="44.84425960098637" lon="7.92076160690132"><ele>320.0</ele><time>2026-03-28T10:31:46Z</time></trkpt><trkpt lat="44.84415225914933" lon="7.920883736903873"><ele>320.0</ele><time>2026-03-28T10:31:47Z</time></trkpt><trkpt lat="44.84404771657616" lon="7.921002681974933"><ele>321.5</ele><time>2026-03-28T10:31:48Z</time></trkpt><trkpt lat="44.84394546127569" lon="7.921119024548602"><ele>323.0</ele><time>2026-03-28T10:31:49Z</time></trkpt><trkpt lat="44.84385432383042" lon="7.9212502896774035"><ele>324.5</ele><time>2026-03-28T10:31:50Z</time></trkpt><trkpt lat="44.84375381082788" lon="7.921355232513674"><ele>326.0</ele><time>2026-03-28T10:31:51Z</time></trkpt><trkpt lat="44.84366788025869" lon="7.921469145316981"><ele>326.0</ele><time>2026-03-28T10:31:52Z</time></trkpt><trkpt lat="44.84358239742872" lon="7.921563114413663"><ele>326.0</ele><time>2026-03-28T10:31:53Z</time></trkpt><trkpt lat="44.84350969175658" lon="7.921659276245642"><ele>326.0</ele><time>2026-03-28T10:31:54Z</time></trkpt><trkpt lat="44.84343653976576" lon="7.92174730441627"><ele>326.0</ele><time>2026-03-28T10:31:55Z</time></trkpt><trkpt lat="44.84336611621813" lon="7.921828989963705"><ele>326.0</ele><time>2026-03-28T10:31:56Z</time></trkpt><trkpt lat="44.84329677349822" lon="7.921911319977214"><ele>325.8</ele><time>2026-03-28T10:31:57Z</time></trkpt><trkpt lat="44.8432301065021" lon="7.922005405397102"><ele>325.6</ele><time>2026-03-28T10:31:58Z</time></trkpt><trkpt lat="44.84316504462811" lon="7.922111313312661"><ele>325.4</ele><time>2026-03-28T10:31:59Z</time></trkpt><trkpt lat="44.843108481386494" lon="7.922221793579171"><ele>325.2</ele><time>2026-03-28T10:32:00Z</time></trkpt><trkpt lat="44.843075057462954" lon="7.922342186713451"><ele>325.0</ele><time>2026-03-28T10:32:01Z</time></trkpt><trkpt lat="44.84305751421514" lon="7.922472677544761"><ele>324.4</ele><time>2026-03-28T10:32:02Z</time></trkpt><trkpt lat="44.843053345704135" lon="7.922613899068576"><ele>323.8</ele><time>2026-03-28T10:32:03Z</time></trkpt><trkpt lat="44.84305767176906" lon="7.92276081993778"><ele>323.20000000000005</ele><time>2026-03-28T10:32:04Z</time></trkpt><trkpt lat="44.84306789881556" lon="7.922902845102685"><ele>322.6</ele><time>2026-03-28T10:32:05Z</time></trkpt><trkpt lat="44.843072737436124" lon="7.923026116006637"><ele>322.0</ele><time>2026-03-28T10:32:06Z</time></trkpt><trkpt lat="44.84308138574006" lon="7.923141667095634"><ele>322.0</ele><time>2026-03-28T10:32:07Z</time></trkpt><trkpt lat="44.8430710534742" lon="7.9232343649536"><ele>322.0</ele><time>2026-03-28T10:32:08Z</time></trkpt><trkpt lat="44.84306445313885" lon="7.923383573327141"><ele>322.0</ele><time>2026-03-28T10:32:10Z</time></trkpt><trkpt lat="44.843050149838106" lon="7.9235393406004455"><ele>322.0</ele><time>2026-03-28T10:32:12Z</time></trkpt><trkpt lat="44.843037378791024" lon="7.923640388232975"><ele>322.0</ele><time>2026-03-28T10:32:13Z</time></trkpt><trkpt lat="44.84302332768421" lon="7.923739574811263"><ele>322.0</ele><time>2026-03-28T10:32:14Z</time></trkpt><trkpt lat="44.84299846822864" lon="7.923835249390571"><ele>321.66666666666663</ele><time>2026-03-28T10:32:15Z</time></trkpt><trkpt lat="44.8429690444191" lon="7.923939376481761"><ele>321.3333333333333</ele><time>2026-03-28T10:32:16Z</time></trkpt><trkpt lat="44.84293511922698" lon="7.924040508516342"><ele>321.0</ele><time>2026-03-28T10:32:17Z</time></trkpt><trkpt lat="44.84289783426327" lon="7.924132718439962"><ele>320.6666666666667</ele><time>2026-03-28T10:32:18Z</time></trkpt><trkpt lat="44.84285316748818" lon="7.924224314764496"><ele>320.33333333333337</ele><time>2026-03-28T10:32:19Z</time></trkpt><trkpt lat="44.84280694837727" lon="7.924324253481831"><ele>320.0</ele><time>2026-03-28T10:32:20Z</time></trkpt><trkpt lat="44.84277935291689" lon="7.924429540939384"><ele>319.83333333333337</ele><time>2026-03-28T10:32:21Z</time></trkpt><trkpt lat="44.84274044516138" lon="7.924519222375078"><ele>319.6666666666667</ele><time>2026-03-28T10:32:22Z</time></trkpt><trkpt lat="44.84271015361962" lon="7.924613813727894"><ele>319.5</ele><time>2026-03-28T10:32:23Z</time></trkpt><trkpt lat="44.84269458060579" lon="7.924705745066178"><ele>319.3333333333333</ele><time>2026-03-28T10:32:24Z</time></trkpt><trkpt lat="44.84268810019335" lon="7.924804089779062"><ele>319.16666666666663</ele><time>2026-03-28T10:32:25Z</time></trkpt><trkpt lat="44.84271385561418" lon="7.924973887695652"><ele>319.0</ele><time>2026-03-28T10:32:27Z</time></trkpt><trkpt lat="44.84274925633467" lon="7.925069296060172"><ele>319.3333333333333</ele><time>2026-03-28T10:32:28Z</time></trkpt><trkpt lat="44.842799105030274" lon="7.925168496342543"><ele>319.66666666666663</ele><time>2026-03-28T10:32:29Z</time></trkpt><trkpt lat="44.84286020221256" lon="7.9252581391798"><ele>320.0</ele><time>2026-03-28T10:32:30Z</time></trkpt><trkpt lat="44.84293387113958" lon="7.925343436370038"><ele>320.3333333333333</ele><time>2026-03-28T10:32:31Z</time></trkpt><trkpt lat="44.843009109024464" lon="7.925420854631089"><ele>320.6666666666667</ele><time>2026-03-28T10:32:32Z</time></trkpt><trkpt lat="44.8430610268805" lon="7.925506854771756"><ele>321.0</ele><time>2026-03-28T10:32:33Z</time></trkpt><trkpt lat="44.84314203786656" lon="7.925569353393408"><ele>321.0</ele><time>2026-03-28T10:32:34Z</time></trkpt><trkpt lat="44.843208006900085" lon="7.9256663225534005"><ele>321.0</ele><time>2026-03-28T10:32:35Z</time></trkpt><trkpt lat="44.8432579548617" lon="7.925764413999033"><ele>321.0</ele><time>2026-03-28T10:32:36Z</time></trkpt><trkpt lat="44.843307223709225" lon="7.925874295045325"><ele>321.0</ele><time>2026-03-28T10:32:37Z</time></trkpt><trkpt lat="44.843350084252485" lon="7.925990595293028"><ele>321.0</ele><time>2026-03-28T10:32:38Z</time></trkpt><trkpt lat="44.843389576823874" lon="7.926118865318708"><ele>322.4</ele><time>2026-03-28T10:32:39Z</time></trkpt><trkpt lat="44.84341981070534" lon="7.926253773548836"><ele>323.8</ele><time>2026-03-28T10:32:40Z</time></trkpt><trkpt lat="44.84343990522971" lon="7.926383395500948"><ele>325.2</ele><time>2026-03-28T10:32:41Z</time></trkpt><trkpt lat="44.843445881249494" lon="7.926514985441097"><ele>326.59999999999997</ele><time>2026-03-28T10:32:42Z</time></trkpt><trkpt lat="44.843450701552186" lon="7.926648513937249"><ele>328.0</ele><time>2026-03-28T10:32:43Z</time></trkpt><trkpt lat="44.84344369518892" lon="7.926790823369409"><ele>328.4</ele><time>2026-03-28T10:32:44Z</time></trkpt><trkpt lat="44.84343433782673" lon="7.926937322822218"><ele>328.79999999999995</ele><time>2026-03-28T10:32:45Z</time></trkpt><trkpt lat="44.84341962940028" lon="7.9270735480245715"><ele>329.2</ele><time>2026-03-28T10:32:46Z</time></trkpt><trkpt lat="44.843416998029404" lon="7.927198757038043"><ele>329.6</ele><time>2026-03-28T10:32:47Z</time></trkpt><trkpt lat="44.843427263569616" lon="7.927315214208065"><ele>330.0</ele><time>2026-03-28T10:32:48Z</time></trkpt><trkpt lat="44.84343768682978" lon="7.927425820884652"><ele>329.5</ele><time>2026-03-28T10:32:49Z</time></trkpt><trkpt lat="44.84346679264734" lon="7.927524481913451"><ele>329.0</ele><time>2026-03-28T10:32:50Z</time></trkpt><trkpt lat="44.84350995975124" lon="7.927624187569183"><ele>328.5</ele><time>2026-03-28T10:32:51Z</time></trkpt><trkpt lat="44.84357217780772" lon="7.927725118041555"><ele>328.0</ele><time>2026-03-28T10:32:52Z</time></trkpt><trkpt lat="44.84364865589432" lon="7.9278171172733245"><ele>327.5</ele><time>2026-03-28T10:32:53Z</time></trkpt><trkpt lat="44.843720139425905" lon="7.927892967186954"><ele>327.0</ele><time>2026-03-28T10:32:54Z</time></trkpt><trkpt lat="44.84377696139894" lon="7.92798360049851"><ele>328.0</ele><time>2026-03-28T10:32:55Z</time></trkpt><trkpt lat="44.84384029632131" lon="7.928064628201754"><ele>329.0</ele><time>2026-03-28T10:32:56Z</time></trkpt><trkpt lat="44.843905016923145" lon="7.928147428811247"><ele>330.0</ele><time>2026-03-28T10:32:57Z</time></trkpt><trkpt lat="44.84397000127593" lon="7.928230567032765"><ele>331.0</ele><time>2026-03-28T10:32:58Z</time></trkpt><trkpt lat="44.84402648864449" lon="7.92830669001344"><ele>332.0</ele><time>2026-03-28T10:32:59Z</time></trkpt><trkpt lat="44.84409387405072" lon="7.928368642299873"><ele>333.0</ele><time>2026-03-28T10:33:00Z</time></trkpt><trkpt lat="44.84414551246999" lon="7.928459788717686"><ele>333.2</ele><time>2026-03-28T10:33:01Z</time></trkpt><trkpt lat="44.84421067779478" lon="7.928554460141362"><ele>333.4</ele><time>2026-03-28T10:33:02Z</time></trkpt><trkpt lat="44.84427508728339" lon="7.928639224842308"><ele>333.59999999999997</ele><time>2026-03-28T10:33:03Z</time></trkpt><trkpt lat="44.84434323096159" lon="7.928732993933657"><ele>333.79999999999995</ele><time>2026-03-28T10:33:04Z</time></trkpt><trkpt lat="44.8444062161272" lon="7.92883322998867"><ele>334.0</ele><time>2026-03-28T10:33:05Z</time></trkpt><trkpt lat="44.84446057262278" lon="7.928927113926661"><ele>334.4</ele><time>2026-03-28T10:33:06Z</time></trkpt><trkpt lat="44.8444889814883" lon="7.929031325361513"><ele>334.79999999999995</ele><time>2026-03-28T10:33:07Z</time></trkpt><trkpt lat="44.84452267246428" lon="7.929122230016582"><ele>335.20000000000005</ele><time>2026-03-28T10:33:08Z</time></trkpt><trkpt lat="44.8445769700159" lon="7.929227838237329"><ele>335.6</ele><time>2026-03-28T10:33:09Z</time></trkpt><trkpt lat="44.84461824490091" lon="7.929369489600809"><ele>336.0</ele><time>2026-03-28T10:33:10Z</time></trkpt><trkpt lat="44.844663819007486" lon="7.929515294095911"><ele>336.6</ele><time>2026-03-28T10:33:11Z</time></trkpt><trkpt lat="44.84470781120341" lon="7.929651370285904"><ele>337.20000000000005</ele><time>2026-03-28T10:33:12Z</time></trkpt><trkpt lat="44.84475508356938" lon="7.929791653298748"><ele>337.79999999999995</ele><time>2026-03-28T10:33:13Z</time></trkpt><trkpt lat="44.84480554053633" lon="7.929927042166007"><ele>338.4</ele><time>2026-03-28T10:33:14Z</time></trkpt><trkpt lat="44.844855381463184" lon="7.9300618692460105"><ele>339.0</ele><time>2026-03-28T10:33:15Z</time></trkpt><trkpt lat="44.84490049722997" lon="7.930185774050457"><ele>339.4</ele><time>2026-03-28T10:33:16Z</time></trkpt><trkpt lat="44.84494076673894" lon="7.9302936762506695"><ele>339.79999999999995</ele><time>2026-03-28T10:33:17Z</time></trkpt><trkpt lat="44.84498192017718" lon="7.930388332165522"><ele>340.20000000000005</ele><time>2026-03-28T10:33:18Z</time></trkpt><trkpt lat="44.84503157529186" lon="7.930532658367055"><ele>340.6</ele><time>2026-03-28T10:33:20Z</time></trkpt><trkpt lat="44.84499933047148" lon="7.930677531784989"><ele>341.0</ele><time>2026-03-28T10:33:22Z</time></trkpt><trkpt lat="44.84496622603966" lon="7.930755990002577"><ele>341.0</ele><time>2026-03-28T10:33:23Z</time></trkpt><trkpt lat="44.84491763170403" lon="7.930833683938491"><ele>341.0</ele><time>2026-03-28T10:33:24Z</time></trkpt><trkpt lat="44.844859545701475" lon="7.930901714484632"><ele>341.0</ele><time>2026-03-28T10:33:25Z</time></trkpt><trkpt lat="44.84479243142443" lon="7.930951107047188"><ele>341.0</ele><time>2026-03-28T10:33:26Z</time></trkpt><trkpt lat="44.84473388859909" lon="7.931033769994209"><ele>341.0</ele><time>2026-03-28T10:33:27Z</time></trkpt><trkpt lat="44.844658204044535" lon="7.9310928654093145"><ele>341.0</ele><time>2026-03-28T10:33:28Z</time></trkpt><trkpt lat="44.84459068315906" lon="7.931170654757202"><ele>340.6666666666667</ele><time>2026-03-28T10:33:29Z</time></trkpt><trkpt lat="44.844526944711646" lon="7.931250066111631"><ele>340.33333333333337</ele><time>2026-03-28T10:33:30Z</time></trkpt><trkpt lat="44.84446598148533" lon="7.931327987045993"><ele>340.0</ele><time>2026-03-28T10:33:31Z</time></trkpt><trkpt lat="44.84440225400608" lon="7.931406863223226"><ele>339.6666666666667</ele><time>2026-03-28T10:33:32Z</time></trkpt><trkpt lat="44.84433792458888" lon="7.931482395819749"><ele>339.3333333333333</ele><time>2026-03-28T10:33:33Z</time></trkpt><trkpt lat="44.84427773725894" lon="7.931555927976522"><ele>339.0</ele><time>2026-03-28T10:33:34Z</time></trkpt><trkpt lat="44.84421248350568" lon="7.931637825427853"><ele>339.3333333333333</ele><time>2026-03-28T10:33:35Z</time></trkpt><trkpt lat="44.84415014236369" lon="7.931715921878548"><ele>339.6666666666667</ele><time>2026-03-28T10:33:36Z</time></trkpt><trkpt lat="44.84408651368676" lon="7.93180081730769"><ele>340.0</ele><time>2026-03-28T10:33:37Z</time></trkpt><trkpt lat="44.8440210711634" lon="7.931881451679305"><ele>340.33333333333337</ele><time>2026-03-28T10:33:38Z</time></trkpt><trkpt lat="44.843954318801835" lon="7.931962202499807"><ele>340.6666666666667</ele><time>2026-03-28T10:33:39Z</time></trkpt><trkpt lat="44.84388782057682" lon="7.93204602409235"><ele>341.0</ele><time>2026-03-28T10:33:40Z</time></trkpt><trkpt lat="44.84381803901154" lon="7.932139672993188"><ele>341.0</ele><time>2026-03-28T10:33:41Z</time></trkpt><trkpt lat="44.843739589936725" lon="7.932226899484051"><ele>341.0</ele><time>2026-03-28T10:33:42Z</time></trkpt><trkpt lat="44.84364834449598" lon="7.9323070983585104"><ele>341.0</ele><time>2026-03-28T10:33:43Z</time></trkpt><trkpt lat="44.84357809038128" lon="7.932421570718934"><ele>341.0</ele><time>2026-03-28T10:33:44Z</time></trkpt><trkpt lat="44.84349313750248" lon="7.932507625542653"><ele>341.0</ele><time>2026-03-28T10:33:45Z</time></trkpt><trkpt lat="44.84341198699523" lon="7.9326115773483705"><ele>341.8</ele><time>2026-03-28T10:33:46Z</time></trkpt><trkpt lat="44.843330142561996" lon="7.9327080722342895"><ele>342.6</ele><time>2026-03-28T10:33:47Z</time></trkpt><trkpt lat="44.843251258170206" lon="7.932807272452045"><ele>343.4</ele><time>2026-03-28T10:33:48Z</time></trkpt><trkpt lat="44.843170204883656" lon="7.932903561387301"><ele>344.2</ele><time>2026-03-28T10:33:49Z</time></trkpt><trkpt lat="44.843087975485396" lon="7.933001725585937"><ele>345.0</ele><time>2026-03-28T10:33:50Z</time></trkpt><trkpt lat="44.84301237617207" lon="7.933106839227053"><ele>345.0</ele><time>2026-03-28T10:33:51Z</time></trkpt><trkpt lat="44.842938419344144" lon="7.933209050502768"><ele>345.0</ele><time>2026-03-28T10:33:52Z</time></trkpt><trkpt lat="44.8428718892242" lon="7.933305850152784"><ele>345.0</ele><time>2026-03-28T10:33:53Z</time></trkpt><trkpt lat="44.84281245297573" lon="7.933399702787388"><ele>345.0</ele><time>2026-03-28T10:33:54Z</time></trkpt><trkpt lat="44.842752782381595" lon="7.933492318105567"><ele>345.0</ele><time>2026-03-28T10:33:55Z</time></trkpt><trkpt lat="44.842694042147194" lon="7.933575810762011"><ele>344.6</ele><time>2026-03-28T10:33:56Z</time></trkpt><trkpt lat="44.84263372697005" lon="7.933672496808844"><ele>344.2</ele><time>2026-03-28T10:33:57Z</time></trkpt><trkpt lat="44.842582095002285" lon="7.933779000244637"><ele>343.79999999999995</ele><time>2026-03-28T10:33:58Z</time></trkpt><trkpt lat="44.8425397806546" lon="7.933898040931529"><ele>343.4</ele><time>2026-03-28T10:33:59Z</time></trkpt><trkpt lat="44.842505194728126" lon="7.934025555425918"><ele>343.0</ele><time>2026-03-28T10:34:00Z</time></trkpt><trkpt lat="44.84248752939735" lon="7.934155789097928"><ele>343.3333333333333</ele><time>2026-03-28T10:34:01Z</time></trkpt><trkpt lat="44.84248292073112" lon="7.934270508333129"><ele>343.66666666666663</ele><time>2026-03-28T10:34:02Z</time></trkpt><trkpt lat="44.842495118024644" lon="7.934375029659036"><ele>344.0</ele><time>2026-03-28T10:34:03Z</time></trkpt><trkpt lat="44.84252335921188" lon="7.934478807192532"><ele>344.3333333333333</ele><time>2026-03-28T10:34:04Z</time></trkpt><trkpt lat="44.84257210802855" lon="7.93457604195686"><ele>344.6666666666667</ele><time>2026-03-28T10:34:05Z</time></trkpt><trkpt lat="44.84263559767394" lon="7.9346647826915575"><ele>345.0</ele><time>2026-03-28T10:34:06Z</time></trkpt><trkpt lat="44.84269237466342" lon="7.934753280112207"><ele>345.1666666666667</ele><time>2026-03-28T10:34:07Z</time></trkpt><trkpt lat="44.84274479079367" lon="7.934845043313365"><ele>345.3333333333333</ele><time>2026-03-28T10:34:08Z</time></trkpt><trkpt lat="44.84278247966403" lon="7.934938796204871"><ele>345.5</ele><time>2026-03-28T10:34:09Z</time></trkpt><trkpt lat="44.84280639578708" lon="7.935036019892523"><ele>345.66666666666663</ele><time>2026-03-28T10:34:10Z</time></trkpt><trkpt lat="44.842821058528074" lon="7.935143901832389"><ele>345.8333333333333</ele><time>2026-03-28T10:34:11Z</time></trkpt><trkpt lat="44.842829509489896" lon="7.935255412791396"><ele>346.0</ele><time>2026-03-28T10:34:12Z</time></trkpt><trkpt lat="44.84283407468938" lon="7.935360245145162"><ele>346.16666666666663</ele><time>2026-03-28T10:34:13Z</time></trkpt><trkpt lat="44.84283347683678" lon="7.935540270888526"><ele>346.3333333333333</ele><time>2026-03-28T10:34:15Z</time></trkpt><trkpt lat="44.84283531792508" lon="7.935640566128912"><ele>346.5</ele><time>2026-03-28T10:34:16Z</time></trkpt><trkpt lat="44.8428387043773" lon="7.935742449061182"><ele>346.6666666666667</ele><time>2026-03-28T10:34:17Z</time></trkpt><trkpt lat="44.842843271881996" lon="7.935849777584339"><ele>346.83333333333337</ele><time>2026-03-28T10:34:18Z</time></trkpt><trkpt lat="44.84284354025274" lon="7.935948388046347"><ele>347.0</ele><time>2026-03-28T10:34:19Z</time></trkpt><trkpt lat="44.842842227413" lon="7.93604835397509"><ele>347.0</ele><time>2026-03-28T10:34:20Z</time></trkpt><trkpt lat="44.8428443296971" lon="7.936148656118182"><ele>347.0</ele><time>2026-03-28T10:34:21Z</time></trkpt><trkpt lat="44.842840386960205" lon="7.936246783348643"><ele>347.0</ele><time>2026-03-28T10:34:22Z</time></trkpt><trkpt lat="44.8428377230404" lon="7.93633878911586"><ele>347.0</ele><time>2026-03-28T10:34:23Z</time></trkpt><trkpt lat="44.84284077729404" lon="7.936505832989331"><ele>347.0</ele><time>2026-03-28T10:34:25Z</time></trkpt><trkpt lat="44.84284868934079" lon="7.936673994172099"><ele>347.0</ele><time>2026-03-28T10:34:27Z</time></trkpt><trkpt lat="44.842855539863095" lon="7.9368598791947145"><ele>346.83333333333337</ele><time>2026-03-28T10:34:29Z</time></trkpt><trkpt lat="44.84285860145801" lon="7.936955476703288"><ele>346.6666666666667</ele><time>2026-03-28T10:34:30Z</time></trkpt><trkpt lat="44.84286129659624" lon="7.937052618733019"><ele>346.5</ele><time>2026-03-28T10:34:31Z</time></trkpt><trkpt lat="44.84286251359187" lon="7.937143713756525"><ele>346.3333333333333</ele><time>2026-03-28T10:34:32Z</time></trkpt><trkpt lat="44.842859023806234" lon="7.937233133187438"><ele>346.16666666666663</ele><time>2026-03-28T10:34:33Z</time></trkpt><trkpt lat="44.84281482343543" lon="7.93739631438129"><ele>346.0</ele><time>2026-03-28T10:34:35Z</time></trkpt><trkpt lat="44.84280405703695" lon="7.937503338033084"><ele>346.66666666666663</ele><time>2026-03-28T10:34:36Z</time></trkpt><trkpt lat="44.84278307045308" lon="7.937606093324787"><ele>347.3333333333333</ele><time>2026-03-28T10:34:37Z</time></trkpt><trkpt lat="44.84277939487853" lon="7.937703456088173"><ele>348.0</ele><time>2026-03-28T10:34:38Z</time></trkpt><trkpt lat="44.84278500616198" lon="7.937818565047984"><ele>348.6666666666667</ele><time>2026-03-28T10:34:39Z</time></trkpt><trkpt lat="44.84280388024065" lon="7.937938225430457"><ele>349.33333333333337</ele><time>2026-03-28T10:34:40Z</time></trkpt><trkpt lat="44.84282651599919" lon="7.938061623176612"><ele>350.0</ele><time>2026-03-28T10:34:41Z</time></trkpt><trkpt lat="44.84284961761492" lon="7.938182488924233"><ele>350.0</ele><time>2026-03-28T10:34:42Z</time></trkpt><trkpt lat="44.84287704279492" lon="7.938308105595128"><ele>350.0</ele><time>2026-03-28T10:34:43Z</time></trkpt><trkpt lat="44.84290427083972" lon="7.938421098015148"><ele>350.0</ele><time>2026-03-28T10:34:44Z</time></trkpt><trkpt lat="44.84293737666172" lon="7.938534055745131"><ele>350.0</ele><time>2026-03-28T10:34:45Z</time></trkpt><trkpt lat="44.84297085944178" lon="7.93862494177576"><ele>350.0</ele><time>2026-03-28T10:34:46Z</time></trkpt><trkpt lat="44.843008333867346" lon="7.938726580662357"><ele>350.0</ele><time>2026-03-28T10:34:47Z</time></trkpt><trkpt lat="44.84304927967115" lon="7.938833401088647"><ele>349.5</ele><time>2026-03-28T10:34:48Z</time></trkpt><trkpt lat="44.84308871948263" lon="7.9389408042677285"><ele>349.0</ele><time>2026-03-28T10:34:49Z</time></trkpt><trkpt lat="44.843119579342726" lon="7.939042610111734"><ele>348.5</ele><time>2026-03-28T10:34:50Z</time></trkpt><trkpt lat="44.84314116699435" lon="7.939135169418078"><ele>348.0</ele><time>2026-03-28T10:34:51Z</time></trkpt><trkpt lat="44.84315275773689" lon="7.939231276824566"><ele>347.5</ele><time>2026-03-28T10:34:52Z</time></trkpt><trkpt lat="44.843166340085" lon="7.939345729632145"><ele>347.0</ele><time>2026-03-28T10:34:53Z</time></trkpt><trkpt lat="44.843175001998944" lon="7.9394689049934275"><ele>347.1666666666667</ele><time>2026-03-28T10:34:54Z</time></trkpt><trkpt lat="44.843181236243765" lon="7.939589015724462"><ele>347.33333333333337</ele><time>2026-03-28T10:34:55Z</time></trkpt><trkpt lat="44.8431809192171" lon="7.939701650534846"><ele>347.5</ele><time>2026-03-28T10:34:56Z</time></trkpt><trkpt lat="44.843182624579484" lon="7.93980118432683"><ele>347.6666666666667</ele><time>2026-03-28T10:34:57Z</time></trkpt><trkpt lat="44.843186245154385" lon="7.939890825138534"><ele>347.8333333333333</ele><time>2026-03-28T10:34:58Z</time></trkpt><trkpt lat="44.84323321653451" lon="7.940047323158246"><ele>348.0</ele><time>2026-03-28T10:35:00Z</time></trkpt><trkpt lat="44.84327023450735" lon="7.940137679590882"><ele>348.0</ele><time>2026-03-28T10:35:01Z</time></trkpt><trkpt lat="44.843314922320374" lon="7.94021799027046"><ele>348.0</ele><time>2026-03-28T10:35:02Z</time></trkpt><trkpt lat="44.84336765755529" lon="7.940283205613902"><ele>348.0</ele><time>2026-03-28T10:35:03Z</time></trkpt><trkpt lat="44.84342476204" lon="7.940338502730175"><ele>348.0</ele><time>2026-03-28T10:35:04Z</time></trkpt><trkpt lat="44.84350752118739" lon="7.940434237443919"><ele>348.0</ele><time>2026-03-28T10:35:06Z</time></trkpt><trkpt lat="44.843537009402404" lon="7.940572205097006"><ele>348.0</ele><time>2026-03-28T10:35:08Z</time></trkpt><trkpt lat="44.843499336583434" lon="7.940734654790362"><ele>348.0</ele><time>2026-03-28T10:35:10Z</time></trkpt><trkpt lat="44.843427900060355" lon="7.940877506870447"><ele>348.0</ele><time>2026-03-28T10:35:12Z</time></trkpt><trkpt lat="44.84338237301479" lon="7.940949099457319"><ele>348.0</ele><time>2026-03-28T10:35:13Z</time></trkpt><trkpt lat="44.84332783795082" lon="7.941010636500446"><ele>348.0</ele><time>2026-03-28T10:35:14Z</time></trkpt><trkpt lat="44.84326857621911" lon="7.94105964176356"><ele>348.0</ele><time>2026-03-28T10:35:15Z</time></trkpt><trkpt lat="44.84320135099337" lon="7.941108677794206"><ele>348.0</ele><time>2026-03-28T10:35:16Z</time></trkpt><trkpt lat="44.843133564000546" lon="7.941155543090621"><ele>348.3333333333333</ele><time>2026-03-28T10:35:17Z</time></trkpt><trkpt lat="44.84305628622499" lon="7.941206041307338"><ele>348.6666666666667</ele><time>2026-03-28T10:35:18Z</time></trkpt><trkpt lat="44.84298100581123" lon="7.941256930907081"><ele>349.0</ele><time>2026-03-28T10:35:19Z</time></trkpt><trkpt lat="44.842905273428606" lon="7.941311316925454"><ele>349.33333333333337</ele><time>2026-03-28T10:35:20Z</time></trkpt><trkpt lat="44.84284487965294" lon="7.941389813010291"><ele>349.6666666666667</ele><time>2026-03-28T10:35:21Z</time></trkpt><trkpt lat="44.84277899412136" lon="7.941455592725395"><ele>350.0</ele><time>2026-03-28T10:35:22Z</time></trkpt><trkpt lat="44.84271073298578" lon="7.941506689882445"><ele>350.0</ele><time>2026-03-28T10:35:23Z</time></trkpt><trkpt lat="44.84264800497191" lon="7.941581056723818"><ele>350.0</ele><time>2026-03-28T10:35:24Z</time></trkpt><trkpt lat="44.84258189465215" lon="7.941663376414403"><ele>350.0</ele><time>2026-03-28T10:35:25Z</time></trkpt><trkpt lat="44.8425175569925" lon="7.941736724383829"><ele>350.0</ele><time>2026-03-28T10:35:26Z</time></trkpt><trkpt lat="44.8424456883977" lon="7.9417943890451905"><ele>350.0</ele><time>2026-03-28T10:35:27Z</time></trkpt><trkpt lat="44.84239977502473" lon="7.9418785362759134"><ele>350.0</ele><time>2026-03-28T10:35:28Z</time></trkpt><trkpt lat="44.84233449407668" lon="7.941946188878214"><ele>349.2</ele><time>2026-03-28T10:35:29Z</time></trkpt><trkpt lat="44.842265719174705" lon="7.942013076705621"><ele>348.4</ele><time>2026-03-28T10:35:30Z</time></trkpt><trkpt lat="44.84217661770412" lon="7.942047424882729"><ele>347.6</ele><time>2026-03-28T10:35:31Z</time></trkpt><trkpt lat="44.842089288421796" lon="7.942096304983686"><ele>346.8</ele><time>2026-03-28T10:35:32Z</time></trkpt><trkpt lat="44.84199663613857" lon="7.942135408654748"><ele>346.0</ele><time>2026-03-28T10:35:33Z</time></trkpt><trkpt lat="44.84191479606353" lon="7.9421667796549"><ele>346.0</ele><time>2026-03-28T10:35:34Z</time></trkpt><trkpt lat="44.84184057965902" lon="7.94221874567699"><ele>346.0</ele><time>2026-03-28T10:35:35Z</time></trkpt><trkpt lat="44.841770222574155" lon="7.942242108529555"><ele>346.0</ele><time>2026-03-28T10:35:36Z</time></trkpt><trkpt lat="44.841708253266674" lon="7.942279501276678"><ele>346.0</ele><time>2026-03-28T10:35:37Z</time></trkpt><trkpt lat="44.84164719080677" lon="7.942323083241319"><ele>346.0</ele><time>2026-03-28T10:35:38Z</time></trkpt><trkpt lat="44.841594803113935" lon="7.942388273290433"><ele>346.0</ele><time>2026-03-28T10:35:39Z</time></trkpt><trkpt lat="44.84154909527968" lon="7.94246985032607"><ele>346.0</ele><time>2026-03-28T10:35:40Z</time></trkpt><trkpt lat="44.84151224804839" lon="7.94257794560379"><ele>346.2857142857143</ele><time>2026-03-28T10:35:41Z</time></trkpt><trkpt lat="44.8414876699089" lon="7.942686067464256"><ele>346.5714285714286</ele><time>2026-03-28T10:35:42Z</time></trkpt><trkpt lat="44.84146949606086" lon="7.942782081904654"><ele>346.8571428571429</ele><time>2026-03-28T10:35:43Z</time></trkpt><trkpt lat="44.8414481924649" lon="7.942871037296039"><ele>347.1428571428571</ele><time>2026-03-28T10:35:44Z</time></trkpt><trkpt lat="44.84142245782485" lon="7.942958547404247"><ele>347.42857142857144</ele><time>2026-03-28T10:35:45Z</time></trkpt><trkpt lat="44.8413825509871" lon="7.943050070382723"><ele>347.7142857142857</ele><time>2026-03-28T10:35:46Z</time></trkpt><trkpt lat="44.841333728844056" lon="7.943120388840003"><ele>348.0</ele><time>2026-03-28T10:35:47Z</time></trkpt><trkpt lat="44.841276667401566" lon="7.943177964977916"><ele>348.0</ele><time>2026-03-28T10:35:48Z</time></trkpt><trkpt lat="44.841214385695444" lon="7.9432250648046505"><ele>348.0</ele><time>2026-03-28T10:35:49Z</time></trkpt><trkpt lat="44.84114751004751" lon="7.943270788742102"><ele>348.0</ele><time>2026-03-28T10:35:50Z</time></trkpt><trkpt lat="44.84106829212312" lon="7.943284655739464"><ele>348.0</ele><time>2026-03-28T10:35:51Z</time></trkpt><trkpt lat="44.840989069929726" lon="7.943320588258147"><ele>348.0</ele><time>2026-03-28T10:35:52Z</time></trkpt><trkpt lat="44.840901361375174" lon="7.943360369801332"><ele>348.0</ele><time>2026-03-28T10:35:53Z</time></trkpt><trkpt lat="44.840830676725474" lon="7.943416300158501"><ele>348.0</ele><time>2026-03-28T10:35:54Z</time></trkpt><trkpt lat="44.84076337350914" lon="7.943443383847645"><ele>348.0</ele><time>2026-03-28T10:35:55Z</time></trkpt><trkpt lat="44.84069936544138" lon="7.943483917238572"><ele>348.0</ele><time>2026-03-28T10:35:56Z</time></trkpt><trkpt lat="44.84063300897937" lon="7.943533516705054"><ele>348.0</ele><time>2026-03-28T10:35:57Z</time></trkpt><trkpt lat="44.840574367422434" lon="7.943592438724707"><ele>348.0</ele><time>2026-03-28T10:35:58Z</time></trkpt><trkpt lat="44.84052415238901" lon="7.943659733009038"><ele>348.0</ele><time>2026-03-28T10:35:59Z</time></trkpt><trkpt lat="44.840482070615096" lon="7.9437294535660525"><ele>348.0</ele><time>2026-03-28T10:36:00Z</time></trkpt><trkpt lat="44.84040907648453" lon="7.943871766950879"><ele>348.0</ele><time>2026-03-28T10:36:02Z</time></trkpt><trkpt lat="44.84037514310898" lon="7.943952152382256"><ele>348.0</ele><time>2026-03-28T10:36:03Z</time></trkpt><trkpt lat="44.84034274877471" lon="7.94403238018184"><ele>348.0</ele><time>2026-03-28T10:36:04Z</time></trkpt><trkpt lat="44.84030845695386" lon="7.9441238972388755"><ele>348.0</ele><time>2026-03-28T10:36:05Z</time></trkpt><trkpt lat="44.840269943486504" lon="7.944213212078233"><ele>348.0</ele><time>2026-03-28T10:36:06Z</time></trkpt><trkpt lat="44.840229919396776" lon="7.944295749776406"><ele>348.0</ele><time>2026-03-28T10:36:07Z</time></trkpt><trkpt lat="44.84018650764347" lon="7.944377503770904"><ele>348.0</ele><time>2026-03-28T10:36:08Z</time></trkpt><trkpt lat="44.84013340106697" lon="7.944442743271273"><ele>348.85714285714283</ele><time>2026-03-28T10:36:09Z</time></trkpt><trkpt lat="44.840090194556424" lon="7.944524538901192"><ele>349.7142857142857</ele><time>2026-03-28T10:36:10Z</time></trkpt><trkpt lat="44.84005979278884" lon="7.944616220813979"><ele>350.57142857142856</ele><time>2026-03-28T10:36:11Z</time></trkpt><trkpt lat="44.84001054152262" lon="7.944684003780097"><ele>351.42857142857144</ele><time>2026-03-28T10:36:12Z</time></trkpt><trkpt lat="44.839966469555534" lon="7.944764941475836"><ele>352.2857142857143</ele><time>2026-03-28T10:36:13Z</time></trkpt><trkpt lat="44.839915362537184" lon="7.9448464372820755"><ele>353.14285714285717</ele><time>2026-03-28T10:36:14Z</time></trkpt><trkpt lat="44.83987000033835" lon="7.944936491105129"><ele>354.0</ele><time>2026-03-28T10:36:15Z</time></trkpt><trkpt lat="44.83982921716621" lon="7.945032979742312"><ele>354.0</ele><time>2026-03-28T10:36:16Z</time></trkpt><trkpt lat="44.839786152467354" lon="7.94512391116152"><ele>354.0</ele><time>2026-03-28T10:36:17Z</time></trkpt><trkpt lat="44.83974227702635" lon="7.9452025791512275"><ele>354.0</ele><time>2026-03-28T10:36:18Z</time></trkpt><trkpt lat="44.839659030388056" lon="7.945336109837387"><ele>354.0</ele><time>2026-03-28T10:36:20Z</time></trkpt><trkpt lat="44.839576022824666" lon="7.945447783736044"><ele>354.0</ele><time>2026-03-28T10:36:22Z</time></trkpt><trkpt lat="44.83949738003159" lon="7.9455217032042755"><ele>354.0</ele><time>2026-03-28T10:36:24Z</time></trkpt><trkpt lat="44.83940742259429" lon="7.945563844903049"><ele>354.0</ele><time>2026-03-28T10:36:26Z</time></trkpt><trkpt lat="44.839307988672054" lon="7.945551276298914"><ele>354.0</ele><time>2026-03-28T10:36:28Z</time></trkpt><trkpt lat="44.839214520192066" lon="7.945525674013873"><ele>354.0</ele><time>2026-03-28T10:36:30Z</time></trkpt><trkpt lat="44.839092455851045" lon="7.945614404573305"><ele>354.0</ele><time>2026-03-28T10:36:32Z</time></trkpt><trkpt lat="44.839009252865694" lon="7.945671943418772"><ele>354.4</ele><time>2026-03-28T10:36:33Z</time></trkpt><trkpt lat="44.83891886977022" lon="7.945768469453042"><ele>354.79999999999995</ele><time>2026-03-28T10:36:34Z</time></trkpt><trkpt lat="44.83884215254291" lon="7.945867528328385"><ele>355.20000000000005</ele><time>2026-03-28T10:36:35Z</time></trkpt><trkpt lat="44.83877124861256" lon="7.9459636692846445"><ele>355.6</ele><time>2026-03-28T10:36:36Z</time></trkpt><trkpt lat="44.83869498271378" lon="7.946063933299681"><ele>356.0</ele><time>2026-03-28T10:36:37Z</time></trkpt><trkpt lat="44.83861529385406" lon="7.946171967677217"><ele>356.0</ele><time>2026-03-28T10:36:38Z</time></trkpt><trkpt lat="44.8385281209129" lon="7.94627916803411"><ele>356.0</ele><time>2026-03-28T10:36:39Z</time></trkpt><trkpt lat="44.838448306154476" lon="7.9463907493647135"><ele>356.0</ele><time>2026-03-28T10:36:40Z</time></trkpt><trkpt lat="44.838368650367734" lon="7.946500124750384"><ele>356.0</ele><time>2026-03-28T10:36:41Z</time></trkpt><trkpt lat="44.83829469495134" lon="7.946611783467159"><ele>356.0</ele><time>2026-03-28T10:36:42Z</time></trkpt><trkpt lat="44.838223689065124" lon="7.946724745719505"><ele>355.6666666666667</ele><time>2026-03-28T10:36:43Z</time></trkpt><trkpt lat="44.838161923375715" lon="7.94683342690149"><ele>355.33333333333337</ele><time>2026-03-28T10:36:44Z</time></trkpt><trkpt lat="44.8381076569134" lon="7.94694236074766"><ele>355.0</ele><time>2026-03-28T10:36:45Z</time></trkpt><trkpt lat="44.83805545886269" lon="7.947045074436154"><ele>354.6666666666667</ele><time>2026-03-28T10:36:46Z</time></trkpt><trkpt lat="44.83802643204045" lon="7.947148651254058"><ele>354.3333333333333</ele><time>2026-03-28T10:36:47Z</time></trkpt><trkpt lat="44.83800253541297" lon="7.947252329860767"><ele>354.0</ele><time>2026-03-28T10:36:48Z</time></trkpt><trkpt lat="44.83798586159243" lon="7.947349402856672"><ele>354.0</ele><time>2026-03-28T10:36:49Z</time></trkpt><trkpt lat="44.83794755986817" lon="7.947506911683478"><ele>354.0</ele><time>2026-03-28T10:36:51Z</time></trkpt><trkpt lat="44.8378190023595" lon="7.9475459777781445"><ele>354.0</ele><time>2026-03-28T10:37:06Z</time></trkpt><trkpt lat="44.83771780874572" lon="7.947513911028661"><ele>354.0</ele><time>2026-03-28T10:37:08Z</time></trkpt><trkpt lat="44.837644082742614" lon="7.947479747564109"><ele>354.0</ele><time>2026-03-28T10:37:10Z</time></trkpt><trkpt lat="44.837610505162196" lon="7.947391438594025"><ele>354.6666666666667</ele><time>2026-03-28T10:37:12Z</time></trkpt><trkpt lat="44.83757929397933" lon="7.947306969027089"><ele>355.3333333333333</ele><time>2026-03-28T10:37:13Z</time></trkpt><trkpt lat="44.8375368182756" lon="7.947178598837064"><ele>356.0</ele><time>2026-03-28T10:37:14Z</time></trkpt><trkpt lat="44.83750798758676" lon="7.94708350428193"><ele>356.66666666666663</ele><time>2026-03-28T10:37:15Z</time></trkpt><trkpt lat="44.83748214696629" lon="7.946998970865671"><ele>357.3333333333333</ele><time>2026-03-28T10:37:16Z</time></trkpt><trkpt lat="44.837434907057904" lon="7.946849822600827"><ele>358.0</ele><time>2026-03-28T10:37:18Z</time></trkpt><trkpt lat="44.837384964178284" lon="7.946705010649479"><ele>358.8333333333333</ele><time>2026-03-28T10:37:20Z</time></trkpt><trkpt lat="44.837352067150356" lon="7.946611431629685"><ele>359.66666666666663</ele><time>2026-03-28T10:37:21Z</time></trkpt><trkpt lat="44.8373181828482" lon="7.94651504409849"><ele>360.5</ele><time>2026-03-28T10:37:22Z</time></trkpt><trkpt lat="44.83728682345755" lon="7.946425839031412"><ele>361.3333333333333</ele><time>2026-03-28T10:37:23Z</time></trkpt><trkpt lat="44.83725290562205" lon="7.946346806678822"><ele>362.1666666666667</ele><time>2026-03-28T10:37:24Z</time></trkpt><trkpt lat="44.83717521079814" lon="7.9462185935984655"><ele>363.0</ele><time>2026-03-28T10:37:26Z</time></trkpt><trkpt lat="44.83709626011798" lon="7.946097924441166"><ele>363.0</ele><time>2026-03-28T10:37:28Z</time></trkpt><trkpt lat="44.83702597398469" lon="7.945978988386934"><ele>363.0</ele><time>2026-03-28T10:37:30Z</time></trkpt><trkpt lat="44.83695030810078" lon="7.945852787435137"><ele>363.0</ele><time>2026-03-28T10:37:32Z</time></trkpt><trkpt lat="44.836900651613306" lon="7.9457766923442765"><ele>363.0</ele><time>2026-03-28T10:37:33Z</time></trkpt><trkpt lat="44.83684883264128" lon="7.945709734355173"><ele>363.0</ele><time>2026-03-28T10:37:34Z</time></trkpt><trkpt lat="44.83675602379984" lon="7.945602704833542"><ele>360.4</ele><time>2026-03-28T10:37:36Z</time></trkpt><trkpt lat="44.836668815461735" lon="7.945517665513166"><ele>357.79999999999995</ele><time>2026-03-28T10:37:38Z</time></trkpt><trkpt lat="44.83656692564493" lon="7.945439912739656"><ele>355.2</ele><time>2026-03-28T10:37:40Z</time></trkpt><trkpt lat="44.83644772400461" lon="7.945373400612156"><ele>352.6</ele><time>2026-03-28T10:37:42Z</time></trkpt><trkpt lat="44.836376594525625" lon="7.945368704447161"><ele>350.0</ele><time>2026-03-28T10:37:43Z</time></trkpt><trkpt lat="44.83630524166554" lon="7.94534528722222"><ele>350.0</ele><time>2026-03-28T10:37:44Z</time></trkpt><trkpt lat="44.83623688084124" lon="7.945295604358613"><ele>350.0</ele><time>2026-03-28T10:37:45Z</time></trkpt><trkpt lat="44.836170822518525" lon="7.945262908268561"><ele>350.0</ele><time>2026-03-28T10:37:46Z</time></trkpt><trkpt lat="44.83611034114654" lon="7.945230746141059"><ele>350.0</ele><time>2026-03-28T10:37:47Z</time></trkpt><trkpt lat="44.83605218949266" lon="7.9451519537238156"><ele>350.0</ele><time>2026-03-28T10:37:49Z</time></trkpt><trkpt lat="44.83600884073645" lon="7.945082837930837"><ele>350.0</ele><time>2026-03-28T10:37:55Z</time></trkpt><trkpt lat="44.8360667698371" lon="7.945168406366424"><ele>350.0</ele><time>2026-03-28T10:38:06Z</time></trkpt><trkpt lat="44.83614108964779" lon="7.945247811203029"><ele>350.0</ele><time>2026-03-28T10:38:08Z</time></trkpt><trkpt lat="44.836198650608004" lon="7.94530888269499"><ele>350.0</ele><time>2026-03-28T10:38:09Z</time></trkpt><trkpt lat="44.83625968375031" lon="7.9453349065398395"><ele>350.0</ele><time>2026-03-28T10:38:10Z</time></trkpt><trkpt lat="44.83632370768853" lon="7.945360122332249"><ele>350.0</ele><time>2026-03-28T10:38:11Z</time></trkpt><trkpt lat="44.83638956697926" lon="7.945377134992405"><ele>350.0</ele><time>2026-03-28T10:38:12Z</time></trkpt><trkpt lat="44.836457842895314" lon="7.945403084457774"><ele>350.0</ele><time>2026-03-28T10:38:13Z</time></trkpt><trkpt lat="44.83652251120243" lon="7.945440076071354"><ele>350.0</ele><time>2026-03-28T10:38:14Z</time></trkpt><trkpt lat="44.836583438852706" lon="7.945484923362458"><ele>350.0</ele><time>2026-03-28T10:38:15Z</time></trkpt><trkpt lat="44.83664246775977" lon="7.945533235662764"><ele>350.0</ele><time>2026-03-28T10:38:16Z</time></trkpt><trkpt lat="44.83673822751292" lon="7.945624779317866"><ele>350.0</ele><time>2026-03-28T10:38:18Z</time></trkpt><trkpt lat="44.83682904143272" lon="7.945729594792512"><ele>350.0</ele><time>2026-03-28T10:38:20Z</time></trkpt><trkpt lat="44.836879453145194" lon="7.945797412473462"><ele>350.0</ele><time>2026-03-28T10:38:21Z</time></trkpt><trkpt lat="44.83693521729913" lon="7.945864581150696"><ele>350.0</ele><time>2026-03-28T10:38:22Z</time></trkpt><trkpt lat="44.83697860305761" lon="7.945942837952962"><ele>352.1666666666667</ele><time>2026-03-28T10:38:23Z</time></trkpt><trkpt lat="44.83702248846207" lon="7.946022113975874"><ele>354.33333333333337</ele><time>2026-03-28T10:38:24Z</time></trkpt><trkpt lat="44.83707118886424" lon="7.946101703083472"><ele>356.5</ele><time>2026-03-28T10:38:25Z</time></trkpt><trkpt lat="44.8371255632392" lon="7.946181157629333"><ele>358.6666666666667</ele><time>2026-03-28T10:38:26Z</time></trkpt><trkpt lat="44.83718053154221" lon="7.946277633257304"><ele>360.8333333333333</ele><time>2026-03-28T10:38:27Z</time></trkpt><trkpt lat="44.8372396166361" lon="7.9463766606555515"><ele>363.0</ele><time>2026-03-28T10:38:28Z</time></trkpt><trkpt lat="44.83729187588044" lon="7.946502633696084"><ele>363.0</ele><time>2026-03-28T10:38:29Z</time></trkpt><trkpt lat="44.83733279253051" lon="7.946638998645035"><ele>363.0</ele><time>2026-03-28T10:38:30Z</time></trkpt><trkpt lat="44.837370244111646" lon="7.946753565944379"><ele>363.0</ele><time>2026-03-28T10:38:31Z</time></trkpt><trkpt lat="44.837407938574614" lon="7.946872208782456"><ele>363.0</ele><time>2026-03-28T10:38:32Z</time></trkpt><trkpt lat="44.83744486035703" lon="7.94699173648508"><ele>363.0</ele><time>2026-03-28T10:38:33Z</time></trkpt><trkpt lat="44.83748825470014" lon="7.947117722039455"><ele>362.1666666666667</ele><time>2026-03-28T10:38:34Z</time></trkpt><trkpt lat="44.83753250223561" lon="7.947237885744673"><ele>361.3333333333333</ele><time>2026-03-28T10:38:35Z</time></trkpt><trkpt lat="44.83756458840891" lon="7.947347980033564"><ele>360.5</ele><time>2026-03-28T10:38:36Z</time></trkpt><trkpt lat="44.8375968601875" lon="7.947442324356252"><ele>359.66666666666663</ele><time>2026-03-28T10:38:37Z</time></trkpt><trkpt lat="44.83764113323503" lon="7.947519120261433"><ele>358.8333333333333</ele><time>2026-03-28T10:38:38Z</time></trkpt><trkpt lat="44.837756050210565" lon="7.947555962265911"><ele>358.0</ele><time>2026-03-28T10:38:40Z</time></trkpt><trkpt lat="44.83786119235275" lon="7.947572896327417"><ele>357.59999999999997</ele><time>2026-03-28T10:38:42Z</time></trkpt><trkpt lat="44.83793702212253" lon="7.947572896325701"><ele>357.2</ele><time>2026-03-28T10:38:44Z</time></trkpt><trkpt lat="44.8380022892572" lon="7.947379275172411"><ele>356.8</ele><time>2026-03-28T10:38:47Z</time></trkpt><trkpt lat="44.83801456104181" lon="7.9472901178449264"><ele>356.4</ele><time>2026-03-28T10:38:48Z</time></trkpt><trkpt lat="44.838051009533665" lon="7.947187181102986"><ele>356.0</ele><time>2026-03-28T10:38:49Z</time></trkpt><trkpt lat="44.83808965567334" lon="7.947064508662113"><ele>356.0</ele><time>2026-03-28T10:38:50Z</time></trkpt><trkpt lat="44.838126526116774" lon="7.946918834415413"><ele>356.0</ele><time>2026-03-28T10:38:51Z</time></trkpt><trkpt lat="44.83820365980619" lon="7.9468053020735185"><ele>356.0</ele><time>2026-03-28T10:38:52Z</time></trkpt><trkpt lat="44.83827261792318" lon="7.946690223128701"><ele>356.0</ele><time>2026-03-28T10:38:53Z</time></trkpt><trkpt lat="44.83835172219072" lon="7.946573300352139"><ele>356.0</ele><time>2026-03-28T10:38:54Z</time></trkpt><trkpt lat="44.83842892716085" lon="7.946468412234261"><ele>355.1666666666667</ele><time>2026-03-28T10:38:55Z</time></trkpt><trkpt lat="44.83849663010247" lon="7.946379901933056"><ele>354.33333333333337</ele><time>2026-03-28T10:38:56Z</time></trkpt><trkpt lat="44.83855034669583" lon="7.946308932245718"><ele>353.5</ele><time>2026-03-28T10:38:57Z</time></trkpt><trkpt lat="44.83860473225631" lon="7.946237296194124"><ele>352.6666666666667</ele><time>2026-03-28T10:38:58Z</time></trkpt><trkpt lat="44.83865859359868" lon="7.946169600087599"><ele>351.8333333333333</ele><time>2026-03-28T10:38:59Z</time></trkpt><trkpt lat="44.83870649553922" lon="7.946080780775059"><ele>351.0</ele><time>2026-03-28T10:39:00Z</time></trkpt><trkpt lat="44.83877713221675" lon="7.945990753452091"><ele>351.0</ele><time>2026-03-28T10:39:01Z</time></trkpt><trkpt lat="44.83885291053969" lon="7.945895415429219"><ele>351.0</ele><time>2026-03-28T10:39:02Z</time></trkpt><trkpt lat="44.83893285848653" lon="7.945806644984299"><ele>351.0</ele><time>2026-03-28T10:39:03Z</time></trkpt><trkpt lat="44.83901893262809" lon="7.945740518754792"><ele>351.0</ele><time>2026-03-28T10:39:04Z</time></trkpt><trkpt lat="44.83907973130124" lon="7.94565551302027"><ele>351.0</ele><time>2026-03-28T10:39:05Z</time></trkpt><trkpt lat="44.83913545980307" lon="7.945578932518922"><ele>351.8333333333333</ele><time>2026-03-28T10:39:06Z</time></trkpt><trkpt lat="44.83915966778359" lon="7.945490317287416"><ele>352.6666666666667</ele><time>2026-03-28T10:39:07Z</time></trkpt><trkpt lat="44.83917264216599" lon="7.945398725523753"><ele>353.5</ele><time>2026-03-28T10:39:08Z</time></trkpt><trkpt lat="44.83910709613856" lon="7.945301596156384"><ele>354.33333333333337</ele><time>2026-03-28T10:39:09Z</time></trkpt><trkpt lat="44.83901556193612" lon="7.945224251003398"><ele>355.1666666666667</ele><time>2026-03-28T10:39:10Z</time></trkpt><trkpt lat="44.83892493523959" lon="7.945152809872609"><ele>356.0</ele><time>2026-03-28T10:39:11Z</time></trkpt><trkpt lat="44.83884765036328" lon="7.9450658171816375"><ele>355.8</ele><time>2026-03-28T10:39:12Z</time></trkpt><trkpt lat="44.83877439432299" lon="7.944985468770534"><ele>355.6</ele><time>2026-03-28T10:39:13Z</time></trkpt><trkpt lat="44.83871368494254" lon="7.94489636070384"><ele>355.4</ele><time>2026-03-28T10:39:14Z</time></trkpt><trkpt lat="44.83866822129885" lon="7.944791417737812"><ele>355.2</ele><time>2026-03-28T10:39:15Z</time></trkpt><trkpt lat="44.83864179400599" lon="7.94466786765135"><ele>355.0</ele><time>2026-03-28T10:39:16Z</time></trkpt><trkpt lat="44.83863725422417" lon="7.944526273772729"><ele>355.0</ele><time>2026-03-28T10:39:17Z</time></trkpt><trkpt lat="44.83863090477176" lon="7.94437651453752"><ele>355.0</ele><time>2026-03-28T10:39:18Z</time></trkpt><trkpt lat="44.8386152753087" lon="7.94421519653785"><ele>355.0</ele><time>2026-03-28T10:39:19Z</time></trkpt><trkpt lat="44.83860152039447" lon="7.944044711639506"><ele>355.0</ele><time>2026-03-28T10:39:20Z</time></trkpt><trkpt lat="44.83858584029805" lon="7.9438735783986605"><ele>353.25</ele><time>2026-03-28T10:39:21Z</time></trkpt><trkpt lat="44.83856811298608" lon="7.943700251390362"><ele>351.5</ele><time>2026-03-28T10:39:22Z</time></trkpt><trkpt lat="44.838553007559604" lon="7.943532350325042"><ele>349.75</ele><time>2026-03-28T10:39:23Z</time></trkpt><trkpt lat="44.83854064798402" lon="7.943378179058152"><ele>348.0</ele><time>2026-03-28T10:39:24Z</time></trkpt><trkpt lat="44.838529448243236" lon="7.943232599402923"><ele>347.59999999999997</ele><time>2026-03-28T10:39:25Z</time></trkpt><trkpt lat="44.83852323570407" lon="7.943095090698906"><ele>347.2</ele><time>2026-03-28T10:39:26Z</time></trkpt><trkpt lat="44.838511204994106" lon="7.942959894643327"><ele>346.8</ele><time>2026-03-28T10:39:27Z</time></trkpt><trkpt lat="44.83850096776862" lon="7.942825842707265"><ele>346.4</ele><time>2026-03-28T10:39:28Z</time></trkpt><trkpt lat="44.83849493774946" lon="7.942697338916157"><ele>346.0</ele><time>2026-03-28T10:39:29Z</time></trkpt><trkpt lat="44.838491255986014" lon="7.942585272459438"><ele>345.8</ele><time>2026-03-28T10:39:30Z</time></trkpt><trkpt lat="44.83849214668778" lon="7.942485455727314"><ele>345.6</ele><time>2026-03-28T10:39:31Z</time></trkpt><trkpt lat="44.8384714330547" lon="7.942395808554794"><ele>345.4</ele><time>2026-03-28T10:39:32Z</time></trkpt><trkpt lat="44.83838993486208" lon="7.9423035200192835"><ele>345.2</ele><time>2026-03-28T10:39:34Z</time></trkpt><trkpt lat="44.83827718709796" lon="7.942318139236582"><ele>345.0</ele><time>2026-03-28T10:39:36Z</time></trkpt><trkpt lat="44.8381805646767" lon="7.942354854180865"><ele>347.25</ele><time>2026-03-28T10:39:38Z</time></trkpt><trkpt lat="44.838086657063" lon="7.9424164572287195"><ele>349.5</ele><time>2026-03-28T10:39:40Z</time></trkpt><trkpt lat="44.837999100153496" lon="7.942407810319824"><ele>351.75</ele><time>2026-03-28T10:39:42Z</time></trkpt><trkpt lat="44.83792571856962" lon="7.942418985325178"><ele>354.0</ele><time>2026-03-28T10:39:47Z</time></trkpt><trkpt lat="44.83794581590743" lon="7.9426802433918295"><ele>354.0</ele><time>2026-03-28T10:39:50Z</time></trkpt><trkpt lat="44.83794388865727" lon="7.9428187346377825"><ele>354.0</ele><time>2026-03-28T10:39:52Z</time></trkpt><trkpt lat="44.837887132487964" lon="7.942938521698238"><ele>354.0</ele><time>2026-03-28T10:39:54Z</time></trkpt><trkpt lat="44.837790506473034" lon="7.942988027853537"><ele>354.0</ele><time>2026-03-28T10:39:56Z</time></trkpt><trkpt lat="44.83770720905168" lon="7.942991041157316"><ele>354.0</ele><time>2026-03-28T10:39:58Z</time></trkpt><trkpt lat="44.83763431808564" lon="7.942966264607268"><ele>351.0</ele><time>2026-03-28T10:40:00Z</time></trkpt><trkpt lat="44.8375556516564" lon="7.942992578295746"><ele>348.0</ele><time>2026-03-28T10:40:02Z</time></trkpt><trkpt lat="44.837492464337096" lon="7.943045306588041"><ele>345.0</ele><time>2026-03-28T10:40:04Z</time></trkpt><trkpt lat="44.83742719562216" lon="7.94316766203526"><ele>342.0</ele><time>2026-03-28T10:40:06Z</time></trkpt><trkpt lat="44.83737709743891" lon="7.9432781410808815"><ele>339.0</ele><time>2026-03-28T10:40:08Z</time></trkpt><trkpt lat="44.83729809951113" lon="7.9433620847739865"><ele>339.1666666666667</ele><time>2026-03-28T10:40:10Z</time></trkpt><trkpt lat="44.83719238591105" lon="7.9433999498986525"><ele>339.3333333333333</ele><time>2026-03-28T10:40:12Z</time></trkpt><trkpt lat="44.83712043091012" lon="7.9434049344175595"><ele>339.5</ele><time>2026-03-28T10:40:13Z</time></trkpt><trkpt lat="44.83705195246789" lon="7.943415407446738"><ele>339.66666666666663</ele><time>2026-03-28T10:40:14Z</time></trkpt><trkpt lat="44.83698652095025" lon="7.943430250802941"><ele>339.8333333333333</ele><time>2026-03-28T10:40:15Z</time></trkpt><trkpt lat="44.836868516845485" lon="7.943443857506879"><ele>340.0</ele><time>2026-03-28T10:40:17Z</time></trkpt><trkpt lat="44.83675392684873" lon="7.943418638012437"><ele>338.2</ele><time>2026-03-28T10:40:19Z</time></trkpt><trkpt lat="44.836695666678736" lon="7.943379570331323"><ele>336.4</ele><time>2026-03-28T10:40:20Z</time></trkpt><trkpt lat="44.83659569702619" lon="7.943282494153767"><ele>334.6</ele><time>2026-03-28T10:40:22Z</time></trkpt><trkpt lat="44.836536879030525" lon="7.943150394554437"><ele>332.8</ele><time>2026-03-28T10:40:24Z</time></trkpt><trkpt lat="44.83647714438835" lon="7.943020107611132"><ele>331.0</ele><time>2026-03-28T10:40:26Z</time></trkpt><trkpt lat="44.836427731755855" lon="7.942913050495177"><ele>331.0</ele><time>2026-03-28T10:40:28Z</time></trkpt><trkpt lat="44.83636355637418" lon="7.9427893861817775"><ele>331.0</ele><time>2026-03-28T10:40:30Z</time></trkpt><trkpt lat="44.83631733659437" lon="7.942721235760377"><ele>331.0</ele><time>2026-03-28T10:40:31Z</time></trkpt><trkpt lat="44.836206251077726" lon="7.942633676823065"><ele>331.0</ele><time>2026-03-28T10:40:33Z</time></trkpt><trkpt lat="44.83612710642758" lon="7.942577068368917"><ele>331.0</ele><time>2026-03-28T10:40:34Z</time></trkpt><trkpt lat="44.83604401537405" lon="7.942522794005531"><ele>331.7142857142857</ele><time>2026-03-28T10:40:35Z</time></trkpt><trkpt lat="44.83597641680772" lon="7.942474175846151"><ele>332.42857142857144</ele><time>2026-03-28T10:40:36Z</time></trkpt><trkpt lat="44.835914247770795" lon="7.942416684109923"><ele>333.1428571428571</ele><time>2026-03-28T10:40:37Z</time></trkpt><trkpt lat="44.835855460554" lon="7.942367417569225"><ele>333.8571428571429</ele><time>2026-03-28T10:40:38Z</time></trkpt><trkpt lat="44.83580157516892" lon="7.942314804343149"><ele>334.57142857142856</ele><time>2026-03-28T10:40:39Z</time></trkpt><trkpt lat="44.83574201163029" lon="7.942260412551956"><ele>335.2857142857143</ele><time>2026-03-28T10:40:40Z</time></trkpt><trkpt lat="44.8356821902936" lon="7.942229580250822"><ele>336.0</ele><time>2026-03-28T10:40:41Z</time></trkpt><trkpt lat="44.835617960514625" lon="7.942204961975137"><ele>333.8</ele><time>2026-03-28T10:40:42Z</time></trkpt><trkpt lat="44.835547087615126" lon="7.942185649569306"><ele>331.6</ele><time>2026-03-28T10:40:43Z</time></trkpt><trkpt lat="44.83546644374449" lon="7.942174500421535"><ele>329.4</ele><time>2026-03-28T10:40:44Z</time></trkpt><trkpt lat="44.835397567118946" lon="7.94216400727234"><ele>327.2</ele><time>2026-03-28T10:40:45Z</time></trkpt><trkpt lat="44.835283009484556" lon="7.9421656006342225"><ele>325.0</ele><time>2026-03-28T10:40:47Z</time></trkpt><trkpt lat="44.835173118928374" lon="7.942227207938811"><ele>324.5</ele><time>2026-03-28T10:40:49Z</time></trkpt><trkpt lat="44.83511943978957" lon="7.9422897270572514"><ele>324.0</ele><time>2026-03-28T10:40:50Z</time></trkpt><trkpt lat="44.835073850036785" lon="7.942359894481989"><ele>323.5</ele><time>2026-03-28T10:40:51Z</time></trkpt><trkpt lat="44.83498162235265" lon="7.942468067745708"><ele>323.0</ele><time>2026-03-28T10:40:53Z</time></trkpt><trkpt lat="44.83488534311399" lon="7.942547702066322"><ele>322.5</ele><time>2026-03-28T10:40:55Z</time></trkpt><trkpt lat="44.83481081897999" lon="7.942570607037022"><ele>322.0</ele><time>2026-03-28T10:40:56Z</time></trkpt><trkpt lat="44.83472902709444" lon="7.942596785597924"><ele>322.0</ele><time>2026-03-28T10:40:57Z</time></trkpt><trkpt lat="44.83465107739208" lon="7.942617612229408"><ele>322.0</ele><time>2026-03-28T10:40:58Z</time></trkpt><trkpt lat="44.83457265983027" lon="7.94265042194216"><ele>322.0</ele><time>2026-03-28T10:40:59Z</time></trkpt><trkpt lat="44.83449012461346" lon="7.942699052382782"><ele>322.0</ele><time>2026-03-28T10:41:00Z</time></trkpt><trkpt lat="44.83440829876985" lon="7.9427505207327975"><ele>322.0</ele><time>2026-03-28T10:41:01Z</time></trkpt><trkpt lat="44.834348980589624" lon="7.9428090953979"><ele>322.0</ele><time>2026-03-28T10:41:02Z</time></trkpt><trkpt lat="44.83428433965801" lon="7.942874363842884"><ele>322.0</ele><time>2026-03-28T10:41:03Z</time></trkpt><trkpt lat="44.834234176381635" lon="7.9429375559819055"><ele>322.0</ele><time>2026-03-28T10:41:04Z</time></trkpt><trkpt lat="44.834197893310446" lon="7.943022141815226"><ele>322.0</ele><time>2026-03-28T10:41:05Z</time></trkpt><trkpt lat="44.834157136717614" lon="7.943121808078815"><ele>322.0</ele><time>2026-03-28T10:41:06Z</time></trkpt><trkpt lat="44.83411678959534" lon="7.943219584667478"><ele>322.0</ele><time>2026-03-28T10:41:07Z</time></trkpt><trkpt lat="44.83409550161894" lon="7.943311342474412"><ele>322.0</ele><time>2026-03-28T10:41:08Z</time></trkpt><trkpt lat="44.834079981207346" lon="7.943406479463262"><ele>322.0</ele><time>2026-03-28T10:41:09Z</time></trkpt><trkpt lat="44.83408254248789" lon="7.943498402577565"><ele>323.20000000000005</ele><time>2026-03-28T10:41:10Z</time></trkpt><trkpt lat="44.834097089889134" lon="7.943590715912608"><ele>324.4</ele><time>2026-03-28T10:41:11Z</time></trkpt><trkpt lat="44.83410168821893" lon="7.943737248442588"><ele>325.6</ele><time>2026-03-28T10:41:13Z</time></trkpt><trkpt lat="44.83404031695583" lon="7.943851598608991"><ele>326.79999999999995</ele><time>2026-03-28T10:41:15Z</time></trkpt><trkpt lat="44.83392639578566" lon="7.943911370124206"><ele>328.0</ele><time>2026-03-28T10:41:17Z</time></trkpt><trkpt lat="44.833856125636025" lon="7.943930677285505"><ele>328.0</ele><time>2026-03-28T10:41:18Z</time></trkpt><trkpt lat="44.83378676497707" lon="7.9439590379849"><ele>328.0</ele><time>2026-03-28T10:41:19Z</time></trkpt><trkpt lat="44.83371463090411" lon="7.943989161841457"><ele>328.0</ele><time>2026-03-28T10:41:20Z</time></trkpt><trkpt lat="44.833648759181166" lon="7.944021625237519"><ele>328.0</ele><time>2026-03-28T10:41:21Z</time></trkpt><trkpt lat="44.8335712943478" lon="7.944055094243688"><ele>328.0</ele><time>2026-03-28T10:41:22Z</time></trkpt><trkpt lat="44.83348355944467" lon="7.944083438820204"><ele>328.0</ele><time>2026-03-28T10:41:23Z</time></trkpt><trkpt lat="44.83339855860389" lon="7.944105233986251"><ele>330.16666666666663</ele><time>2026-03-28T10:41:24Z</time></trkpt><trkpt lat="44.833319945966416" lon="7.944131010242173"><ele>332.3333333333333</ele><time>2026-03-28T10:41:25Z</time></trkpt><trkpt lat="44.83325074373866" lon="7.944157722109709"><ele>334.5</ele><time>2026-03-28T10:41:26Z</time></trkpt><trkpt lat="44.833181304160966" lon="7.9441747782964525"><ele>336.6666666666667</ele><time>2026-03-28T10:41:27Z</time></trkpt><trkpt lat="44.833104957163705" lon="7.944196240183582"><ele>338.83333333333337</ele><time>2026-03-28T10:41:28Z</time></trkpt><trkpt lat="44.83303268983141" lon="7.944217490594441"><ele>341.0</ele><time>2026-03-28T10:41:29Z</time></trkpt><trkpt lat="44.83295666048236" lon="7.944234463412534"><ele>341.33333333333337</ele><time>2026-03-28T10:41:30Z</time></trkpt><trkpt lat="44.83286870716462" lon="7.944246600708019"><ele>341.6666666666667</ele><time>2026-03-28T10:41:31Z</time></trkpt><trkpt lat="44.83279369962594" lon="7.944262811070745"><ele>342.0</ele><time>2026-03-28T10:41:32Z</time></trkpt><trkpt lat="44.83270941741763" lon="7.944287239170918"><ele>342.3333333333333</ele><time>2026-03-28T10:41:34Z</time></trkpt><trkpt lat="44.83265233907687" lon="7.9443736928698385"><ele>342.66666666666663</ele><time>2026-03-28T10:41:37Z</time></trkpt><trkpt lat="44.83266845288056" lon="7.944474605869241"><ele>343.0</ele><time>2026-03-28T10:41:40Z</time></trkpt><trkpt lat="44.83267604053298" lon="7.944576936424679"><ele>343.0</ele><time>2026-03-28T10:41:47Z</time></trkpt><trkpt lat="44.83266007735456" lon="7.944712185881593"><ele>343.0</ele><time>2026-03-28T10:41:49Z</time></trkpt><trkpt lat="44.832667245382446" lon="7.94480503923247"><ele>343.0</ele><time>2026-03-28T10:41:50Z</time></trkpt><trkpt lat="44.83267842440896" lon="7.944901141816106"><ele>343.0</ele><time>2026-03-28T10:41:51Z</time></trkpt><trkpt lat="44.83269645403112" lon="7.945035164097628"><ele>343.0</ele><time>2026-03-28T10:41:52Z</time></trkpt><trkpt lat="44.8327152472781" lon="7.945155137540163"><ele>343.0</ele><time>2026-03-28T10:41:53Z</time></trkpt><trkpt lat="44.83272578536903" lon="7.945274094279694"><ele>343.3333333333333</ele><time>2026-03-28T10:41:54Z</time></trkpt><trkpt lat="44.832718821309705" lon="7.945383790225537"><ele>343.66666666666663</ele><time>2026-03-28T10:41:55Z</time></trkpt><trkpt lat="44.832709201548894" lon="7.9454767995508995"><ele>344.0</ele><time>2026-03-28T10:41:56Z</time></trkpt><trkpt lat="44.832692022324295" lon="7.945564174891954"><ele>344.3333333333333</ele><time>2026-03-28T10:41:57Z</time></trkpt><trkpt lat="44.832665236723365" lon="7.9456726665259545"><ele>344.6666666666667</ele><time>2026-03-28T10:41:58Z</time></trkpt><trkpt lat="44.832625453746374" lon="7.945807442464892"><ele>345.0</ele><time>2026-03-28T10:41:59Z</time></trkpt><trkpt lat="44.8325764685826" lon="7.94595123273468"><ele>347.75</ele><time>2026-03-28T10:42:00Z</time></trkpt><trkpt lat="44.8325357836174" lon="7.946097531619324"><ele>350.5</ele><time>2026-03-28T10:42:01Z</time></trkpt><trkpt lat="44.83247690174879" lon="7.94624301543455"><ele>353.25</ele><time>2026-03-28T10:42:02Z</time></trkpt><trkpt lat="44.83241688971297" lon="7.94638917401961"><ele>356.0</ele><time>2026-03-28T10:42:03Z</time></trkpt><trkpt lat="44.83235190611222" lon="7.946523514357659"><ele>356.0</ele><time>2026-03-28T10:42:04Z</time></trkpt><trkpt lat="44.83228147678664" lon="7.946646208991621"><ele>356.0</ele><time>2026-03-28T10:42:05Z</time></trkpt><trkpt lat="44.832209336477895" lon="7.946765295285969"><ele>356.0</ele><time>2026-03-28T10:42:06Z</time></trkpt><trkpt lat="44.83214502973438" lon="7.946875235442987"><ele>356.0</ele><time>2026-03-28T10:42:07Z</time></trkpt><trkpt lat="44.8320893621242" lon="7.946967909962416"><ele>356.0</ele><time>2026-03-28T10:42:08Z</time></trkpt><trkpt lat="44.832041435912714" lon="7.947059609011068"><ele>355.8</ele><time>2026-03-28T10:42:09Z</time></trkpt><trkpt lat="44.83200283781204" lon="7.947135493006191"><ele>355.6</ele><time>2026-03-28T10:42:10Z</time></trkpt><trkpt lat="44.8319596871768" lon="7.94728314903829"><ele>355.4</ele><time>2026-03-28T10:42:12Z</time></trkpt><trkpt lat="44.831943654970175" lon="7.94738836285514"><ele>355.2</ele><time>2026-03-28T10:42:14Z</time></trkpt><trkpt lat="44.831834446559654" lon="7.947454628914847"><ele>355.0</ele><time>2026-03-28T10:42:17Z</time></trkpt><trkpt lat="44.83175468337063" lon="7.947453368329555"><ele>354.25</ele><time>2026-03-28T10:42:18Z</time></trkpt><trkpt lat="44.83165823799809" lon="7.947466366278858"><ele>353.5</ele><time>2026-03-28T10:42:19Z</time></trkpt><trkpt lat="44.831542014809735" lon="7.947468973834296"><ele>352.75</ele><time>2026-03-28T10:42:20Z</time></trkpt><trkpt lat="44.83140402718077" lon="7.947493711580772"><ele>352.0</ele><time>2026-03-28T10:42:21Z</time></trkpt><trkpt lat="44.831279102732324" lon="7.9475426608840865"><ele>349.5</ele><time>2026-03-28T10:42:22Z</time></trkpt><trkpt lat="44.83115517178852" lon="7.9475740590864445"><ele>347.0</ele><time>2026-03-28T10:42:23Z</time></trkpt><trkpt lat="44.831027203573335" lon="7.947600103305362"><ele>344.5</ele><time>2026-03-28T10:42:24Z</time></trkpt><trkpt lat="44.83089784155381" lon="7.947620386478629"><ele>342.0</ele><time>2026-03-28T10:42:25Z</time></trkpt><trkpt lat="44.830765230285344" lon="7.947637429873334"><ele>342.0</ele><time>2026-03-28T10:42:26Z</time></trkpt><trkpt lat="44.83063015341768" lon="7.94765217426299"><ele>342.0</ele><time>2026-03-28T10:42:27Z</time></trkpt><trkpt lat="44.83049402201498" lon="7.947656902426236"><ele>342.0</ele><time>2026-03-28T10:42:28Z</time></trkpt><trkpt lat="44.83035717335263" lon="7.9476366586812"><ele>342.0</ele><time>2026-03-28T10:42:29Z</time></trkpt><trkpt lat="44.83021689894792" lon="7.947591426825276"><ele>342.5</ele><time>2026-03-28T10:42:30Z</time></trkpt><trkpt lat="44.830081113970934" lon="7.947537067381164"><ele>343.0</ele><time>2026-03-28T10:42:31Z</time></trkpt><trkpt lat="44.82994175603204" lon="7.947482497696602"><ele>343.5</ele><time>2026-03-28T10:42:32Z</time></trkpt><trkpt lat="44.829800281247" lon="7.94743688328009"><ele>344.0</ele><time>2026-03-28T10:42:33Z</time></trkpt><trkpt lat="44.82965930738492" lon="7.94739739846574"><ele>344.0</ele><time>2026-03-28T10:42:34Z</time></trkpt><trkpt lat="44.82951758001744" lon="7.9473647540072525"><ele>344.0</ele><time>2026-03-28T10:42:35Z</time></trkpt><trkpt lat="44.82937970689035" lon="7.947346055424318"><ele>344.0</ele><time>2026-03-28T10:42:36Z</time></trkpt><trkpt lat="44.829238035754685" lon="7.947336185253476"><ele>344.0</ele><time>2026-03-28T10:42:37Z</time></trkpt><trkpt lat="44.829090498589785" lon="7.947336815170862"><ele>341.33333333333337</ele><time>2026-03-28T10:42:38Z</time></trkpt><trkpt lat="44.82893433042357" lon="7.947345020305073"><ele>338.6666666666667</ele><time>2026-03-28T10:42:39Z</time></trkpt><trkpt lat="44.8287728350701" lon="7.947361045233156"><ele>336.0</ele><time>2026-03-28T10:42:40Z</time></trkpt><trkpt lat="44.82862379350929" lon="7.947374082938937"><ele>334.0</ele><time>2026-03-28T10:42:41Z</time></trkpt><trkpt lat="44.8284744017537" lon="7.947386233187833"><ele>332.0</ele><time>2026-03-28T10:42:42Z</time></trkpt><trkpt lat="44.82832773457177" lon="7.9474001584614165"><ele>330.0</ele><time>2026-03-28T10:42:43Z</time></trkpt><trkpt lat="44.82818376722242" lon="7.9474100561378815"><ele>328.0</ele><time>2026-03-28T10:42:44Z</time></trkpt><trkpt lat="44.82804335008979" lon="7.947405389537318"><ele>328.0</ele><time>2026-03-28T10:42:45Z</time></trkpt><trkpt lat="44.8279171733117" lon="7.947374301493067"><ele>328.0</ele><time>2026-03-28T10:42:46Z</time></trkpt><trkpt lat="44.827815730691064" lon="7.947295559943664"><ele>328.0</ele><time>2026-03-28T10:42:47Z</time></trkpt><trkpt lat="44.827730540208044" lon="7.947186921546146"><ele>328.0</ele><time>2026-03-28T10:42:48Z</time></trkpt><trkpt lat="44.8276667660399" lon="7.947044000661093"><ele>326.5</ele><time>2026-03-28T10:42:49Z</time></trkpt><trkpt lat="44.82761638291177" lon="7.94687611604212"><ele>325.0</ele><time>2026-03-28T10:42:50Z</time></trkpt><trkpt lat="44.82757015264075" lon="7.946692918479917"><ele>323.5</ele><time>2026-03-28T10:42:51Z</time></trkpt><trkpt lat="44.82752582652829" lon="7.946507482489587"><ele>322.0</ele><time>2026-03-28T10:42:52Z</time></trkpt><trkpt lat="44.82747671016045" lon="7.946326738876123"><ele>321.75</ele><time>2026-03-28T10:42:53Z</time></trkpt><trkpt lat="44.82741183237433" lon="7.946160336845753"><ele>321.5</ele><time>2026-03-28T10:42:54Z</time></trkpt><trkpt lat="44.82732890492241" lon="7.946019577486823"><ele>321.25</ele><time>2026-03-28T10:42:55Z</time></trkpt><trkpt lat="44.82723269363179" lon="7.945896286644558"><ele>321.0</ele><time>2026-03-28T10:42:56Z</time></trkpt><trkpt lat="44.827126248046454" lon="7.94577803904328"><ele>320.0</ele><time>2026-03-28T10:42:57Z</time></trkpt><trkpt lat="44.827011842460955" lon="7.9456698534542305"><ele>319.0</ele><time>2026-03-28T10:42:58Z</time></trkpt><trkpt lat="44.82690302230484" lon="7.945567943427357"><ele>318.0</ele><time>2026-03-28T10:42:59Z</time></trkpt><trkpt lat="44.826808628870516" lon="7.945464378421708"><ele>317.0</ele><time>2026-03-28T10:43:00Z</time></trkpt><trkpt lat="44.82673264536625" lon="7.945366934667634"><ele>315.4</ele><time>2026-03-28T10:43:01Z</time></trkpt><trkpt lat="44.826661829473586" lon="7.945292732450341"><ele>313.79999999999995</ele><time>2026-03-28T10:43:02Z</time></trkpt><trkpt lat="44.826625335155946" lon="7.9451976477487944"><ele>312.2</ele><time>2026-03-28T10:43:03Z</time></trkpt><trkpt lat="44.826490225316675" lon="7.9452688500102395"><ele>310.59999999999997</ele><time>2026-03-28T10:43:04Z</time></trkpt><trkpt lat="44.8263939693926" lon="7.94532171850204"><ele>309.0</ele><time>2026-03-28T10:43:05Z</time></trkpt><trkpt lat="44.82629382076659" lon="7.945412040673305"><ele>309.0</ele><time>2026-03-28T10:43:06Z</time></trkpt><trkpt lat="44.826172573922726" lon="7.945489477761665"><ele>309.0</ele><time>2026-03-28T10:43:07Z</time></trkpt><trkpt lat="44.82604606869392" lon="7.945601909692604"><ele>309.0</ele><time>2026-03-28T10:43:08Z</time></trkpt><trkpt lat="44.825905522403225" lon="7.945702238403784"><ele>309.0</ele><time>2026-03-28T10:43:09Z</time></trkpt><trkpt lat="44.82578041357786" lon="7.945781500920638"><ele>306.3333333333333</ele><time>2026-03-28T10:43:10Z</time></trkpt><trkpt lat="44.82564997816894" lon="7.945894632880127"><ele>303.66666666666663</ele><time>2026-03-28T10:43:11Z</time></trkpt><trkpt lat="44.82552447246973" lon="7.946049480098957"><ele>301.0</ele><time>2026-03-28T10:43:12Z</time></trkpt><trkpt lat="44.82539210335353" lon="7.946224858039097"><ele>301.0</ele><time>2026-03-28T10:43:13Z</time></trkpt><trkpt lat="44.82527176662398" lon="7.946393245888967"><ele>301.0</ele><time>2026-03-28T10:43:14Z</time></trkpt><trkpt lat="44.82514766752117" lon="7.946555664522438"><ele>301.0</ele><time>2026-03-28T10:43:15Z</time></trkpt><trkpt lat="44.82502483479241" lon="7.946717230924621"><ele>301.0</ele><time>2026-03-28T10:43:16Z</time></trkpt><trkpt lat="44.82490105411395" lon="7.946874050587676"><ele>301.0</ele><time>2026-03-28T10:43:17Z</time></trkpt><trkpt lat="44.824777725513705" lon="7.9470275346528645"><ele>301.0</ele><time>2026-03-28T10:43:18Z</time></trkpt><trkpt lat="44.82465190184517" lon="7.947181804260875"><ele>301.0</ele><time>2026-03-28T10:43:19Z</time></trkpt><trkpt lat="44.824516776679644" lon="7.947344912484601"><ele>301.0</ele><time>2026-03-28T10:43:20Z</time></trkpt><trkpt lat="44.824374337476684" lon="7.9475126218131615"><ele>301.0</ele><time>2026-03-28T10:43:21Z</time></trkpt><trkpt lat="44.82423807862178" lon="7.947671963389241"><ele>301.0</ele><time>2026-03-28T10:43:22Z</time></trkpt><trkpt lat="44.82411563986388" lon="7.947814595193672"><ele>301.0</ele><time>2026-03-28T10:43:23Z</time></trkpt><trkpt lat="44.823991130203666" lon="7.947954089062999"><ele>301.0</ele><time>2026-03-28T10:43:24Z</time></trkpt><trkpt lat="44.823865616094345" lon="7.948087108707614"><ele>301.0</ele><time>2026-03-28T10:43:25Z</time></trkpt><trkpt lat="44.82373389268925" lon="7.948201918446988"><ele>301.0</ele><time>2026-03-28T10:43:26Z</time></trkpt><trkpt lat="44.82359840181219" lon="7.9483091011256795"><ele>301.0</ele><time>2026-03-28T10:43:27Z</time></trkpt><trkpt lat="44.8234619563431" lon="7.948415553676201"><ele>300.3333333333333</ele><time>2026-03-28T10:43:28Z</time></trkpt><trkpt lat="44.823328635618466" lon="7.948524198714155"><ele>299.6666666666667</ele><time>2026-03-28T10:43:29Z</time></trkpt><trkpt lat="44.82320095549856" lon="7.948631416102052"><ele>299.0</ele><time>2026-03-28T10:43:30Z</time></trkpt><trkpt lat="44.823076984061686" lon="7.94874261748894"><ele>299.0</ele><time>2026-03-28T10:43:31Z</time></trkpt><trkpt lat="44.82295958687808" lon="7.948844312109122"><ele>299.0</ele><time>2026-03-28T10:43:32Z</time></trkpt><trkpt lat="44.82285566941109" lon="7.948928099243916"><ele>299.0</ele><time>2026-03-28T10:43:33Z</time></trkpt><trkpt lat="44.82275740070301" lon="7.948993195659714"><ele>299.0</ele><time>2026-03-28T10:43:34Z</time></trkpt><trkpt lat="44.822664798061254" lon="7.949046786171327"><ele>298.83333333333337</ele><time>2026-03-28T10:43:35Z</time></trkpt><trkpt lat="44.82258737914059" lon="7.94909071806656"><ele>298.6666666666667</ele><time>2026-03-28T10:43:36Z</time></trkpt><trkpt lat="44.82252723168658" lon="7.949127303120146"><ele>298.5</ele><time>2026-03-28T10:43:37Z</time></trkpt><trkpt lat="44.822425836956036" lon="7.94918473242405"><ele>298.3333333333333</ele><time>2026-03-28T10:43:39Z</time></trkpt><trkpt lat="44.82236353273901" lon="7.94922982086448"><ele>298.16666666666663</ele><time>2026-03-28T10:43:40Z</time></trkpt><trkpt lat="44.82229160254688" lon="7.949278024265584"><ele>298.0</ele><time>2026-03-28T10:43:41Z</time></trkpt><trkpt lat="44.822218218771916" lon="7.949313385801663"><ele>298.0</ele><time>2026-03-28T10:43:42Z</time></trkpt><trkpt lat="44.82214219915786" lon="7.9493358433534125"><ele>298.0</ele><time>2026-03-28T10:43:43Z</time></trkpt><trkpt lat="44.822061102098175" lon="7.94932588584582"><ele>298.0</ele><time>2026-03-28T10:43:44Z</time></trkpt><trkpt lat="44.82198830730418" lon="7.94931490106475"><ele>298.0</ele><time>2026-03-28T10:43:45Z</time></trkpt><trkpt lat="44.82192539899264" lon="7.949330763458385"><ele>298.0</ele><time>2026-03-28T10:43:46Z</time></trkpt><trkpt lat="44.821833174217375" lon="7.94946724288003"><ele>298.0</ele><time>2026-03-28T10:43:48Z</time></trkpt><trkpt lat="44.821770017230676" lon="7.94955693229595"><ele>297.8</ele><time>2026-03-28T10:43:49Z</time></trkpt><trkpt lat="44.82168355397475" lon="7.949626799503055"><ele>297.6</ele><time>2026-03-28T10:43:50Z</time></trkpt><trkpt lat="44.821580963890455" lon="7.949679152373555"><ele>297.4</ele><time>2026-03-28T10:43:51Z</time></trkpt><trkpt lat="44.8214673899286" lon="7.949729559234041"><ele>297.2</ele><time>2026-03-28T10:43:52Z</time></trkpt><trkpt lat="44.821359471243525" lon="7.949785583806043"><ele>297.0</ele><time>2026-03-28T10:43:53Z</time></trkpt><trkpt lat="44.82125809212432" lon="7.949828848814205"><ele>297.0</ele><time>2026-03-28T10:43:54Z</time></trkpt><trkpt lat="44.82116871193957" lon="7.9498744389725395"><ele>297.0</ele><time>2026-03-28T10:43:55Z</time></trkpt><trkpt lat="44.82108910978829" lon="7.9499207311132905"><ele>297.0</ele><time>2026-03-28T10:43:56Z</time></trkpt><trkpt lat="44.82101486112625" lon="7.949944931568447"><ele>297.0</ele><time>2026-03-28T10:43:57Z</time></trkpt><trkpt lat="44.82094618883235" lon="7.949953132592183"><ele>297.0</ele><time>2026-03-28T10:43:58Z</time></trkpt><trkpt lat="44.82087442712804" lon="7.950048737917948"><ele>297.0</ele><time>2026-03-28T10:44:00Z</time></trkpt><trkpt lat="44.82086532588388" lon="7.950137383033354"><ele>298.2</ele><time>2026-03-28T10:44:01Z</time></trkpt><trkpt lat="44.82088201359403" lon="7.950257272654887"><ele>299.4</ele><time>2026-03-28T10:44:02Z</time></trkpt><trkpt lat="44.82089285826068" lon="7.950407331152161"><ele>300.6</ele><time>2026-03-28T10:44:03Z</time></trkpt><trkpt lat="44.820877173802636" lon="7.9505699880527905"><ele>301.8</ele><time>2026-03-28T10:44:04Z</time></trkpt><trkpt lat="44.82084708732339" lon="7.950717719122276"><ele>303.0</ele><time>2026-03-28T10:44:05Z</time></trkpt><trkpt lat="44.82078743807054" lon="7.950859834780185"><ele>304.0</ele><time>2026-03-28T10:44:06Z</time></trkpt><trkpt lat="44.82070911572791" lon="7.950993909701355"><ele>305.0</ele><time>2026-03-28T10:44:07Z</time></trkpt><trkpt lat="44.82061054775506" lon="7.9511169553460865"><ele>306.0</ele><time>2026-03-28T10:44:08Z</time></trkpt><trkpt lat="44.82049867947848" lon="7.951238172084562"><ele>307.0</ele><time>2026-03-28T10:44:09Z</time></trkpt><trkpt lat="44.82037499373424" lon="7.95136342196293"><ele>307.0</ele><time>2026-03-28T10:44:10Z</time></trkpt><trkpt lat="44.82025614639858" lon="7.951478509599781"><ele>307.0</ele><time>2026-03-28T10:44:11Z</time></trkpt><trkpt lat="44.82013895641496" lon="7.951602468706175"><ele>307.0</ele><time>2026-03-28T10:44:12Z</time></trkpt><trkpt lat="44.82001697803074" lon="7.9517452447733605"><ele>307.0</ele><time>2026-03-28T10:44:13Z</time></trkpt><trkpt lat="44.81988814787302" lon="7.9519012734129"><ele>307.25</ele><time>2026-03-28T10:44:14Z</time></trkpt><trkpt lat="44.81977669639818" lon="7.952043292103385"><ele>307.5</ele><time>2026-03-28T10:44:15Z</time></trkpt><trkpt lat="44.81967573282959" lon="7.95217129120922"><ele>307.75</ele><time>2026-03-28T10:44:16Z</time></trkpt><trkpt lat="44.81958683850253" lon="7.952284747136791"><ele>308.0</ele><time>2026-03-28T10:44:17Z</time></trkpt><trkpt lat="44.819508482699376" lon="7.9523963790465935"><ele>308.0</ele><time>2026-03-28T10:44:18Z</time></trkpt><trkpt lat="44.81942882388734" lon="7.952513083741104"><ele>308.0</ele><time>2026-03-28T10:44:19Z</time></trkpt><trkpt lat="44.81934389623401" lon="7.952632350130041"><ele>308.0</ele><time>2026-03-28T10:44:20Z</time></trkpt><trkpt lat="44.81926023955726" lon="7.952753041527205"><ele>308.0</ele><time>2026-03-28T10:44:21Z</time></trkpt><trkpt lat="44.819181070357565" lon="7.952859164965638"><ele>308.0</ele><time>2026-03-28T10:44:22Z</time></trkpt><trkpt lat="44.8191058243926" lon="7.952972966943197"><ele>308.0</ele><time>2026-03-28T10:44:23Z</time></trkpt><trkpt lat="44.81902798151033" lon="7.953097312250218"><ele>308.0</ele><time>2026-03-28T10:44:24Z</time></trkpt><trkpt lat="44.81895246617761" lon="7.9532523120599485"><ele>308.0</ele><time>2026-03-28T10:44:25Z</time></trkpt><trkpt lat="44.81885631680307" lon="7.953430037882407"><ele>308.0</ele><time>2026-03-28T10:44:26Z</time></trkpt><trkpt lat="44.81875337484233" lon="7.953603823943021"><ele>308.0</ele><time>2026-03-28T10:44:27Z</time></trkpt><trkpt lat="44.81866265315117" lon="7.953766629280631"><ele>308.0</ele><time>2026-03-28T10:44:28Z</time></trkpt><trkpt lat="44.81857292055043" lon="7.953915648266724"><ele>308.0</ele><time>2026-03-28T10:44:29Z</time></trkpt><trkpt lat="44.818485835795165" lon="7.95407188260594"><ele>308.5</ele><time>2026-03-28T10:44:30Z</time></trkpt><trkpt lat="44.81839402989346" lon="7.954235024872869"><ele>309.0</ele><time>2026-03-28T10:44:31Z</time></trkpt><trkpt lat="44.81829935044568" lon="7.954393170472513"><ele>309.5</ele><time>2026-03-28T10:44:32Z</time></trkpt><trkpt lat="44.818225551314086" lon="7.954525790893097"><ele>310.0</ele><time>2026-03-28T10:44:33Z</time></trkpt><trkpt lat="44.818152247326275" lon="7.954646543235389"><ele>310.0</ele><time>2026-03-28T10:44:34Z</time></trkpt><trkpt lat="44.81808927185609" lon="7.954761297723379"><ele>310.0</ele><time>2026-03-28T10:44:35Z</time></trkpt><trkpt lat="44.81802807670688" lon="7.954868698606614"><ele>310.0</ele><time>2026-03-28T10:44:36Z</time></trkpt><trkpt lat="44.81796223690909" lon="7.954980984002194"><ele>310.0</ele><time>2026-03-28T10:44:37Z</time></trkpt><trkpt lat="44.81788917774589" lon="7.955107137839652"><ele>310.0</ele><time>2026-03-28T10:44:38Z</time></trkpt><trkpt lat="44.81781556329524" lon="7.955228569485254"><ele>309.75</ele><time>2026-03-28T10:44:39Z</time></trkpt><trkpt lat="44.817749082465866" lon="7.955344843835274"><ele>309.5</ele><time>2026-03-28T10:44:40Z</time></trkpt><trkpt lat="44.817693362158096" lon="7.955435214777257"><ele>309.25</ele><time>2026-03-28T10:44:41Z</time></trkpt><trkpt lat="44.81764377659252" lon="7.95554677045819"><ele>309.0</ele><time>2026-03-28T10:44:43Z</time></trkpt><trkpt lat="44.81780049445811" lon="7.955675152354744"><ele>309.59999999999997</ele><time>2026-03-28T10:44:46Z</time></trkpt><trkpt lat="44.81788673420416" lon="7.95570583856306"><ele>310.2</ele><time>2026-03-28T10:44:47Z</time></trkpt><trkpt lat="44.81797924377023" lon="7.955754040751918"><ele>310.79999999999995</ele><time>2026-03-28T10:44:48Z</time></trkpt><trkpt lat="44.81807839802409" lon="7.9558082376451535"><ele>311.4</ele><time>2026-03-28T10:44:49Z</time></trkpt><trkpt lat="44.818182084069846" lon="7.955865427745782"><ele>312.0</ele><time>2026-03-28T10:44:50Z</time></trkpt><trkpt lat="44.81827268766976" lon="7.955916631393199"><ele>312.2</ele><time>2026-03-28T10:44:51Z</time></trkpt><trkpt lat="44.81836654740947" lon="7.955965573928421"><ele>312.4</ele><time>2026-03-28T10:44:52Z</time></trkpt><trkpt lat="44.81845183787095" lon="7.956008686786948"><ele>312.6</ele><time>2026-03-28T10:44:53Z</time></trkpt><trkpt lat="44.81850859157425" lon="7.956063444850107"><ele>312.8</ele><time>2026-03-28T10:44:54Z</time></trkpt><trkpt lat="44.81862317842221" lon="7.956100290219207"><ele>313.0</ele><time>2026-03-28T10:44:56Z</time></trkpt><trkpt lat="44.81871664841535" lon="7.956163798566113"><ele>313.0</ele><time>2026-03-28T10:44:58Z</time></trkpt><trkpt lat="44.818780235166095" lon="7.956203929507562"><ele>313.0</ele><time>2026-03-28T10:45:00Z</time></trkpt><trkpt lat="44.81871306569876" lon="7.956162063230582"><ele>313.0</ele><time>2026-03-28T10:45:10Z</time></trkpt><trkpt lat="44.81862681899917" lon="7.956114269561938"><ele>313.0</ele><time>2026-03-28T10:45:12Z</time></trkpt><trkpt lat="44.81854754179728" lon="7.956073698058234"><ele>313.0</ele><time>2026-03-28T10:45:14Z</time></trkpt><trkpt lat="44.81848815294245" lon="7.956043483582687"><ele>313.0</ele><time>2026-03-28T10:45:16Z</time></trkpt><trkpt lat="44.818406335818835" lon="7.9560020865034"><ele>313.0</ele><time>2026-03-28T10:45:48Z</time></trkpt><trkpt lat="44.81830608584293" lon="7.955951376922935"><ele>313.0</ele><time>2026-03-28T10:45:50Z</time></trkpt><trkpt lat="44.81811707393312" lon="7.9558084953663375"><ele>313.0</ele><time>2026-03-28T10:45:52Z</time></trkpt><trkpt lat="44.81804969083408" lon="7.95575638162099"><ele>313.0</ele><time>2026-03-28T10:45:53Z</time></trkpt><trkpt lat="44.8179891791089" lon="7.9556976874786685"><ele>312.8</ele><time>2026-03-28T10:45:54Z</time></trkpt><trkpt lat="44.81792340081411" lon="7.955655054572944"><ele>312.6</ele><time>2026-03-28T10:45:55Z</time></trkpt><trkpt lat="44.817868147623" lon="7.955593564812363"><ele>312.4</ele><time>2026-03-28T10:45:56Z</time></trkpt><trkpt lat="44.8177347466915" lon="7.955595968078172"><ele>312.2</ele><time>2026-03-28T10:45:58Z</time></trkpt><trkpt lat="44.8176761829795" lon="7.955557022060839"><ele>312.0</ele><time>2026-03-28T10:46:00Z</time></trkpt><trkpt lat="44.81757550934112" lon="7.955479057066832"><ele>311.4</ele><time>2026-03-28T10:46:02Z</time></trkpt><trkpt lat="44.81750571202379" lon="7.955423171915672"><ele>310.79999999999995</ele><time>2026-03-28T10:46:03Z</time></trkpt><trkpt lat="44.81742545850937" lon="7.955335209275455"><ele>310.2</ele><time>2026-03-28T10:46:04Z</time></trkpt><trkpt lat="44.817336672045364" lon="7.955235409269459"><ele>309.59999999999997</ele><time>2026-03-28T10:46:05Z</time></trkpt><trkpt lat="44.81725493860555" lon="7.955138037192909"><ele>309.0</ele><time>2026-03-28T10:46:06Z</time></trkpt><trkpt lat="44.81716448566049" lon="7.955040101899739"><ele>308.5</ele><time>2026-03-28T10:46:07Z</time></trkpt><trkpt lat="44.8170751107234" lon="7.954938548980245"><ele>308.0</ele><time>2026-03-28T10:46:08Z</time></trkpt><trkpt lat="44.8169831764562" lon="7.9548225544166895"><ele>307.5</ele><time>2026-03-28T10:46:09Z</time></trkpt><trkpt lat="44.81689584435612" lon="7.9547054480106745"><ele>307.0</ele><time>2026-03-28T10:46:10Z</time></trkpt><trkpt lat="44.816815391915114" lon="7.954612958999385"><ele>307.0</ele><time>2026-03-28T10:46:11Z</time></trkpt><trkpt lat="44.81673866279393" lon="7.954524727044566"><ele>307.0</ele><time>2026-03-28T10:46:12Z</time></trkpt><trkpt lat="44.81668089816352" lon="7.954416566722833"><ele>307.0</ele><time>2026-03-28T10:46:13Z</time></trkpt><trkpt lat="44.81661558670115" lon="7.954332157907028"><ele>307.0</ele><time>2026-03-28T10:46:14Z</time></trkpt><trkpt lat="44.81655534654085" lon="7.954252532122586"><ele>307.0</ele><time>2026-03-28T10:46:15Z</time></trkpt><trkpt lat="44.81649290279963" lon="7.954190566391535"><ele>307.0</ele><time>2026-03-28T10:46:16Z</time></trkpt><trkpt lat="44.81644961363825" lon="7.954120081787664"><ele>307.0</ele><time>2026-03-28T10:46:17Z</time></trkpt><trkpt lat="44.81639159533341" lon="7.954065694233102"><ele>307.0</ele><time>2026-03-28T10:46:20Z</time></trkpt><trkpt lat="44.81624168867523" lon="7.954094556801357"><ele>307.0</ele><time>2026-03-28T10:46:27Z</time></trkpt><trkpt lat="44.81617132907396" lon="7.9541645802483805"><ele>307.0</ele><time>2026-03-28T10:46:28Z</time></trkpt><trkpt lat="44.81609847719541" lon="7.954239532904845"><ele>307.0</ele><time>2026-03-28T10:46:29Z</time></trkpt><trkpt lat="44.816003485709295" lon="7.954329501858724"><ele>307.5</ele><time>2026-03-28T10:46:30Z</time></trkpt><trkpt lat="44.8158945374661" lon="7.954433832230992"><ele>308.0</ele><time>2026-03-28T10:46:31Z</time></trkpt><trkpt lat="44.815795334915926" lon="7.954531387386605"><ele>308.5</ele><time>2026-03-28T10:46:32Z</time></trkpt><trkpt lat="44.81569080387268" lon="7.954629530746582"><ele>309.0</ele><time>2026-03-28T10:46:33Z</time></trkpt><trkpt lat="44.81559330471797" lon="7.954734526228292"><ele>309.0</ele><time>2026-03-28T10:46:34Z</time></trkpt><trkpt lat="44.815500114484315" lon="7.954833246653615"><ele>309.0</ele><time>2026-03-28T10:46:35Z</time></trkpt><trkpt lat="44.81541412886041" lon="7.954926672852593"><ele>309.0</ele><time>2026-03-28T10:46:36Z</time></trkpt><trkpt lat="44.81533326874092" lon="7.955021850536814"><ele>309.0</ele><time>2026-03-28T10:46:37Z</time></trkpt><trkpt lat="44.81525617755693" lon="7.955115258912163"><ele>309.0</ele><time>2026-03-28T10:46:38Z</time></trkpt><trkpt lat="44.81518045523365" lon="7.955209822642077"><ele>309.2</ele><time>2026-03-28T10:46:39Z</time></trkpt><trkpt lat="44.81510527439245" lon="7.955313439982536"><ele>309.4</ele><time>2026-03-28T10:46:40Z</time></trkpt><trkpt lat="44.81503093044039" lon="7.955424976262173"><ele>309.6</ele><time>2026-03-28T10:46:41Z</time></trkpt><trkpt lat="44.81495600958296" lon="7.955531257337315"><ele>309.8</ele><time>2026-03-28T10:46:42Z</time></trkpt><trkpt lat="44.81488329290056" lon="7.95562091106821"><ele>310.0</ele><time>2026-03-28T10:46:43Z</time></trkpt><trkpt lat="44.81483739214385" lon="7.9557326341159404"><ele>310.0</ele><time>2026-03-28T10:46:44Z</time></trkpt><trkpt lat="44.81477932805826" lon="7.955797083137952"><ele>310.0</ele><time>2026-03-28T10:46:45Z</time></trkpt><trkpt lat="44.8147220657781" lon="7.955852437898581"><ele>310.0</ele><time>2026-03-28T10:46:46Z</time></trkpt><trkpt lat="44.81462399290503" lon="7.955962160506208"><ele>310.0</ele><time>2026-03-28T10:46:48Z</time></trkpt><trkpt lat="44.81460372370268" lon="7.9560637332841"><ele>310.0</ele><time>2026-03-28T10:46:49Z</time></trkpt><trkpt lat="44.814538900851794" lon="7.956204516578932"><ele>310.25</ele><time>2026-03-28T10:46:50Z</time></trkpt><trkpt lat="44.814474456779735" lon="7.95632695955125"><ele>310.5</ele><time>2026-03-28T10:46:51Z</time></trkpt><trkpt lat="44.81440674950928" lon="7.956458505674073"><ele>310.75</ele><time>2026-03-28T10:46:52Z</time></trkpt><trkpt lat="44.81434062347506" lon="7.9565955673147775"><ele>311.0</ele><time>2026-03-28T10:46:53Z</time></trkpt><trkpt lat="44.81426889893004" lon="7.956730354423652"><ele>311.2</ele><time>2026-03-28T10:46:54Z</time></trkpt><trkpt lat="44.81420492635651" lon="7.956839398129139"><ele>311.40000000000003</ele><time>2026-03-28T10:46:55Z</time></trkpt><trkpt lat="44.81414788468581" lon="7.956903551473249"><ele>311.6</ele><time>2026-03-28T10:46:57Z</time></trkpt><trkpt lat="44.81408019263953" lon="7.957008672095226"><ele>311.8</ele><time>2026-03-28T10:47:00Z</time></trkpt><trkpt lat="44.81399596595338" lon="7.957160190238384"><ele>312.0</ele><time>2026-03-28T10:47:02Z</time></trkpt><trkpt lat="44.81394467798433" lon="7.957243394384194"><ele>312.0</ele><time>2026-03-28T10:47:03Z</time></trkpt><trkpt lat="44.81388575689368" lon="7.957343052900972"><ele>312.0</ele><time>2026-03-28T10:47:04Z</time></trkpt><trkpt lat="44.813820671813005" lon="7.95745638223103"><ele>312.0</ele><time>2026-03-28T10:47:05Z</time></trkpt><trkpt lat="44.81374595664532" lon="7.957582634733293"><ele>312.0</ele><time>2026-03-28T10:47:06Z</time></trkpt><trkpt lat="44.81367536670527" lon="7.957700528081548"><ele>312.0</ele><time>2026-03-28T10:47:07Z</time></trkpt><trkpt lat="44.81360711381225" lon="7.957819023867639"><ele>312.4</ele><time>2026-03-28T10:47:08Z</time></trkpt><trkpt lat="44.81353879734944" lon="7.957941181090304"><ele>312.79999999999995</ele><time>2026-03-28T10:47:09Z</time></trkpt><trkpt lat="44.81346448344726" lon="7.958058507596236"><ele>313.2</ele><time>2026-03-28T10:47:10Z</time></trkpt><trkpt lat="44.81339768848282" lon="7.958172166448684"><ele>313.59999999999997</ele><time>2026-03-28T10:47:11Z</time></trkpt><trkpt lat="44.81332771463357" lon="7.958277431127617"><ele>314.0</ele><time>2026-03-28T10:47:12Z</time></trkpt><trkpt lat="44.81327047917968" lon="7.958383676592245"><ele>314.8</ele><time>2026-03-28T10:47:13Z</time></trkpt><trkpt lat="44.813214657692775" lon="7.958487776899743"><ele>315.59999999999997</ele><time>2026-03-28T10:47:14Z</time></trkpt><trkpt lat="44.81316700891762" lon="7.9586046565588635"><ele>316.4</ele><time>2026-03-28T10:47:15Z</time></trkpt><trkpt lat="44.81312307023488" lon="7.958713835605602"><ele>317.2</ele><time>2026-03-28T10:47:16Z</time></trkpt><trkpt lat="44.81307426562093" lon="7.958825457503883"><ele>318.0</ele><time>2026-03-28T10:47:17Z</time></trkpt><trkpt lat="44.813030044439195" lon="7.95894810792643"><ele>318.0</ele><time>2026-03-28T10:47:18Z</time></trkpt><trkpt lat="44.81298647828774" lon="7.9590814460485895"><ele>318.0</ele><time>2026-03-28T10:47:19Z</time></trkpt><trkpt lat="44.81293571013652" lon="7.95920714558917"><ele>318.0</ele><time>2026-03-28T10:47:20Z</time></trkpt><trkpt lat="44.81290175735413" lon="7.959354703183114"><ele>318.0</ele><time>2026-03-28T10:47:21Z</time></trkpt><trkpt lat="44.81287155165794" lon="7.959494126808118"><ele>318.0</ele><time>2026-03-28T10:47:22Z</time></trkpt><trkpt lat="44.81284076183427" lon="7.959644515258345"><ele>318.2</ele><time>2026-03-28T10:47:23Z</time></trkpt><trkpt lat="44.81280694155792" lon="7.959794277007958"><ele>318.4</ele><time>2026-03-28T10:47:24Z</time></trkpt><trkpt lat="44.81277522764379" lon="7.959941588373011"><ele>318.59999999999997</ele><time>2026-03-28T10:47:25Z</time></trkpt><trkpt lat="44.81273289505975" lon="7.960083670873487"><ele>318.8</ele><time>2026-03-28T10:47:26Z</time></trkpt><trkpt lat="44.81271131131739" lon="7.960233970126812"><ele>319.0</ele><time>2026-03-28T10:47:27Z</time></trkpt><trkpt lat="44.81269481805354" lon="7.960376426114284"><ele>319.0</ele><time>2026-03-28T10:47:28Z</time></trkpt><trkpt lat="44.812679275805856" lon="7.960500582465141"><ele>319.0</ele><time>2026-03-28T10:47:29Z</time></trkpt><trkpt lat="44.8126538348796" lon="7.960611445723807"><ele>319.0</ele><time>2026-03-28T10:47:30Z</time></trkpt><trkpt lat="44.81263070157912" lon="7.9607098551842626"><ele>319.0</ele><time>2026-03-28T10:47:31Z</time></trkpt><trkpt lat="44.812589561557864" lon="7.960786201028035"><ele>319.0</ele><time>2026-03-28T10:47:32Z</time></trkpt><trkpt lat="44.812532740385784" lon="7.960851144730905"><ele>319.0</ele><time>2026-03-28T10:47:33Z</time></trkpt><trkpt lat="44.81243567268892" lon="7.960887619186316"><ele>319.5</ele><time>2026-03-28T10:47:34Z</time></trkpt><trkpt lat="44.81236434510158" lon="7.960944648078272"><ele>320.0</ele><time>2026-03-28T10:47:35Z</time></trkpt><trkpt lat="44.81230114061339" lon="7.961014380632859"><ele>320.5</ele><time>2026-03-28T10:47:36Z</time></trkpt><trkpt lat="44.812245939507456" lon="7.961096835728074"><ele>321.0</ele><time>2026-03-28T10:47:37Z</time></trkpt><trkpt lat="44.81218381353018" lon="7.961191845503267"><ele>321.5</ele><time>2026-03-28T10:47:38Z</time></trkpt><trkpt lat="44.812123717088845" lon="7.961288775320488"><ele>322.0</ele><time>2026-03-28T10:47:39Z</time></trkpt><trkpt lat="44.81207983705098" lon="7.961392188496382"><ele>322.0</ele><time>2026-03-28T10:47:40Z</time></trkpt><trkpt lat="44.812026559133876" lon="7.961489287434468"><ele>322.0</ele><time>2026-03-28T10:47:41Z</time></trkpt><trkpt lat="44.81197646285005" lon="7.961582399018362"><ele>322.0</ele><time>2026-03-28T10:47:42Z</time></trkpt><trkpt lat="44.81195454997911" lon="7.961687383930449"><ele>322.0</ele><time>2026-03-28T10:47:43Z</time></trkpt><trkpt lat="44.811925689614185" lon="7.961819468295235"><ele>322.0</ele><time>2026-03-28T10:47:44Z</time></trkpt><trkpt lat="44.811892208725986" lon="7.961946265920585"><ele>322.0</ele><time>2026-03-28T10:47:45Z</time></trkpt><trkpt lat="44.81187482797387" lon="7.962074148370733"><ele>322.66666666666663</ele><time>2026-03-28T10:47:46Z</time></trkpt><trkpt lat="44.81185098212147" lon="7.962187259118041"><ele>323.3333333333333</ele><time>2026-03-28T10:47:47Z</time></trkpt><trkpt lat="44.81183204687214" lon="7.962296548699027"><ele>324.0</ele><time>2026-03-28T10:47:48Z</time></trkpt><trkpt lat="44.81180833311873" lon="7.962382946209218"><ele>324.6666666666667</ele><time>2026-03-28T10:47:49Z</time></trkpt><trkpt lat="44.811764825581555" lon="7.96253388229756"><ele>325.33333333333337</ele><time>2026-03-28T10:47:51Z</time></trkpt><trkpt lat="44.81178346506882" lon="7.962631913242645"><ele>326.0</ele><time>2026-03-28T10:47:52Z</time></trkpt><trkpt lat="44.811779041865975" lon="7.962731058997969"><ele>325.1666666666667</ele><time>2026-03-28T10:47:53Z</time></trkpt><trkpt lat="44.81176060785687" lon="7.962837924437417"><ele>324.33333333333337</ele><time>2026-03-28T10:47:54Z</time></trkpt><trkpt lat="44.81174185190985" lon="7.962960566630575"><ele>323.5</ele><time>2026-03-28T10:47:55Z</time></trkpt><trkpt lat="44.81172615219533" lon="7.9630868625496225"><ele>322.6666666666667</ele><time>2026-03-28T10:47:56Z</time></trkpt><trkpt lat="44.811709998717035" lon="7.96320953108219"><ele>321.8333333333333</ele><time>2026-03-28T10:47:57Z</time></trkpt><trkpt lat="44.81169355198802" lon="7.963327611862966"><ele>321.0</ele><time>2026-03-28T10:47:58Z</time></trkpt><trkpt lat="44.81166673056101" lon="7.963437426786385"><ele>321.0</ele><time>2026-03-28T10:47:59Z</time></trkpt><trkpt lat="44.81164255683529" lon="7.963541145236492"><ele>321.0</ele><time>2026-03-28T10:48:00Z</time></trkpt><trkpt lat="44.81159290097119" lon="7.963617735104765"><ele>321.0</ele><time>2026-03-28T10:48:01Z</time></trkpt><trkpt lat="44.81156869833006" lon="7.963716271977717"><ele>321.0</ele><time>2026-03-28T10:48:03Z</time></trkpt><trkpt lat="44.81149615676162" lon="7.963803925266562"><ele>321.0</ele><time>2026-03-28T10:48:32Z</time></trkpt><trkpt lat="44.81147164218803" lon="7.9638994065283315"><ele>321.0</ele><time>2026-03-28T10:48:34Z</time></trkpt><trkpt lat="44.81138572217723" lon="7.9639221306958845"><ele>321.0</ele><time>2026-03-28T10:48:36Z</time></trkpt><trkpt lat="44.81133048183263" lon="7.96398709297874"><ele>321.0</ele><time>2026-03-28T10:48:38Z</time></trkpt><trkpt lat="44.811243279331954" lon="7.964040178330071"><ele>321.0</ele><time>2026-03-28T10:48:40Z</time></trkpt><trkpt lat="44.81116035291544" lon="7.964062758029164"><ele>321.0</ele><time>2026-03-28T10:48:42Z</time></trkpt><trkpt lat="44.811077361778" lon="7.964048060567439"><ele>321.0</ele><time>2026-03-28T10:48:45Z</time></trkpt><trkpt lat="44.81099419782435" lon="7.964014832704221"><ele>321.0</ele><time>2026-03-28T10:48:47Z</time></trkpt><trkpt lat="44.81089715813708" lon="7.963954438887633"><ele>316.6</ele><time>2026-03-28T10:48:49Z</time></trkpt><trkpt lat="44.810785686112666" lon="7.963922347027422"><ele>312.20000000000005</ele><time>2026-03-28T10:48:51Z</time></trkpt><trkpt lat="44.81067144960862" lon="7.963912678429463"><ele>307.79999999999995</ele><time>2026-03-28T10:48:53Z</time></trkpt><trkpt lat="44.81057044497516" lon="7.963927936926242"><ele>303.4</ele><time>2026-03-28T10:48:55Z</time></trkpt><trkpt lat="44.81046673586424" lon="7.963934845392196"><ele>299.0</ele><time>2026-03-28T10:48:57Z</time></trkpt><trkpt lat="44.81036932485947" lon="7.963942178975827"><ele>299.0</ele><time>2026-03-28T10:48:59Z</time></trkpt><trkpt lat="44.81027587356424" lon="7.963945735600901"><ele>299.0</ele><time>2026-03-28T10:49:01Z</time></trkpt><trkpt lat="44.810172440980764" lon="7.963953275388914"><ele>299.0</ele><time>2026-03-28T10:49:03Z</time></trkpt><trkpt lat="44.81008411544642" lon="7.963941673736015"><ele>299.0</ele><time>2026-03-28T10:49:05Z</time></trkpt><trkpt lat="44.809986977560314" lon="7.963933154656878"><ele>299.0</ele><time>2026-03-28T10:49:07Z</time></trkpt><trkpt lat="44.80989782523371" lon="7.963933524252028"><ele>296.5</ele><time>2026-03-28T10:49:09Z</time></trkpt><trkpt lat="44.80982186497995" lon="7.963917040212827"><ele>294.0</ele><time>2026-03-28T10:49:11Z</time></trkpt><trkpt lat="44.80973140955766" lon="7.963917576916208"><ele>291.5</ele><time>2026-03-28T10:49:13Z</time></trkpt><trkpt lat="44.80966604929187" lon="7.963920324247947"><ele>289.0</ele><time>2026-03-28T10:49:14Z</time></trkpt><trkpt lat="44.80960146322469" lon="7.963931862476974"><ele>286.5</ele><time>2026-03-28T10:49:15Z</time></trkpt><trkpt lat="44.809494609654095" lon="7.963962112210969"><ele>284.0</ele><time>2026-03-28T10:49:17Z</time></trkpt><trkpt lat="44.809393379858285" lon="7.964007410865818"><ele>281.59999999999997</ele><time>2026-03-28T10:49:19Z</time></trkpt><trkpt lat="44.809308618853606" lon="7.9640611286777485"><ele>279.2</ele><time>2026-03-28T10:49:21Z</time></trkpt><trkpt lat="44.80922586518504" lon="7.964132194482181"><ele>276.79999999999995</ele><time>2026-03-28T10:49:23Z</time></trkpt><trkpt lat="44.8091426245681" lon="7.964246645508101"><ele>274.4</ele><time>2026-03-28T10:49:25Z</time></trkpt><trkpt lat="44.80904562194726" lon="7.9643372812362605"><ele>272.0</ele><time>2026-03-28T10:49:27Z</time></trkpt><trkpt lat="44.80896622050792" lon="7.9644337826034475"><ele>271.4</ele><time>2026-03-28T10:49:29Z</time></trkpt><trkpt lat="44.80887607391526" lon="7.964520350497162"><ele>270.79999999999995</ele><time>2026-03-28T10:49:31Z</time></trkpt><trkpt lat="44.808777500736134" lon="7.964619253380066"><ele>270.2</ele><time>2026-03-28T10:49:33Z</time></trkpt><trkpt lat="44.80872067910864" lon="7.9646623163564625"><ele>269.59999999999997</ele><time>2026-03-28T10:49:34Z</time></trkpt><trkpt lat="44.80862054800361" lon="7.964741564739793"><ele>269.0</ele><time>2026-03-28T10:49:36Z</time></trkpt><trkpt lat="44.80854707794459" lon="7.964804630339601"><ele>266.59999999999997</ele><time>2026-03-28T10:49:38Z</time></trkpt><trkpt lat="44.808492477687295" lon="7.964853197422427"><ele>264.2</ele><time>2026-03-28T10:49:40Z</time></trkpt><trkpt lat="44.8084245436682" lon="7.964888650862328"><ele>261.79999999999995</ele><time>2026-03-28T10:49:43Z</time></trkpt><trkpt lat="44.80831139494038" lon="7.964908825024056"><ele>259.4</ele><time>2026-03-28T10:49:46Z</time></trkpt><trkpt lat="44.80819991910609" lon="7.965008910746437"><ele>257.0</ele><time>2026-03-28T10:49:48Z</time></trkpt><trkpt lat="44.8081263518251" lon="7.965067323014977"><ele>255.0</ele><time>2026-03-28T10:49:49Z</time></trkpt><trkpt lat="44.80803477912939" lon="7.965163767672696"><ele>253.0</ele><time>2026-03-28T10:49:50Z</time></trkpt><trkpt lat="44.80794635953989" lon="7.965228038342532"><ele>251.0</ele><time>2026-03-28T10:49:51Z</time></trkpt><trkpt lat="44.80785651172311" lon="7.965280683342829"><ele>249.0</ele><time>2026-03-28T10:49:52Z</time></trkpt><trkpt lat="44.80778459702636" lon="7.965317846354467"><ele>247.0</ele><time>2026-03-28T10:49:53Z</time></trkpt><trkpt lat="44.80771070642609" lon="7.965354159050328"><ele>246.8</ele><time>2026-03-28T10:49:54Z</time></trkpt><trkpt lat="44.807649644639525" lon="7.965388200906365"><ele>246.6</ele><time>2026-03-28T10:49:55Z</time></trkpt><trkpt lat="44.80757734718045" lon="7.9654324513008286"><ele>246.40000000000003</ele><time>2026-03-28T10:49:56Z</time></trkpt><trkpt lat="44.807483933886324" lon="7.965509940018343"><ele>246.20000000000002</ele><time>2026-03-28T10:49:57Z</time></trkpt><trkpt lat="44.807380924314565" lon="7.965593913056589"><ele>246.0</ele><time>2026-03-28T10:49:58Z</time></trkpt><trkpt lat="44.80728438254263" lon="7.9656761164407035"><ele>246.0</ele><time>2026-03-28T10:49:59Z</time></trkpt><trkpt lat="44.80719469972688" lon="7.965754434638715"><ele>246.00000000000003</ele><time>2026-03-28T10:50:00Z</time></trkpt><trkpt lat="44.80711332524032" lon="7.965835104510536"><ele>246.00000000000003</ele><time>2026-03-28T10:50:01Z</time></trkpt><trkpt lat="44.80704043275074" lon="7.965921415321968"><ele>246.0</ele><time>2026-03-28T10:50:02Z</time></trkpt><trkpt lat="44.80700707437067" lon="7.966027477209582"><ele>246.0</ele><time>2026-03-28T10:50:03Z</time></trkpt><trkpt lat="44.80701946176042" lon="7.966139822797439"><ele>244.8</ele><time>2026-03-28T10:50:04Z</time></trkpt><trkpt lat="44.807070844576174" lon="7.96621544954681"><ele>243.60000000000002</ele><time>2026-03-28T10:50:05Z</time></trkpt><trkpt lat="44.8071524499882" lon="7.966243169259494"><ele>242.4</ele><time>2026-03-28T10:50:06Z</time></trkpt><trkpt lat="44.80726092486207" lon="7.966212405053425"><ele>241.2</ele><time>2026-03-28T10:50:07Z</time></trkpt><trkpt lat="44.80737232122217" lon="7.966136611372684"><ele>240.0</ele><time>2026-03-28T10:50:08Z</time></trkpt><trkpt lat="44.807483511720505" lon="7.966053376125389"><ele>240.0</ele><time>2026-03-28T10:50:09Z</time></trkpt><trkpt lat="44.8075621316861" lon="7.965951983709801"><ele>240.0</ele><time>2026-03-28T10:50:10Z</time></trkpt><trkpt lat="44.807664361129795" lon="7.96586522761392"><ele>240.0</ele><time>2026-03-28T10:50:11Z</time></trkpt><trkpt lat="44.807774061784556" lon="7.965797025133413"><ele>240.0</ele><time>2026-03-28T10:50:12Z</time></trkpt><trkpt lat="44.80790323411597" lon="7.965759284876606"><ele>241.75</ele><time>2026-03-28T10:50:13Z</time></trkpt><trkpt lat="44.80804277052958" lon="7.96574096277936"><ele>243.5</ele><time>2026-03-28T10:50:14Z</time></trkpt><trkpt lat="44.80817870030169" lon="7.965732669596409"><ele>245.25</ele><time>2026-03-28T10:50:15Z</time></trkpt><trkpt lat="44.80831204850075" lon="7.965746823615899"><ele>247.0</ele><time>2026-03-28T10:50:16Z</time></trkpt><trkpt lat="44.80843828662388" lon="7.965724401048371"><ele>249.2</ele><time>2026-03-28T10:50:17Z</time></trkpt><trkpt lat="44.808554655219446" lon="7.965731360179008"><ele>251.39999999999998</ele><time>2026-03-28T10:50:18Z</time></trkpt><trkpt lat="44.80866606767017" lon="7.965721825522363"><ele>253.60000000000002</ele><time>2026-03-28T10:50:19Z</time></trkpt><trkpt lat="44.80875908734274" lon="7.965715660567531"><ele>255.8</ele><time>2026-03-28T10:50:20Z</time></trkpt><trkpt lat="44.80883524738725" lon="7.965743755810608"><ele>258.0</ele><time>2026-03-28T10:50:21Z</time></trkpt><trkpt lat="44.80888185803411" lon="7.965815058257648"><ele>258.6</ele><time>2026-03-28T10:50:22Z</time></trkpt><trkpt lat="44.80889790535854" lon="7.965935143044927"><ele>259.20000000000005</ele><time>2026-03-28T10:50:23Z</time></trkpt><trkpt lat="44.80886525525902" lon="7.966052334015227"><ele>259.8</ele><time>2026-03-28T10:50:24Z</time></trkpt><trkpt lat="44.8087964398302" lon="7.966154455521559"><ele>260.40000000000003</ele><time>2026-03-28T10:50:25Z</time></trkpt><trkpt lat="44.80869529048467" lon="7.966214155985694"><ele>261.0</ele><time>2026-03-28T10:50:26Z</time></trkpt><trkpt lat="44.808579753803905" lon="7.966287994088216"><ele>256.5</ele><time>2026-03-28T10:50:27Z</time></trkpt><trkpt lat="44.80845715734322" lon="7.966310058729698"><ele>252.0</ele><time>2026-03-28T10:50:28Z</time></trkpt><trkpt lat="44.80836418202562" lon="7.966370056917061"><ele>247.5</ele><time>2026-03-28T10:50:29Z</time></trkpt><trkpt lat="44.80827002526086" lon="7.966493088516549"><ele>243.0</ele><time>2026-03-28T10:50:30Z</time></trkpt><trkpt lat="44.80820228894422" lon="7.96665059950252"><ele>242.75</ele><time>2026-03-28T10:50:31Z</time></trkpt><trkpt lat="44.808145099449845" lon="7.966824899018548"><ele>242.5</ele><time>2026-03-28T10:50:32Z</time></trkpt><trkpt lat="44.80809335863922" lon="7.96700167018214"><ele>242.25</ele><time>2026-03-28T10:50:33Z</time></trkpt><trkpt lat="44.80803721092535" lon="7.9671632087400255"><ele>242.0</ele><time>2026-03-28T10:50:34Z</time></trkpt><trkpt lat="44.80799220486733" lon="7.967318000768048"><ele>242.0</ele><time>2026-03-28T10:50:35Z</time></trkpt><trkpt lat="44.8079881357926" lon="7.967476509813522"><ele>242.0</ele><time>2026-03-28T10:50:36Z</time></trkpt><trkpt lat="44.808031527642136" lon="7.967633807287504"><ele>242.0</ele><time>2026-03-28T10:50:37Z</time></trkpt><trkpt lat="44.80812137378576" lon="7.967777683556774"><ele>242.0</ele><time>2026-03-28T10:50:38Z</time></trkpt><trkpt lat="44.80823992763002" lon="7.9678902364040045"><ele>243.0</ele><time>2026-03-28T10:50:39Z</time></trkpt><trkpt lat="44.8083771794554" lon="7.967986151332141"><ele>244.0</ele><time>2026-03-28T10:50:40Z</time></trkpt><trkpt lat="44.808506051761086" lon="7.96810763750748"><ele>245.0</ele><time>2026-03-28T10:50:41Z</time></trkpt><trkpt lat="44.80860218184045" lon="7.968268232333171"><ele>241.0</ele><time>2026-03-28T10:50:42Z</time></trkpt><trkpt lat="44.808680645716784" lon="7.96846012575499"><ele>237.0</ele><time>2026-03-28T10:50:43Z</time></trkpt><trkpt lat="44.80876023896716" lon="7.96864702568217"><ele>233.0</ele><time>2026-03-28T10:50:44Z</time></trkpt><trkpt lat="44.8088447452412" lon="7.968827825216813"><ele>233.0</ele><time>2026-03-28T10:50:45Z</time></trkpt><trkpt lat="44.80891996427462" lon="7.968995486273949"><ele>233.0</ele><time>2026-03-28T10:50:46Z</time></trkpt><trkpt lat="44.80899009683006" lon="7.969159944830685"><ele>233.0</ele><time>2026-03-28T10:50:47Z</time></trkpt><trkpt lat="44.809061661184074" lon="7.969312156435314"><ele>233.0</ele><time>2026-03-28T10:50:48Z</time></trkpt><trkpt lat="44.80910573674399" lon="7.969459386296959"><ele>230.75</ele><time>2026-03-28T10:50:49Z</time></trkpt><trkpt lat="44.809107045625005" lon="7.969615683938914"><ele>228.5</ele><time>2026-03-28T10:50:50Z</time></trkpt><trkpt lat="44.80906334015928" lon="7.96975521797382"><ele>226.25</ele><time>2026-03-28T10:50:51Z</time></trkpt><trkpt lat="44.80898193995377" lon="7.969869733659966"><ele>224.0</ele><time>2026-03-28T10:50:52Z</time></trkpt><trkpt lat="44.80885776166714" lon="7.969888175746924"><ele>224.0</ele><time>2026-03-28T10:50:53Z</time></trkpt><trkpt lat="44.808720653663066" lon="7.969920847041248"><ele>224.0</ele><time>2026-03-28T10:50:54Z</time></trkpt><trkpt lat="44.80858322687261" lon="7.96995882144941"><ele>224.0</ele><time>2026-03-28T10:50:55Z</time></trkpt><trkpt lat="44.808430977355016" lon="7.97000089184761"><ele>224.0</ele><time>2026-03-28T10:50:56Z</time></trkpt><trkpt lat="44.80825689500408" lon="7.970042318692071"><ele>222.66666666666669</ele><time>2026-03-28T10:50:57Z</time></trkpt><trkpt lat="44.80810300442519" lon="7.970051056380532"><ele>221.33333333333331</ele><time>2026-03-28T10:50:58Z</time></trkpt><trkpt lat="44.807940972594594" lon="7.969993190886641"><ele>220.0</ele><time>2026-03-28T10:50:59Z</time></trkpt><trkpt lat="44.80777382534927" lon="7.969965156936596"><ele>218.0</ele><time>2026-03-28T10:51:00Z</time></trkpt><trkpt lat="44.80762377257942" lon="7.969891380839012"><ele>216.0</ele><time>2026-03-28T10:51:01Z</time></trkpt><trkpt lat="44.80747754847977" lon="7.969841932689418"><ele>214.0</ele><time>2026-03-28T10:51:02Z</time></trkpt><trkpt lat="44.80733076177774" lon="7.969793272393836"><ele>214.0</ele><time>2026-03-28T10:51:03Z</time></trkpt><trkpt lat="44.80718517901316" lon="7.969766638170615"><ele>214.0</ele><time>2026-03-28T10:51:04Z</time></trkpt><trkpt lat="44.807054149046124" lon="7.96972438766321"><ele>214.0</ele><time>2026-03-28T10:51:05Z</time></trkpt><trkpt lat="44.80693159366539" lon="7.969737850470607"><ele>214.0</ele><time>2026-03-28T10:51:06Z</time></trkpt><trkpt lat="44.806811426561055" lon="7.969800526647416"><ele>213.25</ele><time>2026-03-28T10:51:07Z</time></trkpt><trkpt lat="44.80673840700455" lon="7.969957102515577"><ele>212.5</ele><time>2026-03-28T10:51:08Z</time></trkpt><trkpt lat="44.8066982335264" lon="7.970121156306639"><ele>211.75</ele><time>2026-03-28T10:51:09Z</time></trkpt><trkpt lat="44.80672723137639" lon="7.9702917844602865"><ele>211.0</ele><time>2026-03-28T10:51:10Z</time></trkpt><trkpt lat="44.80679400343925" lon="7.970491242145089"><ele>211.0</ele><time>2026-03-28T10:51:11Z</time></trkpt><trkpt lat="44.80685978179039" lon="7.970704214874088"><ele>211.0</ele><time>2026-03-28T10:51:12Z</time></trkpt><trkpt lat="44.80690350535937" lon="7.970934803843105"><ele>211.0</ele><time>2026-03-28T10:51:13Z</time></trkpt><trkpt lat="44.80693046665195" lon="7.971161926148168"><ele>213.66666666666666</ele><time>2026-03-28T10:51:14Z</time></trkpt><trkpt lat="44.806945802623865" lon="7.97139490980039"><ele>216.33333333333331</ele><time>2026-03-28T10:51:15Z</time></trkpt><trkpt lat="44.80695342022663" lon="7.9716466070459555"><ele>219.0</ele><time>2026-03-28T10:51:16Z</time></trkpt><trkpt lat="44.806950649612666" lon="7.971915535737849"><ele>221.33333333333331</ele><time>2026-03-28T10:51:17Z</time></trkpt><trkpt lat="44.80693646808731" lon="7.972193499527056"><ele>223.66666666666666</ele><time>2026-03-28T10:51:18Z</time></trkpt><trkpt lat="44.80692375105343" lon="7.97245283244387"><ele>226.0</ele><time>2026-03-28T10:51:19Z</time></trkpt><trkpt lat="44.80691417966815" lon="7.972712419899759"><ele>226.33333333333331</ele><time>2026-03-28T10:51:20Z</time></trkpt><trkpt lat="44.806910859331" lon="7.9729674178308905"><ele>226.66666666666669</ele><time>2026-03-28T10:51:21Z</time></trkpt><trkpt lat="44.806910320876035" lon="7.973202543570413"><ele>227.0</ele><time>2026-03-28T10:51:22Z</time></trkpt><trkpt lat="44.80689987496111" lon="7.973421504925859"><ele>227.0</ele><time>2026-03-28T10:51:23Z</time></trkpt><trkpt lat="44.80686582699065" lon="7.9736280824744625"><ele>227.0</ele><time>2026-03-28T10:51:24Z</time></trkpt><trkpt lat="44.80679314502029" lon="7.973805063117999"><ele>227.0</ele><time>2026-03-28T10:51:25Z</time></trkpt><trkpt lat="44.80667900252533" lon="7.973959078081652"><ele>228.0</ele><time>2026-03-28T10:51:26Z</time></trkpt><trkpt lat="44.806532613917604" lon="7.9740903246253625"><ele>229.0</ele><time>2026-03-28T10:51:27Z</time></trkpt><trkpt lat="44.806355276468416" lon="7.974187210288451"><ele>230.0</ele><time>2026-03-28T10:51:28Z</time></trkpt><trkpt lat="44.80617233735946" lon="7.974309886514035"><ele>227.33333333333334</ele><time>2026-03-28T10:51:29Z</time></trkpt><trkpt lat="44.80598545864123" lon="7.974447422774034"><ele>224.66666666666669</ele><time>2026-03-28T10:51:30Z</time></trkpt><trkpt lat="44.80579011170688" lon="7.974574746081568"><ele>222.0</ele><time>2026-03-28T10:51:31Z</time></trkpt><trkpt lat="44.80560012144291" lon="7.974694172722443"><ele>222.0</ele><time>2026-03-28T10:51:32Z</time></trkpt><trkpt lat="44.80540710059801" lon="7.974821021539551"><ele>222.0</ele><time>2026-03-28T10:51:33Z</time></trkpt><trkpt lat="44.80522244053762" lon="7.974964247323857"><ele>222.0</ele><time>2026-03-28T10:51:34Z</time></trkpt><trkpt lat="44.8050296417877" lon="7.975078120978258"><ele>223.33333333333331</ele><time>2026-03-28T10:51:35Z</time></trkpt><trkpt lat="44.80484613579929" lon="7.97521382501264"><ele>224.66666666666666</ele><time>2026-03-28T10:51:36Z</time></trkpt><trkpt lat="44.8046711269815" lon="7.975384445163727"><ele>226.0</ele><time>2026-03-28T10:51:37Z</time></trkpt><trkpt lat="44.8045079340264" lon="7.975568789572481"><ele>226.0</ele><time>2026-03-28T10:51:38Z</time></trkpt><trkpt lat="44.80442238824053" lon="7.975650820333246"><ele>226.0</ele><time>2026-03-28T10:51:39Z</time></trkpt><trkpt lat="44.804290770583044" lon="7.975809585750155"><ele>226.0</ele><time>2026-03-28T10:51:40Z</time></trkpt><trkpt lat="44.80416961172705" lon="7.975964633114329"><ele>226.0</ele><time>2026-03-28T10:51:41Z</time></trkpt><trkpt lat="44.80406396843227" lon="7.976126438633154"><ele>221.33333333333331</ele><time>2026-03-28T10:51:42Z</time></trkpt><trkpt lat="44.80400220745752" lon="7.976328686173445"><ele>216.66666666666669</ele><time>2026-03-28T10:51:43Z</time></trkpt><trkpt lat="44.80391233726917" lon="7.976512876863605"><ele>212.0</ele><time>2026-03-28T10:51:44Z</time></trkpt><trkpt lat="44.80383977769273" lon="7.976713031668908"><ele>210.33333333333334</ele><time>2026-03-28T10:51:45Z</time></trkpt><trkpt lat="44.80376248325031" lon="7.976903608802994"><ele>208.66666666666669</ele><time>2026-03-28T10:51:46Z</time></trkpt><trkpt lat="44.80367306120111" lon="7.977089647957294"><ele>207.0</ele><time>2026-03-28T10:51:47Z</time></trkpt><trkpt lat="44.80357906419097" lon="7.977273177630431"><ele>205.33333333333331</ele><time>2026-03-28T10:51:48Z</time></trkpt><trkpt lat="44.80348222268442" lon="7.977456747228095"><ele>203.66666666666666</ele><time>2026-03-28T10:51:49Z</time></trkpt><trkpt lat="44.80338359898452" lon="7.977645781822464"><ele>202.0</ele><time>2026-03-28T10:51:50Z</time></trkpt><trkpt lat="44.80328293355313" lon="7.977836890718194"><ele>202.0</ele><time>2026-03-28T10:51:51Z</time></trkpt><trkpt lat="44.80317905323387" lon="7.978025991238111"><ele>202.0</ele><time>2026-03-28T10:51:52Z</time></trkpt><trkpt lat="44.80307809259637" lon="7.978216234050299"><ele>202.0</ele><time>2026-03-28T10:51:53Z</time></trkpt><trkpt lat="44.80297728362485" lon="7.978406374456796"><ele>201.66666666666666</ele><time>2026-03-28T10:51:54Z</time></trkpt><trkpt lat="44.802876793412274" lon="7.978595768321766"><ele>201.33333333333331</ele><time>2026-03-28T10:51:55Z</time></trkpt><trkpt lat="44.80277835403956" lon="7.978787412641977"><ele>201.0</ele><time>2026-03-28T10:51:56Z</time></trkpt><trkpt lat="44.80268446727602" lon="7.9789768018817515"><ele>201.25</ele><time>2026-03-28T10:51:57Z</time></trkpt><trkpt lat="44.80259479257733" lon="7.979145659343769"><ele>201.5</ele><time>2026-03-28T10:51:58Z</time></trkpt><trkpt lat="44.8025057212078" lon="7.979305778542838"><ele>201.75</ele><time>2026-03-28T10:51:59Z</time></trkpt><trkpt lat="44.802428640320166" lon="7.979449535659834"><ele>202.0</ele><time>2026-03-28T10:52:00Z</time></trkpt><trkpt lat="44.80236546382097" lon="7.979567244296262"><ele>202.0</ele><time>2026-03-28T10:52:01Z</time></trkpt><trkpt lat="44.802311338948805" lon="7.979672055817313"><ele>202.0</ele><time>2026-03-28T10:52:02Z</time></trkpt><trkpt lat="44.80225449202462" lon="7.979785211960965"><ele>202.0</ele><time>2026-03-28T10:52:03Z</time></trkpt><trkpt lat="44.802187481514444" lon="7.979912456735372"><ele>202.0</ele><time>2026-03-28T10:52:04Z</time></trkpt><trkpt lat="44.80211740054816" lon="7.980043958313219"><ele>202.0</ele><time>2026-03-28T10:52:05Z</time></trkpt><trkpt lat="44.802043607319234" lon="7.980178019289713"><ele>201.66666666666666</ele><time>2026-03-28T10:52:06Z</time></trkpt><trkpt lat="44.801969874866025" lon="7.980292932289813"><ele>201.33333333333331</ele><time>2026-03-28T10:52:07Z</time></trkpt><trkpt lat="44.801909427799416" lon="7.980381300493312"><ele>201.0</ele><time>2026-03-28T10:52:08Z</time></trkpt><trkpt lat="44.801851080217446" lon="7.980460189254857"><ele>200.66666666666669</ele><time>2026-03-28T10:52:09Z</time></trkpt><trkpt lat="44.801803525246314" lon="7.980521709587468"><ele>200.33333333333334</ele><time>2026-03-28T10:52:10Z</time></trkpt><trkpt lat="44.801733187503665" lon="7.980625664736916"><ele>200.0</ele><time>2026-03-28T10:52:12Z</time></trkpt><trkpt lat="44.8016512644038" lon="7.980751539385617"><ele>200.00000000000003</ele><time>2026-03-28T10:52:14Z</time></trkpt><trkpt lat="44.80159625743537" lon="7.980824869283642"><ele>200.0</ele><time>2026-03-28T10:52:15Z</time></trkpt><trkpt lat="44.80154520859905" lon="7.980893834704675"><ele>200.0</ele><time>2026-03-28T10:52:16Z</time></trkpt><trkpt lat="44.80149659833955" lon="7.980962781128325"><ele>200.0</ele><time>2026-03-28T10:52:17Z</time></trkpt><trkpt lat="44.80144133007804" lon="7.981041210479869"><ele>200.00000000000003</ele><time>2026-03-28T10:52:18Z</time></trkpt><trkpt lat="44.8013752319438" lon="7.981142106139087"><ele>200.0</ele><time>2026-03-28T10:52:19Z</time></trkpt><trkpt lat="44.80129652439241" lon="7.981249575019022"><ele>201.25</ele><time>2026-03-28T10:52:20Z</time></trkpt><trkpt lat="44.801214888363084" lon="7.981358917539524"><ele>202.5</ele><time>2026-03-28T10:52:21Z</time></trkpt><trkpt lat="44.80113262022944" lon="7.981473202092294"><ele>203.75</ele><time>2026-03-28T10:52:22Z</time></trkpt><trkpt lat="44.801049296547184" lon="7.981593256796935"><ele>205.0</ele><time>2026-03-28T10:52:23Z</time></trkpt><trkpt lat="44.8009604649779" lon="7.981709618592565"><ele>205.0</ele><time>2026-03-28T10:52:24Z</time></trkpt><trkpt lat="44.800870854011144" lon="7.981828081216325"><ele>205.0</ele><time>2026-03-28T10:52:25Z</time></trkpt><trkpt lat="44.80078461260904" lon="7.981952706653815"><ele>205.0</ele><time>2026-03-28T10:52:26Z</time></trkpt><trkpt lat="44.80069628556687" lon="7.982079123680905"><ele>205.0</ele><time>2026-03-28T10:52:27Z</time></trkpt><trkpt lat="44.80060878612215" lon="7.98220150183014"><ele>205.0</ele><time>2026-03-28T10:52:28Z</time></trkpt><trkpt lat="44.80051925093878" lon="7.982322696978304"><ele>205.0</ele><time>2026-03-28T10:52:29Z</time></trkpt><trkpt lat="44.80043084581806" lon="7.982442207428514"><ele>205.0</ele><time>2026-03-28T10:52:30Z</time></trkpt><trkpt lat="44.8003473200516" lon="7.982566671928725"><ele>205.0</ele><time>2026-03-28T10:52:31Z</time></trkpt><trkpt lat="44.80026970663989" lon="7.982695150726716"><ele>204.5</ele><time>2026-03-28T10:52:32Z</time></trkpt><trkpt lat="44.80019071953416" lon="7.982831721872258"><ele>204.0</ele><time>2026-03-28T10:52:33Z</time></trkpt><trkpt lat="44.80010616558521" lon="7.982971498723264"><ele>203.5</ele><time>2026-03-28T10:52:34Z</time></trkpt><trkpt lat="44.80003010235598" lon="7.9831257478777"><ele>203.0</ele><time>2026-03-28T10:52:35Z</time></trkpt><trkpt lat="44.799963174573136" lon="7.9832637794794845"><ele>204.25</ele><time>2026-03-28T10:52:36Z</time></trkpt><trkpt lat="44.79989884183991" lon="7.983404758704544"><ele>205.5</ele><time>2026-03-28T10:52:37Z</time></trkpt><trkpt lat="44.79983515964219" lon="7.9835496126289405"><ele>206.75</ele><time>2026-03-28T10:52:38Z</time></trkpt><trkpt lat="44.7997705606447" lon="7.983685464334994"><ele>208.0</ele><time>2026-03-28T10:52:39Z</time></trkpt><trkpt lat="44.79972533020025" lon="7.9838191997545165"><ele>208.0</ele><time>2026-03-28T10:52:40Z</time></trkpt><trkpt lat="44.79967090883856" lon="7.983952243580537"><ele>208.0</ele><time>2026-03-28T10:52:41Z</time></trkpt><trkpt lat="44.7996153150235" lon="7.984088573941182"><ele>208.0</ele><time>2026-03-28T10:52:42Z</time></trkpt><trkpt lat="44.79956546091228" lon="7.984229677817656"><ele>208.0</ele><time>2026-03-28T10:52:43Z</time></trkpt><trkpt lat="44.799510322305245" lon="7.984370342349883"><ele>208.0</ele><time>2026-03-28T10:52:44Z</time></trkpt><trkpt lat="44.79945693610584" lon="7.984512381328989"><ele>209.2</ele><time>2026-03-28T10:52:45Z</time></trkpt><trkpt lat="44.79940364694092" lon="7.984651612129833"><ele>210.4</ele><time>2026-03-28T10:52:46Z</time></trkpt><trkpt lat="44.799347638098375" lon="7.984785061021394"><ele>211.59999999999997</ele><time>2026-03-28T10:52:47Z</time></trkpt><trkpt lat="44.79929431441081" lon="7.984920362416568"><ele>212.79999999999998</ele><time>2026-03-28T10:52:48Z</time></trkpt><trkpt lat="44.79924392388644" lon="7.98504477909043"><ele>214.0</ele><time>2026-03-28T10:52:49Z</time></trkpt><trkpt lat="44.799186360547964" lon="7.985168507202426"><ele>211.39999999999998</ele><time>2026-03-28T10:52:50Z</time></trkpt><trkpt lat="44.79913136510832" lon="7.985294797973004"><ele>208.79999999999998</ele><time>2026-03-28T10:52:51Z</time></trkpt><trkpt lat="44.799080053623754" lon="7.985419281087806"><ele>206.2</ele><time>2026-03-28T10:52:52Z</time></trkpt><trkpt lat="44.79902925149112" lon="7.98553751988191"><ele>203.60000000000002</ele><time>2026-03-28T10:52:53Z</time></trkpt><trkpt lat="44.798989838165895" lon="7.9856510920751616"><ele>201.0</ele><time>2026-03-28T10:52:54Z</time></trkpt><trkpt lat="44.79894500275152" lon="7.985753365685935"><ele>202.20000000000002</ele><time>2026-03-28T10:52:55Z</time></trkpt><trkpt lat="44.798904757016125" lon="7.985855673942667"><ele>203.4</ele><time>2026-03-28T10:52:56Z</time></trkpt><trkpt lat="44.79885154883071" lon="7.985971683469109"><ele>204.6</ele><time>2026-03-28T10:52:57Z</time></trkpt><trkpt lat="44.79880995111674" lon="7.986095357587591"><ele>205.8</ele><time>2026-03-28T10:52:58Z</time></trkpt><trkpt lat="44.79875836788923" lon="7.986219476587634"><ele>207.0</ele><time>2026-03-28T10:52:59Z</time></trkpt><trkpt lat="44.79870358967749" lon="7.986352289707589"><ele>207.0</ele><time>2026-03-28T10:53:00Z</time></trkpt><trkpt lat="44.79865480901064" lon="7.986486060498325"><ele>207.0</ele><time>2026-03-28T10:53:01Z</time></trkpt><trkpt lat="44.79860188320092" lon="7.9866233144783765"><ele>207.0</ele><time>2026-03-28T10:53:02Z</time></trkpt><trkpt lat="44.79855380285905" lon="7.986754567398434"><ele>207.0</ele><time>2026-03-28T10:53:03Z</time></trkpt><trkpt lat="44.79850379008424" lon="7.986876703744379"><ele>207.0</ele><time>2026-03-28T10:53:04Z</time></trkpt><trkpt lat="44.79846177278782" lon="7.986995159243783"><ele>205.5</ele><time>2026-03-28T10:53:05Z</time></trkpt><trkpt lat="44.79841718453013" lon="7.987111549947034"><ele>204.0</ele><time>2026-03-28T10:53:06Z</time></trkpt><trkpt lat="44.79837462335131" lon="7.987217273544727"><ele>202.5</ele><time>2026-03-28T10:53:07Z</time></trkpt><trkpt lat="44.798332867248966" lon="7.987319787964552"><ele>201.0</ele><time>2026-03-28T10:53:08Z</time></trkpt><trkpt lat="44.79829196343811" lon="7.987413158346908"><ele>199.5</ele><time>2026-03-28T10:53:09Z</time></trkpt><trkpt lat="44.798258311808944" lon="7.987503161863072"><ele>198.0</ele><time>2026-03-28T10:53:10Z</time></trkpt><trkpt lat="44.798225863068716" lon="7.9875801545131715"><ele>197.83333333333334</ele><time>2026-03-28T10:53:11Z</time></trkpt><trkpt lat="44.79814369283002" lon="7.987689699556613"><ele>197.66666666666669</ele><time>2026-03-28T10:53:13Z</time></trkpt><trkpt lat="44.79811954776072" lon="7.987773527151899"><ele>197.5</ele><time>2026-03-28T10:53:14Z</time></trkpt><trkpt lat="44.79810563050036" lon="7.987869021845659"><ele>197.33333333333334</ele><time>2026-03-28T10:53:15Z</time></trkpt><trkpt lat="44.7980882424695" lon="7.987973262028352"><ele>197.16666666666669</ele><time>2026-03-28T10:53:16Z</time></trkpt><trkpt lat="44.79806086097286" lon="7.988070957722059"><ele>197.0</ele><time>2026-03-28T10:53:17Z</time></trkpt><trkpt lat="44.798037164971156" lon="7.988163792840144"><ele>197.00000000000003</ele><time>2026-03-28T10:53:18Z</time></trkpt><trkpt lat="44.798024118794984" lon="7.988264649563035"><ele>197.0</ele><time>2026-03-28T10:53:19Z</time></trkpt><trkpt lat="44.798013871026946" lon="7.988353017504808"><ele>197.0</ele><time>2026-03-28T10:53:20Z</time></trkpt><trkpt lat="44.79800209513216" lon="7.988455213386448"><ele>197.0</ele><time>2026-03-28T10:53:21Z</time></trkpt><trkpt lat="44.797993870789185" lon="7.9885548024327955"><ele>197.00000000000003</ele><time>2026-03-28T10:53:22Z</time></trkpt><trkpt lat="44.79798165660918" lon="7.988643227792252"><ele>197.0</ele><time>2026-03-28T10:53:23Z</time></trkpt><trkpt lat="44.79793670467873" lon="7.988799872506923"><ele>197.33333333333334</ele><time>2026-03-28T10:53:25Z</time></trkpt><trkpt lat="44.797905856957414" lon="7.988888221023611"><ele>197.66666666666669</ele><time>2026-03-28T10:53:26Z</time></trkpt><trkpt lat="44.79786546270049" lon="7.988971022711573"><ele>198.0</ele><time>2026-03-28T10:53:27Z</time></trkpt><trkpt lat="44.797809498237676" lon="7.989029757290232"><ele>198.33333333333331</ele><time>2026-03-28T10:53:28Z</time></trkpt><trkpt lat="44.797761874607374" lon="7.98909355862507"><ele>198.66666666666666</ele><time>2026-03-28T10:53:29Z</time></trkpt><trkpt lat="44.79767158004047" lon="7.989200836087681"><ele>199.0</ele><time>2026-03-28T10:53:31Z</time></trkpt><trkpt lat="44.79759048147739" lon="7.989293806892611"><ele>198.99999999999997</ele><time>2026-03-28T10:53:33Z</time></trkpt><trkpt lat="44.79751255664541" lon="7.989380932213673"><ele>199.0</ele><time>2026-03-28T10:53:35Z</time></trkpt><trkpt lat="44.79743824264656" lon="7.989454488337304"><ele>199.0</ele><time>2026-03-28T10:53:37Z</time></trkpt><trkpt lat="44.79737034384638" lon="7.989520789780163"><ele>199.0</ele><time>2026-03-28T10:53:39Z</time></trkpt><trkpt lat="44.79730681061902" lon="7.9895813233549"><ele>198.99999999999997</ele><time>2026-03-28T10:53:41Z</time></trkpt><trkpt lat="44.79725129952137" lon="7.989657832936714"><ele>199.0</ele><time>2026-03-28T10:53:43Z</time></trkpt><trkpt lat="44.79716740143752" lon="7.989714038868894"><ele>199.0</ele><time>2026-03-28T10:53:45Z</time></trkpt><trkpt lat="44.79711539408097" lon="7.989782970776932"><ele>199.0</ele><time>2026-03-28T10:53:47Z</time></trkpt><trkpt lat="44.79704640681299" lon="7.989830902727767"><ele>199.0</ele><time>2026-03-28T10:53:51Z</time></trkpt><trkpt lat="44.79716695118862" lon="7.989949351683085"><ele>199.0</ele><time>2026-03-28T10:53:54Z</time></trkpt><trkpt lat="44.79723918197859" lon="7.989989029280651"><ele>199.0</ele><time>2026-03-28T10:53:55Z</time></trkpt><trkpt lat="44.79732804382743" lon="7.990024617741254"><ele>199.2</ele><time>2026-03-28T10:53:56Z</time></trkpt><trkpt lat="44.79741950967588" lon="7.990088648227585"><ele>199.39999999999998</ele><time>2026-03-28T10:53:57Z</time></trkpt><trkpt lat="44.797505168712505" lon="7.99014261847443"><ele>199.6</ele><time>2026-03-28T10:53:58Z</time></trkpt><trkpt lat="44.797582570749924" lon="7.990197592370171"><ele>199.8</ele><time>2026-03-28T10:53:59Z</time></trkpt><trkpt lat="44.79764386861019" lon="7.990287352640764"><ele>200.0</ele><time>2026-03-28T10:54:00Z</time></trkpt><trkpt lat="44.79767602429856" lon="7.990414671497267"><ele>200.0</ele><time>2026-03-28T10:54:01Z</time></trkpt><trkpt lat="44.79767415397344" lon="7.9905708040673"><ele>200.0</ele><time>2026-03-28T10:54:02Z</time></trkpt><trkpt lat="44.79766874525018" lon="7.9907499311434345"><ele>200.0</ele><time>2026-03-28T10:54:03Z</time></trkpt><trkpt lat="44.79766255623067" lon="7.990898965632568"><ele>200.0</ele><time>2026-03-28T10:54:04Z</time></trkpt><trkpt lat="44.797660311101566" lon="7.991023650501545"><ele>200.0</ele><time>2026-03-28T10:54:05Z</time></trkpt><trkpt lat="44.79765668767281" lon="7.991131660516429"><ele>200.0</ele><time>2026-03-28T10:54:06Z</time></trkpt><trkpt lat="44.79765621554404" lon="7.991242588268228"><ele>200.0</ele><time>2026-03-28T10:54:07Z</time></trkpt><trkpt lat="44.79765799255115" lon="7.99138254349564"><ele>200.0</ele><time>2026-03-28T10:54:08Z</time></trkpt><trkpt lat="44.79765777381919" lon="7.991546403493849"><ele>200.0</ele><time>2026-03-28T10:54:09Z</time></trkpt><trkpt lat="44.79766213460718" lon="7.991728088028738"><ele>200.0</ele><time>2026-03-28T10:54:10Z</time></trkpt><trkpt lat="44.79766651690605" lon="7.9919093290636045"><ele>200.0</ele><time>2026-03-28T10:54:11Z</time></trkpt><trkpt lat="44.79767601788765" lon="7.992087945294353"><ele>200.0</ele><time>2026-03-28T10:54:12Z</time></trkpt><trkpt lat="44.79769538569458" lon="7.992259141733054"><ele>200.0</ele><time>2026-03-28T10:54:13Z</time></trkpt><trkpt lat="44.797725949058105" lon="7.992425929203039"><ele>200.0</ele><time>2026-03-28T10:54:14Z</time></trkpt><trkpt lat="44.797763936295006" lon="7.99258253038528"><ele>198.8</ele><time>2026-03-28T10:54:15Z</time></trkpt><trkpt lat="44.797795551853916" lon="7.992730481418809"><ele>197.6</ele><time>2026-03-28T10:54:16Z</time></trkpt><trkpt lat="44.797816419494424" lon="7.992865989058748"><ele>196.39999999999998</ele><time>2026-03-28T10:54:17Z</time></trkpt><trkpt lat="44.79780416110615" lon="7.992993932287539"><ele>195.2</ele><time>2026-03-28T10:54:18Z</time></trkpt><trkpt lat="44.7977516940508" lon="7.993100538220872"><ele>194.0</ele><time>2026-03-28T10:54:19Z</time></trkpt><trkpt lat="44.79768294982652" lon="7.993185575988618"><ele>193.79999999999998</ele><time>2026-03-28T10:54:20Z</time></trkpt><trkpt lat="44.79758651022568" lon="7.993225493940898"><ele>193.6</ele><time>2026-03-28T10:54:21Z</time></trkpt><trkpt lat="44.79747962355721" lon="7.99322954149151"><ele>193.4</ele><time>2026-03-28T10:54:22Z</time></trkpt><trkpt lat="44.79736180367349" lon="7.99323922976545"><ele>193.2</ele><time>2026-03-28T10:54:23Z</time></trkpt><trkpt lat="44.797262297397666" lon="7.993262535216283"><ele>193.0</ele><time>2026-03-28T10:54:24Z</time></trkpt><trkpt lat="44.79715957892037" lon="7.993274494421701"><ele>193.0</ele><time>2026-03-28T10:54:25Z</time></trkpt><trkpt lat="44.797067781214764" lon="7.993282917102034"><ele>193.0</ele><time>2026-03-28T10:54:26Z</time></trkpt><trkpt lat="44.7969878350207" lon="7.9932897810413355"><ele>193.0</ele><time>2026-03-28T10:54:27Z</time></trkpt><trkpt lat="44.79687495446646" lon="7.993280628762942"><ele>193.0</ele><time>2026-03-28T10:54:29Z</time></trkpt><trkpt lat="44.79678040283433" lon="7.993354452417527"><ele>193.0</ele><time>2026-03-28T10:54:31Z</time></trkpt><trkpt lat="44.79681598359407" lon="7.993488350073646"><ele>192.83333333333331</ele><time>2026-03-28T10:54:33Z</time></trkpt><trkpt lat="44.79686182696157" lon="7.993623465689435"><ele>192.66666666666666</ele><time>2026-03-28T10:54:35Z</time></trkpt><trkpt lat="44.796882672398304" lon="7.993713282584252"><ele>192.5</ele><time>2026-03-28T10:54:36Z</time></trkpt><trkpt lat="44.79691154631115" lon="7.993810639950643"><ele>192.33333333333331</ele><time>2026-03-28T10:54:37Z</time></trkpt><trkpt lat="44.796937613334485" lon="7.993919894786513"><ele>192.16666666666666</ele><time>2026-03-28T10:54:38Z</time></trkpt><trkpt lat="44.79695760787077" lon="7.994035853902088"><ele>192.0</ele><time>2026-03-28T10:54:39Z</time></trkpt><trkpt lat="44.796972120739916" lon="7.994158529023991"><ele>191.8</ele><time>2026-03-28T10:54:40Z</time></trkpt><trkpt lat="44.796987491538474" lon="7.994292747007683"><ele>191.6</ele><time>2026-03-28T10:54:41Z</time></trkpt><trkpt lat="44.79701256352406" lon="7.994432117563279"><ele>191.4</ele><time>2026-03-28T10:54:42Z</time></trkpt><trkpt lat="44.79704290257889" lon="7.994563967884447"><ele>191.20000000000002</ele><time>2026-03-28T10:54:43Z</time></trkpt><trkpt lat="44.797070446460815" lon="7.994687643447182"><ele>191.0</ele><time>2026-03-28T10:54:44Z</time></trkpt><trkpt lat="44.79709639750479" lon="7.994807227990605"><ele>191.0</ele><time>2026-03-28T10:54:45Z</time></trkpt><trkpt lat="44.79712061300062" lon="7.994911811888394"><ele>191.0</ele><time>2026-03-28T10:54:46Z</time></trkpt><trkpt lat="44.79713926795576" lon="7.995007304187104"><ele>191.0</ele><time>2026-03-28T10:54:47Z</time></trkpt><trkpt lat="44.797158232547666" lon="7.995097979917356"><ele>191.0</ele><time>2026-03-28T10:54:48Z</time></trkpt><trkpt lat="44.79718213805462" lon="7.995189178247448"><ele>191.0</ele><time>2026-03-28T10:54:49Z</time></trkpt><trkpt lat="44.79719718736042" lon="7.995288913194695"><ele>191.0</ele><time>2026-03-28T10:54:50Z</time></trkpt><trkpt lat="44.79721746516512" lon="7.995394873494327"><ele>191.0</ele><time>2026-03-28T10:54:51Z</time></trkpt><trkpt lat="44.797239251472874" lon="7.995492748806147"><ele>190.66666666666666</ele><time>2026-03-28T10:54:52Z</time></trkpt><trkpt lat="44.797262789073436" lon="7.995595135609185"><ele>190.33333333333331</ele><time>2026-03-28T10:54:53Z</time></trkpt><trkpt lat="44.79728070152358" lon="7.995697446402787"><ele>190.0</ele><time>2026-03-28T10:54:54Z</time></trkpt><trkpt lat="44.79730173158641" lon="7.995803629451518"><ele>189.66666666666666</ele><time>2026-03-28T10:54:55Z</time></trkpt><trkpt lat="44.79732197838782" lon="7.995904479450011"><ele>189.33333333333334</ele><time>2026-03-28T10:54:56Z</time></trkpt><trkpt lat="44.797339827657645" lon="7.996009111485127"><ele>189.0</ele><time>2026-03-28T10:54:57Z</time></trkpt><trkpt lat="44.797360736345595" lon="7.996116401001679"><ele>189.0</ele><time>2026-03-28T10:54:58Z</time></trkpt><trkpt lat="44.79738334386295" lon="7.996227439327819"><ele>189.0</ele><time>2026-03-28T10:54:59Z</time></trkpt><trkpt lat="44.79740588241071" lon="7.9963357782566336"><ele>189.0</ele><time>2026-03-28T10:55:00Z</time></trkpt><trkpt lat="44.797423850939396" lon="7.9964405635132385"><ele>189.0</ele><time>2026-03-28T10:55:01Z</time></trkpt><trkpt lat="44.7974430643059" lon="7.996546559309146"><ele>189.0</ele><time>2026-03-28T10:55:02Z</time></trkpt><trkpt lat="44.79746153992822" lon="7.99664269752045"><ele>189.0</ele><time>2026-03-28T10:55:03Z</time></trkpt><trkpt lat="44.79747861119954" lon="7.996732571770428"><ele>188.83333333333334</ele><time>2026-03-28T10:55:04Z</time></trkpt><trkpt lat="44.797500623911155" lon="7.99683017799114"><ele>188.66666666666666</ele><time>2026-03-28T10:55:05Z</time></trkpt><trkpt lat="44.79752409070798" lon="7.996933305393262"><ele>188.5</ele><time>2026-03-28T10:55:06Z</time></trkpt><trkpt lat="44.79754669022965" lon="7.99704167546233"><ele>188.33333333333331</ele><time>2026-03-28T10:55:07Z</time></trkpt><trkpt lat="44.797565644533705" lon="7.99715201096511"><ele>188.16666666666666</ele><time>2026-03-28T10:55:08Z</time></trkpt><trkpt lat="44.79758396861233" lon="7.997262855247072"><ele>188.0</ele><time>2026-03-28T10:55:09Z</time></trkpt><trkpt lat="44.79760265129713" lon="7.997382803499406"><ele>187.8</ele><time>2026-03-28T10:55:10Z</time></trkpt><trkpt lat="44.797626891670824" lon="7.997508554244927"><ele>187.60000000000002</ele><time>2026-03-28T10:55:11Z</time></trkpt><trkpt lat="44.797652316210566" lon="7.997635050624588"><ele>187.39999999999998</ele><time>2026-03-28T10:55:12Z</time></trkpt><trkpt lat="44.79767787128232" lon="7.99776396132459"><ele>187.2</ele><time>2026-03-28T10:55:13Z</time></trkpt><trkpt lat="44.79770351804135" lon="7.997894416811097"><ele>187.0</ele><time>2026-03-28T10:55:14Z</time></trkpt><trkpt lat="44.7977305591703" lon="7.9980257434585145"><ele>187.33333333333334</ele><time>2026-03-28T10:55:15Z</time></trkpt><trkpt lat="44.79775625146169" lon="7.998154147789626"><ele>187.66666666666669</ele><time>2026-03-28T10:55:16Z</time></trkpt><trkpt lat="44.797781875932046" lon="7.998285114749253"><ele>188.0</ele><time>2026-03-28T10:55:17Z</time></trkpt><trkpt lat="44.79780619155884" lon="7.998409130283866"><ele>188.33333333333334</ele><time>2026-03-28T10:55:18Z</time></trkpt><trkpt lat="44.79782691243002" lon="7.998515732310734"><ele>188.66666666666666</ele><time>2026-03-28T10:55:19Z</time></trkpt><trkpt lat="44.797845756021395" lon="7.998618914697074"><ele>189.0</ele><time>2026-03-28T10:55:20Z</time></trkpt><trkpt lat="44.79786211307501" lon="7.998713427094068"><ele>189.0</ele><time>2026-03-28T10:55:21Z</time></trkpt><trkpt lat="44.79787967490295" lon="7.9988010669062835"><ele>189.0</ele><time>2026-03-28T10:55:22Z</time></trkpt><trkpt lat="44.797906512734095" lon="7.998963212239859"><ele>189.0</ele><time>2026-03-28T10:55:24Z</time></trkpt><trkpt lat="44.7979004868846" lon="7.99912093923136"><ele>189.0</ele><time>2026-03-28T10:55:26Z</time></trkpt><trkpt lat="44.79785389621649" lon="7.999279992733602"><ele>189.0</ele><time>2026-03-28T10:55:28Z</time></trkpt><trkpt lat="44.79781809449842" lon="7.999360493157797"><ele>188.83333333333334</ele><time>2026-03-28T10:55:29Z</time></trkpt><trkpt lat="44.79780326921903" lon="7.999447154704669"><ele>188.66666666666666</ele><time>2026-03-28T10:55:30Z</time></trkpt><trkpt lat="44.7978339612471" lon="7.999538653146328"><ele>188.5</ele><time>2026-03-28T10:55:31Z</time></trkpt><trkpt lat="44.797897810059034" lon="7.999619370246907"><ele>188.33333333333331</ele><time>2026-03-28T10:55:32Z</time></trkpt><trkpt lat="44.797973602060395" lon="7.999703049039822"><ele>188.16666666666666</ele><time>2026-03-28T10:55:33Z</time></trkpt><trkpt lat="44.798042639600055" lon="7.999819006762651"><ele>188.0</ele><time>2026-03-28T10:55:34Z</time></trkpt><trkpt lat="44.79809682574951" lon="7.999964256109073"><ele>188.0</ele><time>2026-03-28T10:55:35Z</time></trkpt><trkpt lat="44.798125075362165" lon="8.00012289603722"><ele>188.0</ele><time>2026-03-28T10:55:36Z</time></trkpt><trkpt lat="44.798155029991314" lon="8.000265288499806"><ele>188.0</ele><time>2026-03-28T10:55:37Z</time></trkpt><trkpt lat="44.79818180323321" lon="8.000409786849405"><ele>188.0</ele><time>2026-03-28T10:55:38Z</time></trkpt><trkpt lat="44.79821123673736" lon="8.000551604024613"><ele>188.0</ele><time>2026-03-28T10:55:39Z</time></trkpt><trkpt lat="44.79823920199471" lon="8.000682345159406"><ele>188.0</ele><time>2026-03-28T10:55:40Z</time></trkpt><trkpt lat="44.798265267828015" lon="8.000811433512776"><ele>188.0</ele><time>2026-03-28T10:55:41Z</time></trkpt><trkpt lat="44.79828963344321" lon="8.000935453383999"><ele>188.0</ele><time>2026-03-28T10:55:42Z</time></trkpt><trkpt lat="44.79831692681955" lon="8.001070365701757"><ele>188.0</ele><time>2026-03-28T10:55:43Z</time></trkpt><trkpt lat="44.798342948093406" lon="8.001210105360963"><ele>188.0</ele><time>2026-03-28T10:55:44Z</time></trkpt><trkpt lat="44.79836771927401" lon="8.00134696976988"><ele>187.60000000000002</ele><time>2026-03-28T10:55:45Z</time></trkpt><trkpt lat="44.79839403632834" lon="8.001481844072426"><ele>187.20000000000002</ele><time>2026-03-28T10:55:46Z</time></trkpt><trkpt lat="44.79842054417141" lon="8.001620145845537"><ele>186.8</ele><time>2026-03-28T10:55:47Z</time></trkpt><trkpt lat="44.798446655453844" lon="8.001759548121054"><ele>186.4</ele><time>2026-03-28T10:55:48Z</time></trkpt><trkpt lat="44.79847386035901" lon="8.001898413339218"><ele>186.0</ele><time>2026-03-28T10:55:49Z</time></trkpt><trkpt lat="44.798498837691184" lon="8.002032227728764"><ele>186.66666666666666</ele><time>2026-03-28T10:55:50Z</time></trkpt><trkpt lat="44.79852095325557" lon="8.00215609228043"><ele>187.33333333333334</ele><time>2026-03-28T10:55:51Z</time></trkpt><trkpt lat="44.798542910540625" lon="8.00227158129695"><ele>188.0</ele><time>2026-03-28T10:55:52Z</time></trkpt><trkpt lat="44.79856287919888" lon="8.002378331385"><ele>188.66666666666669</ele><time>2026-03-28T10:55:53Z</time></trkpt><trkpt lat="44.79858724684175" lon="8.00247423491304"><ele>189.33333333333334</ele><time>2026-03-28T10:55:54Z</time></trkpt><trkpt lat="44.798633431071636" lon="8.002541523513253"><ele>190.0</ele><time>2026-03-28T10:55:55Z</time></trkpt><trkpt lat="44.79870096876477" lon="8.002570277494533"><ele>190.0</ele><time>2026-03-28T10:55:56Z</time></trkpt><trkpt lat="44.79877552278358" lon="8.002558538752591"><ele>190.0</ele><time>2026-03-28T10:55:57Z</time></trkpt><trkpt lat="44.79886896959664" lon="8.002531316367246"><ele>190.0</ele><time>2026-03-28T10:55:58Z</time></trkpt><trkpt lat="44.79897582818073" lon="8.002534878797869"><ele>190.0</ele><time>2026-03-28T10:55:59Z</time></trkpt><trkpt lat="44.79911122104858" lon="8.002540786531586"><ele>190.0</ele><time>2026-03-28T10:56:00Z</time></trkpt><trkpt lat="44.79925655921853" lon="8.002540137469916"><ele>191.5</ele><time>2026-03-28T10:56:01Z</time></trkpt><trkpt lat="44.79939064709162" lon="8.002553246726507"><ele>193.0</ele><time>2026-03-28T10:56:02Z</time></trkpt><trkpt lat="44.799523044457516" lon="8.002554193095603"><ele>194.5</ele><time>2026-03-28T10:56:03Z</time></trkpt><trkpt lat="44.7996346056368" lon="8.002554990527544"><ele>196.0</ele><time>2026-03-28T10:56:04Z</time></trkpt><trkpt lat="44.79975441725107" lon="8.002544198485243"><ele>196.0</ele><time>2026-03-28T10:56:05Z</time></trkpt><trkpt lat="44.799873719356874" lon="8.002567343094384"><ele>196.0</ele><time>2026-03-28T10:56:06Z</time></trkpt><trkpt lat="44.79999883631341" lon="8.002623164575892"><ele>196.0</ele><time>2026-03-28T10:56:07Z</time></trkpt><trkpt lat="44.80012885120211" lon="8.002709266402421"><ele>196.0</ele><time>2026-03-28T10:56:08Z</time></trkpt><trkpt lat="44.80026256797312" lon="8.002808196224224"><ele>200.0</ele><time>2026-03-28T10:56:09Z</time></trkpt><trkpt lat="44.800400463754414" lon="8.002900303599953"><ele>204.0</ele><time>2026-03-28T10:56:10Z</time></trkpt><trkpt lat="44.80054472881686" lon="8.002993744410176"><ele>208.0</ele><time>2026-03-28T10:56:11Z</time></trkpt><trkpt lat="44.800689967210246" lon="8.00309185950572"><ele>208.0</ele><time>2026-03-28T10:56:12Z</time></trkpt><trkpt lat="44.800822923540274" lon="8.003185395296297"><ele>208.0</ele><time>2026-03-28T10:56:13Z</time></trkpt><trkpt lat="44.80094465928433" lon="8.003262363315011"><ele>208.0</ele><time>2026-03-28T10:56:14Z</time></trkpt><trkpt lat="44.80106272841308" lon="8.00333407479024"><ele>208.0</ele><time>2026-03-28T10:56:15Z</time></trkpt><trkpt lat="44.80119016909637" lon="8.00339917657163"><ele>211.0</ele><time>2026-03-28T10:56:16Z</time></trkpt><trkpt lat="44.80132463069111" lon="8.00344863783305"><ele>214.0</ele><time>2026-03-28T10:56:17Z</time></trkpt><trkpt lat="44.80147060863558" lon="8.003481649009744"><ele>217.0</ele><time>2026-03-28T10:56:18Z</time></trkpt><trkpt lat="44.80162160868868" lon="8.003504161115611"><ele>220.0</ele><time>2026-03-28T10:56:19Z</time></trkpt><trkpt lat="44.801771933422856" lon="8.003521942137821"><ele>223.5</ele><time>2026-03-28T10:56:20Z</time></trkpt><trkpt lat="44.80191698356157" lon="8.003539722713375"><ele>227.0</ele><time>2026-03-28T10:56:21Z</time></trkpt><trkpt lat="44.802052605518966" lon="8.003559023110547"><ele>230.5</ele><time>2026-03-28T10:56:22Z</time></trkpt><trkpt lat="44.80218332961094" lon="8.003563706860065"><ele>234.0</ele><time>2026-03-28T10:56:23Z</time></trkpt><trkpt lat="44.80230974692768" lon="8.00357746640208"><ele>234.0</ele><time>2026-03-28T10:56:24Z</time></trkpt><trkpt lat="44.80243149879488" lon="8.003610614922543"><ele>234.0</ele><time>2026-03-28T10:56:25Z</time></trkpt><trkpt lat="44.802545598149706" lon="8.0036780124694"><ele>234.0</ele><time>2026-03-28T10:56:26Z</time></trkpt><trkpt lat="44.802644697675234" lon="8.003788798657418"><ele>234.0</ele><time>2026-03-28T10:56:27Z</time></trkpt><trkpt lat="44.8027099685542" lon="8.003958545269219"><ele>236.33333333333331</ele><time>2026-03-28T10:56:28Z</time></trkpt><trkpt lat="44.802791441679595" lon="8.004136718694394"><ele>238.66666666666666</ele><time>2026-03-28T10:56:29Z</time></trkpt><trkpt lat="44.80288552692466" lon="8.004313024337328"><ele>241.0</ele><time>2026-03-28T10:56:30Z</time></trkpt><trkpt lat="44.80296060053957" lon="8.004518110059688"><ele>241.0</ele><time>2026-03-28T10:56:31Z</time></trkpt><trkpt lat="44.8030379874539" lon="8.004693327538261"><ele>241.0</ele><time>2026-03-28T10:56:32Z</time></trkpt><trkpt lat="44.80313734422146" lon="8.004880869353624"><ele>241.0</ele><time>2026-03-28T10:56:33Z</time></trkpt><trkpt lat="44.80323767696787" lon="8.00509482908895"><ele>240.0</ele><time>2026-03-28T10:56:34Z</time></trkpt><trkpt lat="44.80333881797498" lon="8.005312771543387"><ele>239.0</ele><time>2026-03-28T10:56:35Z</time></trkpt><trkpt lat="44.80342512703972" lon="8.005504014843893"><ele>238.0</ele><time>2026-03-28T10:56:36Z</time></trkpt><trkpt lat="44.80349604110391" lon="8.005664151951345"><ele>238.0</ele><time>2026-03-28T10:56:37Z</time></trkpt><trkpt lat="44.80354713939924" lon="8.005818850067444"><ele>238.0</ele><time>2026-03-28T10:56:38Z</time></trkpt><trkpt lat="44.803569114906544" lon="8.005996903265457"><ele>238.0</ele><time>2026-03-28T10:56:39Z</time></trkpt><trkpt lat="44.8035217985582" lon="8.006180791948218"><ele>238.0</ele><time>2026-03-28T10:56:40Z</time></trkpt><trkpt lat="44.803471802379946" lon="8.00638500896653"><ele>238.0</ele><time>2026-03-28T10:56:41Z</time></trkpt><trkpt lat="44.80342716957335" lon="8.006581290487318"><ele>238.0</ele><time>2026-03-28T10:56:42Z</time></trkpt><trkpt lat="44.803390315092" lon="8.00674934248378"><ele>238.0</ele><time>2026-03-28T10:56:43Z</time></trkpt><trkpt lat="44.80341467446243" lon="8.006903657925236"><ele>238.0</ele><time>2026-03-28T10:56:44Z</time></trkpt><trkpt lat="44.80347560266631" lon="8.00705298541565"><ele>243.66666666666666</ele><time>2026-03-28T10:56:45Z</time></trkpt><trkpt lat="44.803582611053166" lon="8.00719594707398"><ele>249.33333333333331</ele><time>2026-03-28T10:56:46Z</time></trkpt><trkpt lat="44.80370450765298" lon="8.007365231408048"><ele>255.0</ele><time>2026-03-28T10:56:47Z</time></trkpt><trkpt lat="44.803866202792975" lon="8.007514268865796"><ele>255.0</ele><time>2026-03-28T10:56:48Z</time></trkpt><trkpt lat="44.804014619161705" lon="8.007661340695767"><ele>255.0</ele><time>2026-03-28T10:56:49Z</time></trkpt><trkpt lat="44.804120868860565" lon="8.007812165583212"><ele>255.0</ele><time>2026-03-28T10:56:50Z</time></trkpt><trkpt lat="44.80419302594334" lon="8.007975852392736"><ele>255.0</ele><time>2026-03-28T10:56:51Z</time></trkpt><trkpt lat="44.8042110452959" lon="8.008161181004597"><ele>255.0</ele><time>2026-03-28T10:56:52Z</time></trkpt><trkpt lat="44.804160240363245" lon="8.008336911731796"><ele>255.0</ele><time>2026-03-28T10:56:53Z</time></trkpt><trkpt lat="44.80407278888786" lon="8.008475842001769"><ele>255.0</ele><time>2026-03-28T10:56:54Z</time></trkpt><trkpt lat="44.80395349884139" lon="8.008630230134328"><ele>253.66666666666669</ele><time>2026-03-28T10:56:55Z</time></trkpt><trkpt lat="44.80383024052184" lon="8.008817535098776"><ele>252.33333333333334</ele><time>2026-03-28T10:56:56Z</time></trkpt><trkpt lat="44.803674175045536" lon="8.008970895473682"><ele>251.0</ele><time>2026-03-28T10:56:57Z</time></trkpt><trkpt lat="44.803526064587196" lon="8.009134613162725"><ele>249.0</ele><time>2026-03-28T10:56:58Z</time></trkpt><trkpt lat="44.803404118079946" lon="8.00932019840773"><ele>247.0</ele><time>2026-03-28T10:56:59Z</time></trkpt><trkpt lat="44.80328011478336" lon="8.00948899197855"><ele>245.0</ele><time>2026-03-28T10:57:00Z</time></trkpt><trkpt lat="44.80314946755714" lon="8.009644841308036"><ele>245.0</ele><time>2026-03-28T10:57:01Z</time></trkpt><trkpt lat="44.80303590577628" lon="8.009789225327058"><ele>245.0</ele><time>2026-03-28T10:57:02Z</time></trkpt><trkpt lat="44.8029451688489" lon="8.00992174280501"><ele>245.0</ele><time>2026-03-28T10:57:03Z</time></trkpt><trkpt lat="44.802913655271766" lon="8.01007162058538"><ele>245.0</ele><time>2026-03-28T10:57:04Z</time></trkpt><trkpt lat="44.802908786145686" lon="8.010204110997659"><ele>247.25</ele><time>2026-03-28T10:57:05Z</time></trkpt><trkpt lat="44.80294956862218" lon="8.010328493122046"><ele>249.5</ele><time>2026-03-28T10:57:06Z</time></trkpt><trkpt lat="44.803029747049244" lon="8.01046368608736"><ele>251.75</ele><time>2026-03-28T10:57:07Z</time></trkpt><trkpt lat="44.80314696792219" lon="8.01055613247077"><ele>254.0</ele><time>2026-03-28T10:57:08Z</time></trkpt><trkpt lat="44.80330661277946" lon="8.010616418351425"><ele>254.0</ele><time>2026-03-28T10:57:09Z</time></trkpt><trkpt lat="44.80347536937605" lon="8.01066756175064"><ele>254.0</ele><time>2026-03-28T10:57:10Z</time></trkpt><trkpt lat="44.80363550165558" lon="8.010722873398473"><ele>254.0</ele><time>2026-03-28T10:57:11Z</time></trkpt><trkpt lat="44.80380077185176" lon="8.010774498628011"><ele>254.33333333333334</ele><time>2026-03-28T10:57:12Z</time></trkpt><trkpt lat="44.803973425348126" lon="8.010818100803494"><ele>254.66666666666669</ele><time>2026-03-28T10:57:13Z</time></trkpt><trkpt lat="44.80413473819565" lon="8.01087195102671"><ele>255.0</ele><time>2026-03-28T10:57:14Z</time></trkpt><trkpt lat="44.80429876661506" lon="8.010923080948286"><ele>258.0</ele><time>2026-03-28T10:57:15Z</time></trkpt><trkpt lat="44.80445898584455" lon="8.010970050465072"><ele>261.0</ele><time>2026-03-28T10:57:16Z</time></trkpt><trkpt lat="44.80462053918433" lon="8.01100389198267"><ele>264.0</ele><time>2026-03-28T10:57:17Z</time></trkpt><trkpt lat="44.804784733756065" lon="8.011017171882775"><ele>264.0</ele><time>2026-03-28T10:57:18Z</time></trkpt><trkpt lat="44.80495404080464" lon="8.011014184197997"><ele>264.0</ele><time>2026-03-28T10:57:19Z</time></trkpt><trkpt lat="44.805117165107454" lon="8.011008862817864"><ele>264.0</ele><time>2026-03-28T10:57:20Z</time></trkpt><trkpt lat="44.80526822897415" lon="8.011007863122606"><ele>265.0</ele><time>2026-03-28T10:57:21Z</time></trkpt><trkpt lat="44.80540992691371" lon="8.010989267755631"><ele>266.0</ele><time>2026-03-28T10:57:22Z</time></trkpt><trkpt lat="44.805536857543146" lon="8.010957174690478"><ele>267.0</ele><time>2026-03-28T10:57:23Z</time></trkpt><trkpt lat="44.805652726391465" lon="8.010923207196047"><ele>268.0</ele><time>2026-03-28T10:57:24Z</time></trkpt><trkpt lat="44.80576293604018" lon="8.010865273999583"><ele>269.6</ele><time>2026-03-28T10:57:25Z</time></trkpt><trkpt lat="44.80584720904394" lon="8.010790016155406"><ele>271.20000000000005</ele><time>2026-03-28T10:57:26Z</time></trkpt><trkpt lat="44.80591347867361" lon="8.010744830442155"><ele>272.8</ele><time>2026-03-28T10:57:27Z</time></trkpt><trkpt lat="44.80592148792853" lon="8.0105991085682"><ele>274.40000000000003</ele><time>2026-03-28T10:57:28Z</time></trkpt><trkpt lat="44.80595522605676" lon="8.010463771249785"><ele>276.0</ele><time>2026-03-28T10:57:29Z</time></trkpt><trkpt lat="44.805983807373586" lon="8.010304204084424"><ele>277.0</ele><time>2026-03-28T10:57:30Z</time></trkpt><trkpt lat="44.80601051560067" lon="8.010138152047864"><ele>278.0</ele><time>2026-03-28T10:57:31Z</time></trkpt><trkpt lat="44.806109632868335" lon="8.010013120030283"><ele>279.0</ele><time>2026-03-28T10:57:32Z</time></trkpt><trkpt lat="44.806169474628746" lon="8.009845553069491"><ele>280.0</ele><time>2026-03-28T10:57:33Z</time></trkpt><trkpt lat="44.80623604320051" lon="8.009657165448122"><ele>280.0</ele><time>2026-03-28T10:57:34Z</time></trkpt><trkpt lat="44.80631159883046" lon="8.009466327850456"><ele>280.0</ele><time>2026-03-28T10:57:35Z</time></trkpt><trkpt lat="44.80639317991103" lon="8.009292341733948"><ele>280.0</ele><time>2026-03-28T10:57:36Z</time></trkpt><trkpt lat="44.806459358643956" lon="8.009147782063907"><ele>280.0</ele><time>2026-03-28T10:57:37Z</time></trkpt><trkpt lat="44.806508405449655" lon="8.00904019224674"><ele>281.66666666666663</ele><time>2026-03-28T10:57:38Z</time></trkpt><trkpt lat="44.806569548364195" lon="8.008923767693314"><ele>283.3333333333333</ele><time>2026-03-28T10:57:39Z</time></trkpt><trkpt lat="44.806628020286304" lon="8.008823489607106"><ele>285.0</ele><time>2026-03-28T10:57:40Z</time></trkpt><trkpt lat="44.80669173947583" lon="8.008731150399303"><ele>286.6666666666667</ele><time>2026-03-28T10:57:41Z</time></trkpt><trkpt lat="44.806752168887066" lon="8.008669773153194"><ele>288.33333333333337</ele><time>2026-03-28T10:57:42Z</time></trkpt><trkpt lat="44.80680933121387" lon="8.008616982459847"><ele>290.0</ele><time>2026-03-28T10:57:43Z</time></trkpt><trkpt lat="44.80687005147057" lon="8.00853496159883"><ele>290.0</ele><time>2026-03-28T10:57:45Z</time></trkpt><trkpt lat="44.806926301010634" lon="8.008492161387322"><ele>290.0</ele><time>2026-03-28T10:57:51Z</time></trkpt><trkpt lat="44.806846226218816" lon="8.008580139263277"><ele>290.0</ele><time>2026-03-28T10:58:01Z</time></trkpt><trkpt lat="44.806758788400515" lon="8.008663658621995"><ele>290.0</ele><time>2026-03-28T10:58:03Z</time></trkpt><trkpt lat="44.806703143897316" lon="8.008715046734384"><ele>290.0</ele><time>2026-03-28T10:58:04Z</time></trkpt><trkpt lat="44.80660214006251" lon="8.008515370562561"><ele>291.6666666666667</ele><time>2026-03-28T10:58:05Z</time></trkpt><trkpt lat="44.806505156645606" lon="8.00893725984506"><ele>293.3333333333333</ele><time>2026-03-28T10:58:06Z</time></trkpt><trkpt lat="44.80644939181287" lon="8.009070491429888"><ele>295.0</ele><time>2026-03-28T10:58:07Z</time></trkpt><trkpt lat="44.806388460489515" lon="8.009204255159565"><ele>291.25</ele><time>2026-03-28T10:58:08Z</time></trkpt><trkpt lat="44.806332682520775" lon="8.009340061644465"><ele>287.5</ele><time>2026-03-28T10:58:09Z</time></trkpt><trkpt lat="44.806289444502575" lon="8.009487089583159"><ele>283.75</ele><time>2026-03-28T10:58:10Z</time></trkpt><trkpt lat="44.80625357768375" lon="8.009647539720667"><ele>280.0</ele><time>2026-03-28T10:58:11Z</time></trkpt><trkpt lat="44.80622643701135" lon="8.009815224141398"><ele>280.0</ele><time>2026-03-28T10:58:12Z</time></trkpt><trkpt lat="44.806201759487706" lon="8.009979744982799"><ele>280.0</ele><time>2026-03-28T10:58:13Z</time></trkpt><trkpt lat="44.806190113969535" lon="8.010160176034516"><ele>280.0</ele><time>2026-03-28T10:58:14Z</time></trkpt><trkpt lat="44.80604074853208" lon="8.010126967482277"><ele>280.0</ele><time>2026-03-28T10:58:15Z</time></trkpt><trkpt lat="44.80600581277536" lon="8.01025568342491"><ele>279.2</ele><time>2026-03-28T10:58:16Z</time></trkpt><trkpt lat="44.80597518531102" lon="8.010386540468918"><ele>278.4</ele><time>2026-03-28T10:58:17Z</time></trkpt><trkpt lat="44.80594872724841" lon="8.010501376727992"><ele>277.6</ele><time>2026-03-28T10:58:18Z</time></trkpt><trkpt lat="44.805919165586786" lon="8.010583004887334"><ele>276.8</ele><time>2026-03-28T10:58:19Z</time></trkpt><trkpt lat="44.80587090626682" lon="8.010652963097929"><ele>276.0</ele><time>2026-03-28T10:58:22Z</time></trkpt><trkpt lat="44.806021103206994" lon="8.010622212050565"><ele>274.40000000000003</ele><time>2026-03-28T10:58:26Z</time></trkpt><trkpt lat="44.80608009038635" lon="8.010549482174794"><ele>272.8</ele><time>2026-03-28T10:58:27Z</time></trkpt><trkpt lat="44.80614886440003" lon="8.010472525457503"><ele>271.20000000000005</ele><time>2026-03-28T10:58:28Z</time></trkpt><trkpt lat="44.806235231578235" lon="8.010382624204809"><ele>269.6</ele><time>2026-03-28T10:58:29Z</time></trkpt><trkpt lat="44.80634894474896" lon="8.010301075530093"><ele>268.0</ele><time>2026-03-28T10:58:30Z</time></trkpt><trkpt lat="44.80648283643332" lon="8.010234539301328"><ele>268.0</ele><time>2026-03-28T10:58:31Z</time></trkpt><trkpt lat="44.80664118914314" lon="8.010222703266495"><ele>268.0</ele><time>2026-03-28T10:58:32Z</time></trkpt><trkpt lat="44.806811737606616" lon="8.010230517433914"><ele>268.0</ele><time>2026-03-28T10:58:33Z</time></trkpt><trkpt lat="44.80698355208848" lon="8.010256932833125"><ele>265.0</ele><time>2026-03-28T10:58:34Z</time></trkpt><trkpt lat="44.80714111919204" lon="8.010293417794541"><ele>262.0</ele><time>2026-03-28T10:58:35Z</time></trkpt><trkpt lat="44.80729877824036" lon="8.010305124059027"><ele>259.0</ele><time>2026-03-28T10:58:36Z</time></trkpt><trkpt lat="44.80745485200208" lon="8.010346166763492"><ele>259.0</ele><time>2026-03-28T10:58:37Z</time></trkpt><trkpt lat="44.80759332135165" lon="8.010353412697764"><ele>259.0</ele><time>2026-03-28T10:58:38Z</time></trkpt><trkpt lat="44.80772676600778" lon="8.010362954844288"><ele>259.0</ele><time>2026-03-28T10:58:39Z</time></trkpt><trkpt lat="44.807861184225054" lon="8.010374375361394"><ele>259.0</ele><time>2026-03-28T10:58:40Z</time></trkpt><trkpt lat="44.80799018029201" lon="8.010395477012493"><ele>256.3333333333333</ele><time>2026-03-28T10:58:41Z</time></trkpt><trkpt lat="44.808126838840764" lon="8.01043988934675"><ele>253.66666666666669</ele><time>2026-03-28T10:58:42Z</time></trkpt><trkpt lat="44.8082843197087" lon="8.010526805765771"><ele>251.0</ele><time>2026-03-28T10:58:43Z</time></trkpt><trkpt lat="44.808461528551916" lon="8.010653059436681"><ele>254.0</ele><time>2026-03-28T10:58:44Z</time></trkpt><trkpt lat="44.80864640864618" lon="8.010816229467705"><ele>257.0</ele><time>2026-03-28T10:58:45Z</time></trkpt><trkpt lat="44.808805782313314" lon="8.010988272042194"><ele>260.0</ele><time>2026-03-28T10:58:46Z</time></trkpt><trkpt lat="44.80894601125729" lon="8.011150223629729"><ele>254.33333333333334</ele><time>2026-03-28T10:58:47Z</time></trkpt><trkpt lat="44.80908769023491" lon="8.011287657100016"><ele>248.66666666666669</ele><time>2026-03-28T10:58:48Z</time></trkpt><trkpt lat="44.809229543283045" lon="8.011402382090324"><ele>243.0</ele><time>2026-03-28T10:58:49Z</time></trkpt><trkpt lat="44.80937628409076" lon="8.01150822115795"><ele>243.0</ele><time>2026-03-28T10:58:50Z</time></trkpt><trkpt lat="44.80952864773305" lon="8.011596440680863"><ele>243.0</ele><time>2026-03-28T10:58:51Z</time></trkpt><trkpt lat="44.809675765029304" lon="8.011672806569404"><ele>243.0</ele><time>2026-03-28T10:58:52Z</time></trkpt><trkpt lat="44.80983074790077" lon="8.011735030623925"><ele>242.66666666666669</ele><time>2026-03-28T10:58:53Z</time></trkpt><trkpt lat="44.81001047279084" lon="8.011769575815315"><ele>242.33333333333334</ele><time>2026-03-28T10:58:54Z</time></trkpt><trkpt lat="44.810216395019445" lon="8.011785980608488"><ele>242.0</ele><time>2026-03-28T10:58:55Z</time></trkpt><trkpt lat="44.81042610488527" lon="8.01180635122493"><ele>239.66666666666669</ele><time>2026-03-28T10:58:56Z</time></trkpt><trkpt lat="44.81065153411182" lon="8.011835409341584"><ele>237.33333333333331</ele><time>2026-03-28T10:58:57Z</time></trkpt><trkpt lat="44.810871422469305" lon="8.011864189344957"><ele>235.0</ele><time>2026-03-28T10:58:58Z</time></trkpt><trkpt lat="44.8110722553945" lon="8.011890964787359"><ele>233.0</ele><time>2026-03-28T10:58:59Z</time></trkpt><trkpt lat="44.81126204469857" lon="8.011910653452341"><ele>231.0</ele><time>2026-03-28T10:59:00Z</time></trkpt><trkpt lat="44.811441399050054" lon="8.01192262455168"><ele>229.0</ele><time>2026-03-28T10:59:01Z</time></trkpt><trkpt lat="44.81161149919763" lon="8.01192799874294"><ele>229.0</ele><time>2026-03-28T10:59:02Z</time></trkpt><trkpt lat="44.81177576230681" lon="8.01190732392403"><ele>229.0</ele><time>2026-03-28T10:59:03Z</time></trkpt><trkpt lat="44.811937414736235" lon="8.011857559352858"><ele>229.0</ele><time>2026-03-28T10:59:04Z</time></trkpt><trkpt lat="44.812100023249876" lon="8.01186555327444"><ele>228.66666666666666</ele><time>2026-03-28T10:59:05Z</time></trkpt><trkpt lat="44.81226534473899" lon="8.011870462713604"><ele>228.33333333333331</ele><time>2026-03-28T10:59:06Z</time></trkpt><trkpt lat="44.81242982542266" lon="8.011918282478764"><ele>228.0</ele><time>2026-03-28T10:59:07Z</time></trkpt><trkpt lat="44.812592249640254" lon="8.011947718984578"><ele>227.66666666666669</ele><time>2026-03-28T10:59:08Z</time></trkpt><trkpt lat="44.812750695157426" lon="8.011942181910563"><ele>227.33333333333334</ele><time>2026-03-28T10:59:09Z</time></trkpt><trkpt lat="44.812910921454645" lon="8.011904019670956"><ele>227.0</ele><time>2026-03-28T10:59:10Z</time></trkpt><trkpt lat="44.81306048918703" lon="8.01185070901878"><ele>227.0</ele><time>2026-03-28T10:59:11Z</time></trkpt><trkpt lat="44.81320077512149" lon="8.011778386700607"><ele>227.0</ele><time>2026-03-28T10:59:12Z</time></trkpt><trkpt lat="44.81333576778265" lon="8.011683388499456"><ele>227.0</ele><time>2026-03-28T10:59:13Z</time></trkpt><trkpt lat="44.81346771064639" lon="8.011556283554942"><ele>226.0</ele><time>2026-03-28T10:59:14Z</time></trkpt><trkpt lat="44.81359725293217" lon="8.011396236130482"><ele>225.0</ele><time>2026-03-28T10:59:15Z</time></trkpt><trkpt lat="44.813722162539314" lon="8.011212138774509"><ele>224.0</ele><time>2026-03-28T10:59:16Z</time></trkpt><trkpt lat="44.81384335177699" lon="8.011046660687338"><ele>224.0</ele><time>2026-03-28T10:59:17Z</time></trkpt><trkpt lat="44.81396080622175" lon="8.010900296085008"><ele>224.0</ele><time>2026-03-28T10:59:18Z</time></trkpt><trkpt lat="44.81409343546189" lon="8.0108128710712"><ele>224.0</ele><time>2026-03-28T10:59:19Z</time></trkpt><trkpt lat="44.814244859906296" lon="8.01075641597511"><ele>225.0</ele><time>2026-03-28T10:59:20Z</time></trkpt><trkpt lat="44.814405123843486" lon="8.010704733273773"><ele>226.0</ele><time>2026-03-28T10:59:21Z</time></trkpt><trkpt lat="44.81457422544563" lon="8.010664013162994"><ele>227.0</ele><time>2026-03-28T10:59:22Z</time></trkpt><trkpt lat="44.81474875433668" lon="8.010617811849588"><ele>227.0</ele><time>2026-03-28T10:59:23Z</time></trkpt><trkpt lat="44.814918486731074" lon="8.010555068724805"><ele>227.0</ele><time>2026-03-28T10:59:24Z</time></trkpt><trkpt lat="44.81507631851346" lon="8.010519454865426"><ele>227.0</ele><time>2026-03-28T10:59:25Z</time></trkpt><trkpt lat="44.81522536177256" lon="8.010483470699016"><ele>224.0</ele><time>2026-03-28T10:59:26Z</time></trkpt><trkpt lat="44.815369299647166" lon="8.010440877165802"><ele>221.0</ele><time>2026-03-28T10:59:27Z</time></trkpt><trkpt lat="44.815513275019434" lon="8.010373114039172"><ele>218.0</ele><time>2026-03-28T10:59:28Z</time></trkpt><trkpt lat="44.81566470015111" lon="8.010284073614846"><ele>218.0</ele><time>2026-03-28T10:59:29Z</time></trkpt><trkpt lat="44.81582395718399" lon="8.01017271495547"><ele>218.0</ele><time>2026-03-28T10:59:30Z</time></trkpt><trkpt lat="44.81598827611553" lon="8.010061492172433"><ele>218.0</ele><time>2026-03-28T10:59:31Z</time></trkpt><trkpt lat="44.816160038045346" lon="8.009952225686531"><ele>217.0</ele><time>2026-03-28T10:59:32Z</time></trkpt><trkpt lat="44.816327341982095" lon="8.009850111833295"><ele>216.0</ele><time>2026-03-28T10:59:33Z</time></trkpt><trkpt lat="44.81648370163838" lon="8.009750762876276"><ele>215.0</ele><time>2026-03-28T10:59:34Z</time></trkpt><trkpt lat="44.81663016420735" lon="8.009660500804765"><ele>215.0</ele><time>2026-03-28T10:59:35Z</time></trkpt><trkpt lat="44.81676832642041" lon="8.00957774039389"><ele>215.0</ele><time>2026-03-28T10:59:36Z</time></trkpt><trkpt lat="44.81690324450462" lon="8.009498709357365"><ele>215.0</ele><time>2026-03-28T10:59:37Z</time></trkpt><trkpt lat="44.81703292430037" lon="8.009421236462583"><ele>215.0</ele><time>2026-03-28T10:59:38Z</time></trkpt><trkpt lat="44.8171533512141" lon="8.009346403458487"><ele>214.0</ele><time>2026-03-28T10:59:39Z</time></trkpt><trkpt lat="44.81726588597966" lon="8.009276159981338"><ele>213.0</ele><time>2026-03-28T10:59:40Z</time></trkpt><trkpt lat="44.81738111624127" lon="8.009258439360357"><ele>212.0</ele><time>2026-03-28T10:59:41Z</time></trkpt><trkpt lat="44.81747955060928" lon="8.009239095403528"><ele>211.0</ele><time>2026-03-28T10:59:42Z</time></trkpt><trkpt lat="44.817554574908335" lon="8.009222232369"><ele>210.0</ele><time>2026-03-28T10:59:43Z</time></trkpt><trkpt lat="44.81761518875586" lon="8.009269188633722"><ele>210.0</ele><time>2026-03-28T10:59:44Z</time></trkpt><trkpt lat="44.81763565015254" lon="8.009384002860848"><ele>210.0</ele><time>2026-03-28T10:59:45Z</time></trkpt><trkpt lat="44.81767457292791" lon="8.00952753925599"><ele>210.0</ele><time>2026-03-28T10:59:46Z</time></trkpt><trkpt lat="44.81771113719434" lon="8.009683024326232"><ele>210.0</ele><time>2026-03-28T10:59:47Z</time></trkpt><trkpt lat="44.817742586683195" lon="8.009847101268212"><ele>210.0</ele><time>2026-03-28T10:59:48Z</time></trkpt><trkpt lat="44.81778873646137" lon="8.010003564946794"><ele>210.0</ele><time>2026-03-28T10:59:49Z</time></trkpt><trkpt lat="44.81783098677639" lon="8.010165874478346"><ele>210.0</ele><time>2026-03-28T10:59:50Z</time></trkpt><trkpt lat="44.817859217550726" lon="8.010349425162413"><ele>210.0</ele><time>2026-03-28T10:59:51Z</time></trkpt><trkpt lat="44.8178692007444" lon="8.010548267770355"><ele>210.0</ele><time>2026-03-28T10:59:52Z</time></trkpt><trkpt lat="44.81787688459404" lon="8.010752974470755"><ele>210.25</ele><time>2026-03-28T10:59:53Z</time></trkpt><trkpt lat="44.81788443642721" lon="8.010927656253168"><ele>210.5</ele><time>2026-03-28T10:59:54Z</time></trkpt><trkpt lat="44.81789337362503" lon="8.011099199560103"><ele>210.75</ele><time>2026-03-28T10:59:55Z</time></trkpt><trkpt lat="44.817951152530526" lon="8.01127927710657"><ele>211.0</ele><time>2026-03-28T10:59:56Z</time></trkpt><trkpt lat="44.81803328356359" lon="8.011461539778306"><ele>211.0</ele><time>2026-03-28T10:59:57Z</time></trkpt><trkpt lat="44.81814400574593" lon="8.011626363172835"><ele>211.0</ele><time>2026-03-28T10:59:58Z</time></trkpt><trkpt lat="44.81826274710621" lon="8.011788811037952"><ele>211.0</ele><time>2026-03-28T10:59:59Z</time></trkpt><trkpt lat="44.81837462086066" lon="8.011941969527884"><ele>211.5</ele><time>2026-03-28T11:00:00Z</time></trkpt><trkpt lat="44.818474993960116" lon="8.012085624199083"><ele>212.0</ele><time>2026-03-28T11:00:01Z</time></trkpt><trkpt lat="44.81858172652435" lon="8.012222614189328"><ele>212.5</ele><time>2026-03-28T11:00:02Z</time></trkpt><trkpt lat="44.8187023403901" lon="8.012362387029697"><ele>213.0</ele><time>2026-03-28T11:00:03Z</time></trkpt><trkpt lat="44.81883596620136" lon="8.012498170604063"><ele>211.66666666666669</ele><time>2026-03-28T11:00:04Z</time></trkpt><trkpt lat="44.818984789848756" lon="8.012624705035922"><ele>210.33333333333334</ele><time>2026-03-28T11:00:05Z</time></trkpt><trkpt lat="44.819135297304996" lon="8.012737848972844"><ele>209.0</ele><time>2026-03-28T11:00:06Z</time></trkpt><trkpt lat="44.81928353337131" lon="8.012833838132511"><ele>208.0</ele><time>2026-03-28T11:00:07Z</time></trkpt><trkpt lat="44.81942249189923" lon="8.012918884872475"><ele>207.0</ele><time>2026-03-28T11:00:08Z</time></trkpt><trkpt lat="44.81955494371662" lon="8.012985602791852"><ele>206.0</ele><time>2026-03-28T11:00:09Z</time></trkpt><trkpt lat="44.81968158711137" lon="8.013043920648151"><ele>205.0</ele><time>2026-03-28T11:00:10Z</time></trkpt><trkpt lat="44.81980272775595" lon="8.013088631911186"><ele>205.0</ele><time>2026-03-28T11:00:11Z</time></trkpt><trkpt lat="44.819906008499096" lon="8.013159984227416"><ele>205.0</ele><time>2026-03-28T11:00:12Z</time></trkpt><trkpt lat="44.82000026129726" lon="8.013238511642752"><ele>205.0</ele><time>2026-03-28T11:00:13Z</time></trkpt><trkpt lat="44.820101354212376" lon="8.013312389753978"><ele>205.0</ele><time>2026-03-28T11:00:14Z</time></trkpt><trkpt lat="44.82020360344425" lon="8.013416517397062"><ele>204.8</ele><time>2026-03-28T11:00:15Z</time></trkpt><trkpt lat="44.82030128443853" lon="8.01350730664759"><ele>204.6</ele><time>2026-03-28T11:00:16Z</time></trkpt><trkpt lat="44.82039517971186" lon="8.0135824717732"><ele>204.39999999999998</ele><time>2026-03-28T11:00:17Z</time></trkpt><trkpt lat="44.82048301959702" lon="8.013665383195109"><ele>204.2</ele><time>2026-03-28T11:00:18Z</time></trkpt><trkpt lat="44.820571324581024" lon="8.013723465031111"><ele>204.0</ele><time>2026-03-28T11:00:19Z</time></trkpt><trkpt lat="44.820644504669396" lon="8.013784848900134"><ele>204.0</ele><time>2026-03-28T11:00:20Z</time></trkpt><trkpt lat="44.820696323956476" lon="8.013868840425038"><ele>204.0</ele><time>2026-03-28T11:00:21Z</time></trkpt><trkpt lat="44.82068831225447" lon="8.013990253724323"><ele>204.0</ele><time>2026-03-28T11:00:22Z</time></trkpt><trkpt lat="44.820712918531264" lon="8.014111087772465"><ele>204.0</ele><time>2026-03-28T11:00:23Z</time></trkpt><trkpt lat="44.82071695906128" lon="8.014225884619984"><ele>204.0</ele><time>2026-03-28T11:00:24Z</time></trkpt><trkpt lat="44.82073878272125" lon="8.01433274568994"><ele>204.0</ele><time>2026-03-28T11:00:25Z</time></trkpt><trkpt lat="44.820754534181724" lon="8.014441780301238"><ele>204.2</ele><time>2026-03-28T11:00:26Z</time></trkpt><trkpt lat="44.8208477854851" lon="8.014508677396778"><ele>204.39999999999998</ele><time>2026-03-28T11:00:27Z</time></trkpt><trkpt lat="44.82094491178429" lon="8.0145333999504"><ele>204.6</ele><time>2026-03-28T11:00:28Z</time></trkpt><trkpt lat="44.82104550196675" lon="8.014514970375968"><ele>204.8</ele><time>2026-03-28T11:00:29Z</time></trkpt><trkpt lat="44.82114313112544" lon="8.014460465136324"><ele>205.0</ele><time>2026-03-28T11:00:30Z</time></trkpt><trkpt lat="44.821232231293195" lon="8.014400032166554"><ele>204.99999999999997</ele><time>2026-03-28T11:00:31Z</time></trkpt><trkpt lat="44.82130884699166" lon="8.014353077353746"><ele>205.0</ele><time>2026-03-28T11:00:32Z</time></trkpt><trkpt lat="44.82137912305076" lon="8.014349595207758"><ele>205.0</ele><time>2026-03-28T11:00:33Z</time></trkpt><trkpt lat="44.82144518197756" lon="8.014400647799281"><ele>205.0</ele><time>2026-03-28T11:00:34Z</time></trkpt><trkpt lat="44.821538307534354" lon="8.01445504601697"><ele>204.99999999999997</ele><time>2026-03-28T11:00:35Z</time></trkpt><trkpt lat="44.82164418224021" lon="8.014516366701518"><ele>205.0</ele><time>2026-03-28T11:00:36Z</time></trkpt><trkpt lat="44.82176144523861" lon="8.014564631019311"><ele>204.25</ele><time>2026-03-28T11:00:37Z</time></trkpt><trkpt lat="44.82188609392233" lon="8.014612254763033"><ele>203.5</ele><time>2026-03-28T11:00:38Z</time></trkpt><trkpt lat="44.82201130145722" lon="8.014673570943796"><ele>202.75</ele><time>2026-03-28T11:00:39Z</time></trkpt><trkpt lat="44.82214590884602" lon="8.014726467484556"><ele>202.0</ele><time>2026-03-28T11:00:40Z</time></trkpt><trkpt lat="44.82227770904549" lon="8.014773818634717"><ele>202.0</ele><time>2026-03-28T11:00:41Z</time></trkpt><trkpt lat="44.822397034302035" lon="8.014833020798278"><ele>202.0</ele><time>2026-03-28T11:00:42Z</time></trkpt><trkpt lat="44.822512513770114" lon="8.014874959338139"><ele>202.0</ele><time>2026-03-28T11:00:43Z</time></trkpt><trkpt lat="44.822634456895834" lon="8.014888702035153"><ele>202.0</ele><time>2026-03-28T11:00:44Z</time></trkpt><trkpt lat="44.82275581184546" lon="8.014890481583642"><ele>201.8</ele><time>2026-03-28T11:00:45Z</time></trkpt><trkpt lat="44.822881785003155" lon="8.014881712803856"><ele>201.6</ele><time>2026-03-28T11:00:46Z</time></trkpt><trkpt lat="44.82299680030223" lon="8.014865524589563"><ele>201.4</ele><time>2026-03-28T11:00:47Z</time></trkpt><trkpt lat="44.823075477037186" lon="8.014848821558223"><ele>201.20000000000002</ele><time>2026-03-28T11:00:48Z</time></trkpt><trkpt lat="44.823149121768424" lon="8.014833076294837"><ele>201.0</ele><time>2026-03-28T11:00:49Z</time></trkpt><trkpt lat="44.82321983828701" lon="8.014820142569373"><ele>201.0</ele><time>2026-03-28T11:00:50Z</time></trkpt><trkpt lat="44.82332359558317" lon="8.014928828717183"><ele>201.0</ele><time>2026-03-28T11:00:51Z</time></trkpt><trkpt lat="44.82344401265235" lon="8.015015287310618"><ele>201.0</ele><time>2026-03-28T11:00:52Z</time></trkpt><trkpt lat="44.82357373340663" lon="8.015100151196863"><ele>201.0</ele><time>2026-03-28T11:00:53Z</time></trkpt><trkpt lat="44.82370931739291" lon="8.015195390694183"><ele>201.33333333333331</ele><time>2026-03-28T11:00:54Z</time></trkpt><trkpt lat="44.82383934291551" lon="8.015313967027344"><ele>201.66666666666666</ele><time>2026-03-28T11:00:55Z</time></trkpt><trkpt lat="44.82398153126339" lon="8.015445741455556"><ele>202.0</ele><time>2026-03-28T11:00:56Z</time></trkpt><trkpt lat="44.82413465674723" lon="8.015575837498398"><ele>202.0</ele><time>2026-03-28T11:00:57Z</time></trkpt><trkpt lat="44.82427926134983" lon="8.015697750140083"><ele>202.0</ele><time>2026-03-28T11:00:58Z</time></trkpt><trkpt lat="44.82441666657657" lon="8.01582044368019"><ele>202.0</ele><time>2026-03-28T11:00:59Z</time></trkpt><trkpt lat="44.82455512057803" lon="8.0159307834508"><ele>200.66666666666666</ele><time>2026-03-28T11:01:00Z</time></trkpt><trkpt lat="44.82469475575658" lon="8.016028295228137"><ele>199.33333333333331</ele><time>2026-03-28T11:01:01Z</time></trkpt><trkpt lat="44.82483538772708" lon="8.01612235862197"><ele>198.0</ele><time>2026-03-28T11:01:02Z</time></trkpt><trkpt lat="44.82497019577339" lon="8.016220177958209"><ele>198.0</ele><time>2026-03-28T11:01:03Z</time></trkpt><trkpt lat="44.825117220040525" lon="8.016327330260307"><ele>198.0</ele><time>2026-03-28T11:01:04Z</time></trkpt><trkpt lat="44.82525731150596" lon="8.016434689581851"><ele>198.0</ele><time>2026-03-28T11:01:05Z</time></trkpt><trkpt lat="44.82540369237933" lon="8.01654542407236"><ele>198.33333333333331</ele><time>2026-03-28T11:01:06Z</time></trkpt><trkpt lat="44.82555054137244" lon="8.016658383665446"><ele>198.66666666666666</ele><time>2026-03-28T11:01:07Z</time></trkpt><trkpt lat="44.82569755366191" lon="8.016774005655494"><ele>199.0</ele><time>2026-03-28T11:01:08Z</time></trkpt><trkpt lat="44.82585438461193" lon="8.016888747013926"><ele>197.66666666666666</ele><time>2026-03-28T11:01:09Z</time></trkpt><trkpt lat="44.82602171245831" lon="8.016994625515236"><ele>196.33333333333331</ele><time>2026-03-28T11:01:10Z</time></trkpt><trkpt lat="44.826195191107075" lon="8.017101100812152"><ele>195.0</ele><time>2026-03-28T11:01:11Z</time></trkpt><trkpt lat="44.82637149831858" lon="8.017193665316762"><ele>195.0</ele><time>2026-03-28T11:01:12Z</time></trkpt><trkpt lat="44.82655133880573" lon="8.017281208281291"><ele>195.0</ele><time>2026-03-28T11:01:13Z</time></trkpt><trkpt lat="44.826732838361444" lon="8.017366247780737"><ele>195.0</ele><time>2026-03-28T11:01:14Z</time></trkpt><trkpt lat="44.826911691132615" lon="8.017455656909172"><ele>195.33333333333331</ele><time>2026-03-28T11:01:15Z</time></trkpt><trkpt lat="44.82709297029376" lon="8.017551556005992"><ele>195.66666666666666</ele><time>2026-03-28T11:01:16Z</time></trkpt><trkpt lat="44.82727471630413" lon="8.017648104012624"><ele>196.0</ele><time>2026-03-28T11:01:17Z</time></trkpt><trkpt lat="44.82745488569872" lon="8.017744631802657"><ele>196.0</ele><time>2026-03-28T11:01:18Z</time></trkpt><trkpt lat="44.827626995602664" lon="8.01782658794527"><ele>196.0</ele><time>2026-03-28T11:01:19Z</time></trkpt><trkpt lat="44.827804369337365" lon="8.01791431601874"><ele>196.0</ele><time>2026-03-28T11:01:20Z</time></trkpt><trkpt lat="44.82797639878958" lon="8.018008207332397"><ele>195.0</ele><time>2026-03-28T11:01:21Z</time></trkpt><trkpt lat="44.828144934012485" lon="8.018111811108879"><ele>194.0</ele><time>2026-03-28T11:01:22Z</time></trkpt><trkpt lat="44.82830516000626" lon="8.018228928470402"><ele>193.0</ele><time>2026-03-28T11:01:23Z</time></trkpt><trkpt lat="44.82845056645847" lon="8.018370326881966"><ele>195.33333333333331</ele><time>2026-03-28T11:01:24Z</time></trkpt><trkpt lat="44.8285873360825" lon="8.018522362188136"><ele>197.66666666666669</ele><time>2026-03-28T11:01:25Z</time></trkpt><trkpt lat="44.82871103915986" lon="8.01869582274939"><ele>200.0</ele><time>2026-03-28T11:01:26Z</time></trkpt><trkpt lat="44.82884189237385" lon="8.018865238517952"><ele>200.0</ele><time>2026-03-28T11:01:27Z</time></trkpt><trkpt lat="44.828987480880045" lon="8.019016520898875"><ele>200.0</ele><time>2026-03-28T11:01:28Z</time></trkpt><trkpt lat="44.82912409427298" lon="8.019183588765326"><ele>200.0</ele><time>2026-03-28T11:01:29Z</time></trkpt><trkpt lat="44.82926341538454" lon="8.01934323925733"><ele>198.33333333333334</ele><time>2026-03-28T11:01:30Z</time></trkpt><trkpt lat="44.829401784715344" lon="8.01950359318263"><ele>196.66666666666669</ele><time>2026-03-28T11:01:31Z</time></trkpt><trkpt lat="44.82957345948162" lon="8.019604841394587"><ele>195.0</ele><time>2026-03-28T11:01:32Z</time></trkpt><trkpt lat="44.829757169326335" lon="8.019657537065058"><ele>195.0</ele><time>2026-03-28T11:01:33Z</time></trkpt><trkpt lat="44.82993916207348" lon="8.019752340088385"><ele>195.0</ele><time>2026-03-28T11:01:34Z</time></trkpt><trkpt lat="44.83013399674975" lon="8.019814986932072"><ele>195.0</ele><time>2026-03-28T11:01:35Z</time></trkpt><trkpt lat="44.830319051141814" lon="8.019903825037012"><ele>193.33333333333334</ele><time>2026-03-28T11:01:36Z</time></trkpt><trkpt lat="44.83050196346914" lon="8.020003966725646"><ele>191.66666666666669</ele><time>2026-03-28T11:01:37Z</time></trkpt><trkpt lat="44.8306795967121" lon="8.020112360179521"><ele>190.0</ele><time>2026-03-28T11:01:38Z</time></trkpt><trkpt lat="44.830852984352944" lon="8.020220726351305"><ele>190.33333333333334</ele><time>2026-03-28T11:01:39Z</time></trkpt><trkpt lat="44.831023838109104" lon="8.020318056504964"><ele>190.66666666666666</ele><time>2026-03-28T11:01:40Z</time></trkpt><trkpt lat="44.83120332127101" lon="8.02038788406469"><ele>191.0</ele><time>2026-03-28T11:01:41Z</time></trkpt><trkpt lat="44.83139202863055" lon="8.020426314828255"><ele>191.0</ele><time>2026-03-28T11:01:42Z</time></trkpt><trkpt lat="44.83158740812548" lon="8.020444080875409"><ele>191.0</ele><time>2026-03-28T11:01:43Z</time></trkpt><trkpt lat="44.83178753376105" lon="8.02046526936676"><ele>191.0</ele><time>2026-03-28T11:01:44Z</time></trkpt><trkpt lat="44.83199395645167" lon="8.02049025344377"><ele>191.33333333333331</ele><time>2026-03-28T11:01:45Z</time></trkpt><trkpt lat="44.832204106088305" lon="8.020514223409283"><ele>191.66666666666666</ele><time>2026-03-28T11:01:46Z</time></trkpt><trkpt lat="44.832416835733" lon="8.020532736695113"><ele>192.0</ele><time>2026-03-28T11:01:47Z</time></trkpt><trkpt lat="44.83262875711649" lon="8.02055321143483"><ele>192.66666666666669</ele><time>2026-03-28T11:01:48Z</time></trkpt><trkpt lat="44.83283735084191" lon="8.020586462509556"><ele>193.33333333333334</ele><time>2026-03-28T11:01:49Z</time></trkpt><trkpt lat="44.83304625365562" lon="8.020622612443967"><ele>194.0</ele><time>2026-03-28T11:01:50Z</time></trkpt><trkpt lat="44.8332581858731" lon="8.020667700020274"><ele>194.0</ele><time>2026-03-28T11:01:51Z</time></trkpt><trkpt lat="44.83345876483976" lon="8.020692429123867"><ele>194.0</ele><time>2026-03-28T11:01:52Z</time></trkpt><trkpt lat="44.833632808798725" lon="8.020733819692643"><ele>194.0</ele><time>2026-03-28T11:01:53Z</time></trkpt><trkpt lat="44.83380345710209" lon="8.020769203958162"><ele>193.25</ele><time>2026-03-28T11:01:54Z</time></trkpt><trkpt lat="44.83396233663587" lon="8.0208057016339"><ele>192.5</ele><time>2026-03-28T11:01:55Z</time></trkpt><trkpt lat="44.83411260112926" lon="8.020837661263428"><ele>191.75</ele><time>2026-03-28T11:01:56Z</time></trkpt><trkpt lat="44.83424205366679" lon="8.020868191502142"><ele>191.0</ele><time>2026-03-28T11:01:57Z</time></trkpt><trkpt lat="44.834349541173545" lon="8.020891037760148"><ele>190.75</ele><time>2026-03-28T11:01:58Z</time></trkpt><trkpt lat="44.83443534020115" lon="8.02091084922471"><ele>190.5</ele><time>2026-03-28T11:01:59Z</time></trkpt><trkpt lat="44.834506653124706" lon="8.020926076423018"><ele>190.25</ele><time>2026-03-28T11:02:00Z</time></trkpt><trkpt lat="44.83460243072098" lon="8.020941290910436"><ele>190.0</ele><time>2026-03-28T11:02:02Z</time></trkpt><trkpt lat="44.83465339447546" lon="8.020666980023185"><ele>189.75</ele><time>2026-03-28T11:02:04Z</time></trkpt><trkpt lat="44.83467088275404" lon="8.020534397042113"><ele>189.5</ele><time>2026-03-28T11:02:05Z</time></trkpt><trkpt lat="44.834739273073794" lon="8.02039502170591"><ele>189.25</ele><time>2026-03-28T11:02:06Z</time></trkpt><trkpt lat="44.83480098662917" lon="8.020217429873123"><ele>189.0</ele><time>2026-03-28T11:02:07Z</time></trkpt><trkpt lat="44.83488126571588" lon="8.020038084298415"><ele>189.5</ele><time>2026-03-28T11:02:08Z</time></trkpt><trkpt lat="44.83497286590093" lon="8.019857573171118"><ele>190.0</ele><time>2026-03-28T11:02:09Z</time></trkpt><trkpt lat="44.83504570199973" lon="8.019686484097996"><ele>190.5</ele><time>2026-03-28T11:02:10Z</time></trkpt><trkpt lat="44.83511634291412" lon="8.019518933494808"><ele>191.0</ele><time>2026-03-28T11:02:11Z</time></trkpt><trkpt lat="44.83519077519514" lon="8.019358334089286"><ele>191.75</ele><time>2026-03-28T11:02:12Z</time></trkpt><trkpt lat="44.835285068928606" lon="8.01922060269785"><ele>192.5</ele><time>2026-03-28T11:02:13Z</time></trkpt><trkpt lat="44.835366388254776" lon="8.019076062363274"><ele>193.25</ele><time>2026-03-28T11:02:14Z</time></trkpt><trkpt lat="44.83543997360188" lon="8.018936603166601"><ele>194.0</ele><time>2026-03-28T11:02:15Z</time></trkpt><trkpt lat="44.83552020753295" lon="8.018819990537887"><ele>194.39999999999998</ele><time>2026-03-28T11:02:16Z</time></trkpt><trkpt lat="44.83559717318858" lon="8.018720727820288"><ele>194.8</ele><time>2026-03-28T11:02:17Z</time></trkpt><trkpt lat="44.83570448071529" lon="8.018674198845416"><ele>195.2</ele><time>2026-03-28T11:02:18Z</time></trkpt><trkpt lat="44.83581781187038" lon="8.018648902964015"><ele>195.60000000000002</ele><time>2026-03-28T11:02:19Z</time></trkpt><trkpt lat="44.83593024819058" lon="8.018625998248497"><ele>196.0</ele><time>2026-03-28T11:02:20Z</time></trkpt><trkpt lat="44.83602156719808" lon="8.018598254597542"><ele>196.4</ele><time>2026-03-28T11:02:21Z</time></trkpt><trkpt lat="44.836106937467626" lon="8.018587031085818"><ele>196.8</ele><time>2026-03-28T11:02:22Z</time></trkpt><trkpt lat="44.83618555023582" lon="8.018561650304894"><ele>197.20000000000002</ele><time>2026-03-28T11:02:23Z</time></trkpt><trkpt lat="44.83627376991653" lon="8.018527782104524"><ele>197.60000000000002</ele><time>2026-03-28T11:02:24Z</time></trkpt><trkpt lat="44.83637106100945" lon="8.0184946770967"><ele>198.0</ele><time>2026-03-28T11:02:25Z</time></trkpt><trkpt lat="44.83647308515851" lon="8.01845171382378"><ele>198.0</ele><time>2026-03-28T11:02:26Z</time></trkpt><trkpt lat="44.83657943458116" lon="8.018381316932285"><ele>198.0</ele><time>2026-03-28T11:02:27Z</time></trkpt><trkpt lat="44.83667820136859" lon="8.018287779164666"><ele>198.0</ele><time>2026-03-28T11:02:28Z</time></trkpt><trkpt lat="44.836774699502264" lon="8.018203663030611"><ele>198.0</ele><time>2026-03-28T11:02:29Z</time></trkpt><trkpt lat="44.83687758955021" lon="8.018157488848077"><ele>198.60000000000002</ele><time>2026-03-28T11:02:30Z</time></trkpt><trkpt lat="44.836958913907324" lon="8.018064001413016"><ele>199.20000000000002</ele><time>2026-03-28T11:02:31Z</time></trkpt><trkpt lat="44.837039688651366" lon="8.01797259761248"><ele>199.8</ele><time>2026-03-28T11:02:32Z</time></trkpt><trkpt lat="44.8371176241202" lon="8.017858231986182"><ele>200.4</ele><time>2026-03-28T11:02:33Z</time></trkpt><trkpt lat="44.83721080569478" lon="8.017763149323885"><ele>201.0</ele><time>2026-03-28T11:02:34Z</time></trkpt><trkpt lat="44.83729542954235" lon="8.017678993178599"><ele>201.0</ele><time>2026-03-28T11:02:35Z</time></trkpt><trkpt lat="44.837386433095446" lon="8.017598291921626"><ele>201.0</ele><time>2026-03-28T11:02:36Z</time></trkpt><trkpt lat="44.83747548604175" lon="8.017504229448026"><ele>201.0</ele><time>2026-03-28T11:02:37Z</time></trkpt><trkpt lat="44.83756837341412" lon="8.017418526642121"><ele>201.0</ele><time>2026-03-28T11:02:38Z</time></trkpt><trkpt lat="44.8376501752948" lon="8.017324066180477"><ele>201.0</ele><time>2026-03-28T11:02:39Z</time></trkpt><trkpt lat="44.837724676060006" lon="8.017209587648695"><ele>202.60000000000002</ele><time>2026-03-28T11:02:40Z</time></trkpt><trkpt lat="44.8377917463025" lon="8.01708034183449"><ele>204.2</ele><time>2026-03-28T11:02:41Z</time></trkpt><trkpt lat="44.83784237904857" lon="8.016932352632107"><ele>205.8</ele><time>2026-03-28T11:02:42Z</time></trkpt><trkpt lat="44.83787815850832" lon="8.016787584762428"><ele>207.39999999999998</ele><time>2026-03-28T11:02:43Z</time></trkpt><trkpt lat="44.837904928110575" lon="8.016641882616536"><ele>209.0</ele><time>2026-03-28T11:02:44Z</time></trkpt><trkpt lat="44.83793172492808" lon="8.016499817109269"><ele>210.39999999999998</ele><time>2026-03-28T11:02:45Z</time></trkpt><trkpt lat="44.8379685475185" lon="8.016361636397955"><ele>211.8</ele><time>2026-03-28T11:02:46Z</time></trkpt><trkpt lat="44.8380105221274" lon="8.016233536481975"><ele>213.20000000000002</ele><time>2026-03-28T11:02:47Z</time></trkpt><trkpt lat="44.838047247448806" lon="8.016122158134346"><ele>214.60000000000002</ele><time>2026-03-28T11:02:48Z</time></trkpt><trkpt lat="44.838081664876505" lon="8.016025488815941"><ele>216.0</ele><time>2026-03-28T11:02:49Z</time></trkpt><trkpt lat="44.83813373929695" lon="8.015882442274249"><ele>216.5</ele><time>2026-03-28T11:02:51Z</time></trkpt><trkpt lat="44.838167297921686" lon="8.015758474043466"><ele>217.0</ele><time>2026-03-28T11:02:53Z</time></trkpt><trkpt lat="44.838157362341185" lon="8.015648278837588"><ele>217.5</ele><time>2026-03-28T11:02:56Z</time></trkpt><trkpt lat="44.83818453871143" lon="8.015535047579645"><ele>218.0</ele><time>2026-03-28T11:02:58Z</time></trkpt><trkpt lat="44.838206162216636" lon="8.01543423421395"><ele>218.5</ele><time>2026-03-28T11:03:01Z</time></trkpt><trkpt lat="44.83811018199818" lon="8.015451033275284"><ele>219.0</ele><time>2026-03-28T11:03:03Z</time></trkpt><trkpt lat="44.838249636483695" lon="8.01483570126612"><ele>220.33333333333334</ele><time>2026-03-28T11:06:10Z</time></trkpt><trkpt lat="44.838270638718946" lon="8.014726858860174"><ele>221.66666666666669</ele><time>2026-03-28T11:06:12Z</time></trkpt><trkpt lat="44.83828531718689" lon="8.014632929741994"><ele>223.0</ele><time>2026-03-28T11:06:14Z</time></trkpt><trkpt lat="44.83835357668331" lon="8.01453758936724"><ele>224.33333333333334</ele><time>2026-03-28T11:06:17Z</time></trkpt><trkpt lat="44.83842056465699" lon="8.01448409689092"><ele>225.66666666666669</ele><time>2026-03-28T11:06:19Z</time></trkpt><trkpt lat="44.838457580933145" lon="8.014365550865545"><ele>227.0</ele><time>2026-03-28T11:06:22Z</time></trkpt><trkpt lat="44.838488728859076" lon="8.014257059932557"><ele>227.00000000000003</ele><time>2026-03-28T11:06:25Z</time></trkpt><trkpt lat="44.83850186739243" lon="8.014147216924707"><ele>227.0</ele><time>2026-03-28T11:06:28Z</time></trkpt><trkpt lat="44.8384752243728" lon="8.014227713569541"><ele>227.0</ele><time>2026-03-28T11:07:03Z</time></trkpt><trkpt lat="44.838452612468416" lon="8.014311413218628"><ele>227.0</ele><time>2026-03-28T11:07:14Z</time></trkpt><trkpt lat="44.83836760135802" lon="8.014476958054837"><ele>227.00000000000003</ele><time>2026-03-28T11:08:05Z</time></trkpt><trkpt lat="44.83830684618524" lon="8.014561690383676"><ele>227.0</ele><time>2026-03-28T11:08:08Z</time></trkpt><trkpt lat="44.83825857500689" lon="8.01462415000491"><ele>227.0</ele><time>2026-03-28T11:08:10Z</time></trkpt><trkpt lat="44.83823874379479" lon="8.014723802833943"><ele>227.00000000000003</ele><time>2026-03-28T11:08:12Z</time></trkpt><trkpt lat="44.83822998153522" lon="8.014825683607684"><ele>227.0</ele><time>2026-03-28T11:08:14Z</time></trkpt><trkpt lat="44.83822134711888" lon="8.014923216014076"><ele>227.0</ele><time>2026-03-28T11:08:16Z</time></trkpt><trkpt lat="44.838205442150645" lon="8.015009550655677"><ele>227.00000000000003</ele><time>2026-03-28T11:08:19Z</time></trkpt><trkpt lat="44.83823910215094" lon="8.015122404937033"><ele>227.0</ele><time>2026-03-28T11:08:23Z</time></trkpt><trkpt lat="44.83825747356698" lon="8.015230844178555"><ele>227.0</ele><time>2026-03-28T11:08:26Z</time></trkpt><trkpt lat="44.83823950325902" lon="8.015344742013152"><ele>225.66666666666669</ele><time>2026-03-28T11:08:29Z</time></trkpt><trkpt lat="44.838214473822404" lon="8.01544640176467"><ele>224.33333333333334</ele><time>2026-03-28T11:08:32Z</time></trkpt><trkpt lat="44.838179161824314" lon="8.015555360451904"><ele>223.0</ele><time>2026-03-28T11:08:35Z</time></trkpt><trkpt lat="44.83814403776487" lon="8.01565368074555"><ele>221.66666666666669</ele><time>2026-03-28T11:08:38Z</time></trkpt><trkpt lat="44.83813895855376" lon="8.015769698636275"><ele>220.33333333333334</ele><time>2026-03-28T11:08:41Z</time></trkpt><trkpt lat="44.838108100176655" lon="8.015898535780396"><ele>219.0</ele><time>2026-03-28T11:08:44Z</time></trkpt><trkpt lat="44.838067737681804" lon="8.016026503183694"><ele>218.39999999999998</ele><time>2026-03-28T11:08:46Z</time></trkpt><trkpt lat="44.83802150293756" lon="8.016185088027484"><ele>217.79999999999998</ele><time>2026-03-28T11:08:47Z</time></trkpt><trkpt lat="44.837990187319306" lon="8.016280561708937"><ele>217.20000000000002</ele><time>2026-03-28T11:08:48Z</time></trkpt><trkpt lat="44.83793568144272" lon="8.016370054814518"><ele>216.60000000000002</ele><time>2026-03-28T11:08:49Z</time></trkpt><trkpt lat="44.83790548005101" lon="8.01647700175788"><ele>216.0</ele><time>2026-03-28T11:08:50Z</time></trkpt><trkpt lat="44.83788097860236" lon="8.01659629766371"><ele>214.83333333333334</ele><time>2026-03-28T11:08:51Z</time></trkpt><trkpt lat="44.83787234001034" lon="8.01671474150212"><ele>213.66666666666669</ele><time>2026-03-28T11:08:52Z</time></trkpt><trkpt lat="44.837844307618944" lon="8.016818992513763"><ele>212.5</ele><time>2026-03-28T11:08:53Z</time></trkpt><trkpt lat="44.83781720636336" lon="8.016922967288048"><ele>211.33333333333334</ele><time>2026-03-28T11:08:54Z</time></trkpt><trkpt lat="44.83778113678788" lon="8.017018384941446"><ele>210.16666666666669</ele><time>2026-03-28T11:08:55Z</time></trkpt><trkpt lat="44.83774559283417" lon="8.017106005161146"><ele>209.0</ele><time>2026-03-28T11:08:56Z</time></trkpt><trkpt lat="44.83770950898128" lon="8.01719060614316"><ele>209.00000000000003</ele><time>2026-03-28T11:08:57Z</time></trkpt><trkpt lat="44.83766343668334" lon="8.017277077680351"><ele>209.0</ele><time>2026-03-28T11:08:58Z</time></trkpt><trkpt lat="44.83759884085835" lon="8.017343657649725"><ele>209.0</ele><time>2026-03-28T11:08:59Z</time></trkpt><trkpt lat="44.83753769076148" lon="8.017404360465722"><ele>209.0</ele><time>2026-03-28T11:09:00Z</time></trkpt><trkpt lat="44.83747291672025" lon="8.017465274370636"><ele>209.00000000000003</ele><time>2026-03-28T11:09:01Z</time></trkpt><trkpt lat="44.83740403249078" lon="8.017528142771168"><ele>209.0</ele><time>2026-03-28T11:09:02Z</time></trkpt><trkpt lat="44.83733499405265" lon="8.01759594631918"><ele>207.39999999999998</ele><time>2026-03-28T11:09:03Z</time></trkpt><trkpt lat="44.83726283056189" lon="8.017675160615958"><ele>205.8</ele><time>2026-03-28T11:09:04Z</time></trkpt><trkpt lat="44.837182145716696" lon="8.017761080806407"><ele>204.2</ele><time>2026-03-28T11:09:05Z</time></trkpt><trkpt lat="44.83710417247697" lon="8.01785003566038"><ele>202.60000000000002</ele><time>2026-03-28T11:09:06Z</time></trkpt><trkpt lat="44.837033102901415" lon="8.01794232863494"><ele>201.0</ele><time>2026-03-28T11:09:07Z</time></trkpt><trkpt lat="44.836963759782314" lon="8.018040756384899"><ele>201.0</ele><time>2026-03-28T11:09:08Z</time></trkpt><trkpt lat="44.83688701178132" lon="8.018120774939792"><ele>201.0</ele><time>2026-03-28T11:09:09Z</time></trkpt><trkpt lat="44.83679014789734" lon="8.01816674503655"><ele>201.0</ele><time>2026-03-28T11:09:10Z</time></trkpt><trkpt lat="44.836696693708255" lon="8.018234264710914"><ele>201.0</ele><time>2026-03-28T11:09:11Z</time></trkpt><trkpt lat="44.83660750202895" lon="8.018303738736998"><ele>201.0</ele><time>2026-03-28T11:09:12Z</time></trkpt><trkpt lat="44.8365320196188" lon="8.018388185037779"><ele>200.4</ele><time>2026-03-28T11:09:13Z</time></trkpt><trkpt lat="44.836442950022665" lon="8.018425932212255"><ele>199.8</ele><time>2026-03-28T11:09:14Z</time></trkpt><trkpt lat="44.836360220794234" lon="8.018464980332668"><ele>199.20000000000002</ele><time>2026-03-28T11:09:15Z</time></trkpt><trkpt lat="44.83625512192504" lon="8.01848976236919"><ele>198.60000000000002</ele><time>2026-03-28T11:09:16Z</time></trkpt><trkpt lat="44.83614804278933" lon="8.01852710886124"><ele>198.0</ele><time>2026-03-28T11:09:17Z</time></trkpt><trkpt lat="44.836056853725196" lon="8.018556442330821"><ele>198.0</ele><time>2026-03-28T11:09:18Z</time></trkpt><trkpt lat="44.83597627918207" lon="8.018570842690266"><ele>198.0</ele><time>2026-03-28T11:09:19Z</time></trkpt><trkpt lat="44.83590162990179" lon="8.018584488600938"><ele>198.0</ele><time>2026-03-28T11:09:20Z</time></trkpt><trkpt lat="44.83581936208036" lon="8.018601153217393"><ele>198.0</ele><time>2026-03-28T11:09:21Z</time></trkpt><trkpt lat="44.83572978056524" lon="8.018623880157762"><ele>198.0</ele><time>2026-03-28T11:09:22Z</time></trkpt><trkpt lat="44.8356463742218" lon="8.018677573779154"><ele>198.0</ele><time>2026-03-28T11:09:23Z</time></trkpt><trkpt lat="44.83555798233948" lon="8.018720953878223"><ele>197.60000000000002</ele><time>2026-03-28T11:09:24Z</time></trkpt><trkpt lat="44.835475629796264" lon="8.018785790052474"><ele>197.20000000000002</ele><time>2026-03-28T11:09:25Z</time></trkpt><trkpt lat="44.835410036089456" lon="8.018878724696624"><ele>196.8</ele><time>2026-03-28T11:09:26Z</time></trkpt><trkpt lat="44.83534764361014" lon="8.018990859276345"><ele>196.4</ele><time>2026-03-28T11:09:27Z</time></trkpt><trkpt lat="44.83529149892166" lon="8.01911131123646"><ele>196.0</ele><time>2026-03-28T11:09:28Z</time></trkpt><trkpt lat="44.83523733043792" lon="8.019222399980551"><ele>195.66666666666666</ele><time>2026-03-28T11:09:29Z</time></trkpt><trkpt lat="44.835186187634356" lon="8.019321049222752"><ele>195.33333333333331</ele><time>2026-03-28T11:09:30Z</time></trkpt><trkpt lat="44.83513966835522" lon="8.019408725269749"><ele>195.0</ele><time>2026-03-28T11:09:31Z</time></trkpt><trkpt lat="44.83509829808274" lon="8.019489058213436"><ele>194.66666666666669</ele><time>2026-03-28T11:09:32Z</time></trkpt><trkpt lat="44.83504181642848" lon="8.019607088834075"><ele>194.33333333333334</ele><time>2026-03-28T11:09:34Z</time></trkpt><trkpt lat="44.835125608509784" lon="8.019669667464887"><ele>194.0</ele><time>2026-03-28T11:10:07Z</time></trkpt><trkpt lat="44.835249876022225" lon="8.01970582512736"><ele>194.0</ele><time>2026-03-28T11:10:09Z</time></trkpt><trkpt lat="44.83535965706574" lon="8.019707161896246"><ele>194.0</ele><time>2026-03-28T11:10:10Z</time></trkpt><trkpt lat="44.835455821567" lon="8.019726379841208"><ele>194.0</ele><time>2026-03-28T11:10:11Z</time></trkpt><trkpt lat="44.83556133908942" lon="8.019742754297837"><ele>194.0</ele><time>2026-03-28T11:10:12Z</time></trkpt><trkpt lat="44.835680032479004" lon="8.019756072928036"><ele>194.0</ele><time>2026-03-28T11:10:13Z</time></trkpt><trkpt lat="44.83579620953054" lon="8.019778670291913"><ele>194.0</ele><time>2026-03-28T11:10:14Z</time></trkpt><trkpt lat="44.83590965779456" lon="8.01980100053754"><ele>194.0</ele><time>2026-03-28T11:10:15Z</time></trkpt><trkpt lat="44.83601741709433" lon="8.019829944124405"><ele>194.0</ele><time>2026-03-28T11:10:16Z</time></trkpt><trkpt lat="44.83613183022466" lon="8.019846701515164"><ele>194.0</ele><time>2026-03-28T11:10:17Z</time></trkpt><trkpt lat="44.83624283733122" lon="8.01986792157012"><ele>196.25</ele><time>2026-03-28T11:10:18Z</time></trkpt><trkpt lat="44.83635639017931" lon="8.019887251462725"><ele>198.5</ele><time>2026-03-28T11:10:19Z</time></trkpt><trkpt lat="44.836478336923506" lon="8.019909380119863"><ele>200.75</ele><time>2026-03-28T11:10:20Z</time></trkpt><trkpt lat="44.83659286329583" lon="8.019933051310554"><ele>203.0</ele><time>2026-03-28T11:10:21Z</time></trkpt><trkpt lat="44.836694859193344" lon="8.019953805227207"><ele>203.00000000000003</ele><time>2026-03-28T11:10:22Z</time></trkpt><trkpt lat="44.83679158352735" lon="8.019977058310694"><ele>203.0</ele><time>2026-03-28T11:10:23Z</time></trkpt><trkpt lat="44.8368781575788" lon="8.019964491749981"><ele>203.0</ele><time>2026-03-28T11:10:24Z</time></trkpt><trkpt lat="44.836948009843624" lon="8.020015326031482"><ele>203.0</ele><time>2026-03-28T11:10:25Z</time></trkpt><trkpt lat="44.83701834103891" lon="8.020042755907966"><ele>203.00000000000003</ele><time>2026-03-28T11:10:26Z</time></trkpt><trkpt lat="44.837079641798525" lon="8.020077633613814"><ele>203.0</ele><time>2026-03-28T11:10:27Z</time></trkpt><trkpt lat="44.837184518547765" lon="8.020142478365639"><ele>205.00000000000003</ele><time>2026-03-28T11:10:29Z</time></trkpt><trkpt lat="44.83726478220719" lon="8.020199738388838"><ele>207.0</ele><time>2026-03-28T11:10:31Z</time></trkpt><trkpt lat="44.837316288022265" lon="8.020254986662966"><ele>209.0</ele><time>2026-03-28T11:10:33Z</time></trkpt><trkpt lat="44.837375349030104" lon="8.02033250675772"><ele>211.0</ele><time>2026-03-28T11:10:35Z</time></trkpt><trkpt lat="44.83743245558236" lon="8.02039460445537"><ele>213.00000000000003</ele><time>2026-03-28T11:10:36Z</time></trkpt><trkpt lat="44.83749518543822" lon="8.020461898150318"><ele>215.0</ele><time>2026-03-28T11:10:37Z</time></trkpt><trkpt lat="44.83755245167092" lon="8.020526748162487"><ele>215.00000000000003</ele><time>2026-03-28T11:10:38Z</time></trkpt><trkpt lat="44.83760312825007" lon="8.02059037657833"><ele>215.0</ele><time>2026-03-28T11:10:39Z</time></trkpt><trkpt lat="44.83765046025864" lon="8.020651906781215"><ele>215.0</ele><time>2026-03-28T11:10:40Z</time></trkpt><trkpt lat="44.8377417465386" lon="8.020765228933575"><ele>215.0</ele><time>2026-03-28T11:10:42Z</time></trkpt><trkpt lat="44.83779516466955" lon="8.02082285857296"><ele>215.00000000000003</ele><time>2026-03-28T11:10:43Z</time></trkpt><trkpt lat="44.83784852236758" lon="8.020888491745637"><ele>215.0</ele><time>2026-03-28T11:10:44Z</time></trkpt><trkpt lat="44.83793824322808" lon="8.020981168169829"><ele>215.8</ele><time>2026-03-28T11:10:46Z</time></trkpt><trkpt lat="44.838018901250386" lon="8.021056643065554"><ele>216.6</ele><time>2026-03-28T11:10:48Z</time></trkpt><trkpt lat="44.83811474593326" lon="8.021153627936057"><ele>217.39999999999998</ele><time>2026-03-28T11:10:50Z</time></trkpt><trkpt lat="44.838188581730904" lon="8.021235313358925"><ele>218.2</ele><time>2026-03-28T11:10:52Z</time></trkpt><trkpt lat="44.838272283038776" lon="8.021325501588125"><ele>219.0</ele><time>2026-03-28T11:10:54Z</time></trkpt><trkpt lat="44.83836802128347" lon="8.021418267772765"><ele>219.0</ele><time>2026-03-28T11:10:56Z</time></trkpt><trkpt lat="44.83845847319222" lon="8.021511936215964"><ele>219.0</ele><time>2026-03-28T11:10:58Z</time></trkpt><trkpt lat="44.838552424896655" lon="8.021618503223735"><ele>219.0</ele><time>2026-03-28T11:11:00Z</time></trkpt><trkpt lat="44.83861434697173" lon="8.021680823855382"><ele>219.0</ele><time>2026-03-28T11:11:01Z</time></trkpt><trkpt lat="44.8386669393478" lon="8.02173733048577"><ele>219.0</ele><time>2026-03-28T11:11:02Z</time></trkpt><trkpt lat="44.83872620275628" lon="8.021791483675553"><ele>219.0</ele><time>2026-03-28T11:11:03Z</time></trkpt><trkpt lat="44.83878579342335" lon="8.02183708517261"><ele>221.39999999999998</ele><time>2026-03-28T11:11:04Z</time></trkpt><trkpt lat="44.83885003947603" lon="8.021880391105057"><ele>223.79999999999998</ele><time>2026-03-28T11:11:05Z</time></trkpt><trkpt lat="44.83895428363046" lon="8.021949555042415"><ele>226.20000000000002</ele><time>2026-03-28T11:11:07Z</time></trkpt><trkpt lat="44.83905567442861" lon="8.021958270992119"><ele>228.60000000000002</ele><time>2026-03-28T11:11:09Z</time></trkpt><trkpt lat="44.839181142094276" lon="8.021955960165222"><ele>231.0</ele><time>2026-03-28T11:11:11Z</time></trkpt><trkpt lat="44.83930328802675" lon="8.021959988615682"><ele>234.20000000000002</ele><time>2026-03-28T11:11:13Z</time></trkpt><trkpt lat="44.83942997817343" lon="8.02197858412276"><ele>237.40000000000003</ele><time>2026-03-28T11:11:15Z</time></trkpt><trkpt lat="44.83949807572611" lon="8.022005252493933"><ele>240.6</ele><time>2026-03-28T11:11:16Z</time></trkpt><trkpt lat="44.83956342352248" lon="8.022052233587292"><ele>243.8</ele><time>2026-03-28T11:11:17Z</time></trkpt><trkpt lat="44.83965484174895" lon="8.022154814110138"><ele>247.0</ele><time>2026-03-28T11:11:19Z</time></trkpt><trkpt lat="44.83970605407176" lon="8.02222361483879"><ele>247.0</ele><time>2026-03-28T11:11:20Z</time></trkpt><trkpt lat="44.839759750525666" lon="8.022292408971408"><ele>247.0</ele><time>2026-03-28T11:11:21Z</time></trkpt><trkpt lat="44.839813252436" lon="8.02236405501565"><ele>247.0</ele><time>2026-03-28T11:11:22Z</time></trkpt><trkpt lat="44.83986706266137" lon="8.022436890610336"><ele>247.0</ele><time>2026-03-28T11:11:23Z</time></trkpt><trkpt lat="44.839932213463" lon="8.022493003689066"><ele>247.0</ele><time>2026-03-28T11:11:24Z</time></trkpt><trkpt lat="44.839979510479004" lon="8.022580889196982"><ele>247.0</ele><time>2026-03-28T11:11:25Z</time></trkpt><trkpt lat="44.840034840370755" lon="8.022647310690067"><ele>247.0</ele><time>2026-03-28T11:11:26Z</time></trkpt><trkpt lat="44.84008608076447" lon="8.022720914747607"><ele>247.33333333333331</ele><time>2026-03-28T11:11:27Z</time></trkpt><trkpt lat="44.84014125325808" lon="8.022802019893449"><ele>247.66666666666666</ele><time>2026-03-28T11:11:28Z</time></trkpt><trkpt lat="44.84019836678926" lon="8.022873281801942"><ele>248.0</ele><time>2026-03-28T11:11:29Z</time></trkpt><trkpt lat="44.840246483448574" lon="8.022940591651366"><ele>248.33333333333331</ele><time>2026-03-28T11:11:30Z</time></trkpt><trkpt lat="44.840321561408736" lon="8.023036317342566"><ele>248.66666666666666</ele><time>2026-03-28T11:11:32Z</time></trkpt><trkpt lat="44.84038567116486" lon="8.023096538378613"><ele>249.0</ele><time>2026-03-28T11:11:34Z</time></trkpt><trkpt lat="44.84044995106474" lon="8.023096641963425"><ele>249.0</ele><time>2026-03-28T11:11:37Z</time></trkpt><trkpt lat="44.840509772922346" lon="8.02294442390856"><ele>248.99999999999997</ele><time>2026-03-28T11:11:40Z</time></trkpt><trkpt lat="44.84058981392" lon="8.022827708529459"><ele>248.99999999999997</ele><time>2026-03-28T11:11:42Z</time></trkpt><trkpt lat="44.84063642179566" lon="8.02276102013758"><ele>249.0</ele><time>2026-03-28T11:11:43Z</time></trkpt><trkpt lat="44.84068862123387" lon="8.02268708290792"><ele>249.0</ele><time>2026-03-28T11:11:44Z</time></trkpt><trkpt lat="44.84074184091696" lon="8.022611700577976"><ele>249.0</ele><time>2026-03-28T11:11:45Z</time></trkpt><trkpt lat="44.84078808711725" lon="8.022546195729625"><ele>249.0</ele><time>2026-03-28T11:11:46Z</time></trkpt><trkpt lat="44.84083630229178" lon="8.022477206054688"><ele>249.0</ele><time>2026-03-28T11:11:47Z</time></trkpt><trkpt lat="44.84089950821826" lon="8.022383550023408"><ele>249.0</ele><time>2026-03-28T11:11:49Z</time></trkpt><trkpt lat="44.84095086319657" lon="8.022305741617007"><ele>249.0</ele><time>2026-03-28T11:11:50Z</time></trkpt><trkpt lat="44.84100848639057" lon="8.022217252688389"><ele>249.0</ele><time>2026-03-28T11:11:51Z</time></trkpt><trkpt lat="44.84107629205682" lon="8.022111240304215"><ele>249.6</ele><time>2026-03-28T11:11:52Z</time></trkpt><trkpt lat="44.84115251120687" lon="8.02199155164711"><ele>250.2</ele><time>2026-03-28T11:11:53Z</time></trkpt><trkpt lat="44.84121933013677" lon="8.021883945535752"><ele>250.79999999999998</ele><time>2026-03-28T11:11:54Z</time></trkpt><trkpt lat="44.84129311970056" lon="8.021765113742612"><ele>251.39999999999998</ele><time>2026-03-28T11:11:55Z</time></trkpt><trkpt lat="44.84135777538988" lon="8.0216275373192"><ele>252.0</ele><time>2026-03-28T11:11:56Z</time></trkpt><trkpt lat="44.84144126314422" lon="8.021534000155464"><ele>255.39999999999998</ele><time>2026-03-28T11:11:57Z</time></trkpt><trkpt lat="44.841491178064146" lon="8.02142510343645"><ele>258.79999999999995</ele><time>2026-03-28T11:11:58Z</time></trkpt><trkpt lat="44.84154751277279" lon="8.021350059787956"><ele>262.2</ele><time>2026-03-28T11:11:59Z</time></trkpt><trkpt lat="44.84158478519472" lon="8.021277547651234"><ele>265.59999999999997</ele><time>2026-03-28T11:12:00Z</time></trkpt><trkpt lat="44.84156912529719" lon="8.021113757679956"><ele>269.0</ele><time>2026-03-28T11:12:02Z</time></trkpt><trkpt lat="44.84146933985143" lon="8.02110813582287"><ele>269.0</ele><time>2026-03-28T11:12:03Z</time></trkpt><trkpt lat="44.84138172364253" lon="8.021156487757693"><ele>269.0</ele><time>2026-03-28T11:12:04Z</time></trkpt><trkpt lat="44.84129758325496" lon="8.02118884433937"><ele>269.0</ele><time>2026-03-28T11:12:05Z</time></trkpt><trkpt lat="44.84118909619332" lon="8.021109424477567"><ele>269.0</ele><time>2026-03-28T11:12:07Z</time></trkpt><trkpt lat="44.84113371537185" lon="8.0209488938137"><ele>269.0</ele><time>2026-03-28T11:12:09Z</time></trkpt><trkpt lat="44.84113310263818" lon="8.020844250435562"><ele>270.4</ele><time>2026-03-28T11:12:10Z</time></trkpt><trkpt lat="44.84115736434775" lon="8.020723109592057"><ele>271.79999999999995</ele><time>2026-03-28T11:12:11Z</time></trkpt><trkpt lat="44.841204720453966" lon="8.02060235735384"><ele>273.20000000000005</ele><time>2026-03-28T11:12:12Z</time></trkpt><trkpt lat="44.84128245770446" lon="8.020479830598859"><ele>274.6</ele><time>2026-03-28T11:12:13Z</time></trkpt><trkpt lat="44.841364906256835" lon="8.02035792745242"><ele>276.0</ele><time>2026-03-28T11:12:14Z</time></trkpt><trkpt lat="44.84146408350442" lon="8.020226539291508"><ele>276.0</ele><time>2026-03-28T11:12:15Z</time></trkpt><trkpt lat="44.841574008827834" lon="8.020091129137608"><ele>276.0</ele><time>2026-03-28T11:12:16Z</time></trkpt><trkpt lat="44.8416893649417" lon="8.019942469469353"><ele>276.0</ele><time>2026-03-28T11:12:17Z</time></trkpt><trkpt lat="44.84179369136171" lon="8.019803891006756"><ele>276.0</ele><time>2026-03-28T11:12:18Z</time></trkpt><trkpt lat="44.84190143634556" lon="8.01965879367393"><ele>277.75</ele><time>2026-03-28T11:12:19Z</time></trkpt><trkpt lat="44.84200787389091" lon="8.019513341957255"><ele>279.5</ele><time>2026-03-28T11:12:20Z</time></trkpt><trkpt lat="44.842111834110476" lon="8.01936094808976"><ele>281.25</ele><time>2026-03-28T11:12:21Z</time></trkpt><trkpt lat="44.84220819828222" lon="8.019202103044238"><ele>283.0</ele><time>2026-03-28T11:12:22Z</time></trkpt><trkpt lat="44.842290755405514" lon="8.019022017544547"><ele>283.0</ele><time>2026-03-28T11:12:23Z</time></trkpt><trkpt lat="44.84239184213154" lon="8.018873977923478"><ele>283.0</ele><time>2026-03-28T11:12:24Z</time></trkpt><trkpt lat="44.84247159243866" lon="8.018710148454213"><ele>283.0</ele><time>2026-03-28T11:12:25Z</time></trkpt><trkpt lat="44.84253940749939" lon="8.018546399483126"><ele>283.0</ele><time>2026-03-28T11:12:26Z</time></trkpt><trkpt lat="44.84259802342498" lon="8.018385757592362"><ele>289.2</ele><time>2026-03-28T11:12:27Z</time></trkpt><trkpt lat="44.84264791156654" lon="8.018226914544618"><ele>295.4</ele><time>2026-03-28T11:12:28Z</time></trkpt><trkpt lat="44.8426999771188" lon="8.01809274526633"><ele>301.59999999999997</ele><time>2026-03-28T11:12:29Z</time></trkpt><trkpt lat="44.842752977924114" lon="8.017977537499837"><ele>307.8</ele><time>2026-03-28T11:12:30Z</time></trkpt><trkpt lat="44.84280886327479" lon="8.01788859035807"><ele>314.0</ele><time>2026-03-28T11:12:31Z</time></trkpt><trkpt lat="44.842843882655266" lon="8.017765056828159"><ele>314.0</ele><time>2026-03-28T11:12:32Z</time></trkpt><trkpt lat="44.84283655962627" lon="8.017618943018409"><ele>314.0</ele><time>2026-03-28T11:12:33Z</time></trkpt><trkpt lat="44.84278763169657" lon="8.01747139038842"><ele>314.0</ele><time>2026-03-28T11:12:34Z</time></trkpt><trkpt lat="44.84273184791501" lon="8.017306842642672"><ele>314.0</ele><time>2026-03-28T11:12:35Z</time></trkpt><trkpt lat="44.842675801830836" lon="8.017143386230435"><ele>309.8</ele><time>2026-03-28T11:12:36Z</time></trkpt><trkpt lat="44.84262439235784" lon="8.016984674065185"><ele>305.59999999999997</ele><time>2026-03-28T11:12:37Z</time></trkpt><trkpt lat="44.84258727832641" lon="8.016853235667893"><ele>301.4</ele><time>2026-03-28T11:12:38Z</time></trkpt><trkpt lat="44.842563831272884" lon="8.016739926939266"><ele>297.2</ele><time>2026-03-28T11:12:39Z</time></trkpt><trkpt lat="44.84257194125473" lon="8.016638003303859"><ele>293.0</ele><time>2026-03-28T11:12:40Z</time></trkpt><trkpt lat="44.842616206568536" lon="8.016502250752962"><ele>294.75</ele><time>2026-03-28T11:12:41Z</time></trkpt><trkpt lat="44.84265665396616" lon="8.016328972121869"><ele>296.5</ele><time>2026-03-28T11:12:42Z</time></trkpt><trkpt lat="44.84267202650134" lon="8.016151278763601"><ele>298.25</ele><time>2026-03-28T11:12:43Z</time></trkpt><trkpt lat="44.84266804890168" lon="8.015974661654523"><ele>300.0</ele><time>2026-03-28T11:12:44Z</time></trkpt><trkpt lat="44.84264664585954" lon="8.015795276311863"><ele>300.0</ele><time>2026-03-28T11:12:45Z</time></trkpt><trkpt lat="44.84263237755974" lon="8.015651106787395"><ele>300.0</ele><time>2026-03-28T11:12:46Z</time></trkpt><trkpt lat="44.84262598345177" lon="8.015557426498964"><ele>300.0</ele><time>2026-03-28T11:12:47Z</time></trkpt><trkpt lat="44.84262574590488" lon="8.015465789938101"><ele>300.0</ele><time>2026-03-28T11:12:48Z</time></trkpt><trkpt lat="44.84261751351547" lon="8.015314764216345"><ele>300.0</ele><time>2026-03-28T11:12:50Z</time></trkpt><trkpt lat="44.84260422014495" lon="8.015155262914352"><ele>300.5</ele><time>2026-03-28T11:12:52Z</time></trkpt><trkpt lat="44.84260818408601" lon="8.015063654356476"><ele>301.0</ele><time>2026-03-28T11:12:53Z</time></trkpt><trkpt lat="44.84263528919995" lon="8.014886198171872"><ele>301.5</ele><time>2026-03-28T11:12:55Z</time></trkpt><trkpt lat="44.84264995961211" lon="8.014790091336424"><ele>302.0</ele><time>2026-03-28T11:12:56Z</time></trkpt><trkpt lat="44.84264065616565" lon="8.014667180551193"><ele>302.5</ele><time>2026-03-28T11:12:57Z</time></trkpt><trkpt lat="44.8426145719028" lon="8.014550107903183"><ele>303.0</ele><time>2026-03-28T11:12:58Z</time></trkpt><trkpt lat="44.84258060014985" lon="8.014443457181462"><ele>303.0</ele><time>2026-03-28T11:12:59Z</time></trkpt><trkpt lat="44.84254276006107" lon="8.014277109036357"><ele>303.0</ele><time>2026-03-28T11:13:01Z</time></trkpt><trkpt lat="44.842521465837585" lon="8.014190197700083"><ele>303.0</ele><time>2026-03-28T11:13:02Z</time></trkpt><trkpt lat="44.84248320783411" lon="8.01410724600592"><ele>303.0</ele><time>2026-03-28T11:13:03Z</time></trkpt><trkpt lat="44.84247711886962" lon="8.01401631291714"><ele>303.0</ele><time>2026-03-28T11:13:04Z</time></trkpt><trkpt lat="44.842454937550485" lon="8.013930095457846"><ele>303.0</ele><time>2026-03-28T11:13:05Z</time></trkpt><trkpt lat="44.84243321900991" lon="8.013845676839543"><ele>303.8571428571429</ele><time>2026-03-28T11:13:06Z</time></trkpt><trkpt lat="44.842412921599774" lon="8.013750781448834"><ele>304.7142857142857</ele><time>2026-03-28T11:13:07Z</time></trkpt><trkpt lat="44.842379048229446" lon="8.013656076561608"><ele>305.57142857142856</ele><time>2026-03-28T11:13:08Z</time></trkpt><trkpt lat="44.842361433283905" lon="8.01354743150593"><ele>306.42857142857144</ele><time>2026-03-28T11:13:09Z</time></trkpt><trkpt lat="44.84234815301404" lon="8.013446082036833"><ele>307.2857142857143</ele><time>2026-03-28T11:13:10Z</time></trkpt><trkpt lat="44.84233546966533" lon="8.013341592865379"><ele>308.14285714285717</ele><time>2026-03-28T11:13:11Z</time></trkpt><trkpt lat="44.84232159966168" lon="8.013237856575978"><ele>309.0</ele><time>2026-03-28T11:13:12Z</time></trkpt><trkpt lat="44.84228600140726" lon="8.013139743009848"><ele>309.0</ele><time>2026-03-28T11:13:13Z</time></trkpt><trkpt lat="44.842239656340794" lon="8.013069917134484"><ele>309.0</ele><time>2026-03-28T11:13:14Z</time></trkpt><trkpt lat="44.84217712719962" lon="8.013034144623992"><ele>309.0</ele><time>2026-03-28T11:13:15Z</time></trkpt><trkpt lat="44.84210917408089" lon="8.0130087857694"><ele>309.0</ele><time>2026-03-28T11:13:16Z</time></trkpt><trkpt lat="44.841991144217765" lon="8.012994313205285"><ele>309.0</ele><time>2026-03-28T11:13:18Z</time></trkpt><trkpt lat="44.84188514723942" lon="8.012912781856631"><ele>309.0</ele><time>2026-03-28T11:13:20Z</time></trkpt><trkpt lat="44.841824408015626" lon="8.012844951616707"><ele>307.28571428571433</ele><time>2026-03-28T11:13:21Z</time></trkpt><trkpt lat="44.84176664810692" lon="8.012768227580299"><ele>305.57142857142856</ele><time>2026-03-28T11:13:22Z</time></trkpt><trkpt lat="44.841719444477434" lon="8.012677925827642"><ele>303.8571428571429</ele><time>2026-03-28T11:13:23Z</time></trkpt><trkpt lat="44.84170815812446" lon="8.01256821398747"><ele>302.14285714285717</ele><time>2026-03-28T11:13:24Z</time></trkpt><trkpt lat="44.84169104617918" lon="8.012466133600245"><ele>300.42857142857144</ele><time>2026-03-28T11:13:25Z</time></trkpt><trkpt lat="44.84166811253988" lon="8.012371273953818"><ele>298.7142857142857</ele><time>2026-03-28T11:13:26Z</time></trkpt><trkpt lat="44.84165366679036" lon="8.012280637562515"><ele>297.0</ele><time>2026-03-28T11:13:27Z</time></trkpt><trkpt lat="44.841616631956505" lon="8.012199537964484"><ele>293.5</ele><time>2026-03-28T11:13:28Z</time></trkpt><trkpt lat="44.84155748704378" lon="8.012151121384198"><ele>290.0</ele><time>2026-03-28T11:13:29Z</time></trkpt><trkpt lat="44.84148453195972" lon="8.012151616221503"><ele>286.5</ele><time>2026-03-28T11:13:30Z</time></trkpt><trkpt lat="44.84140299261715" lon="8.012169724917026"><ele>283.0</ele><time>2026-03-28T11:13:31Z</time></trkpt><trkpt lat="44.841312510519295" lon="8.01218734796402"><ele>279.5</ele><time>2026-03-28T11:13:32Z</time></trkpt><trkpt lat="44.841225128687384" lon="8.012222324579161"><ele>276.0</ele><time>2026-03-28T11:13:33Z</time></trkpt><trkpt lat="44.84114489908121" lon="8.012272348196948"><ele>276.0</ele><time>2026-03-28T11:13:34Z</time></trkpt><trkpt lat="44.84107590518756" lon="8.012328008464447"><ele>276.0</ele><time>2026-03-28T11:13:35Z</time></trkpt><trkpt lat="44.84101623848236" lon="8.012393863302913"><ele>276.0</ele><time>2026-03-28T11:13:36Z</time></trkpt><trkpt lat="44.84096346138649" lon="8.012463421861574"><ele>276.0</ele><time>2026-03-28T11:13:37Z</time></trkpt><trkpt lat="44.84091267886777" lon="8.012522191841787"><ele>276.0</ele><time>2026-03-28T11:13:38Z</time></trkpt><trkpt lat="44.84080623520913" lon="8.012550112198058"><ele>276.0</ele><time>2026-03-28T11:13:40Z</time></trkpt><trkpt lat="44.84074744931209" lon="8.012518048815522"><ele>277.42857142857144</ele><time>2026-03-28T11:13:41Z</time></trkpt><trkpt lat="44.84070842386602" lon="8.01243592897908"><ele>278.8571428571429</ele><time>2026-03-28T11:13:42Z</time></trkpt><trkpt lat="44.840652898484784" lon="8.0123844620013"><ele>280.2857142857143</ele><time>2026-03-28T11:13:43Z</time></trkpt><trkpt lat="44.84058755489768" lon="8.012350390467878"><ele>281.7142857142857</ele><time>2026-03-28T11:13:44Z</time></trkpt><trkpt lat="44.8405340279869" lon="8.012300111868704"><ele>283.1428571428571</ele><time>2026-03-28T11:13:45Z</time></trkpt><trkpt lat="44.84045942015943" lon="8.012230647404294"><ele>284.57142857142856</ele><time>2026-03-28T11:13:47Z</time></trkpt><trkpt lat="44.84046006931406" lon="8.012124952709796"><ele>286.0</ele><time>2026-03-28T11:13:50Z</time></trkpt><trkpt lat="44.840561113952255" lon="8.012156591661022"><ele>286.0</ele><time>2026-03-28T11:13:51Z</time></trkpt><trkpt lat="44.84063172006535" lon="8.012136625709486"><ele>286.0</ele><time>2026-03-28T11:13:52Z</time></trkpt><trkpt lat="44.84072917511355" lon="8.01210143990993"><ele>286.0</ele><time>2026-03-28T11:13:53Z</time></trkpt><trkpt lat="44.84083327465149" lon="8.012039675581523"><ele>286.0</ele><time>2026-03-28T11:13:54Z</time></trkpt><trkpt lat="44.84092653112257" lon="8.01195695233358"><ele>286.0</ele><time>2026-03-28T11:13:55Z</time></trkpt><trkpt lat="44.8410296811077" lon="8.011857924442545"><ele>283.5</ele><time>2026-03-28T11:13:56Z</time></trkpt><trkpt lat="44.841145072390034" lon="8.01175846886591"><ele>281.0</ele><time>2026-03-28T11:13:57Z</time></trkpt><trkpt lat="44.84126392495072" lon="8.01167136868107"><ele>278.5</ele><time>2026-03-28T11:13:58Z</time></trkpt><trkpt lat="44.841376684485546" lon="8.01159766188017"><ele>276.0</ele><time>2026-03-28T11:13:59Z</time></trkpt><trkpt lat="44.84148835239382" lon="8.011527029679517"><ele>275.75</ele><time>2026-03-28T11:14:00Z</time></trkpt><trkpt lat="44.841595494808345" lon="8.011453249473528"><ele>275.5</ele><time>2026-03-28T11:14:01Z</time></trkpt><trkpt lat="44.84169943712432" lon="8.0113716578694"><ele>275.25</ele><time>2026-03-28T11:14:02Z</time></trkpt><trkpt lat="44.84179250429963" lon="8.01127891831737"><ele>275.0</ele><time>2026-03-28T11:14:03Z</time></trkpt><trkpt lat="44.84187816108338" lon="8.011188756841127"><ele>276.2</ele><time>2026-03-28T11:14:04Z</time></trkpt><trkpt lat="44.84196412022528" lon="8.01109787623467"><ele>277.4</ele><time>2026-03-28T11:14:05Z</time></trkpt><trkpt lat="44.842053035578225" lon="8.011008940608633"><ele>278.6</ele><time>2026-03-28T11:14:06Z</time></trkpt><trkpt lat="44.84214496237392" lon="8.0109205892886"><ele>279.8</ele><time>2026-03-28T11:14:07Z</time></trkpt><trkpt lat="44.84223597373984" lon="8.010839705772238"><ele>281.0</ele><time>2026-03-28T11:14:08Z</time></trkpt><trkpt lat="44.84231927144769" lon="8.010755588376929"><ele>281.0</ele><time>2026-03-28T11:14:09Z</time></trkpt><trkpt lat="44.84241196197952" lon="8.010698606201586"><ele>281.0</ele><time>2026-03-28T11:14:10Z</time></trkpt><trkpt lat="44.84250113541739" lon="8.010613898801198"><ele>281.0</ele><time>2026-03-28T11:14:11Z</time></trkpt><trkpt lat="44.84259908492806" lon="8.01051252394632"><ele>281.0</ele><time>2026-03-28T11:14:12Z</time></trkpt><trkpt lat="44.84266624381385" lon="8.010356361599097"><ele>280.0</ele><time>2026-03-28T11:14:13Z</time></trkpt><trkpt lat="44.84277129486607" lon="8.01020044507275"><ele>279.0</ele><time>2026-03-28T11:14:14Z</time></trkpt><trkpt lat="44.842838903420926" lon="8.010089425846642"><ele>278.0</ele><time>2026-03-28T11:14:15Z</time></trkpt><trkpt lat="44.8429058144618" lon="8.009992217291028"><ele>277.0</ele><time>2026-03-28T11:14:16Z</time></trkpt><trkpt lat="44.84298200867752" lon="8.00991798303157"><ele>276.0</ele><time>2026-03-28T11:14:17Z</time></trkpt><trkpt lat="44.843082899577354" lon="8.00987352087704"><ele>277.25</ele><time>2026-03-28T11:14:18Z</time></trkpt><trkpt lat="44.843199213400965" lon="8.00982338909339"><ele>278.5</ele><time>2026-03-28T11:14:19Z</time></trkpt><trkpt lat="44.84333388146052" lon="8.009818662410135"><ele>279.75</ele><time>2026-03-28T11:14:20Z</time></trkpt><trkpt lat="44.84347709905688" lon="8.00980859001735"><ele>281.0</ele><time>2026-03-28T11:14:21Z</time></trkpt><trkpt lat="44.843616305392054" lon="8.009813853470263"><ele>281.0</ele><time>2026-03-28T11:14:22Z</time></trkpt><trkpt lat="44.84375034698045" lon="8.009772785161985"><ele>281.0</ele><time>2026-03-28T11:14:23Z</time></trkpt><trkpt lat="44.843886054560144" lon="8.009756419393957"><ele>281.0</ele><time>2026-03-28T11:14:24Z</time></trkpt><trkpt lat="44.8440177392937" lon="8.009737054061937"><ele>281.0</ele><time>2026-03-28T11:14:25Z</time></trkpt><trkpt lat="44.844147564131916" lon="8.009736902668827"><ele>281.0</ele><time>2026-03-28T11:14:26Z</time></trkpt><trkpt lat="44.844269984570474" lon="8.009749418463656"><ele>281.0</ele><time>2026-03-28T11:14:27Z</time></trkpt><trkpt lat="44.844382441221526" lon="8.009783688484559"><ele>281.0</ele><time>2026-03-28T11:14:28Z</time></trkpt><trkpt lat="44.844483724071026" lon="8.00981764075961"><ele>281.0</ele><time>2026-03-28T11:14:29Z</time></trkpt><trkpt lat="44.844575651789455" lon="8.009818951475125"><ele>281.0</ele><time>2026-03-28T11:14:30Z</time></trkpt><trkpt lat="44.844680027840795" lon="8.009792824579526"><ele>277.75</ele><time>2026-03-28T11:14:31Z</time></trkpt><trkpt lat="44.844787273268466" lon="8.009686250708242"><ele>274.5</ele><time>2026-03-28T11:14:32Z</time></trkpt><trkpt lat="44.8448671631046" lon="8.009570730445297"><ele>271.25</ele><time>2026-03-28T11:14:33Z</time></trkpt><trkpt lat="44.84496945611018" lon="8.009516217822902"><ele>268.0</ele><time>2026-03-28T11:14:34Z</time></trkpt><trkpt lat="44.845066894612685" lon="8.009477110734222"><ele>267.0</ele><time>2026-03-28T11:14:35Z</time></trkpt><trkpt lat="44.84515083216873" lon="8.009456421607357"><ele>266.0</ele><time>2026-03-28T11:14:36Z</time></trkpt><trkpt lat="44.84525512974225" lon="8.009454665024881"><ele>265.0</ele><time>2026-03-28T11:14:37Z</time></trkpt><trkpt lat="44.84536987221229" lon="8.009437295116758"><ele>264.0</ele><time>2026-03-28T11:14:38Z</time></trkpt><trkpt lat="44.84548256301167" lon="8.009338232821623"><ele>263.0</ele><time>2026-03-28T11:14:39Z</time></trkpt><trkpt lat="44.845578258350514" lon="8.009241680179139"><ele>263.0</ele><time>2026-03-28T11:14:40Z</time></trkpt><trkpt lat="44.84565690110012" lon="8.009184226935881"><ele>263.0</ele><time>2026-03-28T11:14:41Z</time></trkpt><trkpt lat="44.84576192173773" lon="8.009134161245402"><ele>263.0</ele><time>2026-03-28T11:14:42Z</time></trkpt><trkpt lat="44.845880970775546" lon="8.00915577098801"><ele>263.0</ele><time>2026-03-28T11:14:43Z</time></trkpt><trkpt lat="44.8459961811781" lon="8.009197253906144"><ele>263.0</ele><time>2026-03-28T11:14:44Z</time></trkpt><trkpt lat="44.846106795349996" lon="8.009200314781717"><ele>261.0</ele><time>2026-03-28T11:14:45Z</time></trkpt><trkpt lat="44.846229689563906" lon="8.0091879637692"><ele>259.0</ele><time>2026-03-28T11:14:46Z</time></trkpt><trkpt lat="44.84636397777098" lon="8.009094741893286"><ele>257.0</ele><time>2026-03-28T11:14:47Z</time></trkpt><trkpt lat="44.84649724193329" lon="8.008968118320986"><ele>255.0</ele><time>2026-03-28T11:14:48Z</time></trkpt><trkpt lat="44.84661015451987" lon="8.008814874483352"><ele>255.5</ele><time>2026-03-28T11:14:49Z</time></trkpt><trkpt lat="44.84670608193028" lon="8.008638518160067"><ele>256.0</ele><time>2026-03-28T11:14:50Z</time></trkpt><trkpt lat="44.84678622563846" lon="8.008490552083002"><ele>256.5</ele><time>2026-03-28T11:14:51Z</time></trkpt><trkpt lat="44.84686130683495" lon="8.008359741410322"><ele>257.0</ele><time>2026-03-28T11:14:52Z</time></trkpt><trkpt lat="44.84696993570776" lon="8.00828350459763"><ele>255.5</ele><time>2026-03-28T11:14:53Z</time></trkpt><trkpt lat="44.84708595473908" lon="8.008227272095247"><ele>254.0</ele><time>2026-03-28T11:14:54Z</time></trkpt><trkpt lat="44.8472017789729" lon="8.00815243816435"><ele>252.5</ele><time>2026-03-28T11:14:55Z</time></trkpt><trkpt lat="44.847312026846005" lon="8.008044956529599"><ele>251.0</ele><time>2026-03-28T11:14:56Z</time></trkpt><trkpt lat="44.847410852101405" lon="8.0079112023899"><ele>251.0</ele><time>2026-03-28T11:14:57Z</time></trkpt><trkpt lat="44.84749820571907" lon="8.007761012987789"><ele>251.0</ele><time>2026-03-28T11:14:58Z</time></trkpt><trkpt lat="44.84758048521152" lon="8.007584847432694"><ele>251.0</ele><time>2026-03-28T11:14:59Z</time></trkpt><trkpt lat="44.84764828460305" lon="8.007393340400295"><ele>251.0</ele><time>2026-03-28T11:15:00Z</time></trkpt><trkpt lat="44.84771042928574" lon="8.007164860885185"><ele>251.33333333333334</ele><time>2026-03-28T11:15:01Z</time></trkpt><trkpt lat="44.84776032211025" lon="8.006912875358692"><ele>251.66666666666669</ele><time>2026-03-28T11:15:02Z</time></trkpt><trkpt lat="44.84780400837535" lon="8.006702683446612"><ele>252.0</ele><time>2026-03-28T11:15:03Z</time></trkpt><trkpt lat="44.84785015147029" lon="8.00651035193219"><ele>250.0</ele><time>2026-03-28T11:15:04Z</time></trkpt><trkpt lat="44.84791203453297" lon="8.006351868764702"><ele>248.0</ele><time>2026-03-28T11:15:05Z</time></trkpt><trkpt lat="44.84799397764377" lon="8.006219790809812"><ele>246.0</ele><time>2026-03-28T11:15:06Z</time></trkpt><trkpt lat="44.84808712640202" lon="8.006106051897648"><ele>244.0</ele><time>2026-03-28T11:15:07Z</time></trkpt><trkpt lat="44.84818830105282" lon="8.00601252194798"><ele>244.0</ele><time>2026-03-28T11:15:08Z</time></trkpt><trkpt lat="44.848296978977615" lon="8.005945974512752"><ele>244.0</ele><time>2026-03-28T11:15:09Z</time></trkpt><trkpt lat="44.848413147963754" lon="8.005888154049254"><ele>244.0</ele><time>2026-03-28T11:15:10Z</time></trkpt><trkpt lat="44.84853673919198" lon="8.005830093441661"><ele>244.0</ele><time>2026-03-28T11:15:11Z</time></trkpt><trkpt lat="44.84866461703196" lon="8.00575938292541"><ele>245.0</ele><time>2026-03-28T11:15:12Z</time></trkpt><trkpt lat="44.84879808638484" lon="8.005670149907784"><ele>246.0</ele><time>2026-03-28T11:15:13Z</time></trkpt><trkpt lat="44.84892835255126" lon="8.005532105964921"><ele>247.0</ele><time>2026-03-28T11:15:14Z</time></trkpt><trkpt lat="44.84906490157254" lon="8.005377364480193"><ele>247.0</ele><time>2026-03-28T11:15:15Z</time></trkpt><trkpt lat="44.849204292281236" lon="8.0052149431761"><ele>247.0</ele><time>2026-03-28T11:15:16Z</time></trkpt><trkpt lat="44.84932540558793" lon="8.005057767006516"><ele>247.0</ele><time>2026-03-28T11:15:17Z</time></trkpt><trkpt lat="44.84945519648796" lon="8.004934111807081"><ele>244.75</ele><time>2026-03-28T11:15:18Z</time></trkpt><trkpt lat="44.849584015950064" lon="8.004826595854722"><ele>242.5</ele><time>2026-03-28T11:15:19Z</time></trkpt><trkpt lat="44.84971386808314" lon="8.00473465762917"><ele>240.25</ele><time>2026-03-28T11:15:20Z</time></trkpt><trkpt lat="44.84982915101427" lon="8.004604854392458"><ele>238.0</ele><time>2026-03-28T11:15:21Z</time></trkpt><trkpt lat="44.84991734784082" lon="8.004524251479015"><ele>238.0</ele><time>2026-03-28T11:15:22Z</time></trkpt><trkpt lat="44.85002521041283" lon="8.004439556040515"><ele>238.0</ele><time>2026-03-28T11:15:23Z</time></trkpt><trkpt lat="44.85012992238254" lon="8.004370490620495"><ele>238.0</ele><time>2026-03-28T11:15:24Z</time></trkpt><trkpt lat="44.850220036840696" lon="8.004316734814873"><ele>238.0</ele><time>2026-03-28T11:15:25Z</time></trkpt><trkpt lat="44.85028899855889" lon="8.004272727831154"><ele>238.0</ele><time>2026-03-28T11:15:26Z</time></trkpt><trkpt lat="44.850361086655965" lon="8.0042239997719"><ele>238.2</ele><time>2026-03-28T11:15:49Z</time></trkpt><trkpt lat="44.850479799378824" lon="8.004306128757536"><ele>238.4</ele><time>2026-03-28T11:15:51Z</time></trkpt><trkpt lat="44.85055176761999" lon="8.004329564232894"><ele>238.59999999999997</ele><time>2026-03-28T11:15:52Z</time></trkpt><trkpt lat="44.85064594261966" lon="8.00439113760496"><ele>238.79999999999998</ele><time>2026-03-28T11:15:53Z</time></trkpt><trkpt lat="44.85076194317942" lon="8.004456434326698"><ele>239.0</ele><time>2026-03-28T11:15:54Z</time></trkpt><trkpt lat="44.85087788495173" lon="8.004520222767809"><ele>238.0</ele><time>2026-03-28T11:15:55Z</time></trkpt><trkpt lat="44.85099606847734" lon="8.004593790722764"><ele>237.0</ele><time>2026-03-28T11:15:56Z</time></trkpt><trkpt lat="44.851130250901676" lon="8.004673347644662"><ele>236.0</ele><time>2026-03-28T11:15:57Z</time></trkpt><trkpt lat="44.85127465882339" lon="8.004760170318933"><ele>235.0</ele><time>2026-03-28T11:15:58Z</time></trkpt><trkpt lat="44.851416810881275" lon="8.004845725209389"><ele>235.0</ele><time>2026-03-28T11:15:59Z</time></trkpt><trkpt lat="44.85155823040123" lon="8.004918533830205"><ele>235.0</ele><time>2026-03-28T11:16:00Z</time></trkpt><trkpt lat="44.851699432058055" lon="8.004973064380712"><ele>235.0</ele><time>2026-03-28T11:16:01Z</time></trkpt><trkpt lat="44.85184587633909" lon="8.005020039272111"><ele>235.0</ele><time>2026-03-28T11:16:02Z</time></trkpt><trkpt lat="44.85199723176037" lon="8.005066575230677"><ele>235.33333333333331</ele><time>2026-03-28T11:16:03Z</time></trkpt><trkpt lat="44.85215620145947" lon="8.005112451451808"><ele>235.66666666666669</ele><time>2026-03-28T11:16:04Z</time></trkpt><trkpt lat="44.85231270295677" lon="8.005160483121179"><ele>236.0</ele><time>2026-03-28T11:16:05Z</time></trkpt><trkpt lat="44.85246462875484" lon="8.005206592950934"><ele>236.0</ele><time>2026-03-28T11:16:06Z</time></trkpt><trkpt lat="44.85261146587135" lon="8.005254619128992"><ele>236.0</ele><time>2026-03-28T11:16:07Z</time></trkpt><trkpt lat="44.85275476476699" lon="8.005298595512345"><ele>236.0</ele><time>2026-03-28T11:16:08Z</time></trkpt><trkpt lat="44.85289023342411" lon="8.005341798149512"><ele>236.0</ele><time>2026-03-28T11:16:09Z</time></trkpt><trkpt lat="44.853023003518175" lon="8.005382741922087"><ele>235.75</ele><time>2026-03-28T11:16:10Z</time></trkpt><trkpt lat="44.85315595458746" lon="8.005422753153933"><ele>235.5</ele><time>2026-03-28T11:16:11Z</time></trkpt><trkpt lat="44.85328798818496" lon="8.005460473501111"><ele>235.25</ele><time>2026-03-28T11:16:12Z</time></trkpt><trkpt lat="44.853409302427664" lon="8.005498898246831"><ele>235.0</ele><time>2026-03-28T11:16:13Z</time></trkpt><trkpt lat="44.85352122693989" lon="8.005533346862677"><ele>234.2</ele><time>2026-03-28T11:16:14Z</time></trkpt><trkpt lat="44.85362808153459" lon="8.005566168154338"><ele>233.4</ele><time>2026-03-28T11:16:15Z</time></trkpt><trkpt lat="44.85372640472631" lon="8.005595474032072"><ele>232.60000000000002</ele><time>2026-03-28T11:16:16Z</time></trkpt><trkpt lat="44.8538252441972" lon="8.005622251490191"><ele>231.8</ele><time>2026-03-28T11:16:17Z</time></trkpt><trkpt lat="44.85393223865138" lon="8.005647611212522"><ele>231.0</ele><time>2026-03-28T11:16:18Z</time></trkpt><trkpt lat="44.85403763728299" lon="8.005674064863676"><ele>231.0</ele><time>2026-03-28T11:16:19Z</time></trkpt><trkpt lat="44.8541381929717" lon="8.005703429288436"><ele>231.0</ele><time>2026-03-28T11:16:20Z</time></trkpt><trkpt lat="44.85422927104592" lon="8.005731087252599"><ele>231.0</ele><time>2026-03-28T11:16:21Z</time></trkpt><trkpt lat="44.854310651559636" lon="8.005754562240003"><ele>231.0</ele><time>2026-03-28T11:16:22Z</time></trkpt><trkpt lat="44.85438536800817" lon="8.005776813127621"><ele>231.0</ele><time>2026-03-28T11:16:23Z</time></trkpt><trkpt lat="44.8544500228307" lon="8.00581933427898"><ele>231.0</ele><time>2026-03-28T11:16:24Z</time></trkpt><trkpt lat="44.854526385758035" lon="8.005818133610008"><ele>230.83333333333334</ele><time>2026-03-28T11:16:25Z</time></trkpt><trkpt lat="44.85460180272839" lon="8.005839254013267"><ele>230.66666666666669</ele><time>2026-03-28T11:16:26Z</time></trkpt><trkpt lat="44.854675871844016" lon="8.005861488874459"><ele>230.5</ele><time>2026-03-28T11:16:27Z</time></trkpt><trkpt lat="44.85474785110584" lon="8.00590035103721"><ele>230.33333333333334</ele><time>2026-03-28T11:16:28Z</time></trkpt><trkpt lat="44.854824637961165" lon="8.00591995358497"><ele>230.16666666666669</ele><time>2026-03-28T11:16:29Z</time></trkpt><trkpt lat="44.85490552521758" lon="8.005936344131417"><ele>230.0</ele><time>2026-03-28T11:16:30Z</time></trkpt><trkpt lat="44.855000144858856" lon="8.005933280074666"><ele>230.0</ele><time>2026-03-28T11:16:31Z</time></trkpt><trkpt lat="44.855104226818696" lon="8.0059648102216"><ele>230.0</ele><time>2026-03-28T11:16:32Z</time></trkpt><trkpt lat="44.85521946725868" lon="8.005989080147447"><ele>230.0</ele><time>2026-03-28T11:16:33Z</time></trkpt><trkpt lat="44.85533193372913" lon="8.006005335778232"><ele>230.0</ele><time>2026-03-28T11:16:34Z</time></trkpt><trkpt lat="44.85545522897822" lon="8.006022270202882"><ele>229.75</ele><time>2026-03-28T11:16:35Z</time></trkpt><trkpt lat="44.85558482491377" lon="8.00604180472414"><ele>229.5</ele><time>2026-03-28T11:16:36Z</time></trkpt><trkpt lat="44.85572795600717" lon="8.006071256462842"><ele>229.25</ele><time>2026-03-28T11:16:37Z</time></trkpt><trkpt lat="44.85587961239457" lon="8.006100410117691"><ele>229.0</ele><time>2026-03-28T11:16:38Z</time></trkpt><trkpt lat="44.85603147767542" lon="8.006127306050496"><ele>229.0</ele><time>2026-03-28T11:16:39Z</time></trkpt><trkpt lat="44.85618844838652" lon="8.006152324612055"><ele>229.0</ele><time>2026-03-28T11:16:40Z</time></trkpt><trkpt lat="44.8563469731501" lon="8.00618238312817"><ele>229.0</ele><time>2026-03-28T11:16:41Z</time></trkpt><trkpt lat="44.85651242241493" lon="8.006216376828217"><ele>229.0</ele><time>2026-03-28T11:16:42Z</time></trkpt><trkpt lat="44.85668729343577" lon="8.006249215353632"><ele>229.0</ele><time>2026-03-28T11:16:43Z</time></trkpt><trkpt lat="44.85688829466624" lon="8.006271814778081"><ele>229.0</ele><time>2026-03-28T11:16:44Z</time></trkpt><trkpt lat="44.85707932540447" lon="8.006326521194781"><ele>228.33333333333331</ele><time>2026-03-28T11:16:45Z</time></trkpt><trkpt lat="44.85727434231234" lon="8.006347737155256"><ele>227.66666666666669</ele><time>2026-03-28T11:16:46Z</time></trkpt><trkpt lat="44.85746351851043" lon="8.006400383911703"><ele>227.0</ele><time>2026-03-28T11:16:47Z</time></trkpt><trkpt lat="44.857652260774536" lon="8.006442893188659"><ele>226.66666666666669</ele><time>2026-03-28T11:16:48Z</time></trkpt><trkpt lat="44.857836249188544" lon="8.006461320369313"><ele>226.33333333333331</ele><time>2026-03-28T11:16:49Z</time></trkpt><trkpt lat="44.85802838757446" lon="8.00649451435233"><ele>226.0</ele><time>2026-03-28T11:16:50Z</time></trkpt><trkpt lat="44.85822283846756" lon="8.006532861958867"><ele>226.0</ele><time>2026-03-28T11:16:51Z</time></trkpt><trkpt lat="44.85842212435919" lon="8.006567294359794"><ele>226.0</ele><time>2026-03-28T11:16:52Z</time></trkpt><trkpt lat="44.85862403198058" lon="8.0066049866774"><ele>226.0</ele><time>2026-03-28T11:16:53Z</time></trkpt><trkpt lat="44.858826934530875" lon="8.00664546320151"><ele>225.0</ele><time>2026-03-28T11:16:54Z</time></trkpt><trkpt lat="44.8590312400835" lon="8.006693599868386"><ele>224.0</ele><time>2026-03-28T11:16:55Z</time></trkpt><trkpt lat="44.85924077192885" lon="8.006757873284176"><ele>223.0</ele><time>2026-03-28T11:16:56Z</time></trkpt><trkpt lat="44.859457442424386" lon="8.006837877802122"><ele>222.66666666666666</ele><time>2026-03-28T11:16:57Z</time></trkpt><trkpt lat="44.85967525717696" lon="8.006917209424548"><ele>222.33333333333331</ele><time>2026-03-28T11:16:58Z</time></trkpt><trkpt lat="44.85988412428952" lon="8.006995325506924"><ele>222.0</ele><time>2026-03-28T11:16:59Z</time></trkpt><trkpt lat="44.860076208728415" lon="8.007063975747071"><ele>223.33333333333331</ele><time>2026-03-28T11:17:00Z</time></trkpt><trkpt lat="44.860261969908166" lon="8.007135163312402"><ele>224.66666666666666</ele><time>2026-03-28T11:17:01Z</time></trkpt><trkpt lat="44.860445917888576" lon="8.00720206450799"><ele>226.0</ele><time>2026-03-28T11:17:02Z</time></trkpt><trkpt lat="44.860624693369864" lon="8.007263731793257"><ele>226.0</ele><time>2026-03-28T11:17:03Z</time></trkpt><trkpt lat="44.86080229935764" lon="8.00733603725347"><ele>226.0</ele><time>2026-03-28T11:17:04Z</time></trkpt><trkpt lat="44.86096508897216" lon="8.007456577347801"><ele>226.0</ele><time>2026-03-28T11:17:05Z</time></trkpt><trkpt lat="44.861112277681286" lon="8.00760440630545"><ele>225.0</ele><time>2026-03-28T11:17:06Z</time></trkpt><trkpt lat="44.86125771380649" lon="8.007784148744797"><ele>224.0</ele><time>2026-03-28T11:17:07Z</time></trkpt><trkpt lat="44.86141472752424" lon="8.007979261948908"><ele>223.0</ele><time>2026-03-28T11:17:08Z</time></trkpt><trkpt lat="44.86157976816604" lon="8.008187787180157"><ele>222.33333333333331</ele><time>2026-03-28T11:17:09Z</time></trkpt><trkpt lat="44.861747390934184" lon="8.008397415886675"><ele>221.66666666666669</ele><time>2026-03-28T11:17:10Z</time></trkpt><trkpt lat="44.86191415041443" lon="8.008610582260898"><ele>221.0</ele><time>2026-03-28T11:17:11Z</time></trkpt><trkpt lat="44.862070381553394" lon="8.008803198587923"><ele>220.33333333333334</ele><time>2026-03-28T11:17:12Z</time></trkpt><trkpt lat="44.86223530014984" lon="8.008981487278096"><ele>219.66666666666669</ele><time>2026-03-28T11:17:13Z</time></trkpt><trkpt lat="44.862389520842314" lon="8.009175373753449"><ele>219.0</ele><time>2026-03-28T11:17:14Z</time></trkpt><trkpt lat="44.862542222125775" lon="8.009365419407057"><ele>218.0</ele><time>2026-03-28T11:17:15Z</time></trkpt><trkpt lat="44.86269231643519" lon="8.009552595265045"><ele>217.0</ele><time>2026-03-28T11:17:16Z</time></trkpt><trkpt lat="44.862838406833724" lon="8.009734964966484"><ele>216.0</ele><time>2026-03-28T11:17:17Z</time></trkpt><trkpt lat="44.86297723641871" lon="8.009905138104903"><ele>216.0</ele><time>2026-03-28T11:17:18Z</time></trkpt><trkpt lat="44.863104634619354" lon="8.010064444924858"><ele>216.0</ele><time>2026-03-28T11:17:19Z</time></trkpt><trkpt lat="44.86321462228727" lon="8.010209967794697"><ele>216.0</ele><time>2026-03-28T11:17:20Z</time></trkpt><trkpt lat="44.86331369552452" lon="8.0103390018149"><ele>216.0</ele><time>2026-03-28T11:17:21Z</time></trkpt><trkpt lat="44.863400525680774" lon="8.010441214643393"><ele>216.00000000000003</ele><time>2026-03-28T11:17:22Z</time></trkpt><trkpt lat="44.863490574654946" lon="8.010504813305571"><ele>216.00000000000003</ele><time>2026-03-28T11:17:23Z</time></trkpt><trkpt lat="44.86358736094809" lon="8.010514137378628"><ele>216.0</ele><time>2026-03-28T11:17:24Z</time></trkpt><trkpt lat="44.863681089754046" lon="8.0104793152056"><ele>216.0</ele><time>2026-03-28T11:17:25Z</time></trkpt><trkpt lat="44.86376723807043" lon="8.010391415756674"><ele>216.4</ele><time>2026-03-28T11:17:26Z</time></trkpt><trkpt lat="44.86383713918132" lon="8.010213315125709"><ele>216.8</ele><time>2026-03-28T11:17:27Z</time></trkpt><trkpt lat="44.86387544284203" lon="8.010056566980937"><ele>217.20000000000002</ele><time>2026-03-28T11:17:28Z</time></trkpt><trkpt lat="44.863953471676005" lon="8.009984800257305"><ele>217.60000000000002</ele><time>2026-03-28T11:17:29Z</time></trkpt><trkpt lat="44.86403602348332" lon="8.009939642859202"><ele>218.0</ele><time>2026-03-28T11:17:30Z</time></trkpt><trkpt lat="44.8641176655572" lon="8.009992891163938"><ele>218.0</ele><time>2026-03-28T11:17:31Z</time></trkpt><trkpt lat="44.86420539681" lon="8.010094587552926"><ele>218.0</ele><time>2026-03-28T11:17:32Z</time></trkpt><trkpt lat="44.86430148345738" lon="8.010246263566337"><ele>218.0</ele><time>2026-03-28T11:17:33Z</time></trkpt><trkpt lat="44.86438579734783" lon="8.010425717954384"><ele>218.0</ele><time>2026-03-28T11:17:34Z</time></trkpt><trkpt lat="44.86448742728582" lon="8.010607446457728"><ele>217.66666666666669</ele><time>2026-03-28T11:17:35Z</time></trkpt><trkpt lat="44.86461068354252" lon="8.010794159674743"><ele>217.33333333333331</ele><time>2026-03-28T11:17:36Z</time></trkpt><trkpt lat="44.864721645144485" lon="8.01097854673602"><ele>217.0</ele><time>2026-03-28T11:17:37Z</time></trkpt><trkpt lat="44.864837853511766" lon="8.011168736973165"><ele>217.0</ele><time>2026-03-28T11:17:38Z</time></trkpt><trkpt lat="44.86496552362048" lon="8.01137002965356"><ele>217.0</ele><time>2026-03-28T11:17:39Z</time></trkpt><trkpt lat="44.86509497611561" lon="8.011571451130452"><ele>217.0</ele><time>2026-03-28T11:17:40Z</time></trkpt><trkpt lat="44.86521250032575" lon="8.011762965918356"><ele>217.66666666666666</ele><time>2026-03-28T11:17:41Z</time></trkpt><trkpt lat="44.86533492392586" lon="8.011954483311122"><ele>218.33333333333331</ele><time>2026-03-28T11:17:42Z</time></trkpt><trkpt lat="44.86546355338186" lon="8.012153049783839"><ele>219.0</ele><time>2026-03-28T11:17:43Z</time></trkpt><trkpt lat="44.865586614945926" lon="8.012351442756692"><ele>219.66666666666669</ele><time>2026-03-28T11:17:44Z</time></trkpt><trkpt lat="44.865709431395494" lon="8.012558826742"><ele>220.33333333333334</ele><time>2026-03-28T11:17:45Z</time></trkpt><trkpt lat="44.865840752662145" lon="8.012774675631025"><ele>221.0</ele><time>2026-03-28T11:17:46Z</time></trkpt><trkpt lat="44.86598012496786" lon="8.013002570684888"><ele>222.33333333333334</ele><time>2026-03-28T11:17:47Z</time></trkpt><trkpt lat="44.866123802450616" lon="8.013233280672122"><ele>223.66666666666669</ele><time>2026-03-28T11:17:48Z</time></trkpt><trkpt lat="44.86626447747676" lon="8.013455797360477"><ele>225.0</ele><time>2026-03-28T11:17:49Z</time></trkpt><trkpt lat="44.86640252779356" lon="8.013671597028011"><ele>222.33333333333331</ele><time>2026-03-28T11:17:50Z</time></trkpt><trkpt lat="44.86653265442134" lon="8.013888907120332"><ele>219.66666666666666</ele><time>2026-03-28T11:17:51Z</time></trkpt><trkpt lat="44.86665850243766" lon="8.01409641190677"><ele>217.0</ele><time>2026-03-28T11:17:52Z</time></trkpt><trkpt lat="44.86677499804294" lon="8.01428695157146"><ele>216.0</ele><time>2026-03-28T11:17:53Z</time></trkpt><trkpt lat="44.86688511195105" lon="8.014463580357246"><ele>215.0</ele><time>2026-03-28T11:17:54Z</time></trkpt><trkpt lat="44.86698776414786" lon="8.014632194237166"><ele>214.0</ele><time>2026-03-28T11:17:55Z</time></trkpt><trkpt lat="44.86708747557963" lon="8.014789877258135"><ele>214.0</ele><time>2026-03-28T11:17:56Z</time></trkpt><trkpt lat="44.86719317548552" lon="8.014925772392406"><ele>214.0</ele><time>2026-03-28T11:17:57Z</time></trkpt><trkpt lat="44.867309830555854" lon="8.015029453392252"><ele>214.0</ele><time>2026-03-28T11:17:58Z</time></trkpt><trkpt lat="44.867445721890505" lon="8.01506579407773"><ele>214.0</ele><time>2026-03-28T11:17:59Z</time></trkpt><trkpt lat="44.86759683338306" lon="8.015068607124057"><ele>214.0</ele><time>2026-03-28T11:18:00Z</time></trkpt><trkpt lat="44.867757203399925" lon="8.015061492654105"><ele>214.0</ele><time>2026-03-28T11:18:01Z</time></trkpt><trkpt lat="44.86792582304391" lon="8.015045151048243"><ele>214.0</ele><time>2026-03-28T11:18:02Z</time></trkpt><trkpt lat="44.86810565612543" lon="8.01504543509232"><ele>214.0</ele><time>2026-03-28T11:18:03Z</time></trkpt><trkpt lat="44.86829370038522" lon="8.015037406570698"><ele>214.0</ele><time>2026-03-28T11:18:04Z</time></trkpt><trkpt lat="44.868487378389986" lon="8.015028277923367"><ele>214.0</ele><time>2026-03-28T11:18:05Z</time></trkpt><trkpt lat="44.86867621999018" lon="8.015020132497396"><ele>213.33333333333331</ele><time>2026-03-28T11:18:06Z</time></trkpt><trkpt lat="44.86885087842639" lon="8.015014866368674"><ele>212.66666666666669</ele><time>2026-03-28T11:18:07Z</time></trkpt><trkpt lat="44.86901562588911" lon="8.015011102801843"><ele>212.0</ele><time>2026-03-28T11:18:08Z</time></trkpt><trkpt lat="44.869167607959106" lon="8.015007455481879"><ele>212.0</ele><time>2026-03-28T11:18:09Z</time></trkpt><trkpt lat="44.86931055724646" lon="8.014990900070568"><ele>212.0</ele><time>2026-03-28T11:18:10Z</time></trkpt><trkpt lat="44.869441390702036" lon="8.014977715224848"><ele>212.0</ele><time>2026-03-28T11:18:11Z</time></trkpt><trkpt lat="44.86956649206691" lon="8.01497606768579"><ele>212.0</ele><time>2026-03-28T11:18:12Z</time></trkpt><trkpt lat="44.869696987690034" lon="8.014978520128773"><ele>212.0</ele><time>2026-03-28T11:18:13Z</time></trkpt><trkpt lat="44.86983665169796" lon="8.014988073649222"><ele>212.0</ele><time>2026-03-28T11:18:14Z</time></trkpt><trkpt lat="44.86997862721536" lon="8.01504332841045"><ele>212.0</ele><time>2026-03-28T11:18:15Z</time></trkpt><trkpt lat="44.870144149083096" lon="8.015097153340811"><ele>211.0</ele><time>2026-03-28T11:18:16Z</time></trkpt><trkpt lat="44.870316824761915" lon="8.015138038344737"><ele>210.0</ele><time>2026-03-28T11:18:17Z</time></trkpt><trkpt lat="44.87047863679236" lon="8.015199719289372"><ele>209.0</ele><time>2026-03-28T11:18:18Z</time></trkpt><trkpt lat="44.870616842735444" lon="8.015245317514676"><ele>209.0</ele><time>2026-03-28T11:18:19Z</time></trkpt><trkpt lat="44.870738770231235" lon="8.015286692264057"><ele>209.0</ele><time>2026-03-28T11:18:20Z</time></trkpt><trkpt lat="44.870827092332966" lon="8.015321673922177"><ele>209.0</ele><time>2026-03-28T11:18:21Z</time></trkpt><trkpt lat="44.87090027917049" lon="8.015340198084642"><ele>209.0</ele><time>2026-03-28T11:18:23Z</time></trkpt><trkpt lat="44.87097112391676" lon="8.015368585450823"><ele>209.0</ele><time>2026-03-28T11:18:26Z</time></trkpt><trkpt lat="44.87103430877052" lon="8.015254957322272"><ele>209.25</ele><time>2026-03-28T11:18:27Z</time></trkpt><trkpt lat="44.87108914857198" lon="8.015148958627314"><ele>209.5</ele><time>2026-03-28T11:18:28Z</time></trkpt><trkpt lat="44.87115482570149" lon="8.01504571351302"><ele>209.75</ele><time>2026-03-28T11:18:29Z</time></trkpt><trkpt lat="44.871252785719385" lon="8.01493188117511"><ele>210.0</ele><time>2026-03-28T11:18:30Z</time></trkpt><trkpt lat="44.871374995856904" lon="8.014858764033104"><ele>211.0</ele><time>2026-03-28T11:18:31Z</time></trkpt><trkpt lat="44.87150543095448" lon="8.014837841536954"><ele>212.0</ele><time>2026-03-28T11:18:32Z</time></trkpt><trkpt lat="44.871647252632556" lon="8.014808059105308"><ele>213.0</ele><time>2026-03-28T11:18:33Z</time></trkpt><trkpt lat="44.871802388944005" lon="8.014805309955946"><ele>214.0</ele><time>2026-03-28T11:18:34Z</time></trkpt><trkpt lat="44.87197216706964" lon="8.014812495223337"><ele>214.0</ele><time>2026-03-28T11:18:35Z</time></trkpt><trkpt lat="44.872155840032995" lon="8.014830599721611"><ele>214.0</ele><time>2026-03-28T11:18:36Z</time></trkpt><trkpt lat="44.87233780573534" lon="8.014828965555813"><ele>214.0</ele><time>2026-03-28T11:18:37Z</time></trkpt><trkpt lat="44.87252081818145" lon="8.014855442492726"><ele>213.66666666666666</ele><time>2026-03-28T11:18:38Z</time></trkpt><trkpt lat="44.872703765234846" lon="8.01487286858749"><ele>213.33333333333331</ele><time>2026-03-28T11:18:39Z</time></trkpt><trkpt lat="44.8728814333792" lon="8.01488628995818"><ele>213.0</ele><time>2026-03-28T11:18:40Z</time></trkpt><trkpt lat="44.87306094958615" lon="8.014896972665735"><ele>213.0</ele><time>2026-03-28T11:18:41Z</time></trkpt><trkpt lat="44.87325701602266" lon="8.014872245204772"><ele>213.0</ele><time>2026-03-28T11:18:42Z</time></trkpt><trkpt lat="44.87346059234806" lon="8.014834348078386"><ele>213.0</ele><time>2026-03-28T11:18:43Z</time></trkpt><trkpt lat="44.873665646614405" lon="8.014789443840948"><ele>213.0</ele><time>2026-03-28T11:18:44Z</time></trkpt><trkpt lat="44.87386966898584" lon="8.014731425925282"><ele>213.0</ele><time>2026-03-28T11:18:45Z</time></trkpt><trkpt lat="44.874078611454735" lon="8.014656936699094"><ele>213.0</ele><time>2026-03-28T11:18:46Z</time></trkpt><trkpt lat="44.87428254947152" lon="8.014560017784863"><ele>214.33333333333331</ele><time>2026-03-28T11:18:47Z</time></trkpt><trkpt lat="44.87447487188387" lon="8.014439677720643"><ele>215.66666666666666</ele><time>2026-03-28T11:18:48Z</time></trkpt><trkpt lat="44.874655930048974" lon="8.014293161101127"><ele>217.0</ele><time>2026-03-28T11:18:49Z</time></trkpt><trkpt lat="44.874822160777946" lon="8.014118480102807"><ele>217.0</ele><time>2026-03-28T11:18:50Z</time></trkpt><trkpt lat="44.874973918623404" lon="8.013915106225351"><ele>217.0</ele><time>2026-03-28T11:18:51Z</time></trkpt><trkpt lat="44.87510434154917" lon="8.013684621731327"><ele>217.0</ele><time>2026-03-28T11:18:52Z</time></trkpt><trkpt lat="44.875225509587935" lon="8.013438385896288"><ele>213.33333333333331</ele><time>2026-03-28T11:18:53Z</time></trkpt><trkpt lat="44.87535782955018" lon="8.01319831578931"><ele>209.66666666666669</ele><time>2026-03-28T11:18:54Z</time></trkpt><trkpt lat="44.87548036040437" lon="8.012956664619903"><ele>206.0</ele><time>2026-03-28T11:18:55Z</time></trkpt><trkpt lat="44.87559230320236" lon="8.012714598345488"><ele>206.0</ele><time>2026-03-28T11:18:56Z</time></trkpt><trkpt lat="44.875732566266876" lon="8.012509436421634"><ele>206.0</ele><time>2026-03-28T11:18:57Z</time></trkpt><trkpt lat="44.87586647410723" lon="8.012310282270654"><ele>206.0</ele><time>2026-03-28T11:18:58Z</time></trkpt><trkpt lat="44.87600032110485" lon="8.012123508728914"><ele>205.33333333333334</ele><time>2026-03-28T11:18:59Z</time></trkpt><trkpt lat="44.87612814167752" lon="8.011939263085285"><ele>204.66666666666669</ele><time>2026-03-28T11:19:00Z</time></trkpt><trkpt lat="44.87622813753391" lon="8.011750967465941"><ele>204.0</ele><time>2026-03-28T11:19:01Z</time></trkpt><trkpt lat="44.87633031081789" lon="8.01157912610113"><ele>204.0</ele><time>2026-03-28T11:19:02Z</time></trkpt><trkpt lat="44.87640550674263" lon="8.01137716291498"><ele>204.0</ele><time>2026-03-28T11:19:03Z</time></trkpt><trkpt lat="44.876454184603936" lon="8.011153983333461"><ele>204.0</ele><time>2026-03-28T11:19:04Z</time></trkpt><trkpt lat="44.87646889203833" lon="8.010908246578895"><ele>205.0</ele><time>2026-03-28T11:19:05Z</time></trkpt><trkpt lat="44.87646413689803" lon="8.010666651641342"><ele>206.0</ele><time>2026-03-28T11:19:06Z</time></trkpt><trkpt lat="44.87644312898044" lon="8.010425584920014"><ele>207.0</ele><time>2026-03-28T11:19:07Z</time></trkpt><trkpt lat="44.87641411742671" lon="8.010201454417228"><ele>207.0</ele><time>2026-03-28T11:19:08Z</time></trkpt><trkpt lat="44.87639332812012" lon="8.009993928906209"><ele>207.0</ele><time>2026-03-28T11:19:09Z</time></trkpt><trkpt lat="44.87636995532047" lon="8.009863206545758"><ele>207.0</ele><time>2026-03-28T11:19:10Z</time></trkpt><trkpt lat="44.87635882994513" lon="8.009741467274019"><ele>207.0</ele><time>2026-03-28T11:19:11Z</time></trkpt><trkpt lat="44.87634973036355" lon="8.00965222408399"><ele>207.0</ele><time>2026-03-28T11:19:12Z</time></trkpt><trkpt lat="44.876297197744286" lon="8.009518337558708"><ele>207.0</ele><time>2026-03-28T11:19:14Z</time></trkpt><trkpt lat="44.876186942162846" lon="8.0095369407359"><ele>207.0</ele><time>2026-03-28T11:19:17Z</time></trkpt><trkpt lat="44.876117237832446" lon="8.009545167873565"><ele>207.0</ele><time>2026-03-28T11:19:20Z</time></trkpt></trkseg></trk></gpx>